<?xml version="1.0" encoding="UTF-8" standalone="yes"?>
<gpx
 xmlns="http://www.topografix.com/GPX/1/1"
 creator="OziExplorer Version 3956f - http://www.oziexplorer.com"
 version="1.1"
 xmlns:xsi="http://www.w3.org/2001/XMLSchema-instance"
 xsi:schemaLocation="http://www.topografix.com/GPX/1/1 http://www.topografix.com/GPX/1/1/gpx.xsd">
<metadata>
 <time>2020-06-17T08:42:58Z</time>
 <bounds minlat="31.724987" minlon="35.071564" maxlat="31.753829" maxlon="35.137788"/>
</metadata>
<trk>
 <name>AbuGosh,kor,22km</name>
 <desc>barGiora-yadKennedy,37km.</desc>
<trkseg>
<trkpt lat="31.7344400" lon="35.0717700">
<ele>698.540649</ele>
<time>2015-07-10T04:24:27.999Z</time>
</trkpt>
<trkpt lat="31.7345400" lon="35.0716460">
<ele>697.077576</ele>
<time>2015-07-10T04:25:46.001Z</time>
</trkpt>
<trkpt lat="31.7345820" lon="35.0715640">
<ele>698.052917</ele>
<time>2015-07-10T04:26:13.001Z</time>
</trkpt>
<trkpt lat="31.7346630" lon="35.0715690">
<ele>697.565308</ele>
<time>2015-07-10T04:27:35.004Z</time>
</trkpt>
<trkpt lat="31.7346500" lon="35.0717210">
<ele>697.565308</ele>
<time>2015-07-10T04:27:54.003Z</time>
</trkpt>
<trkpt lat="31.7346320" lon="35.0718440">
<ele>697.077576</ele>
<time>2015-07-10T04:27:58.997Z</time>
</trkpt>
<trkpt lat="31.7346030" lon="35.0719530">
<ele>696.620422</ele>
<time>2015-07-10T04:28:02.997Z</time>
</trkpt>
<trkpt lat="31.7345790" lon="35.0720650">
<ele>696.620422</ele>
<time>2015-07-10T04:28:06.997Z</time>
</trkpt>
<trkpt lat="31.7345290" lon="35.0721620">
<ele>696.620422</ele>
<time>2015-07-10T04:28:10.998Z</time>
</trkpt>
<trkpt lat="31.7344710" lon="35.0722530">
<ele>696.620422</ele>
<time>2015-07-10T04:28:14.998Z</time>
</trkpt>
<trkpt lat="31.7344020" lon="35.0723670">
<ele>697.565308</ele>
<time>2015-07-10T04:28:20.001Z</time>
</trkpt>
<trkpt lat="31.7343540" lon="35.0724710">
<ele>697.565308</ele>
<time>2015-07-10T04:28:24.001Z</time>
</trkpt>
<trkpt lat="31.7342950" lon="35.0725790">
<ele>698.052917</ele>
<time>2015-07-10T04:28:29.004Z</time>
</trkpt>
<trkpt lat="31.7342300" lon="35.0726650">
<ele>698.052917</ele>
<time>2015-07-10T04:28:33.004Z</time>
</trkpt>
<trkpt lat="31.7341880" lon="35.0727690">
<ele>699.028320</ele>
<time>2015-07-10T04:28:37.998Z</time>
</trkpt>
<trkpt lat="31.7341320" lon="35.0728700">
<ele>699.485474</ele>
<time>2015-07-10T04:28:43.000Z</time>
</trkpt>
<trkpt lat="31.7340790" lon="35.0729750">
<ele>699.973206</ele>
<time>2015-07-10T04:28:48.003Z</time>
</trkpt>
<trkpt lat="31.7340200" lon="35.0730790">
<ele>700.948547</ele>
<time>2015-07-10T04:28:52.997Z</time>
</trkpt>
<trkpt lat="31.7339930" lon="35.0731930">
<ele>701.405762</ele>
<time>2015-07-10T04:28:57.999Z</time>
</trkpt>
<trkpt lat="31.7339550" lon="35.0733060">
<ele>702.381104</ele>
<time>2015-07-10T04:29:04.004Z</time>
</trkpt>
<trkpt lat="31.7339080" lon="35.0734150">
<ele>703.325989</ele>
<time>2015-07-10T04:29:10.000Z</time>
</trkpt>
<trkpt lat="31.7338640" lon="35.0735260">
<ele>703.325989</ele>
<time>2015-07-10T04:29:15.996Z</time>
</trkpt>
<trkpt lat="31.7338450" lon="35.0736450">
<ele>704.301331</ele>
<time>2015-07-10T04:29:22.001Z</time>
</trkpt>
<trkpt lat="31.7338180" lon="35.0737680">
<ele>704.789063</ele>
<time>2015-07-10T04:29:27.997Z</time>
</trkpt>
<trkpt lat="31.7337890" lon="35.0738790">
<ele>705.246277</ele>
<time>2015-07-10T04:29:34.002Z</time>
</trkpt>
<trkpt lat="31.7337400" lon="35.0739780">
<ele>706.221619</ele>
<time>2015-07-10T04:29:39.998Z</time>
</trkpt>
<trkpt lat="31.7336910" lon="35.0740840">
<ele>706.221619</ele>
<time>2015-07-10T04:29:46.003Z</time>
</trkpt>
<trkpt lat="31.7336480" lon="35.0741900">
<ele>706.709290</ele>
<time>2015-07-10T04:29:51.999Z</time>
</trkpt>
<trkpt lat="31.7335970" lon="35.0742990">
<ele>707.196960</ele>
<time>2015-07-10T04:29:58.004Z</time>
</trkpt>
<trkpt lat="31.7335590" lon="35.0744140">
<ele>708.141846</ele>
<time>2015-07-10T04:30:04.000Z</time>
</trkpt>
<trkpt lat="31.7335120" lon="35.0745320">
<ele>708.629517</ele>
<time>2015-07-10T04:30:09.996Z</time>
</trkpt>
<trkpt lat="31.7334880" lon="35.0746350">
<ele>709.117188</ele>
<time>2015-07-10T04:30:14.999Z</time>
</trkpt>
<trkpt lat="31.7334480" lon="35.0747490">
<ele>709.604919</ele>
<time>2015-07-10T04:30:21.004Z</time>
</trkpt>
<trkpt lat="31.7334190" lon="35.0748540">
<ele>709.604919</ele>
<time>2015-07-10T04:30:25.998Z</time>
</trkpt>
<trkpt lat="31.7333990" lon="35.0749760">
<ele>709.604919</ele>
<time>2015-07-10T04:30:31.000Z</time>
</trkpt>
<trkpt lat="31.7333850" lon="35.0750970">
<ele>709.604919</ele>
<time>2015-07-10T04:30:37.999Z</time>
</trkpt>
<trkpt lat="31.7332900" lon="35.0750780">
<ele>709.117188</ele>
<time>2015-07-10T04:30:45.999Z</time>
</trkpt>
<trkpt lat="31.7332080" lon="35.0750600">
<ele>708.629517</ele>
<time>2015-07-10T04:30:55.996Z</time>
</trkpt>
<trkpt lat="31.7331380" lon="35.0750630">
<ele>708.629517</ele>
<time>2015-07-10T04:31:23.998Z</time>
</trkpt>
<trkpt lat="31.7330930" lon="35.0751880">
<ele>707.684631</ele>
<time>2015-07-10T04:31:34.997Z</time>
</trkpt>
<trkpt lat="31.7330630" lon="35.0752970">
<ele>706.709290</ele>
<time>2015-07-10T04:31:42.004Z</time>
</trkpt>
<trkpt lat="31.7329850" lon="35.0753870">
<ele>706.709290</ele>
<time>2015-07-10T04:31:49.002Z</time>
</trkpt>
<trkpt lat="31.7329250" lon="35.0754820">
<ele>705.764404</ele>
<time>2015-07-10T04:31:52.000Z</time>
</trkpt>
<trkpt lat="31.7328470" lon="35.0755930">
<ele>705.246277</ele>
<time>2015-07-10T04:31:54.998Z</time>
</trkpt>
<trkpt lat="31.7327810" lon="35.0757050">
<ele>704.789063</ele>
<time>2015-07-10T04:31:57.996Z</time>
</trkpt>
<trkpt lat="31.7327130" lon="35.0758080">
<ele>704.301331</ele>
<time>2015-07-10T04:32:01.003Z</time>
</trkpt>
<trkpt lat="31.7326410" lon="35.0759180">
<ele>703.325989</ele>
<time>2015-07-10T04:32:04.001Z</time>
</trkpt>
<trkpt lat="31.7325710" lon="35.0760120">
<ele>702.381104</ele>
<time>2015-07-10T04:32:06.999Z</time>
</trkpt>
<trkpt lat="31.7325100" lon="35.0760900">
<ele>702.381104</ele>
<time>2015-07-10T04:32:09.997Z</time>
</trkpt>
<trkpt lat="31.7324490" lon="35.0761750">
<ele>701.405762</ele>
<time>2015-07-10T04:32:13.004Z</time>
</trkpt>
<trkpt lat="31.7323770" lon="35.0762660">
<ele>700.460938</ele>
<time>2015-07-10T04:32:16.996Z</time>
</trkpt>
<trkpt lat="31.7323230" lon="35.0763550">
<ele>699.973206</ele>
<time>2015-07-10T04:32:24.003Z</time>
</trkpt>
<trkpt lat="31.7322430" lon="35.0764560">
<ele>699.028320</ele>
<time>2015-07-10T04:32:29.999Z</time>
</trkpt>
<trkpt lat="31.7321870" lon="35.0765570">
<ele>697.565308</ele>
<time>2015-07-10T04:32:33.999Z</time>
</trkpt>
<trkpt lat="31.7320960" lon="35.0766510">
<ele>696.132690</ele>
<time>2015-07-10T04:32:38.000Z</time>
</trkpt>
<trkpt lat="31.7320160" lon="35.0767210">
<ele>695.645081</ele>
<time>2015-07-10T04:32:40.998Z</time>
</trkpt>
<trkpt lat="31.7319280" lon="35.0767940">
<ele>694.700134</ele>
<time>2015-07-10T04:32:44.998Z</time>
</trkpt>
<trkpt lat="31.7318460" lon="35.0768910">
<ele>693.724792</ele>
<time>2015-07-10T04:32:48.998Z</time>
</trkpt>
<trkpt lat="31.7317830" lon="35.0769740">
<ele>692.779907</ele>
<time>2015-07-10T04:32:51.996Z</time>
</trkpt>
<trkpt lat="31.7317170" lon="35.0770640">
<ele>691.804565</ele>
<time>2015-07-10T04:32:55.003Z</time>
</trkpt>
<trkpt lat="31.7316210" lon="35.0771770">
<ele>691.804565</ele>
<time>2015-07-10T04:32:58.001Z</time>
</trkpt>
<trkpt lat="31.7315640" lon="35.0772680">
<ele>690.829224</ele>
<time>2015-07-10T04:32:59.997Z</time>
</trkpt>
<trkpt lat="31.7315110" lon="35.0774080">
<ele>689.884277</ele>
<time>2015-07-10T04:33:03.004Z</time>
</trkpt>
<trkpt lat="31.7315010" lon="35.0775390">
<ele>689.884277</ele>
<time>2015-07-10T04:33:06.002Z</time>
</trkpt>
<trkpt lat="31.7314940" lon="35.0776710">
<ele>688.908936</ele>
<time>2015-07-10T04:33:09.000Z</time>
</trkpt>
<trkpt lat="31.7314910" lon="35.0778050">
<ele>687.476379</ele>
<time>2015-07-10T04:33:11.998Z</time>
</trkpt>
<trkpt lat="31.7314880" lon="35.0779410">
<ele>686.043884</ele>
<time>2015-07-10T04:33:14.996Z</time>
</trkpt>
<trkpt lat="31.7314680" lon="35.0780940">
<ele>686.043884</ele>
<time>2015-07-10T04:33:18.003Z</time>
</trkpt>
<trkpt lat="31.7314660" lon="35.0782460">
<ele>685.556152</ele>
<time>2015-07-10T04:33:21.001Z</time>
</trkpt>
<trkpt lat="31.7314520" lon="35.0783810">
<ele>685.068481</ele>
<time>2015-07-10T04:33:23.999Z</time>
</trkpt>
<trkpt lat="31.7314490" lon="35.0784990">
<ele>685.556152</ele>
<time>2015-07-10T04:33:26.997Z</time>
</trkpt>
<trkpt lat="31.7314420" lon="35.0786220">
<ele>685.556152</ele>
<time>2015-07-10T04:33:30.004Z</time>
</trkpt>
<trkpt lat="31.7314340" lon="35.0787450">
<ele>685.556152</ele>
<time>2015-07-10T04:33:33.002Z</time>
</trkpt>
<trkpt lat="31.7314300" lon="35.0788830">
<ele>686.531494</ele>
<time>2015-07-10T04:33:37.002Z</time>
</trkpt>
<trkpt lat="31.7314340" lon="35.0790250">
<ele>686.043884</ele>
<time>2015-07-10T04:33:41.003Z</time>
</trkpt>
<trkpt lat="31.7314160" lon="35.0791650">
<ele>686.043884</ele>
<time>2015-07-10T04:33:44.001Z</time>
</trkpt>
<trkpt lat="31.7313780" lon="35.0793050">
<ele>685.556152</ele>
<time>2015-07-10T04:33:46.999Z</time>
</trkpt>
<trkpt lat="31.7313450" lon="35.0794390">
<ele>685.068481</ele>
<time>2015-07-10T04:33:49.997Z</time>
</trkpt>
<trkpt lat="31.7313180" lon="35.0795730">
<ele>685.068481</ele>
<time>2015-07-10T04:33:53.004Z</time>
</trkpt>
<trkpt lat="31.7312960" lon="35.0797010">
<ele>684.611328</ele>
<time>2015-07-10T04:33:56.002Z</time>
</trkpt>
<trkpt lat="31.7312700" lon="35.0798310">
<ele>685.068481</ele>
<time>2015-07-10T04:34:00.002Z</time>
</trkpt>
<trkpt lat="31.7312480" lon="35.0799590">
<ele>685.068481</ele>
<time>2015-07-10T04:34:04.002Z</time>
</trkpt>
<trkpt lat="31.7312320" lon="35.0800660">
<ele>685.068481</ele>
<time>2015-07-10T04:34:07.000Z</time>
</trkpt>
<trkpt lat="31.7312090" lon="35.0801850">
<ele>684.611328</ele>
<time>2015-07-10T04:34:09.998Z</time>
</trkpt>
<trkpt lat="31.7311850" lon="35.0803230">
<ele>684.123596</ele>
<time>2015-07-10T04:34:12.996Z</time>
</trkpt>
<trkpt lat="31.7311570" lon="35.0804410">
<ele>684.123596</ele>
<time>2015-07-10T04:34:16.003Z</time>
</trkpt>
<trkpt lat="31.7311740" lon="35.0805350">
<ele>684.611328</ele>
<time>2015-07-10T04:34:23.002Z</time>
</trkpt>
<trkpt lat="31.7312750" lon="35.0806000">
<ele>682.660522</ele>
<time>2015-07-10T04:34:59.998Z</time>
</trkpt>
<trkpt lat="31.7313820" lon="35.0806540">
<ele>680.740295</ele>
<time>2015-07-10T04:35:03.998Z</time>
</trkpt>
<trkpt lat="31.7314950" lon="35.0806690">
<ele>680.283081</ele>
<time>2015-07-10T04:35:06.996Z</time>
</trkpt>
<trkpt lat="31.7315970" lon="35.0806950">
<ele>679.795471</ele>
<time>2015-07-10T04:35:10.003Z</time>
</trkpt>
<trkpt lat="31.7316960" lon="35.0807270">
<ele>678.362915</ele>
<time>2015-07-10T04:35:13.001Z</time>
</trkpt>
<trkpt lat="31.7318060" lon="35.0807390">
<ele>677.387512</ele>
<time>2015-07-10T04:35:15.999Z</time>
</trkpt>
<trkpt lat="31.7319200" lon="35.0807560">
<ele>676.412170</ele>
<time>2015-07-10T04:35:18.997Z</time>
</trkpt>
<trkpt lat="31.7320370" lon="35.0807750">
<ele>675.954956</ele>
<time>2015-07-10T04:35:22.004Z</time>
</trkpt>
<trkpt lat="31.7321420" lon="35.0807930">
<ele>675.467285</ele>
<time>2015-07-10T04:35:25.002Z</time>
</trkpt>
<trkpt lat="31.7322330" lon="35.0808130">
<ele>674.491882</ele>
<time>2015-07-10T04:35:28.000Z</time>
</trkpt>
<trkpt lat="31.7323490" lon="35.0808270">
<ele>673.059326</ele>
<time>2015-07-10T04:35:32.001Z</time>
</trkpt>
<trkpt lat="31.7324410" lon="35.0808360">
<ele>672.114502</ele>
<time>2015-07-10T04:35:36.001Z</time>
</trkpt>
<trkpt lat="31.7325390" lon="35.0808670">
<ele>671.139099</ele>
<time>2015-07-10T04:35:44.002Z</time>
</trkpt>
<trkpt lat="31.7326450" lon="35.0808780">
<ele>669.706543</ele>
<time>2015-07-10T04:35:56.996Z</time>
</trkpt>
<trkpt lat="31.7327410" lon="35.0808990">
<ele>668.731201</ele>
<time>2015-07-10T04:36:04.003Z</time>
</trkpt>
<trkpt lat="31.7328250" lon="35.0809450">
<ele>666.810974</ele>
<time>2015-07-10T04:36:12.997Z</time>
</trkpt>
<trkpt lat="31.7329150" lon="35.0809890">
<ele>664.890686</ele>
<time>2015-07-10T04:36:19.996Z</time>
</trkpt>
<trkpt lat="31.7329980" lon="35.0810690">
<ele>662.970520</ele>
<time>2015-07-10T04:36:26.001Z</time>
</trkpt>
<trkpt lat="31.7330630" lon="35.0811650">
<ele>661.050232</ele>
<time>2015-07-10T04:36:31.997Z</time>
</trkpt>
<trkpt lat="31.7331280" lon="35.0812630">
<ele>660.074890</ele>
<time>2015-07-10T04:36:36.999Z</time>
</trkpt>
<trkpt lat="31.7331840" lon="35.0813600">
<ele>659.587219</ele>
<time>2015-07-10T04:36:42.002Z</time>
</trkpt>
<trkpt lat="31.7332500" lon="35.0814560">
<ele>658.154663</ele>
<time>2015-07-10T04:36:46.996Z</time>
</trkpt>
<trkpt lat="31.7333050" lon="35.0815590">
<ele>656.722107</ele>
<time>2015-07-10T04:36:50.003Z</time>
</trkpt>
<trkpt lat="31.7333390" lon="35.0816820">
<ele>655.746704</ele>
<time>2015-07-10T04:36:54.003Z</time>
</trkpt>
<trkpt lat="31.7333400" lon="35.0817980">
<ele>656.234375</ele>
<time>2015-07-10T04:37:01.001Z</time>
</trkpt>
<trkpt lat="31.7333370" lon="35.0819360">
<ele>657.666931</ele>
<time>2015-07-10T04:37:10.998Z</time>
</trkpt>
<trkpt lat="31.7333160" lon="35.0820570">
<ele>656.722107</ele>
<time>2015-07-10T04:37:56.004Z</time>
</trkpt>
<trkpt lat="31.7332990" lon="35.0821380">
<ele>657.666931</ele>
<time>2015-07-10T04:38:53.002Z</time>
</trkpt>
<trkpt lat="31.7332860" lon="35.0822650">
<ele>657.666931</ele>
<time>2015-07-10T04:38:57.002Z</time>
</trkpt>
<trkpt lat="31.7332710" lon="35.0823880">
<ele>658.154663</ele>
<time>2015-07-10T04:39:00.000Z</time>
</trkpt>
<trkpt lat="31.7332640" lon="35.0825130">
<ele>657.666931</ele>
<time>2015-07-10T04:39:02.998Z</time>
</trkpt>
<trkpt lat="31.7332380" lon="35.0826220">
<ele>658.642273</ele>
<time>2015-07-10T04:39:05.996Z</time>
</trkpt>
<trkpt lat="31.7332090" lon="35.0827570">
<ele>659.130005</ele>
<time>2015-07-10T04:39:09.996Z</time>
</trkpt>
<trkpt lat="31.7331760" lon="35.0828720">
<ele>659.587219</ele>
<time>2015-07-10T04:39:13.997Z</time>
</trkpt>
<trkpt lat="31.7331340" lon="35.0829900">
<ele>660.562561</ele>
<time>2015-07-10T04:39:17.997Z</time>
</trkpt>
<trkpt lat="31.7330920" lon="35.0831160">
<ele>661.050232</ele>
<time>2015-07-10T04:39:21.997Z</time>
</trkpt>
<trkpt lat="31.7330440" lon="35.0832440">
<ele>661.050232</ele>
<time>2015-07-10T04:39:25.998Z</time>
</trkpt>
<trkpt lat="31.7329920" lon="35.0833590">
<ele>661.050232</ele>
<time>2015-07-10T04:39:29.998Z</time>
</trkpt>
<trkpt lat="31.7329410" lon="35.0834580">
<ele>661.995117</ele>
<time>2015-07-10T04:39:33.998Z</time>
</trkpt>
<trkpt lat="31.7329040" lon="35.0835630">
<ele>662.482788</ele>
<time>2015-07-10T04:39:37.999Z</time>
</trkpt>
<trkpt lat="31.7328590" lon="35.0836660">
<ele>662.970520</ele>
<time>2015-07-10T04:39:41.999Z</time>
</trkpt>
<trkpt lat="31.7328210" lon="35.0837770">
<ele>662.970520</ele>
<time>2015-07-10T04:39:45.999Z</time>
</trkpt>
<trkpt lat="31.7327900" lon="35.0838850">
<ele>663.458130</ele>
<time>2015-07-10T04:39:50.000Z</time>
</trkpt>
<trkpt lat="31.7327470" lon="35.0839930">
<ele>663.915344</ele>
<time>2015-07-10T04:39:54.000Z</time>
</trkpt>
<trkpt lat="31.7327020" lon="35.0840910">
<ele>664.403076</ele>
<time>2015-07-10T04:39:59.003Z</time>
</trkpt>
<trkpt lat="31.7326630" lon="35.0842040">
<ele>664.403076</ele>
<time>2015-07-10T04:40:06.001Z</time>
</trkpt>
<trkpt lat="31.7326450" lon="35.0843580">
<ele>662.970520</ele>
<time>2015-07-10T04:40:10.001Z</time>
</trkpt>
<trkpt lat="31.7326320" lon="35.0844710">
<ele>662.482788</ele>
<time>2015-07-10T04:40:11.997Z</time>
</trkpt>
<trkpt lat="31.7326120" lon="35.0845880">
<ele>661.995117</ele>
<time>2015-07-10T04:40:14.002Z</time>
</trkpt>
<trkpt lat="31.7325830" lon="35.0847020">
<ele>661.995117</ele>
<time>2015-07-10T04:40:15.997Z</time>
</trkpt>
<trkpt lat="31.7325440" lon="35.0848510">
<ele>661.995117</ele>
<time>2015-07-10T04:40:19.004Z</time>
</trkpt>
<trkpt lat="31.7325100" lon="35.0849720">
<ele>662.482788</ele>
<time>2015-07-10T04:40:22.002Z</time>
</trkpt>
<trkpt lat="31.7324800" lon="35.0850840">
<ele>662.970520</ele>
<time>2015-07-10T04:40:25.000Z</time>
</trkpt>
<trkpt lat="31.7324370" lon="35.0851920">
<ele>663.915344</ele>
<time>2015-07-10T04:40:29.001Z</time>
</trkpt>
<trkpt lat="31.7324050" lon="35.0853170">
<ele>664.890686</ele>
<time>2015-07-10T04:40:35.999Z</time>
</trkpt>
<trkpt lat="31.7323650" lon="35.0854350">
<ele>664.890686</ele>
<time>2015-07-10T04:40:39.999Z</time>
</trkpt>
<trkpt lat="31.7323230" lon="35.0855630">
<ele>664.403076</ele>
<time>2015-07-10T04:40:44.000Z</time>
</trkpt>
<trkpt lat="31.7322770" lon="35.0856710">
<ele>664.403076</ele>
<time>2015-07-10T04:40:46.998Z</time>
</trkpt>
<trkpt lat="31.7322140" lon="35.0857900">
<ele>663.915344</ele>
<time>2015-07-10T04:40:49.996Z</time>
</trkpt>
<trkpt lat="31.7321300" lon="35.0858940">
<ele>663.915344</ele>
<time>2015-07-10T04:40:53.003Z</time>
</trkpt>
<trkpt lat="31.7320440" lon="35.0859730">
<ele>663.915344</ele>
<time>2015-07-10T04:40:56.001Z</time>
</trkpt>
<trkpt lat="31.7319690" lon="35.0860500">
<ele>663.915344</ele>
<time>2015-07-10T04:40:58.999Z</time>
</trkpt>
<trkpt lat="31.7319080" lon="35.0861340">
<ele>664.403076</ele>
<time>2015-07-10T04:41:01.997Z</time>
</trkpt>
<trkpt lat="31.7318490" lon="35.0862470">
<ele>664.403076</ele>
<time>2015-07-10T04:41:05.004Z</time>
</trkpt>
<trkpt lat="31.7317770" lon="35.0863580">
<ele>664.403076</ele>
<time>2015-07-10T04:41:08.002Z</time>
</trkpt>
<trkpt lat="31.7316960" lon="35.0864470">
<ele>664.403076</ele>
<time>2015-07-10T04:41:11.000Z</time>
</trkpt>
<trkpt lat="31.7316110" lon="35.0865300">
<ele>664.403076</ele>
<time>2015-07-10T04:41:13.998Z</time>
</trkpt>
<trkpt lat="31.7315210" lon="35.0866150">
<ele>663.915344</ele>
<time>2015-07-10T04:41:16.996Z</time>
</trkpt>
<trkpt lat="31.7314340" lon="35.0866650">
<ele>663.915344</ele>
<time>2015-07-10T04:41:20.003Z</time>
</trkpt>
<trkpt lat="31.7313290" lon="35.0867010">
<ele>663.915344</ele>
<time>2015-07-10T04:41:24.003Z</time>
</trkpt>
<trkpt lat="31.7312380" lon="35.0867070">
<ele>664.890686</ele>
<time>2015-07-10T04:41:28.997Z</time>
</trkpt>
<trkpt lat="31.7311390" lon="35.0867140">
<ele>666.323303</ele>
<time>2015-07-10T04:41:36.004Z</time>
</trkpt>
<trkpt lat="31.7310510" lon="35.0867740">
<ele>667.298645</ele>
<time>2015-07-10T04:41:43.996Z</time>
</trkpt>
<trkpt lat="31.7309930" lon="35.0868690">
<ele>668.243469</ele>
<time>2015-07-10T04:41:50.001Z</time>
</trkpt>
<trkpt lat="31.7309520" lon="35.0869690">
<ele>668.731201</ele>
<time>2015-07-10T04:41:55.997Z</time>
</trkpt>
<trkpt lat="31.7309190" lon="35.0870950">
<ele>669.706543</ele>
<time>2015-07-10T04:42:02.002Z</time>
</trkpt>
<trkpt lat="31.7308790" lon="35.0872240">
<ele>671.139099</ele>
<time>2015-07-10T04:42:09.000Z</time>
</trkpt>
<trkpt lat="31.7308350" lon="35.0873320">
<ele>671.626770</ele>
<time>2015-07-10T04:42:14.996Z</time>
</trkpt>
<trkpt lat="31.7307780" lon="35.0874450">
<ele>672.571716</ele>
<time>2015-07-10T04:42:21.001Z</time>
</trkpt>
<trkpt lat="31.7307120" lon="35.0875420">
<ele>673.059326</ele>
<time>2015-07-10T04:42:26.997Z</time>
</trkpt>
<trkpt lat="31.7306540" lon="35.0876450">
<ele>673.547058</ele>
<time>2015-07-10T04:42:34.004Z</time>
</trkpt>
<trkpt lat="31.7305980" lon="35.0877450">
<ele>674.034668</ele>
<time>2015-07-10T04:42:41.003Z</time>
</trkpt>
<trkpt lat="31.7305310" lon="35.0878490">
<ele>674.491882</ele>
<time>2015-07-10T04:42:48.001Z</time>
</trkpt>
<trkpt lat="31.7304840" lon="35.0879480">
<ele>674.979614</ele>
<time>2015-07-10T04:42:53.004Z</time>
</trkpt>
<trkpt lat="31.7304180" lon="35.0880530">
<ele>674.979614</ele>
<time>2015-07-10T04:42:57.997Z</time>
</trkpt>
<trkpt lat="31.7303500" lon="35.0881720">
<ele>674.979614</ele>
<time>2015-07-10T04:43:03.000Z</time>
</trkpt>
<trkpt lat="31.7302860" lon="35.0882830">
<ele>674.979614</ele>
<time>2015-07-10T04:43:07.000Z</time>
</trkpt>
<trkpt lat="31.7302290" lon="35.0883790">
<ele>674.491882</ele>
<time>2015-07-10T04:43:09.998Z</time>
</trkpt>
<trkpt lat="31.7301630" lon="35.0884690">
<ele>674.979614</ele>
<time>2015-07-10T04:43:12.996Z</time>
</trkpt>
<trkpt lat="31.7301030" lon="35.0885450">
<ele>674.979614</ele>
<time>2015-07-10T04:43:16.003Z</time>
</trkpt>
<trkpt lat="31.7300230" lon="35.0886350">
<ele>674.979614</ele>
<time>2015-07-10T04:43:20.004Z</time>
</trkpt>
<trkpt lat="31.7299510" lon="35.0887220">
<ele>674.979614</ele>
<time>2015-07-10T04:43:24.004Z</time>
</trkpt>
<trkpt lat="31.7298700" lon="35.0888140">
<ele>675.467285</ele>
<time>2015-07-10T04:43:28.004Z</time>
</trkpt>
<trkpt lat="31.7297950" lon="35.0889030">
<ele>675.467285</ele>
<time>2015-07-10T04:43:31.996Z</time>
</trkpt>
<trkpt lat="31.7297220" lon="35.0889960">
<ele>675.467285</ele>
<time>2015-07-10T04:43:35.996Z</time>
</trkpt>
<trkpt lat="31.7296610" lon="35.0890800">
<ele>675.467285</ele>
<time>2015-07-10T04:43:39.003Z</time>
</trkpt>
<trkpt lat="31.7295940" lon="35.0891690">
<ele>675.467285</ele>
<time>2015-07-10T04:43:42.001Z</time>
</trkpt>
<trkpt lat="31.7295270" lon="35.0892600">
<ele>675.467285</ele>
<time>2015-07-10T04:43:44.999Z</time>
</trkpt>
<trkpt lat="31.7294550" lon="35.0893520">
<ele>675.467285</ele>
<time>2015-07-10T04:43:47.997Z</time>
</trkpt>
<trkpt lat="31.7293810" lon="35.0894460">
<ele>675.954956</ele>
<time>2015-07-10T04:43:51.004Z</time>
</trkpt>
<trkpt lat="31.7293000" lon="35.0895410">
<ele>675.954956</ele>
<time>2015-07-10T04:43:54.002Z</time>
</trkpt>
<trkpt lat="31.7292260" lon="35.0896400">
<ele>676.412170</ele>
<time>2015-07-10T04:43:57.000Z</time>
</trkpt>
<trkpt lat="31.7291530" lon="35.0897280">
<ele>676.412170</ele>
<time>2015-07-10T04:43:59.998Z</time>
</trkpt>
<trkpt lat="31.7290850" lon="35.0898100">
<ele>676.412170</ele>
<time>2015-07-10T04:44:02.996Z</time>
</trkpt>
<trkpt lat="31.7290120" lon="35.0898870">
<ele>677.387512</ele>
<time>2015-07-10T04:44:06.003Z</time>
</trkpt>
<trkpt lat="31.7289450" lon="35.0899610">
<ele>677.387512</ele>
<time>2015-07-10T04:44:09.001Z</time>
</trkpt>
<trkpt lat="31.7288670" lon="35.0900490">
<ele>677.387512</ele>
<time>2015-07-10T04:44:13.001Z</time>
</trkpt>
<trkpt lat="31.7288250" lon="35.0901510">
<ele>677.387512</ele>
<time>2015-07-10T04:44:17.002Z</time>
</trkpt>
<trkpt lat="31.7288620" lon="35.0902460">
<ele>676.412170</ele>
<time>2015-07-10T04:44:21.002Z</time>
</trkpt>
<trkpt lat="31.7289890" lon="35.0902820">
<ele>675.467285</ele>
<time>2015-07-10T04:44:24.000Z</time>
</trkpt>
<trkpt lat="31.7290950" lon="35.0903040">
<ele>675.467285</ele>
<time>2015-07-10T04:44:25.996Z</time>
</trkpt>
<trkpt lat="31.7291900" lon="35.0903200">
<ele>675.954956</ele>
<time>2015-07-10T04:44:28.000Z</time>
</trkpt>
<trkpt lat="31.7293130" lon="35.0903260">
<ele>676.899841</ele>
<time>2015-07-10T04:44:30.998Z</time>
</trkpt>
<trkpt lat="31.7294100" lon="35.0903000">
<ele>678.362915</ele>
<time>2015-07-10T04:44:34.999Z</time>
</trkpt>
<trkpt lat="31.7295110" lon="35.0902570">
<ele>679.795471</ele>
<time>2015-07-10T04:44:40.001Z</time>
</trkpt>
<trkpt lat="31.7295980" lon="35.0901860">
<ele>680.283081</ele>
<time>2015-07-10T04:44:45.004Z</time>
</trkpt>
<trkpt lat="31.7296780" lon="35.0901050">
<ele>680.283081</ele>
<time>2015-07-10T04:44:49.004Z</time>
</trkpt>
<trkpt lat="31.7297650" lon="35.0900150">
<ele>680.283081</ele>
<time>2015-07-10T04:44:52.996Z</time>
</trkpt>
<trkpt lat="31.7298670" lon="35.0899330">
<ele>680.283081</ele>
<time>2015-07-10T04:44:56.996Z</time>
</trkpt>
<trkpt lat="31.7299650" lon="35.0898630">
<ele>680.283081</ele>
<time>2015-07-10T04:45:00.996Z</time>
</trkpt>
<trkpt lat="31.7300700" lon="35.0898150">
<ele>680.740295</ele>
<time>2015-07-10T04:45:04.997Z</time>
</trkpt>
<trkpt lat="31.7301690" lon="35.0897790">
<ele>682.203369</ele>
<time>2015-07-10T04:45:09.999Z</time>
</trkpt>
<trkpt lat="31.7302550" lon="35.0897150">
<ele>682.203369</ele>
<time>2015-07-10T04:45:16.004Z</time>
</trkpt>
<trkpt lat="31.7303410" lon="35.0896110">
<ele>682.203369</ele>
<time>2015-07-10T04:45:20.998Z</time>
</trkpt>
<trkpt lat="31.7304120" lon="35.0895210">
<ele>681.715698</ele>
<time>2015-07-10T04:45:23.996Z</time>
</trkpt>
<trkpt lat="31.7305230" lon="35.0894200">
<ele>680.740295</ele>
<time>2015-07-10T04:45:27.003Z</time>
</trkpt>
<trkpt lat="31.7306090" lon="35.0893370">
<ele>680.283081</ele>
<time>2015-07-10T04:45:28.999Z</time>
</trkpt>
<trkpt lat="31.7306860" lon="35.0892440">
<ele>679.307739</ele>
<time>2015-07-10T04:45:31.003Z</time>
</trkpt>
<trkpt lat="31.7307680" lon="35.0891600">
<ele>678.820129</ele>
<time>2015-07-10T04:45:32.999Z</time>
</trkpt>
<trkpt lat="31.7308430" lon="35.0890960">
<ele>679.307739</ele>
<time>2015-07-10T04:45:35.004Z</time>
</trkpt>
<trkpt lat="31.7309360" lon="35.0890320">
<ele>679.307739</ele>
<time>2015-07-10T04:45:38.002Z</time>
</trkpt>
<trkpt lat="31.7310100" lon="35.0889620">
<ele>678.362915</ele>
<time>2015-07-10T04:45:41.000Z</time>
</trkpt>
<trkpt lat="31.7310880" lon="35.0888780">
<ele>678.362915</ele>
<time>2015-07-10T04:45:43.998Z</time>
</trkpt>
<trkpt lat="31.7311810" lon="35.0888200">
<ele>677.875183</ele>
<time>2015-07-10T04:45:46.996Z</time>
</trkpt>
<trkpt lat="31.7312850" lon="35.0887730">
<ele>677.875183</ele>
<time>2015-07-10T04:45:50.003Z</time>
</trkpt>
<trkpt lat="31.7313830" lon="35.0887260">
<ele>677.875183</ele>
<time>2015-07-10T04:45:53.001Z</time>
</trkpt>
<trkpt lat="31.7314780" lon="35.0886720">
<ele>677.875183</ele>
<time>2015-07-10T04:45:55.999Z</time>
</trkpt>
<trkpt lat="31.7315730" lon="35.0885990">
<ele>677.387512</ele>
<time>2015-07-10T04:45:58.997Z</time>
</trkpt>
<trkpt lat="31.7316530" lon="35.0885100">
<ele>677.875183</ele>
<time>2015-07-10T04:46:02.004Z</time>
</trkpt>
<trkpt lat="31.7317330" lon="35.0884110">
<ele>677.875183</ele>
<time>2015-07-10T04:46:05.002Z</time>
</trkpt>
<trkpt lat="31.7318130" lon="35.0883090">
<ele>677.875183</ele>
<time>2015-07-10T04:46:08.000Z</time>
</trkpt>
<trkpt lat="31.7318910" lon="35.0882090">
<ele>677.387512</ele>
<time>2015-07-10T04:46:10.998Z</time>
</trkpt>
<trkpt lat="31.7319700" lon="35.0881110">
<ele>677.387512</ele>
<time>2015-07-10T04:46:13.996Z</time>
</trkpt>
<trkpt lat="31.7320190" lon="35.0880140">
<ele>676.412170</ele>
<time>2015-07-10T04:46:17.003Z</time>
</trkpt>
<trkpt lat="31.7320530" lon="35.0879050">
<ele>676.412170</ele>
<time>2015-07-10T04:46:20.001Z</time>
</trkpt>
<trkpt lat="31.7320960" lon="35.0877740">
<ele>675.467285</ele>
<time>2015-07-10T04:46:22.999Z</time>
</trkpt>
<trkpt lat="31.7321870" lon="35.0876760">
<ele>675.467285</ele>
<time>2015-07-10T04:46:25.997Z</time>
</trkpt>
<trkpt lat="31.7322980" lon="35.0876120">
<ele>674.491882</ele>
<time>2015-07-10T04:46:29.004Z</time>
</trkpt>
<trkpt lat="31.7324180" lon="35.0875340">
<ele>673.547058</ele>
<time>2015-07-10T04:46:32.002Z</time>
</trkpt>
<trkpt lat="31.7325380" lon="35.0874660">
<ele>673.547058</ele>
<time>2015-07-10T04:46:35.000Z</time>
</trkpt>
<trkpt lat="31.7326590" lon="35.0874080">
<ele>673.059326</ele>
<time>2015-07-10T04:46:37.998Z</time>
</trkpt>
<trkpt lat="31.7327740" lon="35.0873830">
<ele>673.547058</ele>
<time>2015-07-10T04:46:40.996Z</time>
</trkpt>
<trkpt lat="31.7328720" lon="35.0873640">
<ele>673.547058</ele>
<time>2015-07-10T04:46:44.003Z</time>
</trkpt>
<trkpt lat="31.7329570" lon="35.0873050">
<ele>673.547058</ele>
<time>2015-07-10T04:46:47.001Z</time>
</trkpt>
<trkpt lat="31.7330470" lon="35.0872170">
<ele>673.059326</ele>
<time>2015-07-10T04:46:49.999Z</time>
</trkpt>
<trkpt lat="31.7331200" lon="35.0871300">
<ele>671.626770</ele>
<time>2015-07-10T04:46:53.999Z</time>
</trkpt>
<trkpt lat="31.7331270" lon="35.0869990">
<ele>670.651428</ele>
<time>2015-07-10T04:46:59.002Z</time>
</trkpt>
<trkpt lat="31.7331760" lon="35.0868660">
<ele>669.218933</ele>
<time>2015-07-10T04:47:03.002Z</time>
</trkpt>
<trkpt lat="31.7332550" lon="35.0867590">
<ele>668.243469</ele>
<time>2015-07-10T04:47:06.000Z</time>
</trkpt>
<trkpt lat="31.7333260" lon="35.0866770">
<ele>667.298645</ele>
<time>2015-07-10T04:47:07.996Z</time>
</trkpt>
<trkpt lat="31.7334010" lon="35.0865840">
<ele>666.810974</ele>
<time>2015-07-10T04:47:10.000Z</time>
</trkpt>
<trkpt lat="31.7334800" lon="35.0864740">
<ele>666.323303</ele>
<time>2015-07-10T04:47:12.998Z</time>
</trkpt>
<trkpt lat="31.7335540" lon="35.0863940">
<ele>666.323303</ele>
<time>2015-07-10T04:47:15.996Z</time>
</trkpt>
<trkpt lat="31.7336310" lon="35.0863100">
<ele>667.298645</ele>
<time>2015-07-10T04:47:19.003Z</time>
</trkpt>
<trkpt lat="31.7336990" lon="35.0861940">
<ele>668.731201</ele>
<time>2015-07-10T04:47:23.004Z</time>
</trkpt>
<trkpt lat="31.7337620" lon="35.0860790">
<ele>668.731201</ele>
<time>2015-07-10T04:47:27.997Z</time>
</trkpt>
<trkpt lat="31.7337960" lon="35.0859320">
<ele>668.243469</ele>
<time>2015-07-10T04:47:31.998Z</time>
</trkpt>
<trkpt lat="31.7338190" lon="35.0857690">
<ele>667.298645</ele>
<time>2015-07-10T04:47:34.996Z</time>
</trkpt>
<trkpt lat="31.7338500" lon="35.0856490">
<ele>667.298645</ele>
<time>2015-07-10T04:47:37.000Z</time>
</trkpt>
<trkpt lat="31.7338920" lon="35.0855290">
<ele>666.810974</ele>
<time>2015-07-10T04:47:38.996Z</time>
</trkpt>
<trkpt lat="31.7339390" lon="35.0854070">
<ele>666.810974</ele>
<time>2015-07-10T04:47:41.001Z</time>
</trkpt>
<trkpt lat="31.7339870" lon="35.0852850">
<ele>665.835571</ele>
<time>2015-07-10T04:47:42.996Z</time>
</trkpt>
<trkpt lat="31.7340360" lon="35.0851660">
<ele>665.835571</ele>
<time>2015-07-10T04:47:45.001Z</time>
</trkpt>
<trkpt lat="31.7340850" lon="35.0850520">
<ele>665.378418</ele>
<time>2015-07-10T04:47:46.997Z</time>
</trkpt>
<trkpt lat="31.7341340" lon="35.0849410">
<ele>665.378418</ele>
<time>2015-07-10T04:47:49.001Z</time>
</trkpt>
<trkpt lat="31.7341800" lon="35.0848320">
<ele>665.378418</ele>
<time>2015-07-10T04:47:50.997Z</time>
</trkpt>
<trkpt lat="31.7342270" lon="35.0847160">
<ele>664.890686</ele>
<time>2015-07-10T04:47:53.002Z</time>
</trkpt>
<trkpt lat="31.7342760" lon="35.0845870">
<ele>664.403076</ele>
<time>2015-07-10T04:47:54.997Z</time>
</trkpt>
<trkpt lat="31.7343300" lon="35.0844550">
<ele>664.403076</ele>
<time>2015-07-10T04:47:57.002Z</time>
</trkpt>
<trkpt lat="31.7343830" lon="35.0843300">
<ele>663.915344</ele>
<time>2015-07-10T04:47:58.998Z</time>
</trkpt>
<trkpt lat="31.7344330" lon="35.0842130">
<ele>664.403076</ele>
<time>2015-07-10T04:48:01.002Z</time>
</trkpt>
<trkpt lat="31.7344880" lon="35.0841170">
<ele>664.403076</ele>
<time>2015-07-10T04:48:02.998Z</time>
</trkpt>
<trkpt lat="31.7345780" lon="35.0840080">
<ele>664.890686</ele>
<time>2015-07-10T04:48:05.996Z</time>
</trkpt>
<trkpt lat="31.7346540" lon="35.0838990">
<ele>664.890686</ele>
<time>2015-07-10T04:48:09.003Z</time>
</trkpt>
<trkpt lat="31.7347270" lon="35.0838030">
<ele>665.378418</ele>
<time>2015-07-10T04:48:12.001Z</time>
</trkpt>
<trkpt lat="31.7347950" lon="35.0837090">
<ele>665.835571</ele>
<time>2015-07-10T04:48:14.999Z</time>
</trkpt>
<trkpt lat="31.7348600" lon="35.0836240">
<ele>665.835571</ele>
<time>2015-07-10T04:48:17.997Z</time>
</trkpt>
<trkpt lat="31.7349490" lon="35.0835540">
<ele>666.323303</ele>
<time>2015-07-10T04:48:23.000Z</time>
</trkpt>
<trkpt lat="31.7350440" lon="35.0835020">
<ele>667.298645</ele>
<time>2015-07-10T04:48:28.996Z</time>
</trkpt>
<trkpt lat="31.7351320" lon="35.0834460">
<ele>667.755859</ele>
<time>2015-07-10T04:48:33.998Z</time>
</trkpt>
<trkpt lat="31.7352130" lon="35.0833630">
<ele>668.243469</ele>
<time>2015-07-10T04:48:40.003Z</time>
</trkpt>
<trkpt lat="31.7352690" lon="35.0832380">
<ele>668.731201</ele>
<time>2015-07-10T04:48:47.002Z</time>
</trkpt>
<trkpt lat="31.7352690" lon="35.0831150">
<ele>667.755859</ele>
<time>2015-07-10T04:48:52.004Z</time>
</trkpt>
<trkpt lat="31.7352720" lon="35.0829900">
<ele>666.323303</ele>
<time>2015-07-10T04:48:55.002Z</time>
</trkpt>
<trkpt lat="31.7353040" lon="35.0828880">
<ele>665.835571</ele>
<time>2015-07-10T04:48:56.998Z</time>
</trkpt>
<trkpt lat="31.7353610" lon="35.0827600">
<ele>666.323303</ele>
<time>2015-07-10T04:48:59.996Z</time>
</trkpt>
<trkpt lat="31.7354150" lon="35.0826390">
<ele>666.810974</ele>
<time>2015-07-10T04:49:03.996Z</time>
</trkpt>
<trkpt lat="31.7354500" lon="35.0824900">
<ele>665.835571</ele>
<time>2015-07-10T04:49:10.001Z</time>
</trkpt>
<trkpt lat="31.7354710" lon="35.0823630">
<ele>664.890686</ele>
<time>2015-07-10T04:49:12.999Z</time>
</trkpt>
<trkpt lat="31.7354850" lon="35.0822280">
<ele>663.915344</ele>
<time>2015-07-10T04:49:15.997Z</time>
</trkpt>
<trkpt lat="31.7355130" lon="35.0820970">
<ele>663.458130</ele>
<time>2015-07-10T04:49:19.004Z</time>
</trkpt>
<trkpt lat="31.7355430" lon="35.0819720">
<ele>662.482788</ele>
<time>2015-07-10T04:49:22.002Z</time>
</trkpt>
<trkpt lat="31.7355670" lon="35.0818570">
<ele>662.482788</ele>
<time>2015-07-10T04:49:25.000Z</time>
</trkpt>
<trkpt lat="31.7355780" lon="35.0817430">
<ele>661.995117</ele>
<time>2015-07-10T04:49:27.998Z</time>
</trkpt>
<trkpt lat="31.7355760" lon="35.0816100">
<ele>661.050232</ele>
<time>2015-07-10T04:49:30.996Z</time>
</trkpt>
<trkpt lat="31.7355760" lon="35.0814560">
<ele>660.562561</ele>
<time>2015-07-10T04:49:34.003Z</time>
</trkpt>
<trkpt lat="31.7356100" lon="35.0813280">
<ele>660.562561</ele>
<time>2015-07-10T04:49:37.001Z</time>
</trkpt>
<trkpt lat="31.7356560" lon="35.0812240">
<ele>660.562561</ele>
<time>2015-07-10T04:49:39.999Z</time>
</trkpt>
<trkpt lat="31.7356920" lon="35.0811180">
<ele>660.562561</ele>
<time>2015-07-10T04:49:42.997Z</time>
</trkpt>
<trkpt lat="31.7357320" lon="35.0809960">
<ele>659.587219</ele>
<time>2015-07-10T04:49:46.004Z</time>
</trkpt>
<trkpt lat="31.7358030" lon="35.0808830">
<ele>660.074890</ele>
<time>2015-07-10T04:49:49.002Z</time>
</trkpt>
<trkpt lat="31.7359020" lon="35.0808140">
<ele>661.050232</ele>
<time>2015-07-10T04:49:52.000Z</time>
</trkpt>
<trkpt lat="31.7359930" lon="35.0807770">
<ele>661.507446</ele>
<time>2015-07-10T04:49:54.998Z</time>
</trkpt>
<trkpt lat="31.7360860" lon="35.0807150">
<ele>661.995117</ele>
<time>2015-07-10T04:49:58.999Z</time>
</trkpt>
<trkpt lat="31.7361940" lon="35.0806540">
<ele>662.970520</ele>
<time>2015-07-10T04:50:02.999Z</time>
</trkpt>
<trkpt lat="31.7362860" lon="35.0806020">
<ele>663.458130</ele>
<time>2015-07-10T04:50:06.999Z</time>
</trkpt>
<trkpt lat="31.7363820" lon="35.0805100">
<ele>663.458130</ele>
<time>2015-07-10T04:50:28.003Z</time>
</trkpt>
<trkpt lat="31.7364620" lon="35.0804170">
<ele>663.458130</ele>
<time>2015-07-10T04:50:31.001Z</time>
</trkpt>
<trkpt lat="31.7365180" lon="35.0802910">
<ele>662.970520</ele>
<time>2015-07-10T04:50:33.999Z</time>
</trkpt>
<trkpt lat="31.7365410" lon="35.0801890">
<ele>661.507446</ele>
<time>2015-07-10T04:50:36.004Z</time>
</trkpt>
<trkpt lat="31.7365990" lon="35.0801040">
<ele>660.562561</ele>
<time>2015-07-10T04:50:38.000Z</time>
</trkpt>
<trkpt lat="31.7366860" lon="35.0800720">
<ele>660.562561</ele>
<time>2015-07-10T04:50:40.004Z</time>
</trkpt>
<trkpt lat="31.7367850" lon="35.0800760">
<ele>660.562561</ele>
<time>2015-07-10T04:50:42.000Z</time>
</trkpt>
<trkpt lat="31.7368840" lon="35.0800890">
<ele>661.050232</ele>
<time>2015-07-10T04:50:43.996Z</time>
</trkpt>
<trkpt lat="31.7369920" lon="35.0800920">
<ele>661.050232</ele>
<time>2015-07-10T04:50:46.000Z</time>
</trkpt>
<trkpt lat="31.7371050" lon="35.0800830">
<ele>660.562561</ele>
<time>2015-07-10T04:50:47.996Z</time>
</trkpt>
<trkpt lat="31.7372150" lon="35.0800620">
<ele>660.562561</ele>
<time>2015-07-10T04:50:50.001Z</time>
</trkpt>
<trkpt lat="31.7373320" lon="35.0800600">
<ele>660.074890</ele>
<time>2015-07-10T04:50:51.996Z</time>
</trkpt>
<trkpt lat="31.7374320" lon="35.0801040">
<ele>660.074890</ele>
<time>2015-07-10T04:50:54.001Z</time>
</trkpt>
<trkpt lat="31.7375130" lon="35.0801960">
<ele>661.507446</ele>
<time>2015-07-10T04:50:56.999Z</time>
</trkpt>
<trkpt lat="31.7375640" lon="35.0802890">
<ele>662.970520</ele>
<time>2015-07-10T04:51:02.002Z</time>
</trkpt>
<trkpt lat="31.7376580" lon="35.0803290">
<ele>663.915344</ele>
<time>2015-07-10T04:51:09.000Z</time>
</trkpt>
<trkpt lat="31.7377530" lon="35.0803170">
<ele>664.403076</ele>
<time>2015-07-10T04:51:15.998Z</time>
</trkpt>
<trkpt lat="31.7378630" lon="35.0802730">
<ele>664.403076</ele>
<time>2015-07-10T04:51:21.001Z</time>
</trkpt>
<trkpt lat="31.7379950" lon="35.0802700">
<ele>663.458130</ele>
<time>2015-07-10T04:51:23.999Z</time>
</trkpt>
<trkpt lat="31.7380900" lon="35.0803130">
<ele>663.458130</ele>
<time>2015-07-10T04:51:26.004Z</time>
</trkpt>
<trkpt lat="31.7381750" lon="35.0803790">
<ele>663.458130</ele>
<time>2015-07-10T04:51:27.999Z</time>
</trkpt>
<trkpt lat="31.7382220" lon="35.0804730">
<ele>665.378418</ele>
<time>2015-07-10T04:51:32.000Z</time>
</trkpt>
<trkpt lat="31.7382560" lon="35.0805850">
<ele>666.810974</ele>
<time>2015-07-10T04:51:41.003Z</time>
</trkpt>
<trkpt lat="31.7382900" lon="35.0807130">
<ele>668.243469</ele>
<time>2015-07-10T04:51:49.003Z</time>
</trkpt>
<trkpt lat="31.7383530" lon="35.0808160">
<ele>669.218933</ele>
<time>2015-07-10T04:51:57.997Z</time>
</trkpt>
<trkpt lat="31.7384650" lon="35.0808340">
<ele>669.706543</ele>
<time>2015-07-10T04:52:05.998Z</time>
</trkpt>
<trkpt lat="31.7385680" lon="35.0807640">
<ele>668.731201</ele>
<time>2015-07-10T04:52:08.996Z</time>
</trkpt>
<trkpt lat="31.7386530" lon="35.0806860">
<ele>668.731201</ele>
<time>2015-07-10T04:52:11.001Z</time>
</trkpt>
<trkpt lat="31.7387510" lon="35.0805960">
<ele>667.755859</ele>
<time>2015-07-10T04:52:12.996Z</time>
</trkpt>
<trkpt lat="31.7388570" lon="35.0805130">
<ele>666.810974</ele>
<time>2015-07-10T04:52:15.001Z</time>
</trkpt>
<trkpt lat="31.7389750" lon="35.0804390">
<ele>665.835571</ele>
<time>2015-07-10T04:52:16.997Z</time>
</trkpt>
<trkpt lat="31.7391040" lon="35.0803870">
<ele>665.378418</ele>
<time>2015-07-10T04:52:19.001Z</time>
</trkpt>
<trkpt lat="31.7392230" lon="35.0803380">
<ele>665.835571</ele>
<time>2015-07-10T04:52:20.997Z</time>
</trkpt>
<trkpt lat="31.7393110" lon="35.0803110">
<ele>665.835571</ele>
<time>2015-07-10T04:52:23.002Z</time>
</trkpt>
<trkpt lat="31.7393240" lon="35.0803980">
<ele>666.323303</ele>
<time>2015-07-10T04:52:28.998Z</time>
</trkpt>
<trkpt lat="31.7392330" lon="35.0804670">
<ele>667.755859</ele>
<time>2015-07-10T04:52:35.996Z</time>
</trkpt>
<trkpt lat="31.7391740" lon="35.0805550">
<ele>668.243469</ele>
<time>2015-07-10T04:52:43.997Z</time>
</trkpt>
<trkpt lat="31.7391380" lon="35.0806730">
<ele>670.194275</ele>
<time>2015-07-10T04:52:51.997Z</time>
</trkpt>
<trkpt lat="31.7391040" lon="35.0807900">
<ele>672.571716</ele>
<time>2015-07-10T04:52:59.998Z</time>
</trkpt>
<trkpt lat="31.7390200" lon="35.0808760">
<ele>674.034668</ele>
<time>2015-07-10T04:53:10.003Z</time>
</trkpt>
<trkpt lat="31.7389630" lon="35.0809740">
<ele>675.467285</ele>
<time>2015-07-10T04:53:21.002Z</time>
</trkpt>
<trkpt lat="31.7388900" lon="35.0810420">
<ele>676.412170</ele>
<time>2015-07-10T04:53:32.001Z</time>
</trkpt>
<trkpt lat="31.7387990" lon="35.0811190">
<ele>676.412170</ele>
<time>2015-07-10T04:53:38.999Z</time>
</trkpt>
<trkpt lat="31.7387120" lon="35.0812080">
<ele>676.899841</ele>
<time>2015-07-10T04:53:45.997Z</time>
</trkpt>
<trkpt lat="31.7386390" lon="35.0813200">
<ele>677.387512</ele>
<time>2015-07-10T04:53:53.998Z</time>
</trkpt>
<trkpt lat="31.7385660" lon="35.0814220">
<ele>678.820129</ele>
<time>2015-07-10T04:54:03.001Z</time>
</trkpt>
<trkpt lat="31.7384790" lon="35.0815100">
<ele>680.740295</ele>
<time>2015-07-10T04:54:11.002Z</time>
</trkpt>
<trkpt lat="31.7384070" lon="35.0815940">
<ele>681.715698</ele>
<time>2015-07-10T04:54:19.002Z</time>
</trkpt>
<trkpt lat="31.7384040" lon="35.0817230">
<ele>682.660522</ele>
<time>2015-07-10T04:54:27.003Z</time>
</trkpt>
<trkpt lat="31.7384370" lon="35.0818440">
<ele>684.611328</ele>
<time>2015-07-10T04:54:36.999Z</time>
</trkpt>
<trkpt lat="31.7385060" lon="35.0819550">
<ele>685.068481</ele>
<time>2015-07-10T04:54:46.002Z</time>
</trkpt>
<trkpt lat="31.7386030" lon="35.0820140">
<ele>685.556152</ele>
<time>2015-07-10T04:54:53.001Z</time>
</trkpt>
<trkpt lat="31.7387010" lon="35.0820610">
<ele>686.531494</ele>
<time>2015-07-10T04:54:58.997Z</time>
</trkpt>
<trkpt lat="31.7387890" lon="35.0821230">
<ele>686.988708</ele>
<time>2015-07-10T04:55:05.002Z</time>
</trkpt>
<trkpt lat="31.7388840" lon="35.0821690">
<ele>687.476379</ele>
<time>2015-07-10T04:55:10.998Z</time>
</trkpt>
<trkpt lat="31.7389850" lon="35.0821800">
<ele>687.964111</ele>
<time>2015-07-10T04:55:17.003Z</time>
</trkpt>
<trkpt lat="31.7390960" lon="35.0821380">
<ele>688.908936</ele>
<time>2015-07-10T04:55:24.001Z</time>
</trkpt>
<trkpt lat="31.7391880" lon="35.0820860">
<ele>688.451721</ele>
<time>2015-07-10T04:55:28.001Z</time>
</trkpt>
<trkpt lat="31.7393070" lon="35.0820430">
<ele>687.476379</ele>
<time>2015-07-10T04:55:32.002Z</time>
</trkpt>
<trkpt lat="31.7394020" lon="35.0820220">
<ele>687.476379</ele>
<time>2015-07-10T04:55:35.000Z</time>
</trkpt>
<trkpt lat="31.7395220" lon="35.0820420">
<ele>687.964111</ele>
<time>2015-07-10T04:55:39.000Z</time>
</trkpt>
<trkpt lat="31.7396250" lon="35.0820860">
<ele>687.964111</ele>
<time>2015-07-10T04:55:43.000Z</time>
</trkpt>
<trkpt lat="31.7397330" lon="35.0820560">
<ele>687.964111</ele>
<time>2015-07-10T04:55:47.001Z</time>
</trkpt>
<trkpt lat="31.7398320" lon="35.0819890">
<ele>688.451721</ele>
<time>2015-07-10T04:55:51.001Z</time>
</trkpt>
<trkpt lat="31.7399130" lon="35.0819370">
<ele>688.451721</ele>
<time>2015-07-10T04:55:55.001Z</time>
</trkpt>
<trkpt lat="31.7400100" lon="35.0819040">
<ele>687.476379</ele>
<time>2015-07-10T04:56:00.004Z</time>
</trkpt>
<trkpt lat="31.7401150" lon="35.0818790">
<ele>686.531494</ele>
<time>2015-07-10T04:56:04.998Z</time>
</trkpt>
<trkpt lat="31.7402250" lon="35.0818560">
<ele>685.068481</ele>
<time>2015-07-10T04:56:08.998Z</time>
</trkpt>
<trkpt lat="31.7403260" lon="35.0818080">
<ele>684.123596</ele>
<time>2015-07-10T04:56:11.996Z</time>
</trkpt>
<trkpt lat="31.7404400" lon="35.0817290">
<ele>682.660522</ele>
<time>2015-07-10T04:56:15.003Z</time>
</trkpt>
<trkpt lat="31.7405360" lon="35.0816560">
<ele>682.660522</ele>
<time>2015-07-10T04:56:18.001Z</time>
</trkpt>
<trkpt lat="31.7406300" lon="35.0815800">
<ele>682.660522</ele>
<time>2015-07-10T04:56:20.999Z</time>
</trkpt>
<trkpt lat="31.7407270" lon="35.0814720">
<ele>682.203369</ele>
<time>2015-07-10T04:56:23.997Z</time>
</trkpt>
<trkpt lat="31.7407960" lon="35.0813520">
<ele>681.715698</ele>
<time>2015-07-10T04:56:27.004Z</time>
</trkpt>
<trkpt lat="31.7408620" lon="35.0812400">
<ele>681.228027</ele>
<time>2015-07-10T04:56:30.002Z</time>
</trkpt>
<trkpt lat="31.7409530" lon="35.0811640">
<ele>681.228027</ele>
<time>2015-07-10T04:56:33.000Z</time>
</trkpt>
<trkpt lat="31.7410670" lon="35.0811350">
<ele>680.740295</ele>
<time>2015-07-10T04:56:35.998Z</time>
</trkpt>
<trkpt lat="31.7411950" lon="35.0811090">
<ele>680.283081</ele>
<time>2015-07-10T04:56:38.996Z</time>
</trkpt>
<trkpt lat="31.7413130" lon="35.0810830">
<ele>679.795471</ele>
<time>2015-07-10T04:56:42.003Z</time>
</trkpt>
<trkpt lat="31.7414340" lon="35.0810610">
<ele>679.307739</ele>
<time>2015-07-10T04:56:45.001Z</time>
</trkpt>
<trkpt lat="31.7415360" lon="35.0810670">
<ele>679.307739</ele>
<time>2015-07-10T04:56:47.999Z</time>
</trkpt>
<trkpt lat="31.7416000" lon="35.0811310">
<ele>678.362915</ele>
<time>2015-07-10T04:56:53.002Z</time>
</trkpt>
<trkpt lat="31.7415130" lon="35.0812390">
<ele>677.387512</ele>
<time>2015-07-10T04:56:58.998Z</time>
</trkpt>
<trkpt lat="31.7414100" lon="35.0812920">
<ele>676.412170</ele>
<time>2015-07-10T04:57:01.996Z</time>
</trkpt>
<trkpt lat="31.7413270" lon="35.0813610">
<ele>675.467285</ele>
<time>2015-07-10T04:57:04.000Z</time>
</trkpt>
<trkpt lat="31.7412510" lon="35.0814520">
<ele>674.491882</ele>
<time>2015-07-10T04:57:05.996Z</time>
</trkpt>
<trkpt lat="31.7411860" lon="35.0815600">
<ele>674.034668</ele>
<time>2015-07-10T04:57:08.001Z</time>
</trkpt>
<trkpt lat="31.7411610" lon="35.0816920">
<ele>673.059326</ele>
<time>2015-07-10T04:57:10.999Z</time>
</trkpt>
<trkpt lat="31.7412580" lon="35.0817430">
<ele>671.626770</ele>
<time>2015-07-10T04:57:14.999Z</time>
</trkpt>
<trkpt lat="31.7413500" lon="35.0817220">
<ele>669.706543</ele>
<time>2015-07-10T04:57:17.997Z</time>
</trkpt>
<trkpt lat="31.7414470" lon="35.0816960">
<ele>668.243469</ele>
<time>2015-07-10T04:57:21.004Z</time>
</trkpt>
<trkpt lat="31.7415100" lon="35.0817700">
<ele>666.810974</ele>
<time>2015-07-10T04:57:25.004Z</time>
</trkpt>
<trkpt lat="31.7414290" lon="35.0818550">
<ele>666.323303</ele>
<time>2015-07-10T04:57:29.998Z</time>
</trkpt>
<trkpt lat="31.7413400" lon="35.0819340">
<ele>666.810974</ele>
<time>2015-07-10T04:57:35.001Z</time>
</trkpt>
<trkpt lat="31.7412660" lon="35.0820310">
<ele>667.298645</ele>
<time>2015-07-10T04:57:40.003Z</time>
</trkpt>
<trkpt lat="31.7412060" lon="35.0821390">
<ele>667.755859</ele>
<time>2015-07-10T04:57:45.999Z</time>
</trkpt>
<trkpt lat="31.7411130" lon="35.0822470">
<ele>667.298645</ele>
<time>2015-07-10T04:58:23.998Z</time>
</trkpt>
<trkpt lat="31.7410320" lon="35.0823380">
<ele>667.755859</ele>
<time>2015-07-10T04:58:26.996Z</time>
</trkpt>
<trkpt lat="31.7409490" lon="35.0824370">
<ele>667.755859</ele>
<time>2015-07-10T04:58:30.003Z</time>
</trkpt>
<trkpt lat="31.7408820" lon="35.0825310">
<ele>668.243469</ele>
<time>2015-07-10T04:58:33.001Z</time>
</trkpt>
<trkpt lat="31.7408180" lon="35.0826360">
<ele>668.731201</ele>
<time>2015-07-10T04:58:37.001Z</time>
</trkpt>
<trkpt lat="31.7407470" lon="35.0827120">
<ele>669.706543</ele>
<time>2015-07-10T04:58:41.002Z</time>
</trkpt>
<trkpt lat="31.7406700" lon="35.0827950">
<ele>670.194275</ele>
<time>2015-07-10T04:58:45.002Z</time>
</trkpt>
<trkpt lat="31.7405800" lon="35.0828810">
<ele>670.651428</ele>
<time>2015-07-10T04:58:49.002Z</time>
</trkpt>
<trkpt lat="31.7405020" lon="35.0829590">
<ele>670.194275</ele>
<time>2015-07-10T04:58:53.003Z</time>
</trkpt>
<trkpt lat="31.7404230" lon="35.0830660">
<ele>671.139099</ele>
<time>2015-07-10T04:58:57.996Z</time>
</trkpt>
<trkpt lat="31.7403500" lon="35.0831420">
<ele>671.626770</ele>
<time>2015-07-10T04:59:01.997Z</time>
</trkpt>
<trkpt lat="31.7402570" lon="35.0832130">
<ele>671.626770</ele>
<time>2015-07-10T04:59:06.999Z</time>
</trkpt>
<trkpt lat="31.7401690" lon="35.0832870">
<ele>672.571716</ele>
<time>2015-07-10T04:59:12.002Z</time>
</trkpt>
<trkpt lat="31.7400840" lon="35.0833620">
<ele>672.571716</ele>
<time>2015-07-10T04:59:16.002Z</time>
</trkpt>
<trkpt lat="31.7399980" lon="35.0834350">
<ele>673.059326</ele>
<time>2015-07-10T04:59:20.003Z</time>
</trkpt>
<trkpt lat="31.7399100" lon="35.0834980">
<ele>673.547058</ele>
<time>2015-07-10T04:59:24.003Z</time>
</trkpt>
<trkpt lat="31.7398160" lon="35.0835590">
<ele>673.547058</ele>
<time>2015-07-10T04:59:28.003Z</time>
</trkpt>
<trkpt lat="31.7397140" lon="35.0836390">
<ele>673.059326</ele>
<time>2015-07-10T04:59:32.004Z</time>
</trkpt>
<trkpt lat="31.7396030" lon="35.0837120">
<ele>673.547058</ele>
<time>2015-07-10T04:59:36.004Z</time>
</trkpt>
<trkpt lat="31.7395050" lon="35.0837410">
<ele>673.059326</ele>
<time>2015-07-10T04:59:39.002Z</time>
</trkpt>
<trkpt lat="31.7393820" lon="35.0837590">
<ele>673.059326</ele>
<time>2015-07-10T04:59:43.002Z</time>
</trkpt>
<trkpt lat="31.7392650" lon="35.0837900">
<ele>673.059326</ele>
<time>2015-07-10T04:59:47.003Z</time>
</trkpt>
<trkpt lat="31.7391650" lon="35.0838110">
<ele>672.571716</ele>
<time>2015-07-10T04:59:50.001Z</time>
</trkpt>
<trkpt lat="31.7390690" lon="35.0838340">
<ele>672.571716</ele>
<time>2015-07-10T04:59:52.999Z</time>
</trkpt>
<trkpt lat="31.7389670" lon="35.0838470">
<ele>673.059326</ele>
<time>2015-07-10T04:59:55.997Z</time>
</trkpt>
<trkpt lat="31.7388650" lon="35.0838590">
<ele>673.059326</ele>
<time>2015-07-10T04:59:59.004Z</time>
</trkpt>
<trkpt lat="31.7387790" lon="35.0839050">
<ele>673.059326</ele>
<time>2015-07-10T05:00:02.002Z</time>
</trkpt>
<trkpt lat="31.7386940" lon="35.0839610">
<ele>673.059326</ele>
<time>2015-07-10T05:00:05.000Z</time>
</trkpt>
<trkpt lat="31.7386050" lon="35.0840100">
<ele>672.571716</ele>
<time>2015-07-10T05:00:07.998Z</time>
</trkpt>
<trkpt lat="31.7384950" lon="35.0840480">
<ele>674.034668</ele>
<time>2015-07-10T05:00:11.998Z</time>
</trkpt>
<trkpt lat="31.7383870" lon="35.0840710">
<ele>674.979614</ele>
<time>2015-07-10T05:00:17.001Z</time>
</trkpt>
<trkpt lat="31.7383000" lon="35.0841180">
<ele>675.954956</ele>
<time>2015-07-10T05:00:22.003Z</time>
</trkpt>
<trkpt lat="31.7382280" lon="35.0841950">
<ele>675.954956</ele>
<time>2015-07-10T05:00:26.004Z</time>
</trkpt>
<trkpt lat="31.7381330" lon="35.0842860">
<ele>675.954956</ele>
<time>2015-07-10T05:00:30.997Z</time>
</trkpt>
<trkpt lat="31.7380360" lon="35.0843280">
<ele>676.412170</ele>
<time>2015-07-10T05:00:34.998Z</time>
</trkpt>
<trkpt lat="31.7379350" lon="35.0843750">
<ele>677.387512</ele>
<time>2015-07-10T05:00:40.000Z</time>
</trkpt>
<trkpt lat="31.7378330" lon="35.0844340">
<ele>678.362915</ele>
<time>2015-07-10T05:00:45.996Z</time>
</trkpt>
<trkpt lat="31.7377460" lon="35.0844920">
<ele>678.820129</ele>
<time>2015-07-10T05:00:50.999Z</time>
</trkpt>
<trkpt lat="31.7376680" lon="35.0845570">
<ele>679.307739</ele>
<time>2015-07-10T05:00:56.002Z</time>
</trkpt>
<trkpt lat="31.7375910" lon="35.0846260">
<ele>679.795471</ele>
<time>2015-07-10T05:01:01.004Z</time>
</trkpt>
<trkpt lat="31.7375070" lon="35.0847080">
<ele>679.795471</ele>
<time>2015-07-10T05:01:05.998Z</time>
</trkpt>
<trkpt lat="31.7374120" lon="35.0848240">
<ele>679.795471</ele>
<time>2015-07-10T05:01:11.001Z</time>
</trkpt>
<trkpt lat="31.7373350" lon="35.0849120">
<ele>680.283081</ele>
<time>2015-07-10T05:01:15.001Z</time>
</trkpt>
<trkpt lat="31.7372510" lon="35.0849860">
<ele>680.283081</ele>
<time>2015-07-10T05:01:19.001Z</time>
</trkpt>
<trkpt lat="31.7371560" lon="35.0850420">
<ele>681.228027</ele>
<time>2015-07-10T05:01:23.002Z</time>
</trkpt>
<trkpt lat="31.7370670" lon="35.0850780">
<ele>681.715698</ele>
<time>2015-07-10T05:01:28.004Z</time>
</trkpt>
<trkpt lat="31.7369680" lon="35.0851300">
<ele>682.203369</ele>
<time>2015-07-10T05:01:32.998Z</time>
</trkpt>
<trkpt lat="31.7368780" lon="35.0851910">
<ele>682.660522</ele>
<time>2015-07-10T05:01:38.001Z</time>
</trkpt>
<trkpt lat="31.7367870" lon="35.0852540">
<ele>683.148254</ele>
<time>2015-07-10T05:01:43.003Z</time>
</trkpt>
<trkpt lat="31.7367030" lon="35.0853480">
<ele>682.660522</ele>
<time>2015-07-10T05:01:47.997Z</time>
</trkpt>
<trkpt lat="31.7366430" lon="35.0854410">
<ele>682.660522</ele>
<time>2015-07-10T05:01:51.997Z</time>
</trkpt>
<trkpt lat="31.7365760" lon="35.0855320">
<ele>682.203369</ele>
<time>2015-07-10T05:01:55.004Z</time>
</trkpt>
<trkpt lat="31.7364940" lon="35.0856200">
<ele>682.203369</ele>
<time>2015-07-10T05:01:58.002Z</time>
</trkpt>
<trkpt lat="31.7364180" lon="35.0857030">
<ele>681.715698</ele>
<time>2015-07-10T05:02:01.000Z</time>
</trkpt>
<trkpt lat="31.7363340" lon="35.0857740">
<ele>681.715698</ele>
<time>2015-07-10T05:02:03.998Z</time>
</trkpt>
<trkpt lat="31.7362560" lon="35.0858490">
<ele>681.715698</ele>
<time>2015-07-10T05:02:06.996Z</time>
</trkpt>
<trkpt lat="31.7361750" lon="35.0859200">
<ele>681.715698</ele>
<time>2015-07-10T05:02:10.003Z</time>
</trkpt>
<trkpt lat="31.7360940" lon="35.0860010">
<ele>681.715698</ele>
<time>2015-07-10T05:02:13.001Z</time>
</trkpt>
<trkpt lat="31.7360220" lon="35.0860880">
<ele>681.715698</ele>
<time>2015-07-10T05:02:15.999Z</time>
</trkpt>
<trkpt lat="31.7359500" lon="35.0861870">
<ele>681.715698</ele>
<time>2015-07-10T05:02:18.997Z</time>
</trkpt>
<trkpt lat="31.7358860" lon="35.0862860">
<ele>681.715698</ele>
<time>2015-07-10T05:02:22.004Z</time>
</trkpt>
<trkpt lat="31.7358170" lon="35.0864100">
<ele>681.228027</ele>
<time>2015-07-10T05:02:25.996Z</time>
</trkpt>
<trkpt lat="31.7357670" lon="35.0865120">
<ele>680.740295</ele>
<time>2015-07-10T05:02:29.003Z</time>
</trkpt>
<trkpt lat="31.7357140" lon="35.0866090">
<ele>681.228027</ele>
<time>2015-07-10T05:02:32.001Z</time>
</trkpt>
<trkpt lat="31.7356500" lon="35.0867170">
<ele>680.740295</ele>
<time>2015-07-10T05:02:36.001Z</time>
</trkpt>
<trkpt lat="31.7356080" lon="35.0868160">
<ele>680.740295</ele>
<time>2015-07-10T05:02:40.001Z</time>
</trkpt>
<trkpt lat="31.7355680" lon="35.0869250">
<ele>680.740295</ele>
<time>2015-07-10T05:02:42.999Z</time>
</trkpt>
<trkpt lat="31.7355090" lon="35.0870180">
<ele>681.228027</ele>
<time>2015-07-10T05:02:45.997Z</time>
</trkpt>
<trkpt lat="31.7354170" lon="35.0871050">
<ele>682.203369</ele>
<time>2015-07-10T05:02:51.000Z</time>
</trkpt>
<trkpt lat="31.7353220" lon="35.0871660">
<ele>682.660522</ele>
<time>2015-07-10T05:02:56.003Z</time>
</trkpt>
<trkpt lat="31.7352120" lon="35.0872130">
<ele>684.123596</ele>
<time>2015-07-10T05:03:01.999Z</time>
</trkpt>
<trkpt lat="31.7351350" lon="35.0872900">
<ele>684.611328</ele>
<time>2015-07-10T05:03:07.001Z</time>
</trkpt>
<trkpt lat="31.7350740" lon="35.0873850">
<ele>684.611328</ele>
<time>2015-07-10T05:03:11.002Z</time>
</trkpt>
<trkpt lat="31.7350040" lon="35.0874850">
<ele>685.068481</ele>
<time>2015-07-10T05:03:16.004Z</time>
</trkpt>
<trkpt lat="31.7349350" lon="35.0875900">
<ele>685.556152</ele>
<time>2015-07-10T05:03:20.998Z</time>
</trkpt>
<trkpt lat="31.7348740" lon="35.0876840">
<ele>686.043884</ele>
<time>2015-07-10T05:03:26.001Z</time>
</trkpt>
<trkpt lat="31.7348250" lon="35.0877830">
<ele>686.043884</ele>
<time>2015-07-10T05:03:30.001Z</time>
</trkpt>
<trkpt lat="31.7347640" lon="35.0879060">
<ele>686.043884</ele>
<time>2015-07-10T05:03:34.001Z</time>
</trkpt>
<trkpt lat="31.7347130" lon="35.0880150">
<ele>686.043884</ele>
<time>2015-07-10T05:03:38.002Z</time>
</trkpt>
<trkpt lat="31.7346710" lon="35.0881370">
<ele>686.988708</ele>
<time>2015-07-10T05:03:43.004Z</time>
</trkpt>
<trkpt lat="31.7346330" lon="35.0882440">
<ele>687.476379</ele>
<time>2015-07-10T05:03:46.996Z</time>
</trkpt>
<trkpt lat="31.7345970" lon="35.0883580">
<ele>687.964111</ele>
<time>2015-07-10T05:03:50.996Z</time>
</trkpt>
<trkpt lat="31.7345500" lon="35.0884770">
<ele>688.451721</ele>
<time>2015-07-10T05:03:54.996Z</time>
</trkpt>
<trkpt lat="31.7345040" lon="35.0885710">
<ele>688.908936</ele>
<time>2015-07-10T05:03:58.997Z</time>
</trkpt>
<trkpt lat="31.7344600" lon="35.0886740">
<ele>689.396667</ele>
<time>2015-07-10T05:04:02.997Z</time>
</trkpt>
<trkpt lat="31.7344120" lon="35.0887760">
<ele>690.372009</ele>
<time>2015-07-10T05:04:08.000Z</time>
</trkpt>
<trkpt lat="31.7343810" lon="35.0888960">
<ele>691.316895</ele>
<time>2015-07-10T05:04:13.002Z</time>
</trkpt>
<trkpt lat="31.7343680" lon="35.0890290">
<ele>691.316895</ele>
<time>2015-07-10T05:04:17.996Z</time>
</trkpt>
<trkpt lat="31.7343460" lon="35.0891390">
<ele>691.804565</ele>
<time>2015-07-10T05:04:21.996Z</time>
</trkpt>
<trkpt lat="31.7343130" lon="35.0892620">
<ele>691.804565</ele>
<time>2015-07-10T05:04:26.999Z</time>
</trkpt>
<trkpt lat="31.7342700" lon="35.0893620">
<ele>692.292236</ele>
<time>2015-07-10T05:04:32.002Z</time>
</trkpt>
<trkpt lat="31.7342200" lon="35.0894820">
<ele>693.237061</ele>
<time>2015-07-10T05:04:37.004Z</time>
</trkpt>
<trkpt lat="31.7341450" lon="35.0895610">
<ele>693.724792</ele>
<time>2015-07-10T05:04:41.998Z</time>
</trkpt>
<trkpt lat="31.7340660" lon="35.0896620">
<ele>694.700134</ele>
<time>2015-07-10T05:04:48.003Z</time>
</trkpt>
<trkpt lat="31.7340160" lon="35.0897620">
<ele>695.157349</ele>
<time>2015-07-10T05:04:52.997Z</time>
</trkpt>
<trkpt lat="31.7339620" lon="35.0898810">
<ele>696.132690</ele>
<time>2015-07-10T05:04:59.002Z</time>
</trkpt>
<trkpt lat="31.7339170" lon="35.0900020">
<ele>695.645081</ele>
<time>2015-07-10T05:05:03.002Z</time>
</trkpt>
<trkpt lat="31.7338590" lon="35.0901300">
<ele>696.132690</ele>
<time>2015-07-10T05:05:07.002Z</time>
</trkpt>
<trkpt lat="31.7338120" lon="35.0902320">
<ele>696.132690</ele>
<time>2015-07-10T05:05:10.000Z</time>
</trkpt>
<trkpt lat="31.7337600" lon="35.0903250">
<ele>696.132690</ele>
<time>2015-07-10T05:05:12.998Z</time>
</trkpt>
<trkpt lat="31.7337180" lon="35.0904200">
<ele>696.132690</ele>
<time>2015-07-10T05:05:15.996Z</time>
</trkpt>
<trkpt lat="31.7336790" lon="35.0905190">
<ele>696.132690</ele>
<time>2015-07-10T05:05:19.003Z</time>
</trkpt>
<trkpt lat="31.7336210" lon="35.0906310">
<ele>696.620422</ele>
<time>2015-07-10T05:05:23.004Z</time>
</trkpt>
<trkpt lat="31.7335690" lon="35.0907230">
<ele>697.077576</ele>
<time>2015-07-10T05:05:27.004Z</time>
</trkpt>
<trkpt lat="31.7335330" lon="35.0908300">
<ele>696.620422</ele>
<time>2015-07-10T05:05:31.004Z</time>
</trkpt>
<trkpt lat="31.7335040" lon="35.0909340">
<ele>697.077576</ele>
<time>2015-07-10T05:05:34.002Z</time>
</trkpt>
<trkpt lat="31.7334880" lon="35.0910700">
<ele>696.132690</ele>
<time>2015-07-10T05:05:37.000Z</time>
</trkpt>
<trkpt lat="31.7334730" lon="35.0911790">
<ele>695.645081</ele>
<time>2015-07-10T05:05:38.996Z</time>
</trkpt>
<trkpt lat="31.7334590" lon="35.0912940">
<ele>695.157349</ele>
<time>2015-07-10T05:05:41.001Z</time>
</trkpt>
<trkpt lat="31.7334470" lon="35.0914460">
<ele>695.157349</ele>
<time>2015-07-10T05:05:43.999Z</time>
</trkpt>
<trkpt lat="31.7334370" lon="35.0915890">
<ele>694.700134</ele>
<time>2015-07-10T05:05:46.997Z</time>
</trkpt>
<trkpt lat="31.7334290" lon="35.0917300">
<ele>693.724792</ele>
<time>2015-07-10T05:05:50.004Z</time>
</trkpt>
<trkpt lat="31.7334120" lon="35.0918830">
<ele>693.724792</ele>
<time>2015-07-10T05:05:53.002Z</time>
</trkpt>
<trkpt lat="31.7333940" lon="35.0920010">
<ele>693.237061</ele>
<time>2015-07-10T05:05:54.997Z</time>
</trkpt>
<trkpt lat="31.7333720" lon="35.0921350">
<ele>692.292236</ele>
<time>2015-07-10T05:05:57.002Z</time>
</trkpt>
<trkpt lat="31.7333400" lon="35.0922830">
<ele>691.316895</ele>
<time>2015-07-10T05:05:58.998Z</time>
</trkpt>
<trkpt lat="31.7333060" lon="35.0924240">
<ele>690.829224</ele>
<time>2015-07-10T05:06:01.002Z</time>
</trkpt>
<trkpt lat="31.7332760" lon="35.0925450">
<ele>690.372009</ele>
<time>2015-07-10T05:06:02.998Z</time>
</trkpt>
<trkpt lat="31.7332390" lon="35.0926680">
<ele>689.396667</ele>
<time>2015-07-10T05:06:05.003Z</time>
</trkpt>
<trkpt lat="31.7331850" lon="35.0927830">
<ele>689.396667</ele>
<time>2015-07-10T05:06:06.998Z</time>
</trkpt>
<trkpt lat="31.7331240" lon="35.0928840">
<ele>688.451721</ele>
<time>2015-07-10T05:06:09.003Z</time>
</trkpt>
<trkpt lat="31.7330700" lon="35.0929830">
<ele>688.908936</ele>
<time>2015-07-10T05:06:10.999Z</time>
</trkpt>
<trkpt lat="31.7330160" lon="35.0930870">
<ele>688.908936</ele>
<time>2015-07-10T05:06:13.003Z</time>
</trkpt>
<trkpt lat="31.7329610" lon="35.0931950">
<ele>688.908936</ele>
<time>2015-07-10T05:06:14.999Z</time>
</trkpt>
<trkpt lat="31.7329050" lon="35.0933100">
<ele>688.908936</ele>
<time>2015-07-10T05:06:17.004Z</time>
</trkpt>
<trkpt lat="31.7328480" lon="35.0934260">
<ele>688.451721</ele>
<time>2015-07-10T05:06:18.999Z</time>
</trkpt>
<trkpt lat="31.7327940" lon="35.0935410">
<ele>688.451721</ele>
<time>2015-07-10T05:06:21.004Z</time>
</trkpt>
<trkpt lat="31.7327440" lon="35.0936580">
<ele>688.451721</ele>
<time>2015-07-10T05:06:23.000Z</time>
</trkpt>
<trkpt lat="31.7326960" lon="35.0937810">
<ele>688.908936</ele>
<time>2015-07-10T05:06:25.004Z</time>
</trkpt>
<trkpt lat="31.7326420" lon="35.0938900">
<ele>688.908936</ele>
<time>2015-07-10T05:06:27.000Z</time>
</trkpt>
<trkpt lat="31.7325950" lon="35.0939820">
<ele>689.396667</ele>
<time>2015-07-10T05:06:28.996Z</time>
</trkpt>
<trkpt lat="31.7325380" lon="35.0941120">
<ele>689.396667</ele>
<time>2015-07-10T05:06:32.003Z</time>
</trkpt>
<trkpt lat="31.7324890" lon="35.0942480">
<ele>689.396667</ele>
<time>2015-07-10T05:06:35.001Z</time>
</trkpt>
<trkpt lat="31.7324470" lon="35.0943840">
<ele>689.396667</ele>
<time>2015-07-10T05:06:37.999Z</time>
</trkpt>
<trkpt lat="31.7324070" lon="35.0944890">
<ele>689.884277</ele>
<time>2015-07-10T05:06:40.997Z</time>
</trkpt>
<trkpt lat="31.7323600" lon="35.0946090">
<ele>689.884277</ele>
<time>2015-07-10T05:06:44.004Z</time>
</trkpt>
<trkpt lat="31.7323190" lon="35.0947420">
<ele>689.884277</ele>
<time>2015-07-10T05:06:47.002Z</time>
</trkpt>
<trkpt lat="31.7322740" lon="35.0948690">
<ele>689.396667</ele>
<time>2015-07-10T05:06:50.000Z</time>
</trkpt>
<trkpt lat="31.7322260" lon="35.0949810">
<ele>689.396667</ele>
<time>2015-07-10T05:06:52.998Z</time>
</trkpt>
<trkpt lat="31.7321880" lon="35.0951010">
<ele>689.884277</ele>
<time>2015-07-10T05:06:55.996Z</time>
</trkpt>
<trkpt lat="31.7321590" lon="35.0952230">
<ele>690.372009</ele>
<time>2015-07-10T05:06:59.003Z</time>
</trkpt>
<trkpt lat="31.7321290" lon="35.0953420">
<ele>690.372009</ele>
<time>2015-07-10T05:07:02.001Z</time>
</trkpt>
<trkpt lat="31.7320960" lon="35.0954840">
<ele>689.884277</ele>
<time>2015-07-10T05:07:04.999Z</time>
</trkpt>
<trkpt lat="31.7320690" lon="35.0956420">
<ele>688.908936</ele>
<time>2015-07-10T05:07:07.997Z</time>
</trkpt>
<trkpt lat="31.7320650" lon="35.0957490">
<ele>688.908936</ele>
<time>2015-07-10T05:07:10.001Z</time>
</trkpt>
<trkpt lat="31.7320480" lon="35.0958610">
<ele>688.451721</ele>
<time>2015-07-10T05:07:11.997Z</time>
</trkpt>
<trkpt lat="31.7320020" lon="35.0959530">
<ele>688.908936</ele>
<time>2015-07-10T05:07:14.002Z</time>
</trkpt>
<trkpt lat="31.7319300" lon="35.0960800">
<ele>688.908936</ele>
<time>2015-07-10T05:07:17.000Z</time>
</trkpt>
<trkpt lat="31.7318650" lon="35.0962190">
<ele>687.964111</ele>
<time>2015-07-10T05:07:19.998Z</time>
</trkpt>
<trkpt lat="31.7317860" lon="35.0963530">
<ele>688.451721</ele>
<time>2015-07-10T05:07:22.996Z</time>
</trkpt>
<trkpt lat="31.7316870" lon="35.0964560">
<ele>688.908936</ele>
<time>2015-07-10T05:07:26.003Z</time>
</trkpt>
<trkpt lat="31.7315900" lon="35.0965340">
<ele>689.396667</ele>
<time>2015-07-10T05:07:29.001Z</time>
</trkpt>
<trkpt lat="31.7315060" lon="35.0965920">
<ele>689.396667</ele>
<time>2015-07-10T05:07:31.999Z</time>
</trkpt>
<trkpt lat="31.7314130" lon="35.0966300">
<ele>689.884277</ele>
<time>2015-07-10T05:07:35.999Z</time>
</trkpt>
<trkpt lat="31.7313140" lon="35.0966600">
<ele>691.316895</ele>
<time>2015-07-10T05:07:42.004Z</time>
</trkpt>
<trkpt lat="31.7312170" lon="35.0967040">
<ele>692.292236</ele>
<time>2015-07-10T05:07:49.996Z</time>
</trkpt>
<trkpt lat="31.7311190" lon="35.0967570">
<ele>691.316895</ele>
<time>2015-07-10T05:07:53.996Z</time>
</trkpt>
<trkpt lat="31.7310150" lon="35.0968120">
<ele>691.316895</ele>
<time>2015-07-10T05:07:57.003Z</time>
</trkpt>
<trkpt lat="31.7309020" lon="35.0968460">
<ele>690.829224</ele>
<time>2015-07-10T05:08:00.001Z</time>
</trkpt>
<trkpt lat="31.7307970" lon="35.0968790">
<ele>690.829224</ele>
<time>2015-07-10T05:08:02.999Z</time>
</trkpt>
<trkpt lat="31.7306970" lon="35.0969210">
<ele>690.372009</ele>
<time>2015-07-10T05:08:05.997Z</time>
</trkpt>
<trkpt lat="31.7305940" lon="35.0969510">
<ele>690.372009</ele>
<time>2015-07-10T05:08:09.004Z</time>
</trkpt>
<trkpt lat="31.7305010" lon="35.0969740">
<ele>690.372009</ele>
<time>2015-07-10T05:08:12.002Z</time>
</trkpt>
<trkpt lat="31.7304070" lon="35.0970080">
<ele>690.829224</ele>
<time>2015-07-10T05:08:15.000Z</time>
</trkpt>
<trkpt lat="31.7303040" lon="35.0970460">
<ele>690.829224</ele>
<time>2015-07-10T05:08:17.998Z</time>
</trkpt>
<trkpt lat="31.7301900" lon="35.0970890">
<ele>689.884277</ele>
<time>2015-07-10T05:08:20.996Z</time>
</trkpt>
<trkpt lat="31.7300920" lon="35.0971540">
<ele>690.372009</ele>
<time>2015-07-10T05:08:24.003Z</time>
</trkpt>
<trkpt lat="31.7300150" lon="35.0972270">
<ele>690.372009</ele>
<time>2015-07-10T05:08:27.001Z</time>
</trkpt>
<trkpt lat="31.7299560" lon="35.0973200">
<ele>689.884277</ele>
<time>2015-07-10T05:08:29.999Z</time>
</trkpt>
<trkpt lat="31.7299070" lon="35.0974170">
<ele>689.884277</ele>
<time>2015-07-10T05:08:32.997Z</time>
</trkpt>
<trkpt lat="31.7298950" lon="35.0975450">
<ele>689.396667</ele>
<time>2015-07-10T05:08:38.000Z</time>
</trkpt>
<trkpt lat="31.7299460" lon="35.0976740">
<ele>687.964111</ele>
<time>2015-07-10T05:08:40.998Z</time>
</trkpt>
<trkpt lat="31.7300230" lon="35.0978270">
<ele>686.531494</ele>
<time>2015-07-10T05:08:43.002Z</time>
</trkpt>
<trkpt lat="31.7301590" lon="35.0979840">
<ele>683.148254</ele>
<time>2015-07-10T05:08:44.998Z</time>
</trkpt>
<trkpt lat="31.7302400" lon="35.0980540">
<ele>683.148254</ele>
<time>2015-07-10T05:08:46.000Z</time>
</trkpt>
<trkpt lat="31.7303200" lon="35.0981270">
<ele>681.228027</ele>
<time>2015-07-10T05:08:47.003Z</time>
</trkpt>
<trkpt lat="31.7304050" lon="35.0982050">
<ele>679.795471</ele>
<time>2015-07-10T05:08:47.996Z</time>
</trkpt>
<trkpt lat="31.7304840" lon="35.0982850">
<ele>677.875183</ele>
<time>2015-07-10T05:08:48.998Z</time>
</trkpt>
<trkpt lat="31.7305610" lon="35.0983680">
<ele>676.899841</ele>
<time>2015-07-10T05:08:50.001Z</time>
</trkpt>
<trkpt lat="31.7306390" lon="35.0984520">
<ele>674.979614</ele>
<time>2015-07-10T05:08:51.003Z</time>
</trkpt>
<trkpt lat="31.7307270" lon="35.0985330">
<ele>673.059326</ele>
<time>2015-07-10T05:08:51.996Z</time>
</trkpt>
<trkpt lat="31.7308240" lon="35.0986130">
<ele>672.114502</ele>
<time>2015-07-10T05:08:52.999Z</time>
</trkpt>
<trkpt lat="31.7309250" lon="35.0986910">
<ele>671.626770</ele>
<time>2015-07-10T05:08:54.001Z</time>
</trkpt>
<trkpt lat="31.7310100" lon="35.0987590">
<ele>671.626770</ele>
<time>2015-07-10T05:08:55.003Z</time>
</trkpt>
<trkpt lat="31.7310950" lon="35.0988320">
<ele>671.626770</ele>
<time>2015-07-10T05:08:55.997Z</time>
</trkpt>
<trkpt lat="31.7311700" lon="35.0988980">
<ele>672.571716</ele>
<time>2015-07-10T05:08:56.999Z</time>
</trkpt>
<trkpt lat="31.7312710" lon="35.0990070">
<ele>674.491882</ele>
<time>2015-07-10T05:08:59.004Z</time>
</trkpt>
<trkpt lat="31.7313440" lon="35.0990910">
<ele>675.467285</ele>
<time>2015-07-10T05:09:02.002Z</time>
</trkpt>
<trkpt lat="31.7314050" lon="35.0991580">
<ele>677.387512</ele>
<time>2015-07-10T05:09:07.004Z</time>
</trkpt>
<trkpt lat="31.7314770" lon="35.0992530">
<ele>678.820129</ele>
<time>2015-07-10T05:09:11.998Z</time>
</trkpt>
<trkpt lat="31.7315470" lon="35.0993190">
<ele>679.795471</ele>
<time>2015-07-10T05:09:17.001Z</time>
</trkpt>
<trkpt lat="31.7316200" lon="35.0993880">
<ele>680.740295</ele>
<time>2015-07-10T05:09:22.003Z</time>
</trkpt>
<trkpt lat="31.7316940" lon="35.0994710">
<ele>681.715698</ele>
<time>2015-07-10T05:09:27.999Z</time>
</trkpt>
<trkpt lat="31.7317720" lon="35.0995360">
<ele>683.635864</ele>
<time>2015-07-10T05:09:34.998Z</time>
</trkpt>
<trkpt lat="31.7318630" lon="35.0995220">
<ele>684.611328</ele>
<time>2015-07-10T05:09:42.998Z</time>
</trkpt>
<trkpt lat="31.7319140" lon="35.0994100">
<ele>684.611328</ele>
<time>2015-07-10T05:09:54.999Z</time>
</trkpt>
<trkpt lat="31.7319550" lon="35.0991940">
<ele>685.068481</ele>
<time>2015-07-10T05:10:59.998Z</time>
</trkpt>
<trkpt lat="31.7320150" lon="35.0990730">
<ele>685.068481</ele>
<time>2015-07-10T05:11:03.998Z</time>
</trkpt>
<trkpt lat="31.7320780" lon="35.0989830">
<ele>684.611328</ele>
<time>2015-07-10T05:11:06.996Z</time>
</trkpt>
<trkpt lat="31.7321450" lon="35.0988730">
<ele>685.068481</ele>
<time>2015-07-10T05:11:10.003Z</time>
</trkpt>
<trkpt lat="31.7322010" lon="35.0987630">
<ele>684.611328</ele>
<time>2015-07-10T05:11:13.001Z</time>
</trkpt>
<trkpt lat="31.7322540" lon="35.0986490">
<ele>684.123596</ele>
<time>2015-07-10T05:11:15.999Z</time>
</trkpt>
<trkpt lat="31.7323300" lon="35.0985180">
<ele>684.123596</ele>
<time>2015-07-10T05:11:18.997Z</time>
</trkpt>
<trkpt lat="31.7324310" lon="35.0984130">
<ele>683.635864</ele>
<time>2015-07-10T05:11:22.004Z</time>
</trkpt>
<trkpt lat="31.7325320" lon="35.0983520">
<ele>683.635864</ele>
<time>2015-07-10T05:11:25.002Z</time>
</trkpt>
<trkpt lat="31.7326180" lon="35.0982870">
<ele>684.123596</ele>
<time>2015-07-10T05:11:28.000Z</time>
</trkpt>
<trkpt lat="31.7327040" lon="35.0982300">
<ele>684.611328</ele>
<time>2015-07-10T05:11:30.998Z</time>
</trkpt>
<trkpt lat="31.7327910" lon="35.0981600">
<ele>684.611328</ele>
<time>2015-07-10T05:11:33.996Z</time>
</trkpt>
<trkpt lat="31.7328760" lon="35.0980880">
<ele>684.123596</ele>
<time>2015-07-10T05:11:37.003Z</time>
</trkpt>
<trkpt lat="31.7329560" lon="35.0980140">
<ele>684.123596</ele>
<time>2015-07-10T05:11:40.001Z</time>
</trkpt>
<trkpt lat="31.7330480" lon="35.0979440">
<ele>684.123596</ele>
<time>2015-07-10T05:11:42.999Z</time>
</trkpt>
<trkpt lat="31.7331520" lon="35.0978840">
<ele>683.148254</ele>
<time>2015-07-10T05:11:45.997Z</time>
</trkpt>
<trkpt lat="31.7332420" lon="35.0977920">
<ele>682.660522</ele>
<time>2015-07-10T05:11:49.004Z</time>
</trkpt>
<trkpt lat="31.7333310" lon="35.0976870">
<ele>682.660522</ele>
<time>2015-07-10T05:11:52.002Z</time>
</trkpt>
<trkpt lat="31.7334210" lon="35.0975990">
<ele>682.203369</ele>
<time>2015-07-10T05:11:55.000Z</time>
</trkpt>
<trkpt lat="31.7335150" lon="35.0975270">
<ele>682.660522</ele>
<time>2015-07-10T05:11:57.998Z</time>
</trkpt>
<trkpt lat="31.7336050" lon="35.0974400">
<ele>682.660522</ele>
<time>2015-07-10T05:12:00.996Z</time>
</trkpt>
<trkpt lat="31.7337010" lon="35.0973430">
<ele>681.715698</ele>
<time>2015-07-10T05:12:04.003Z</time>
</trkpt>
<trkpt lat="31.7337970" lon="35.0972360">
<ele>681.715698</ele>
<time>2015-07-10T05:12:07.001Z</time>
</trkpt>
<trkpt lat="31.7338670" lon="35.0971520">
<ele>680.740295</ele>
<time>2015-07-10T05:12:08.997Z</time>
</trkpt>
<trkpt lat="31.7339360" lon="35.0970500">
<ele>680.283081</ele>
<time>2015-07-10T05:12:11.002Z</time>
</trkpt>
<trkpt lat="31.7340080" lon="35.0969360">
<ele>679.307739</ele>
<time>2015-07-10T05:12:12.997Z</time>
</trkpt>
<trkpt lat="31.7340890" lon="35.0968210">
<ele>678.820129</ele>
<time>2015-07-10T05:12:15.002Z</time>
</trkpt>
<trkpt lat="31.7341600" lon="35.0967000">
<ele>678.362915</ele>
<time>2015-07-10T05:12:16.998Z</time>
</trkpt>
<trkpt lat="31.7342390" lon="35.0965730">
<ele>677.875183</ele>
<time>2015-07-10T05:12:19.002Z</time>
</trkpt>
<trkpt lat="31.7343240" lon="35.0964420">
<ele>676.899841</ele>
<time>2015-07-10T05:12:20.998Z</time>
</trkpt>
<trkpt lat="31.7344180" lon="35.0963200">
<ele>676.899841</ele>
<time>2015-07-10T05:12:23.003Z</time>
</trkpt>
<trkpt lat="31.7345070" lon="35.0962030">
<ele>676.899841</ele>
<time>2015-07-10T05:12:24.998Z</time>
</trkpt>
<trkpt lat="31.7345750" lon="35.0960860">
<ele>676.412170</ele>
<time>2015-07-10T05:12:27.003Z</time>
</trkpt>
<trkpt lat="31.7346290" lon="35.0959680">
<ele>675.954956</ele>
<time>2015-07-10T05:12:28.999Z</time>
</trkpt>
<trkpt lat="31.7346600" lon="35.0958520">
<ele>674.491882</ele>
<time>2015-07-10T05:12:31.003Z</time>
</trkpt>
<trkpt lat="31.7346910" lon="35.0957250">
<ele>673.547058</ele>
<time>2015-07-10T05:12:32.999Z</time>
</trkpt>
<trkpt lat="31.7347620" lon="35.0955990">
<ele>672.571716</ele>
<time>2015-07-10T05:12:35.004Z</time>
</trkpt>
<trkpt lat="31.7348590" lon="35.0954960">
<ele>672.571716</ele>
<time>2015-07-10T05:12:36.999Z</time>
</trkpt>
<trkpt lat="31.7349620" lon="35.0954300">
<ele>671.139099</ele>
<time>2015-07-10T05:12:39.004Z</time>
</trkpt>
<trkpt lat="31.7350710" lon="35.0953620">
<ele>671.626770</ele>
<time>2015-07-10T05:12:42.002Z</time>
</trkpt>
<trkpt lat="31.7351570" lon="35.0952860">
<ele>670.651428</ele>
<time>2015-07-10T05:12:46.002Z</time>
</trkpt>
<trkpt lat="31.7352640" lon="35.0952240">
<ele>670.651428</ele>
<time>2015-07-10T05:12:50.003Z</time>
</trkpt>
<trkpt lat="31.7353460" lon="35.0952020">
<ele>670.651428</ele>
<time>2015-07-10T05:13:24.001Z</time>
</trkpt>
<trkpt lat="31.7354400" lon="35.0951360">
<ele>670.194275</ele>
<time>2015-07-10T05:13:26.999Z</time>
</trkpt>
<trkpt lat="31.7355490" lon="35.0950710">
<ele>669.218933</ele>
<time>2015-07-10T05:13:29.997Z</time>
</trkpt>
<trkpt lat="31.7356450" lon="35.0950260">
<ele>669.218933</ele>
<time>2015-07-10T05:13:33.004Z</time>
</trkpt>
<trkpt lat="31.7357310" lon="35.0949940">
<ele>668.243469</ele>
<time>2015-07-10T05:13:36.002Z</time>
</trkpt>
<trkpt lat="31.7358270" lon="35.0949530">
<ele>666.810974</ele>
<time>2015-07-10T05:13:40.002Z</time>
</trkpt>
<trkpt lat="31.7359300" lon="35.0949030">
<ele>665.378418</ele>
<time>2015-07-10T05:13:44.003Z</time>
</trkpt>
<trkpt lat="31.7360300" lon="35.0948960">
<ele>663.458130</ele>
<time>2015-07-10T05:13:48.003Z</time>
</trkpt>
<trkpt lat="31.7361290" lon="35.0949800">
<ele>662.482788</ele>
<time>2015-07-10T05:14:27.997Z</time>
</trkpt>
<trkpt lat="31.7362240" lon="35.0950740">
<ele>661.050232</ele>
<time>2015-07-10T05:14:31.004Z</time>
</trkpt>
<trkpt lat="31.7362710" lon="35.0951780">
<ele>659.130005</ele>
<time>2015-07-10T05:14:34.002Z</time>
</trkpt>
<trkpt lat="31.7363520" lon="35.0951960">
<ele>657.666931</ele>
<time>2015-07-10T05:14:38.003Z</time>
</trkpt>
<trkpt lat="31.7363530" lon="35.0950830">
<ele>656.722107</ele>
<time>2015-07-10T05:14:41.001Z</time>
</trkpt>
<trkpt lat="31.7363390" lon="35.0949700">
<ele>655.289490</ele>
<time>2015-07-10T05:14:42.996Z</time>
</trkpt>
<trkpt lat="31.7363080" lon="35.0948390">
<ele>653.826538</ele>
<time>2015-07-10T05:14:45.001Z</time>
</trkpt>
<trkpt lat="31.7362450" lon="35.0947060">
<ele>652.393860</ele>
<time>2015-07-10T05:14:46.997Z</time>
</trkpt>
<trkpt lat="31.7361640" lon="35.0945990">
<ele>651.418518</ele>
<time>2015-07-10T05:14:49.001Z</time>
</trkpt>
<trkpt lat="31.7360660" lon="35.0945330">
<ele>651.418518</ele>
<time>2015-07-10T05:14:50.997Z</time>
</trkpt>
<trkpt lat="31.7359590" lon="35.0944710">
<ele>651.418518</ele>
<time>2015-07-10T05:14:54.004Z</time>
</trkpt>
<trkpt lat="31.7359780" lon="35.0943450">
<ele>650.961365</ele>
<time>2015-07-10T05:14:58.004Z</time>
</trkpt>
<trkpt lat="31.7360900" lon="35.0943080">
<ele>649.986023</ele>
<time>2015-07-10T05:15:01.002Z</time>
</trkpt>
<trkpt lat="31.7361920" lon="35.0943210">
<ele>649.041077</ele>
<time>2015-07-10T05:15:02.998Z</time>
</trkpt>
<trkpt lat="31.7362880" lon="35.0943830">
<ele>648.065735</ele>
<time>2015-07-10T05:15:05.003Z</time>
</trkpt>
<trkpt lat="31.7363620" lon="35.0944710">
<ele>647.090393</ele>
<time>2015-07-10T05:15:06.998Z</time>
</trkpt>
<trkpt lat="31.7364440" lon="35.0945380">
<ele>646.633179</ele>
<time>2015-07-10T05:15:09.996Z</time>
</trkpt>
<trkpt lat="31.7364780" lon="35.0944120">
<ele>645.170166</ele>
<time>2015-07-10T05:15:13.997Z</time>
</trkpt>
<trkpt lat="31.7364340" lon="35.0943110">
<ele>644.712952</ele>
<time>2015-07-10T05:15:16.001Z</time>
</trkpt>
<trkpt lat="31.7363610" lon="35.0942270">
<ele>644.225281</ele>
<time>2015-07-10T05:15:17.997Z</time>
</trkpt>
<trkpt lat="31.7362530" lon="35.0941670">
<ele>644.225281</ele>
<time>2015-07-10T05:15:21.004Z</time>
</trkpt>
<trkpt lat="31.7362030" lon="35.0941010">
<ele>643.737610</ele>
<time>2015-07-10T05:15:25.004Z</time>
</trkpt>
<trkpt lat="31.7362710" lon="35.0940220">
<ele>643.249878</ele>
<time>2015-07-10T05:15:28.002Z</time>
</trkpt>
<trkpt lat="31.7363520" lon="35.0939650">
<ele>641.817322</ele>
<time>2015-07-10T05:15:31.000Z</time>
</trkpt>
<trkpt lat="31.7364470" lon="35.0939460">
<ele>641.329712</ele>
<time>2015-07-10T05:15:33.998Z</time>
</trkpt>
<trkpt lat="31.7365670" lon="35.0939610">
<ele>639.409485</ele>
<time>2015-07-10T05:15:37.999Z</time>
</trkpt>
<trkpt lat="31.7366510" lon="35.0940430">
<ele>637.976929</ele>
<time>2015-07-10T05:15:41.999Z</time>
</trkpt>
<trkpt lat="31.7366670" lon="35.0941840">
<ele>636.544312</ele>
<time>2015-07-10T05:15:45.999Z</time>
</trkpt>
<trkpt lat="31.7366450" lon="35.0943030">
<ele>635.081299</ele>
<time>2015-07-10T05:15:48.997Z</time>
</trkpt>
<trkpt lat="31.7366560" lon="35.0944280">
<ele>635.081299</ele>
<time>2015-07-10T05:15:52.998Z</time>
</trkpt>
<trkpt lat="31.7367390" lon="35.0944350">
<ele>634.136414</ele>
<time>2015-07-10T05:15:58.000Z</time>
</trkpt>
<trkpt lat="31.7367730" lon="35.0943130">
<ele>632.673340</ele>
<time>2015-07-10T05:16:03.996Z</time>
</trkpt>
<trkpt lat="31.7368090" lon="35.0941810">
<ele>631.728516</ele>
<time>2015-07-10T05:16:07.997Z</time>
</trkpt>
<trkpt lat="31.7368440" lon="35.0940340">
<ele>631.240784</ele>
<time>2015-07-10T05:16:11.004Z</time>
</trkpt>
<trkpt lat="31.7368620" lon="35.0938920">
<ele>630.753113</ele>
<time>2015-07-10T05:16:14.002Z</time>
</trkpt>
<trkpt lat="31.7368470" lon="35.0937660">
<ele>630.753113</ele>
<time>2015-07-10T05:16:17.000Z</time>
</trkpt>
<trkpt lat="31.7368100" lon="35.0936520">
<ele>631.240784</ele>
<time>2015-07-10T05:16:21.000Z</time>
</trkpt>
<trkpt lat="31.7367430" lon="35.0935460">
<ele>631.240784</ele>
<time>2015-07-10T05:16:26.003Z</time>
</trkpt>
<trkpt lat="31.7367810" lon="35.0934470">
<ele>630.265442</ele>
<time>2015-07-10T05:16:30.003Z</time>
</trkpt>
<trkpt lat="31.7368790" lon="35.0933900">
<ele>630.265442</ele>
<time>2015-07-10T05:16:34.997Z</time>
</trkpt>
<trkpt lat="31.7369730" lon="35.0934690">
<ele>628.345215</ele>
<time>2015-07-10T05:16:38.997Z</time>
</trkpt>
<trkpt lat="31.7370090" lon="35.0935820">
<ele>627.400269</ele>
<time>2015-07-10T05:16:42.004Z</time>
</trkpt>
<trkpt lat="31.7370030" lon="35.0937030">
<ele>626.424927</ele>
<time>2015-07-10T05:16:45.002Z</time>
</trkpt>
<trkpt lat="31.7369940" lon="35.0938190">
<ele>625.480103</ele>
<time>2015-07-10T05:16:49.002Z</time>
</trkpt>
<trkpt lat="31.7369960" lon="35.0939290">
<ele>624.504700</ele>
<time>2015-07-10T05:16:54.998Z</time>
</trkpt>
<trkpt lat="31.7369640" lon="35.0940280">
<ele>624.504700</ele>
<time>2015-07-10T05:19:35.003Z</time>
</trkpt>
<trkpt lat="31.7369560" lon="35.0941330">
<ele>624.504700</ele>
<time>2015-07-10T05:19:39.996Z</time>
</trkpt>
<trkpt lat="31.7369670" lon="35.0942400">
<ele>624.504700</ele>
<time>2015-07-10T05:19:44.999Z</time>
</trkpt>
<trkpt lat="31.7370550" lon="35.0941920">
<ele>623.072144</ele>
<time>2015-07-10T05:19:50.002Z</time>
</trkpt>
<trkpt lat="31.7370790" lon="35.0940620">
<ele>623.072144</ele>
<time>2015-07-10T05:19:54.002Z</time>
</trkpt>
<trkpt lat="31.7371160" lon="35.0939600">
<ele>622.096802</ele>
<time>2015-07-10T05:19:57.000Z</time>
</trkpt>
<trkpt lat="31.7371770" lon="35.0938400">
<ele>621.639587</ele>
<time>2015-07-10T05:20:01.000Z</time>
</trkpt>
<trkpt lat="31.7372600" lon="35.0937380">
<ele>621.151917</ele>
<time>2015-07-10T05:20:05.001Z</time>
</trkpt>
<trkpt lat="31.7373420" lon="35.0936580">
<ele>620.176575</ele>
<time>2015-07-10T05:20:07.999Z</time>
</trkpt>
<trkpt lat="31.7374360" lon="35.0935780">
<ele>619.231689</ele>
<time>2015-07-10T05:20:10.997Z</time>
</trkpt>
<trkpt lat="31.7375190" lon="35.0934810">
<ele>617.768677</ele>
<time>2015-07-10T05:20:14.004Z</time>
</trkpt>
<trkpt lat="31.7376020" lon="35.0933940">
<ele>616.336060</ele>
<time>2015-07-10T05:20:17.002Z</time>
</trkpt>
<trkpt lat="31.7376910" lon="35.0933270">
<ele>615.848389</ele>
<time>2015-07-10T05:20:20.000Z</time>
</trkpt>
<trkpt lat="31.7377740" lon="35.0932680">
<ele>614.415833</ele>
<time>2015-07-10T05:20:22.998Z</time>
</trkpt>
<trkpt lat="31.7378490" lon="35.0931980">
<ele>613.470947</ele>
<time>2015-07-10T05:20:25.996Z</time>
</trkpt>
<trkpt lat="31.7379110" lon="35.0931230">
<ele>612.983276</ele>
<time>2015-07-10T05:20:29.003Z</time>
</trkpt>
<trkpt lat="31.7379890" lon="35.0931290">
<ele>612.007935</ele>
<time>2015-07-10T05:20:33.003Z</time>
</trkpt>
<trkpt lat="31.7379800" lon="35.0932470">
<ele>611.063049</ele>
<time>2015-07-10T05:20:37.003Z</time>
</trkpt>
<trkpt lat="31.7379070" lon="35.0933460">
<ele>610.087646</ele>
<time>2015-07-10T05:20:41.997Z</time>
</trkpt>
<trkpt lat="31.7378490" lon="35.0934500">
<ele>609.142822</ele>
<time>2015-07-10T05:20:48.002Z</time>
</trkpt>
<trkpt lat="31.7377830" lon="35.0935640">
<ele>608.167480</ele>
<time>2015-07-10T05:20:52.996Z</time>
</trkpt>
<trkpt lat="31.7377270" lon="35.0936680">
<ele>607.679749</ele>
<time>2015-07-10T05:20:56.003Z</time>
</trkpt>
<trkpt lat="31.7376640" lon="35.0937870">
<ele>606.734863</ele>
<time>2015-07-10T05:20:59.001Z</time>
</trkpt>
<trkpt lat="31.7376030" lon="35.0939110">
<ele>606.247192</ele>
<time>2015-07-10T05:21:01.999Z</time>
</trkpt>
<trkpt lat="31.7375500" lon="35.0940260">
<ele>605.302307</ele>
<time>2015-07-10T05:21:04.997Z</time>
</trkpt>
<trkpt lat="31.7375680" lon="35.0941230">
<ele>605.302307</ele>
<time>2015-07-10T05:21:08.997Z</time>
</trkpt>
<trkpt lat="31.7376700" lon="35.0940650">
<ele>603.839294</ele>
<time>2015-07-10T05:21:12.997Z</time>
</trkpt>
<trkpt lat="31.7377240" lon="35.0939660">
<ele>602.894409</ele>
<time>2015-07-10T05:21:16.004Z</time>
</trkpt>
<trkpt lat="31.7377690" lon="35.0938570">
<ele>603.351624</ele>
<time>2015-07-10T05:21:19.002Z</time>
</trkpt>
<trkpt lat="31.7378150" lon="35.0937550">
<ele>602.894409</ele>
<time>2015-07-10T05:21:22.000Z</time>
</trkpt>
<trkpt lat="31.7378810" lon="35.0936500">
<ele>603.839294</ele>
<time>2015-07-10T05:21:26.001Z</time>
</trkpt>
<trkpt lat="31.7379510" lon="35.0935490">
<ele>603.839294</ele>
<time>2015-07-10T05:21:30.001Z</time>
</trkpt>
<trkpt lat="31.7380140" lon="35.0934750">
<ele>603.839294</ele>
<time>2015-07-10T05:22:14.998Z</time>
</trkpt>
<trkpt lat="31.7380890" lon="35.0933600">
<ele>603.839294</ele>
<time>2015-07-10T05:22:18.998Z</time>
</trkpt>
<trkpt lat="31.7381400" lon="35.0932590">
<ele>604.814636</ele>
<time>2015-07-10T05:22:22.999Z</time>
</trkpt>
<trkpt lat="31.7382130" lon="35.0931630">
<ele>604.814636</ele>
<time>2015-07-10T05:22:26.999Z</time>
</trkpt>
<trkpt lat="31.7382780" lon="35.0930790">
<ele>604.326965</ele>
<time>2015-07-10T05:22:29.004Z</time>
</trkpt>
<trkpt lat="31.7383460" lon="35.0929940">
<ele>604.326965</ele>
<time>2015-07-10T05:22:30.999Z</time>
</trkpt>
<trkpt lat="31.7384110" lon="35.0929120">
<ele>604.814636</ele>
<time>2015-07-10T05:22:33.004Z</time>
</trkpt>
<trkpt lat="31.7384740" lon="35.0928330">
<ele>604.326965</ele>
<time>2015-07-10T05:22:35.000Z</time>
</trkpt>
<trkpt lat="31.7385730" lon="35.0927200">
<ele>604.814636</ele>
<time>2015-07-10T05:22:37.998Z</time>
</trkpt>
<trkpt lat="31.7386430" lon="35.0926510">
<ele>604.814636</ele>
<time>2015-07-10T05:22:40.002Z</time>
</trkpt>
<trkpt lat="31.7387410" lon="35.0925470">
<ele>604.814636</ele>
<time>2015-07-10T05:22:43.000Z</time>
</trkpt>
<trkpt lat="31.7388280" lon="35.0924640">
<ele>605.759521</ele>
<time>2015-07-10T05:22:45.998Z</time>
</trkpt>
<trkpt lat="31.7389330" lon="35.0923870">
<ele>605.759521</ele>
<time>2015-07-10T05:22:48.996Z</time>
</trkpt>
<trkpt lat="31.7390370" lon="35.0923070">
<ele>605.302307</ele>
<time>2015-07-10T05:22:52.003Z</time>
</trkpt>
<trkpt lat="31.7391390" lon="35.0922370">
<ele>605.302307</ele>
<time>2015-07-10T05:22:55.001Z</time>
</trkpt>
<trkpt lat="31.7392380" lon="35.0921740">
<ele>606.247192</ele>
<time>2015-07-10T05:22:57.999Z</time>
</trkpt>
<trkpt lat="31.7393420" lon="35.0920860">
<ele>605.302307</ele>
<time>2015-07-10T05:23:00.997Z</time>
</trkpt>
<trkpt lat="31.7394210" lon="35.0920320">
<ele>605.302307</ele>
<time>2015-07-10T05:23:03.002Z</time>
</trkpt>
<trkpt lat="31.7395460" lon="35.0919620">
<ele>604.326965</ele>
<time>2015-07-10T05:23:06.000Z</time>
</trkpt>
<trkpt lat="31.7396430" lon="35.0919100">
<ele>603.839294</ele>
<time>2015-07-10T05:23:07.996Z</time>
</trkpt>
<trkpt lat="31.7397390" lon="35.0918420">
<ele>602.894409</ele>
<time>2015-07-10T05:23:10.000Z</time>
</trkpt>
<trkpt lat="31.7398370" lon="35.0917700">
<ele>603.351624</ele>
<time>2015-07-10T05:23:11.996Z</time>
</trkpt>
<trkpt lat="31.7399300" lon="35.0917030">
<ele>602.406738</ele>
<time>2015-07-10T05:23:14.001Z</time>
</trkpt>
<trkpt lat="31.7400250" lon="35.0916300">
<ele>602.406738</ele>
<time>2015-07-10T05:23:15.996Z</time>
</trkpt>
<trkpt lat="31.7401040" lon="35.0915590">
<ele>601.919067</ele>
<time>2015-07-10T05:23:18.001Z</time>
</trkpt>
<trkpt lat="31.7401860" lon="35.0915200">
<ele>601.919067</ele>
<time>2015-07-10T05:23:20.999Z</time>
</trkpt>
<trkpt lat="31.7402970" lon="35.0915180">
<ele>600.974121</ele>
<time>2015-07-10T05:23:24.999Z</time>
</trkpt>
<trkpt lat="31.7404260" lon="35.0915170">
<ele>599.053955</ele>
<time>2015-07-10T05:23:27.997Z</time>
</trkpt>
<trkpt lat="31.7405220" lon="35.0914790">
<ele>597.133667</ele>
<time>2015-07-10T05:23:30.002Z</time>
</trkpt>
<trkpt lat="31.7406410" lon="35.0914460">
<ele>596.158325</ele>
<time>2015-07-10T05:23:33.000Z</time>
</trkpt>
<trkpt lat="31.7407290" lon="35.0914290">
<ele>594.695251</ele>
<time>2015-07-10T05:23:34.996Z</time>
</trkpt>
<trkpt lat="31.7408250" lon="35.0914170">
<ele>594.238098</ele>
<time>2015-07-10T05:23:37.000Z</time>
</trkpt>
<trkpt lat="31.7409460" lon="35.0914100">
<ele>592.775024</ele>
<time>2015-07-10T05:23:39.998Z</time>
</trkpt>
<trkpt lat="31.7410520" lon="35.0913980">
<ele>591.342468</ele>
<time>2015-07-10T05:23:42.003Z</time>
</trkpt>
<trkpt lat="31.7411680" lon="35.0913550">
<ele>590.854797</ele>
<time>2015-07-10T05:23:43.999Z</time>
</trkpt>
<trkpt lat="31.7412850" lon="35.0913130">
<ele>590.854797</ele>
<time>2015-07-10T05:23:46.003Z</time>
</trkpt>
<trkpt lat="31.7413880" lon="35.0912810">
<ele>590.397583</ele>
<time>2015-07-10T05:23:47.999Z</time>
</trkpt>
<trkpt lat="31.7414890" lon="35.0912630">
<ele>589.909912</ele>
<time>2015-07-10T05:23:50.997Z</time>
</trkpt>
<trkpt lat="31.7416040" lon="35.0912580">
<ele>588.446899</ele>
<time>2015-07-10T05:23:54.004Z</time>
</trkpt>
<trkpt lat="31.7417370" lon="35.0912560">
<ele>587.014343</ele>
<time>2015-07-10T05:23:57.002Z</time>
</trkpt>
<trkpt lat="31.7418780" lon="35.0912380">
<ele>586.526672</ele>
<time>2015-07-10T05:24:00.000Z</time>
</trkpt>
<trkpt lat="31.7419810" lon="35.0912250">
<ele>586.069458</ele>
<time>2015-07-10T05:24:02.998Z</time>
</trkpt>
<trkpt lat="31.7420820" lon="35.0912190">
<ele>584.606384</ele>
<time>2015-07-10T05:24:05.996Z</time>
</trkpt>
<trkpt lat="31.7422030" lon="35.0911670">
<ele>584.149170</ele>
<time>2015-07-10T05:24:09.003Z</time>
</trkpt>
<trkpt lat="31.7423120" lon="35.0910900">
<ele>584.149170</ele>
<time>2015-07-10T05:24:12.001Z</time>
</trkpt>
<trkpt lat="31.7423910" lon="35.0910050">
<ele>583.661499</ele>
<time>2015-07-10T05:24:16.001Z</time>
</trkpt>
<trkpt lat="31.7424770" lon="35.0909480">
<ele>582.228943</ele>
<time>2015-07-10T05:24:20.002Z</time>
</trkpt>
<trkpt lat="31.7425550" lon="35.0910230">
<ele>580.765930</ele>
<time>2015-07-10T05:24:28.002Z</time>
</trkpt>
<trkpt lat="31.7425210" lon="35.0911360">
<ele>580.278259</ele>
<time>2015-07-10T05:24:33.998Z</time>
</trkpt>
<trkpt lat="31.7424670" lon="35.0912390">
<ele>580.765930</ele>
<time>2015-07-10T05:24:37.999Z</time>
</trkpt>
<trkpt lat="31.7423790" lon="35.0913410">
<ele>580.278259</ele>
<time>2015-07-10T05:24:41.999Z</time>
</trkpt>
<trkpt lat="31.7422860" lon="35.0914430">
<ele>579.821045</ele>
<time>2015-07-10T05:24:45.999Z</time>
</trkpt>
<trkpt lat="31.7421750" lon="35.0914990">
<ele>579.333374</ele>
<time>2015-07-10T05:24:50.000Z</time>
</trkpt>
<trkpt lat="31.7420760" lon="35.0915280">
<ele>578.845642</ele>
<time>2015-07-10T05:24:52.998Z</time>
</trkpt>
<trkpt lat="31.7419660" lon="35.0915640">
<ele>578.357971</ele>
<time>2015-07-10T05:24:55.996Z</time>
</trkpt>
<trkpt lat="31.7418620" lon="35.0916020">
<ele>577.900818</ele>
<time>2015-07-10T05:24:59.003Z</time>
</trkpt>
<trkpt lat="31.7417450" lon="35.0916690">
<ele>577.413147</ele>
<time>2015-07-10T05:25:02.001Z</time>
</trkpt>
<trkpt lat="31.7416640" lon="35.0917170">
<ele>576.437744</ele>
<time>2015-07-10T05:25:03.996Z</time>
</trkpt>
<trkpt lat="31.7415710" lon="35.0917760">
<ele>575.492859</ele>
<time>2015-07-10T05:25:06.001Z</time>
</trkpt>
<trkpt lat="31.7414780" lon="35.0918300">
<ele>575.492859</ele>
<time>2015-07-10T05:25:07.997Z</time>
</trkpt>
<trkpt lat="31.7413770" lon="35.0918880">
<ele>574.517517</ele>
<time>2015-07-10T05:25:10.001Z</time>
</trkpt>
<trkpt lat="31.7412630" lon="35.0919400">
<ele>573.084961</ele>
<time>2015-07-10T05:25:11.997Z</time>
</trkpt>
<trkpt lat="31.7411450" lon="35.0919730">
<ele>572.597290</ele>
<time>2015-07-10T05:25:14.002Z</time>
</trkpt>
<trkpt lat="31.7410380" lon="35.0920150">
<ele>571.652405</ele>
<time>2015-07-10T05:25:15.997Z</time>
</trkpt>
<trkpt lat="31.7409490" lon="35.0920790">
<ele>570.677063</ele>
<time>2015-07-10T05:25:18.002Z</time>
</trkpt>
<trkpt lat="31.7408710" lon="35.0921620">
<ele>569.732117</ele>
<time>2015-07-10T05:25:19.998Z</time>
</trkpt>
<trkpt lat="31.7407810" lon="35.0922470">
<ele>567.811951</ele>
<time>2015-07-10T05:25:22.002Z</time>
</trkpt>
<trkpt lat="31.7406640" lon="35.0923260">
<ele>566.348877</ele>
<time>2015-07-10T05:25:23.998Z</time>
</trkpt>
<trkpt lat="31.7405450" lon="35.0924040">
<ele>565.861206</ele>
<time>2015-07-10T05:25:26.003Z</time>
</trkpt>
<trkpt lat="31.7404470" lon="35.0925030">
<ele>564.916321</ele>
<time>2015-07-10T05:25:27.998Z</time>
</trkpt>
<trkpt lat="31.7403490" lon="35.0926030">
<ele>563.940918</ele>
<time>2015-07-10T05:25:30.003Z</time>
</trkpt>
<trkpt lat="31.7402420" lon="35.0926920">
<ele>563.940918</ele>
<time>2015-07-10T05:25:31.999Z</time>
</trkpt>
<trkpt lat="31.7401410" lon="35.0927800">
<ele>562.996094</ele>
<time>2015-07-10T05:25:34.003Z</time>
</trkpt>
<trkpt lat="31.7400380" lon="35.0928570">
<ele>563.483765</ele>
<time>2015-07-10T05:25:35.999Z</time>
</trkpt>
<trkpt lat="31.7399420" lon="35.0929120">
<ele>563.483765</ele>
<time>2015-07-10T05:25:38.004Z</time>
</trkpt>
<trkpt lat="31.7398580" lon="35.0929730">
<ele>563.483765</ele>
<time>2015-07-10T05:25:39.999Z</time>
</trkpt>
<trkpt lat="31.7397660" lon="35.0930430">
<ele>563.483765</ele>
<time>2015-07-10T05:25:42.004Z</time>
</trkpt>
<trkpt lat="31.7396690" lon="35.0931170">
<ele>562.996094</ele>
<time>2015-07-10T05:25:44.000Z</time>
</trkpt>
<trkpt lat="31.7395760" lon="35.0931870">
<ele>563.483765</ele>
<time>2015-07-10T05:25:46.004Z</time>
</trkpt>
<trkpt lat="31.7394850" lon="35.0932600">
<ele>562.996094</ele>
<time>2015-07-10T05:25:48.000Z</time>
</trkpt>
<trkpt lat="31.7393960" lon="35.0933240">
<ele>562.508423</ele>
<time>2015-07-10T05:25:49.996Z</time>
</trkpt>
<trkpt lat="31.7393010" lon="35.0933840">
<ele>562.020752</ele>
<time>2015-07-10T05:25:52.000Z</time>
</trkpt>
<trkpt lat="31.7392200" lon="35.0934580">
<ele>562.020752</ele>
<time>2015-07-10T05:25:53.996Z</time>
</trkpt>
<trkpt lat="31.7391340" lon="35.0935560">
<ele>561.563538</ele>
<time>2015-07-10T05:25:56.001Z</time>
</trkpt>
<trkpt lat="31.7390390" lon="35.0936640">
<ele>560.588135</ele>
<time>2015-07-10T05:25:57.996Z</time>
</trkpt>
<trkpt lat="31.7389450" lon="35.0937820">
<ele>560.588135</ele>
<time>2015-07-10T05:26:00.001Z</time>
</trkpt>
<trkpt lat="31.7388590" lon="35.0939110">
<ele>559.612793</ele>
<time>2015-07-10T05:26:01.997Z</time>
</trkpt>
<trkpt lat="31.7387820" lon="35.0940480">
<ele>559.612793</ele>
<time>2015-07-10T05:26:04.001Z</time>
</trkpt>
<trkpt lat="31.7387030" lon="35.0941890">
<ele>558.667908</ele>
<time>2015-07-10T05:26:05.997Z</time>
</trkpt>
<trkpt lat="31.7386230" lon="35.0943050">
<ele>558.667908</ele>
<time>2015-07-10T05:26:08.002Z</time>
</trkpt>
<trkpt lat="31.7385570" lon="35.0943990">
<ele>559.125122</ele>
<time>2015-07-10T05:26:09.997Z</time>
</trkpt>
<trkpt lat="31.7385000" lon="35.0944970">
<ele>559.125122</ele>
<time>2015-07-10T05:26:12.002Z</time>
</trkpt>
<trkpt lat="31.7384250" lon="35.0946050">
<ele>558.180237</ele>
<time>2015-07-10T05:26:13.998Z</time>
</trkpt>
<trkpt lat="31.7383410" lon="35.0947100">
<ele>558.667908</ele>
<time>2015-07-10T05:26:16.002Z</time>
</trkpt>
<trkpt lat="31.7382540" lon="35.0947930">
<ele>558.667908</ele>
<time>2015-07-10T05:26:17.998Z</time>
</trkpt>
<trkpt lat="31.7381810" lon="35.0948580">
<ele>559.612793</ele>
<time>2015-07-10T05:26:20.003Z</time>
</trkpt>
<trkpt lat="31.7381100" lon="35.0949550">
<ele>560.100464</ele>
<time>2015-07-10T05:26:24.003Z</time>
</trkpt>
<trkpt lat="31.7380540" lon="35.0950700">
<ele>559.612793</ele>
<time>2015-07-10T05:27:19.999Z</time>
</trkpt>
<trkpt lat="31.7380510" lon="35.0951860">
<ele>559.612793</ele>
<time>2015-07-10T05:27:22.997Z</time>
</trkpt>
<trkpt lat="31.7380910" lon="35.0953120">
<ele>560.100464</ele>
<time>2015-07-10T05:27:26.004Z</time>
</trkpt>
<trkpt lat="31.7381520" lon="35.0954350">
<ele>560.100464</ele>
<time>2015-07-10T05:27:29.002Z</time>
</trkpt>
<trkpt lat="31.7381960" lon="35.0955620">
<ele>560.588135</ele>
<time>2015-07-10T05:27:32.000Z</time>
</trkpt>
<trkpt lat="31.7382120" lon="35.0956850">
<ele>561.075867</ele>
<time>2015-07-10T05:27:34.998Z</time>
</trkpt>
<trkpt lat="31.7382120" lon="35.0957970">
<ele>561.563538</ele>
<time>2015-07-10T05:27:37.996Z</time>
</trkpt>
<trkpt lat="31.7382140" lon="35.0959050">
<ele>561.563538</ele>
<time>2015-07-10T05:27:41.003Z</time>
</trkpt>
<trkpt lat="31.7382210" lon="35.0960380">
<ele>562.508423</ele>
<time>2015-07-10T05:27:45.003Z</time>
</trkpt>
<trkpt lat="31.7382440" lon="35.0961660">
<ele>562.508423</ele>
<time>2015-07-10T05:27:49.003Z</time>
</trkpt>
<trkpt lat="31.7382550" lon="35.0962750">
<ele>562.996094</ele>
<time>2015-07-10T05:27:52.001Z</time>
</trkpt>
<trkpt lat="31.7382670" lon="35.0964090">
<ele>563.940918</ele>
<time>2015-07-10T05:27:56.002Z</time>
</trkpt>
<trkpt lat="31.7382770" lon="35.0965380">
<ele>564.428650</ele>
<time>2015-07-10T05:28:00.002Z</time>
</trkpt>
<trkpt lat="31.7382690" lon="35.0966560">
<ele>564.428650</ele>
<time>2015-07-10T05:28:04.002Z</time>
</trkpt>
<trkpt lat="31.7382630" lon="35.0967930">
<ele>565.403992</ele>
<time>2015-07-10T05:28:08.003Z</time>
</trkpt>
<trkpt lat="31.7382500" lon="35.0969020">
<ele>565.403992</ele>
<time>2015-07-10T05:28:11.001Z</time>
</trkpt>
<trkpt lat="31.7382290" lon="35.0970110">
<ele>565.861206</ele>
<time>2015-07-10T05:28:13.999Z</time>
</trkpt>
<trkpt lat="31.7382230" lon="35.0971460">
<ele>567.324280</ele>
<time>2015-07-10T05:28:17.999Z</time>
</trkpt>
<trkpt lat="31.7382190" lon="35.0972790">
<ele>567.811951</ele>
<time>2015-07-10T05:28:21.999Z</time>
</trkpt>
<trkpt lat="31.7382380" lon="35.0974020">
<ele>567.811951</ele>
<time>2015-07-10T05:28:26.000Z</time>
</trkpt>
<trkpt lat="31.7382650" lon="35.0975110">
<ele>569.244446</ele>
<time>2015-07-10T05:28:30.000Z</time>
</trkpt>
<trkpt lat="31.7383050" lon="35.0976180">
<ele>569.732117</ele>
<time>2015-07-10T05:28:35.003Z</time>
</trkpt>
<trkpt lat="31.7383410" lon="35.0977450">
<ele>569.732117</ele>
<time>2015-07-10T05:28:39.996Z</time>
</trkpt>
<trkpt lat="31.7383670" lon="35.0978510">
<ele>570.189331</ele>
<time>2015-07-10T05:28:43.997Z</time>
</trkpt>
<trkpt lat="31.7383890" lon="35.0979580">
<ele>570.677063</ele>
<time>2015-07-10T05:28:47.997Z</time>
</trkpt>
<trkpt lat="31.7383890" lon="35.0980880">
<ele>571.652405</ele>
<time>2015-07-10T05:28:53.000Z</time>
</trkpt>
<trkpt lat="31.7383550" lon="35.0981910">
<ele>571.652405</ele>
<time>2015-07-10T05:28:58.002Z</time>
</trkpt>
<trkpt lat="31.7383440" lon="35.0983200">
<ele>572.597290</ele>
<time>2015-07-10T05:29:02.996Z</time>
</trkpt>
<trkpt lat="31.7383260" lon="35.0984210">
<ele>572.597290</ele>
<time>2015-07-10T05:29:06.996Z</time>
</trkpt>
<trkpt lat="31.7383160" lon="35.0985510">
<ele>573.572632</ele>
<time>2015-07-10T05:29:11.999Z</time>
</trkpt>
<trkpt lat="31.7382920" lon="35.0986590">
<ele>573.572632</ele>
<time>2015-07-10T05:29:15.999Z</time>
</trkpt>
<trkpt lat="31.7382890" lon="35.0987850">
<ele>574.517517</ele>
<time>2015-07-10T05:29:20.000Z</time>
</trkpt>
<trkpt lat="31.7383110" lon="35.0988960">
<ele>574.517517</ele>
<time>2015-07-10T05:29:24.000Z</time>
</trkpt>
<trkpt lat="31.7383640" lon="35.0990000">
<ele>575.005188</ele>
<time>2015-07-10T05:29:29.003Z</time>
</trkpt>
<trkpt lat="31.7384270" lon="35.0990800">
<ele>575.980530</ele>
<time>2015-07-10T05:29:33.996Z</time>
</trkpt>
<trkpt lat="31.7384910" lon="35.0991540">
<ele>576.437744</ele>
<time>2015-07-10T05:29:37.997Z</time>
</trkpt>
<trkpt lat="31.7385550" lon="35.0992320">
<ele>577.413147</ele>
<time>2015-07-10T05:29:41.997Z</time>
</trkpt>
<trkpt lat="31.7386240" lon="35.0993280">
<ele>577.413147</ele>
<time>2015-07-10T05:29:45.997Z</time>
</trkpt>
<trkpt lat="31.7387070" lon="35.0994330">
<ele>577.900818</ele>
<time>2015-07-10T05:29:49.998Z</time>
</trkpt>
<trkpt lat="31.7387750" lon="35.0995150">
<ele>577.413147</ele>
<time>2015-07-10T05:29:52.996Z</time>
</trkpt>
<trkpt lat="31.7388440" lon="35.0995920">
<ele>578.357971</ele>
<time>2015-07-10T05:29:56.003Z</time>
</trkpt>
<trkpt lat="31.7389230" lon="35.0996860">
<ele>578.357971</ele>
<time>2015-07-10T05:30:00.003Z</time>
</trkpt>
<trkpt lat="31.7390030" lon="35.0997640">
<ele>578.845642</ele>
<time>2015-07-10T05:30:04.003Z</time>
</trkpt>
<trkpt lat="31.7390630" lon="35.0998580">
<ele>579.333374</ele>
<time>2015-07-10T05:30:08.004Z</time>
</trkpt>
<trkpt lat="31.7391070" lon="35.0999650">
<ele>579.821045</ele>
<time>2015-07-10T05:30:12.004Z</time>
</trkpt>
<trkpt lat="31.7391410" lon="35.1000980">
<ele>580.278259</ele>
<time>2015-07-10T05:30:16.004Z</time>
</trkpt>
<trkpt lat="31.7391690" lon="35.1002350">
<ele>579.821045</ele>
<time>2015-07-10T05:30:19.002Z</time>
</trkpt>
<trkpt lat="31.7392180" lon="35.1003920">
<ele>578.845642</ele>
<time>2015-07-10T05:30:22.000Z</time>
</trkpt>
<trkpt lat="31.7392700" lon="35.1004900">
<ele>578.357971</ele>
<time>2015-07-10T05:30:23.996Z</time>
</trkpt>
<trkpt lat="31.7393510" lon="35.1005690">
<ele>577.900818</ele>
<time>2015-07-10T05:30:26.001Z</time>
</trkpt>
<trkpt lat="31.7394410" lon="35.1006250">
<ele>577.900818</ele>
<time>2015-07-10T05:30:27.996Z</time>
</trkpt>
<trkpt lat="31.7395260" lon="35.1006820">
<ele>577.413147</ele>
<time>2015-07-10T05:30:30.001Z</time>
</trkpt>
<trkpt lat="31.7396030" lon="35.1007500">
<ele>577.413147</ele>
<time>2015-07-10T05:30:31.997Z</time>
</trkpt>
<trkpt lat="31.7396690" lon="35.1008280">
<ele>576.925476</ele>
<time>2015-07-10T05:30:34.001Z</time>
</trkpt>
<trkpt lat="31.7397360" lon="35.1009070">
<ele>576.925476</ele>
<time>2015-07-10T05:30:35.997Z</time>
</trkpt>
<trkpt lat="31.7398130" lon="35.1009870">
<ele>576.925476</ele>
<time>2015-07-10T05:30:38.002Z</time>
</trkpt>
<trkpt lat="31.7398780" lon="35.1010810">
<ele>576.925476</ele>
<time>2015-07-10T05:30:39.997Z</time>
</trkpt>
<trkpt lat="31.7399350" lon="35.1011760">
<ele>576.925476</ele>
<time>2015-07-10T05:30:42.002Z</time>
</trkpt>
<trkpt lat="31.7399810" lon="35.1012710">
<ele>577.413147</ele>
<time>2015-07-10T05:30:43.998Z</time>
</trkpt>
<trkpt lat="31.7400520" lon="35.1014000">
<ele>576.925476</ele>
<time>2015-07-10T05:30:46.996Z</time>
</trkpt>
<trkpt lat="31.7401320" lon="35.1015390">
<ele>577.413147</ele>
<time>2015-07-10T05:30:50.003Z</time>
</trkpt>
<trkpt lat="31.7401970" lon="35.1016280">
<ele>576.925476</ele>
<time>2015-07-10T05:30:51.998Z</time>
</trkpt>
<trkpt lat="31.7402770" lon="35.1017130">
<ele>575.980530</ele>
<time>2015-07-10T05:30:54.003Z</time>
</trkpt>
<trkpt lat="31.7403740" lon="35.1017810">
<ele>575.980530</ele>
<time>2015-07-10T05:30:55.999Z</time>
</trkpt>
<trkpt lat="31.7404760" lon="35.1018430">
<ele>575.492859</ele>
<time>2015-07-10T05:30:58.003Z</time>
</trkpt>
<trkpt lat="31.7405660" lon="35.1019180">
<ele>575.492859</ele>
<time>2015-07-10T05:30:59.999Z</time>
</trkpt>
<trkpt lat="31.7406420" lon="35.1020150">
<ele>576.437744</ele>
<time>2015-07-10T05:31:02.004Z</time>
</trkpt>
<trkpt lat="31.7406890" lon="35.1021250">
<ele>576.437744</ele>
<time>2015-07-10T05:31:03.999Z</time>
</trkpt>
<trkpt lat="31.7407260" lon="35.1022290">
<ele>576.925476</ele>
<time>2015-07-10T05:31:06.004Z</time>
</trkpt>
<trkpt lat="31.7407870" lon="35.1023470">
<ele>577.900818</ele>
<time>2015-07-10T05:31:09.002Z</time>
</trkpt>
<trkpt lat="31.7408340" lon="35.1024620">
<ele>577.900818</ele>
<time>2015-07-10T05:31:12.000Z</time>
</trkpt>
<trkpt lat="31.7408750" lon="35.1025890">
<ele>578.845642</ele>
<time>2015-07-10T05:31:14.998Z</time>
</trkpt>
<trkpt lat="31.7408990" lon="35.1027130">
<ele>578.845642</ele>
<time>2015-07-10T05:31:17.996Z</time>
</trkpt>
<trkpt lat="31.7409120" lon="35.1028230">
<ele>579.333374</ele>
<time>2015-07-10T05:31:21.003Z</time>
</trkpt>
<trkpt lat="31.7409170" lon="35.1029300">
<ele>579.821045</ele>
<time>2015-07-10T05:31:24.001Z</time>
</trkpt>
<trkpt lat="31.7409040" lon="35.1030500">
<ele>579.821045</ele>
<time>2015-07-10T05:31:28.001Z</time>
</trkpt>
<trkpt lat="31.7408630" lon="35.1031570">
<ele>580.765930</ele>
<time>2015-07-10T05:31:32.002Z</time>
</trkpt>
<trkpt lat="31.7408250" lon="35.1032630">
<ele>581.253601</ele>
<time>2015-07-10T05:31:36.002Z</time>
</trkpt>
<trkpt lat="31.7407750" lon="35.1033700">
<ele>582.228943</ele>
<time>2015-07-10T05:31:40.002Z</time>
</trkpt>
<trkpt lat="31.7407210" lon="35.1034650">
<ele>582.686157</ele>
<time>2015-07-10T05:31:44.003Z</time>
</trkpt>
<trkpt lat="31.7406550" lon="35.1035790">
<ele>583.173828</ele>
<time>2015-07-10T05:31:48.996Z</time>
</trkpt>
<trkpt lat="31.7406000" lon="35.1036730">
<ele>583.173828</ele>
<time>2015-07-10T05:31:52.997Z</time>
</trkpt>
<trkpt lat="31.7405510" lon="35.1037930">
<ele>583.661499</ele>
<time>2015-07-10T05:31:57.999Z</time>
</trkpt>
<trkpt lat="31.7405040" lon="35.1038930">
<ele>583.661499</ele>
<time>2015-07-10T05:32:02.000Z</time>
</trkpt>
<trkpt lat="31.7404520" lon="35.1040130">
<ele>584.149170</ele>
<time>2015-07-10T05:32:06.000Z</time>
</trkpt>
<trkpt lat="31.7404000" lon="35.1041180">
<ele>583.661499</ele>
<time>2015-07-10T05:32:08.998Z</time>
</trkpt>
<trkpt lat="31.7403430" lon="35.1042400">
<ele>583.661499</ele>
<time>2015-07-10T05:32:11.996Z</time>
</trkpt>
<trkpt lat="31.7402950" lon="35.1043300">
<ele>583.661499</ele>
<time>2015-07-10T05:32:14.001Z</time>
</trkpt>
<trkpt lat="31.7402410" lon="35.1044380">
<ele>583.173828</ele>
<time>2015-07-10T05:32:15.996Z</time>
</trkpt>
<trkpt lat="31.7401930" lon="35.1045380">
<ele>583.173828</ele>
<time>2015-07-10T05:32:18.001Z</time>
</trkpt>
<trkpt lat="31.7401260" lon="35.1046620">
<ele>583.661499</ele>
<time>2015-07-10T05:32:20.999Z</time>
</trkpt>
<trkpt lat="31.7400700" lon="35.1047740">
<ele>584.149170</ele>
<time>2015-07-10T05:32:23.997Z</time>
</trkpt>
<trkpt lat="31.7400130" lon="35.1048860">
<ele>584.606384</ele>
<time>2015-07-10T05:32:27.004Z</time>
</trkpt>
<trkpt lat="31.7399440" lon="35.1049970">
<ele>585.094055</ele>
<time>2015-07-10T05:32:30.002Z</time>
</trkpt>
<trkpt lat="31.7398910" lon="35.1051010">
<ele>585.581726</ele>
<time>2015-07-10T05:32:33.000Z</time>
</trkpt>
<trkpt lat="31.7398300" lon="35.1052080">
<ele>586.069458</ele>
<time>2015-07-10T05:32:37.000Z</time>
</trkpt>
<trkpt lat="31.7397720" lon="35.1053090">
<ele>586.526672</ele>
<time>2015-07-10T05:32:41.001Z</time>
</trkpt>
<trkpt lat="31.7396990" lon="35.1054110">
<ele>587.014343</ele>
<time>2015-07-10T05:32:45.001Z</time>
</trkpt>
<trkpt lat="31.7396230" lon="35.1055180">
<ele>587.502014</ele>
<time>2015-07-10T05:32:49.001Z</time>
</trkpt>
<trkpt lat="31.7395600" lon="35.1056070">
<ele>587.989685</ele>
<time>2015-07-10T05:32:51.999Z</time>
</trkpt>
<trkpt lat="31.7394870" lon="35.1057020">
<ele>587.502014</ele>
<time>2015-07-10T05:32:54.997Z</time>
</trkpt>
<trkpt lat="31.7394140" lon="35.1058250">
<ele>587.014343</ele>
<time>2015-07-10T05:32:58.004Z</time>
</trkpt>
<trkpt lat="31.7393510" lon="35.1059260">
<ele>586.526672</ele>
<time>2015-07-10T05:33:00.000Z</time>
</trkpt>
<trkpt lat="31.7392790" lon="35.1060420">
<ele>585.581726</ele>
<time>2015-07-10T05:33:01.996Z</time>
</trkpt>
<trkpt lat="31.7391960" lon="35.1061810">
<ele>585.094055</ele>
<time>2015-07-10T05:33:04.000Z</time>
</trkpt>
<trkpt lat="31.7391180" lon="35.1063340">
<ele>584.149170</ele>
<time>2015-07-10T05:33:05.996Z</time>
</trkpt>
<trkpt lat="31.7390540" lon="35.1064990">
<ele>583.661499</ele>
<time>2015-07-10T05:33:08.001Z</time>
</trkpt>
<trkpt lat="31.7390000" lon="35.1066640">
<ele>584.149170</ele>
<time>2015-07-10T05:33:09.996Z</time>
</trkpt>
<trkpt lat="31.7389610" lon="35.1068300">
<ele>583.661499</ele>
<time>2015-07-10T05:33:12.001Z</time>
</trkpt>
<trkpt lat="31.7389280" lon="35.1070020">
<ele>583.173828</ele>
<time>2015-07-10T05:33:13.997Z</time>
</trkpt>
<trkpt lat="31.7388810" lon="35.1071700">
<ele>581.741272</ele>
<time>2015-07-10T05:33:16.001Z</time>
</trkpt>
<trkpt lat="31.7387830" lon="35.1073060">
<ele>581.253601</ele>
<time>2015-07-10T05:33:17.997Z</time>
</trkpt>
<trkpt lat="31.7386560" lon="35.1074140">
<ele>579.821045</ele>
<time>2015-07-10T05:33:20.002Z</time>
</trkpt>
<trkpt lat="31.7385250" lon="35.1075310">
<ele>578.845642</ele>
<time>2015-07-10T05:33:21.997Z</time>
</trkpt>
<trkpt lat="31.7384330" lon="35.1076690">
<ele>578.845642</ele>
<time>2015-07-10T05:33:24.002Z</time>
</trkpt>
<trkpt lat="31.7383660" lon="35.1078060">
<ele>579.333374</ele>
<time>2015-07-10T05:33:25.998Z</time>
</trkpt>
<trkpt lat="31.7382980" lon="35.1079290">
<ele>579.821045</ele>
<time>2015-07-10T05:33:28.002Z</time>
</trkpt>
<trkpt lat="31.7382360" lon="35.1080400">
<ele>580.278259</ele>
<time>2015-07-10T05:33:29.998Z</time>
</trkpt>
<trkpt lat="31.7381820" lon="35.1081360">
<ele>580.765930</ele>
<time>2015-07-10T05:33:32.003Z</time>
</trkpt>
<trkpt lat="31.7381210" lon="35.1082170">
<ele>580.765930</ele>
<time>2015-07-10T05:33:33.998Z</time>
</trkpt>
<trkpt lat="31.7380420" lon="35.1083390">
<ele>581.253601</ele>
<time>2015-07-10T05:33:36.996Z</time>
</trkpt>
<trkpt lat="31.7379550" lon="35.1084430">
<ele>580.765930</ele>
<time>2015-07-10T05:33:40.003Z</time>
</trkpt>
<trkpt lat="31.7378650" lon="35.1085540">
<ele>580.765930</ele>
<time>2015-07-10T05:33:43.001Z</time>
</trkpt>
<trkpt lat="31.7377740" lon="35.1086750">
<ele>580.765930</ele>
<time>2015-07-10T05:33:45.999Z</time>
</trkpt>
<trkpt lat="31.7377010" lon="35.1087550">
<ele>581.253601</ele>
<time>2015-07-10T05:33:48.004Z</time>
</trkpt>
<trkpt lat="31.7376190" lon="35.1088310">
<ele>580.765930</ele>
<time>2015-07-10T05:33:50.000Z</time>
</trkpt>
<trkpt lat="31.7375320" lon="35.1089060">
<ele>580.765930</ele>
<time>2015-07-10T05:33:52.004Z</time>
</trkpt>
<trkpt lat="31.7374390" lon="35.1089780">
<ele>580.765930</ele>
<time>2015-07-10T05:33:54.000Z</time>
</trkpt>
<trkpt lat="31.7373440" lon="35.1090360">
<ele>580.278259</ele>
<time>2015-07-10T05:33:55.996Z</time>
</trkpt>
<trkpt lat="31.7372460" lon="35.1090910">
<ele>580.765930</ele>
<time>2015-07-10T05:33:58.000Z</time>
</trkpt>
<trkpt lat="31.7371430" lon="35.1091380">
<ele>579.821045</ele>
<time>2015-07-10T05:33:59.996Z</time>
</trkpt>
<trkpt lat="31.7370410" lon="35.1091820">
<ele>579.821045</ele>
<time>2015-07-10T05:34:02.001Z</time>
</trkpt>
<trkpt lat="31.7369410" lon="35.1092260">
<ele>579.821045</ele>
<time>2015-07-10T05:34:03.996Z</time>
</trkpt>
<trkpt lat="31.7368450" lon="35.1092710">
<ele>579.821045</ele>
<time>2015-07-10T05:34:06.001Z</time>
</trkpt>
<trkpt lat="31.7367480" lon="35.1093040">
<ele>579.333374</ele>
<time>2015-07-10T05:34:07.997Z</time>
</trkpt>
<trkpt lat="31.7366510" lon="35.1093240">
<ele>579.333374</ele>
<time>2015-07-10T05:34:10.001Z</time>
</trkpt>
<trkpt lat="31.7365520" lon="35.1093440">
<ele>578.845642</ele>
<time>2015-07-10T05:34:11.997Z</time>
</trkpt>
<trkpt lat="31.7364530" lon="35.1093590">
<ele>578.357971</ele>
<time>2015-07-10T05:34:14.002Z</time>
</trkpt>
<trkpt lat="31.7363490" lon="35.1093710">
<ele>577.900818</ele>
<time>2015-07-10T05:34:15.997Z</time>
</trkpt>
<trkpt lat="31.7362370" lon="35.1093730">
<ele>576.925476</ele>
<time>2015-07-10T05:34:18.002Z</time>
</trkpt>
<trkpt lat="31.7361260" lon="35.1093820">
<ele>576.925476</ele>
<time>2015-07-10T05:34:19.998Z</time>
</trkpt>
<trkpt lat="31.7360170" lon="35.1093880">
<ele>575.980530</ele>
<time>2015-07-10T05:34:22.002Z</time>
</trkpt>
<trkpt lat="31.7359170" lon="35.1093850">
<ele>575.005188</ele>
<time>2015-07-10T05:34:23.998Z</time>
</trkpt>
<trkpt lat="31.7357930" lon="35.1093750">
<ele>573.572632</ele>
<time>2015-07-10T05:34:26.996Z</time>
</trkpt>
<trkpt lat="31.7356730" lon="35.1093680">
<ele>571.652405</ele>
<time>2015-07-10T05:34:30.003Z</time>
</trkpt>
<trkpt lat="31.7355790" lon="35.1093750">
<ele>570.677063</ele>
<time>2015-07-10T05:34:31.999Z</time>
</trkpt>
<trkpt lat="31.7354870" lon="35.1094020">
<ele>570.677063</ele>
<time>2015-07-10T05:34:34.003Z</time>
</trkpt>
<trkpt lat="31.7353770" lon="35.1094830">
<ele>570.189331</ele>
<time>2015-07-10T05:34:37.001Z</time>
</trkpt>
<trkpt lat="31.7352770" lon="35.1095860">
<ele>570.189331</ele>
<time>2015-07-10T05:34:39.999Z</time>
</trkpt>
<trkpt lat="31.7351790" lon="35.1096990">
<ele>569.244446</ele>
<time>2015-07-10T05:34:42.997Z</time>
</trkpt>
<trkpt lat="31.7351140" lon="35.1097740">
<ele>569.244446</ele>
<time>2015-07-10T05:34:45.002Z</time>
</trkpt>
<trkpt lat="31.7350460" lon="35.1098610">
<ele>568.269104</ele>
<time>2015-07-10T05:34:46.998Z</time>
</trkpt>
<trkpt lat="31.7349970" lon="35.1099680">
<ele>568.269104</ele>
<time>2015-07-10T05:34:49.996Z</time>
</trkpt>
<trkpt lat="31.7350310" lon="35.1101030">
<ele>568.269104</ele>
<time>2015-07-10T05:34:53.996Z</time>
</trkpt>
<trkpt lat="31.7351190" lon="35.1101520">
<ele>568.756775</ele>
<time>2015-07-10T05:34:58.999Z</time>
</trkpt>
<trkpt lat="31.7352340" lon="35.1101750">
<ele>570.189331</ele>
<time>2015-07-10T05:35:05.004Z</time>
</trkpt>
<trkpt lat="31.7353590" lon="35.1102140">
<ele>570.677063</ele>
<time>2015-07-10T05:35:09.997Z</time>
</trkpt>
<trkpt lat="31.7354690" lon="35.1102430">
<ele>570.677063</ele>
<time>2015-07-10T05:35:13.998Z</time>
</trkpt>
<trkpt lat="31.7355800" lon="35.1102520">
<ele>571.652405</ele>
<time>2015-07-10T05:35:19.000Z</time>
</trkpt>
<trkpt lat="31.7356820" lon="35.1102730">
<ele>572.109619</ele>
<time>2015-07-10T05:35:23.001Z</time>
</trkpt>
<trkpt lat="31.7357970" lon="35.1102800">
<ele>573.084961</ele>
<time>2015-07-10T05:35:28.003Z</time>
</trkpt>
<trkpt lat="31.7359170" lon="35.1102980">
<ele>573.572632</ele>
<time>2015-07-10T05:35:32.997Z</time>
</trkpt>
<trkpt lat="31.7360260" lon="35.1103230">
<ele>574.029846</ele>
<time>2015-07-10T05:35:39.002Z</time>
</trkpt>
<trkpt lat="31.7361500" lon="35.1103550">
<ele>574.517517</ele>
<time>2015-07-10T05:35:43.996Z</time>
</trkpt>
<trkpt lat="31.7362500" lon="35.1103850">
<ele>575.005188</ele>
<time>2015-07-10T05:35:47.996Z</time>
</trkpt>
<trkpt lat="31.7363480" lon="35.1104350">
<ele>575.005188</ele>
<time>2015-07-10T05:35:51.996Z</time>
</trkpt>
<trkpt lat="31.7364490" lon="35.1105080">
<ele>575.005188</ele>
<time>2015-07-10T05:35:55.997Z</time>
</trkpt>
<trkpt lat="31.7365510" lon="35.1105540">
<ele>575.492859</ele>
<time>2015-07-10T05:35:59.997Z</time>
</trkpt>
<trkpt lat="31.7366350" lon="35.1106030">
<ele>575.980530</ele>
<time>2015-07-10T05:36:03.997Z</time>
</trkpt>
<trkpt lat="31.7367350" lon="35.1106690">
<ele>575.980530</ele>
<time>2015-07-10T05:36:09.000Z</time>
</trkpt>
<trkpt lat="31.7368310" lon="35.1107530">
<ele>576.437744</ele>
<time>2015-07-10T05:36:14.003Z</time>
</trkpt>
<trkpt lat="31.7369250" lon="35.1108350">
<ele>576.925476</ele>
<time>2015-07-10T05:36:18.003Z</time>
</trkpt>
<trkpt lat="31.7370190" lon="35.1109100">
<ele>576.437744</ele>
<time>2015-07-10T05:36:22.003Z</time>
</trkpt>
<trkpt lat="31.7371060" lon="35.1109850">
<ele>576.437744</ele>
<time>2015-07-10T05:36:26.004Z</time>
</trkpt>
<trkpt lat="31.7371890" lon="35.1110700">
<ele>576.437744</ele>
<time>2015-07-10T05:36:30.004Z</time>
</trkpt>
<trkpt lat="31.7372550" lon="35.1111570">
<ele>575.980530</ele>
<time>2015-07-10T05:36:33.002Z</time>
</trkpt>
<trkpt lat="31.7373160" lon="35.1112530">
<ele>575.005188</ele>
<time>2015-07-10T05:36:36.000Z</time>
</trkpt>
<trkpt lat="31.7373570" lon="35.1113740">
<ele>574.029846</ele>
<time>2015-07-10T05:36:38.998Z</time>
</trkpt>
<trkpt lat="31.7373710" lon="35.1115080">
<ele>572.597290</ele>
<time>2015-07-10T05:36:41.996Z</time>
</trkpt>
<trkpt lat="31.7373380" lon="35.1116590">
<ele>571.652405</ele>
<time>2015-07-10T05:36:45.003Z</time>
</trkpt>
<trkpt lat="31.7373120" lon="35.1117680">
<ele>571.164734</ele>
<time>2015-07-10T05:36:46.999Z</time>
</trkpt>
<trkpt lat="31.7372820" lon="35.1118900">
<ele>570.677063</ele>
<time>2015-07-10T05:36:49.003Z</time>
</trkpt>
<trkpt lat="31.7372220" lon="35.1120120">
<ele>569.732117</ele>
<time>2015-07-10T05:36:50.999Z</time>
</trkpt>
<trkpt lat="31.7371530" lon="35.1121260">
<ele>568.756775</ele>
<time>2015-07-10T05:36:53.004Z</time>
</trkpt>
<trkpt lat="31.7370840" lon="35.1122380">
<ele>568.269104</ele>
<time>2015-07-10T05:36:54.999Z</time>
</trkpt>
<trkpt lat="31.7370240" lon="35.1123540">
<ele>567.811951</ele>
<time>2015-07-10T05:36:57.004Z</time>
</trkpt>
<trkpt lat="31.7369840" lon="35.1124750">
<ele>567.811951</ele>
<time>2015-07-10T05:36:59.000Z</time>
</trkpt>
<trkpt lat="31.7369400" lon="35.1125910">
<ele>567.324280</ele>
<time>2015-07-10T05:37:01.004Z</time>
</trkpt>
<trkpt lat="31.7368770" lon="35.1126980">
<ele>566.836548</ele>
<time>2015-07-10T05:37:03.000Z</time>
</trkpt>
<trkpt lat="31.7368130" lon="35.1128010">
<ele>566.836548</ele>
<time>2015-07-10T05:37:04.996Z</time>
</trkpt>
<trkpt lat="31.7367610" lon="35.1129110">
<ele>566.836548</ele>
<time>2015-07-10T05:37:07.000Z</time>
</trkpt>
<trkpt lat="31.7367300" lon="35.1130270">
<ele>566.348877</ele>
<time>2015-07-10T05:37:08.996Z</time>
</trkpt>
<trkpt lat="31.7367050" lon="35.1131450">
<ele>566.348877</ele>
<time>2015-07-10T05:37:11.001Z</time>
</trkpt>
<trkpt lat="31.7366810" lon="35.1132610">
<ele>565.861206</ele>
<time>2015-07-10T05:37:12.996Z</time>
</trkpt>
<trkpt lat="31.7366490" lon="35.1133690">
<ele>565.861206</ele>
<time>2015-07-10T05:37:15.001Z</time>
</trkpt>
<trkpt lat="31.7366190" lon="35.1134740">
<ele>565.861206</ele>
<time>2015-07-10T05:37:16.997Z</time>
</trkpt>
<trkpt lat="31.7365920" lon="35.1135850">
<ele>564.916321</ele>
<time>2015-07-10T05:37:19.001Z</time>
</trkpt>
<trkpt lat="31.7365600" lon="35.1136930">
<ele>564.916321</ele>
<time>2015-07-10T05:37:20.997Z</time>
</trkpt>
<trkpt lat="31.7365260" lon="35.1138080">
<ele>564.428650</ele>
<time>2015-07-10T05:37:23.002Z</time>
</trkpt>
<trkpt lat="31.7364850" lon="35.1139180">
<ele>563.940918</ele>
<time>2015-07-10T05:37:24.997Z</time>
</trkpt>
<trkpt lat="31.7364340" lon="35.1140340">
<ele>563.483765</ele>
<time>2015-07-10T05:37:27.002Z</time>
</trkpt>
<trkpt lat="31.7363800" lon="35.1141460">
<ele>562.996094</ele>
<time>2015-07-10T05:37:28.998Z</time>
</trkpt>
<trkpt lat="31.7363170" lon="35.1142560">
<ele>562.508423</ele>
<time>2015-07-10T05:37:31.002Z</time>
</trkpt>
<trkpt lat="31.7362460" lon="35.1143640">
<ele>562.020752</ele>
<time>2015-07-10T05:37:32.998Z</time>
</trkpt>
<trkpt lat="31.7361870" lon="35.1144690">
<ele>561.563538</ele>
<time>2015-07-10T05:37:35.003Z</time>
</trkpt>
<trkpt lat="31.7361160" lon="35.1145630">
<ele>561.075867</ele>
<time>2015-07-10T05:37:36.998Z</time>
</trkpt>
<trkpt lat="31.7360360" lon="35.1146520">
<ele>560.588135</ele>
<time>2015-07-10T05:37:39.003Z</time>
</trkpt>
<trkpt lat="31.7359410" lon="35.1147280">
<ele>559.612793</ele>
<time>2015-07-10T05:37:40.999Z</time>
</trkpt>
<trkpt lat="31.7358330" lon="35.1147890">
<ele>558.667908</ele>
<time>2015-07-10T05:37:43.003Z</time>
</trkpt>
<trkpt lat="31.7359420" lon="35.1149390">
<ele>557.204895</ele>
<time>2015-07-10T05:52:07.003Z</time>
</trkpt>
<trkpt lat="31.7359950" lon="35.1150760">
<ele>555.315125</ele>
<time>2015-07-10T05:52:10.001Z</time>
</trkpt>
<trkpt lat="31.7360440" lon="35.1152000">
<ele>554.339722</ele>
<time>2015-07-10T05:52:11.997Z</time>
</trkpt>
<trkpt lat="31.7360940" lon="35.1153510">
<ele>552.907227</ele>
<time>2015-07-10T05:52:14.002Z</time>
</trkpt>
<trkpt lat="31.7361230" lon="35.1155160">
<ele>551.931885</ele>
<time>2015-07-10T05:52:15.997Z</time>
</trkpt>
<trkpt lat="31.7361060" lon="35.1157040">
<ele>550.499268</ele>
<time>2015-07-10T05:52:18.002Z</time>
</trkpt>
<trkpt lat="31.7360680" lon="35.1158960">
<ele>550.011597</ele>
<time>2015-07-10T05:52:19.998Z</time>
</trkpt>
<trkpt lat="31.7360160" lon="35.1160860">
<ele>548.579041</ele>
<time>2015-07-10T05:52:22.002Z</time>
</trkpt>
<trkpt lat="31.7359560" lon="35.1162770">
<ele>547.603699</ele>
<time>2015-07-10T05:52:23.998Z</time>
</trkpt>
<trkpt lat="31.7358960" lon="35.1164680">
<ele>547.116028</ele>
<time>2015-07-10T05:52:26.003Z</time>
</trkpt>
<trkpt lat="31.7358350" lon="35.1166630">
<ele>546.658813</ele>
<time>2015-07-10T05:52:27.998Z</time>
</trkpt>
<trkpt lat="31.7357710" lon="35.1168630">
<ele>546.171143</ele>
<time>2015-07-10T05:52:30.003Z</time>
</trkpt>
<trkpt lat="31.7357360" lon="35.1169610">
<ele>545.195740</ele>
<time>2015-07-10T05:52:30.996Z</time>
</trkpt>
<trkpt lat="31.7356760" lon="35.1171490">
<ele>544.708069</ele>
<time>2015-07-10T05:52:33.001Z</time>
</trkpt>
<trkpt lat="31.7356200" lon="35.1173180">
<ele>543.763184</ele>
<time>2015-07-10T05:52:34.997Z</time>
</trkpt>
<trkpt lat="31.7355780" lon="35.1174880">
<ele>542.787842</ele>
<time>2015-07-10T05:52:37.001Z</time>
</trkpt>
<trkpt lat="31.7355640" lon="35.1176660">
<ele>541.842957</ele>
<time>2015-07-10T05:52:38.997Z</time>
</trkpt>
<trkpt lat="31.7355560" lon="35.1178370">
<ele>540.867615</ele>
<time>2015-07-10T05:52:41.002Z</time>
</trkpt>
<trkpt lat="31.7355570" lon="35.1180030">
<ele>539.435059</ele>
<time>2015-07-10T05:52:42.997Z</time>
</trkpt>
<trkpt lat="31.7355600" lon="35.1181700">
<ele>538.002502</ele>
<time>2015-07-10T05:52:45.002Z</time>
</trkpt>
<trkpt lat="31.7355580" lon="35.1183360">
<ele>536.539429</ele>
<time>2015-07-10T05:52:46.998Z</time>
</trkpt>
<trkpt lat="31.7355500" lon="35.1184900">
<ele>535.106873</ele>
<time>2015-07-10T05:52:49.002Z</time>
</trkpt>
<trkpt lat="31.7355460" lon="35.1186360">
<ele>533.674316</ele>
<time>2015-07-10T05:52:50.998Z</time>
</trkpt>
<trkpt lat="31.7355030" lon="35.1187380">
<ele>533.186646</ele>
<time>2015-07-10T05:52:53.003Z</time>
</trkpt>
<trkpt lat="31.7354350" lon="35.1188210">
<ele>532.241760</ele>
<time>2015-07-10T05:52:54.998Z</time>
</trkpt>
<trkpt lat="31.7353470" lon="35.1188820">
<ele>531.266418</ele>
<time>2015-07-10T05:52:57.003Z</time>
</trkpt>
<trkpt lat="31.7352560" lon="35.1189400">
<ele>530.778748</ele>
<time>2015-07-10T05:52:58.999Z</time>
</trkpt>
<trkpt lat="31.7352340" lon="35.1190620">
<ele>529.346130</ele>
<time>2015-07-10T05:53:01.997Z</time>
</trkpt>
<trkpt lat="31.7355320" lon="35.1190430">
<ele>525.505676</ele>
<time>2015-07-10T05:53:06.999Z</time>
</trkpt>
<trkpt lat="31.7356530" lon="35.1189450">
<ele>523.585449</ele>
<time>2015-07-10T05:53:09.004Z</time>
</trkpt>
<trkpt lat="31.7357740" lon="35.1188490">
<ele>521.665222</ele>
<time>2015-07-10T05:53:11.000Z</time>
</trkpt>
<trkpt lat="31.7358890" lon="35.1187450">
<ele>519.744934</ele>
<time>2015-07-10T05:53:13.004Z</time>
</trkpt>
<trkpt lat="31.7359880" lon="35.1186410">
<ele>518.769592</ele>
<time>2015-07-10T05:53:15.000Z</time>
</trkpt>
<trkpt lat="31.7360830" lon="35.1185970">
<ele>518.281921</ele>
<time>2015-07-10T05:53:16.996Z</time>
</trkpt>
<trkpt lat="31.7361960" lon="35.1185510">
<ele>517.824707</ele>
<time>2015-07-10T05:53:19.000Z</time>
</trkpt>
<trkpt lat="31.7363000" lon="35.1185460">
<ele>519.257263</ele>
<time>2015-07-10T05:53:23.001Z</time>
</trkpt>
<trkpt lat="31.7364760" lon="35.1186410">
<ele>521.177551</ele>
<time>2015-07-10T05:54:10.996Z</time>
</trkpt>
<trkpt lat="31.7365580" lon="35.1186850">
<ele>522.122375</ele>
<time>2015-07-10T05:54:17.001Z</time>
</trkpt>
<trkpt lat="31.7366530" lon="35.1187500">
<ele>522.610046</ele>
<time>2015-07-10T05:54:22.997Z</time>
</trkpt>
<trkpt lat="31.7367470" lon="35.1188010">
<ele>522.610046</ele>
<time>2015-07-10T05:54:27.999Z</time>
</trkpt>
<trkpt lat="31.7368570" lon="35.1188360">
<ele>522.610046</ele>
<time>2015-07-10T05:54:33.002Z</time>
</trkpt>
<trkpt lat="31.7369580" lon="35.1188520">
<ele>522.610046</ele>
<time>2015-07-10T05:54:37.002Z</time>
</trkpt>
<trkpt lat="31.7370650" lon="35.1188760">
<ele>523.097717</ele>
<time>2015-07-10T05:54:41.003Z</time>
</trkpt>
<trkpt lat="31.7371800" lon="35.1189020">
<ele>523.585449</ele>
<time>2015-07-10T05:54:45.003Z</time>
</trkpt>
<trkpt lat="31.7372870" lon="35.1189110">
<ele>524.073120</ele>
<time>2015-07-10T05:54:49.003Z</time>
</trkpt>
<trkpt lat="31.7373960" lon="35.1189230">
<ele>524.530334</ele>
<time>2015-07-10T05:54:53.004Z</time>
</trkpt>
<trkpt lat="31.7375010" lon="35.1189480">
<ele>525.018005</ele>
<time>2015-07-10T05:54:57.004Z</time>
</trkpt>
<trkpt lat="31.7376230" lon="35.1189630">
<ele>525.505676</ele>
<time>2015-07-10T05:55:01.998Z</time>
</trkpt>
<trkpt lat="31.7377370" lon="35.1189730">
<ele>525.993347</ele>
<time>2015-07-10T05:55:08.003Z</time>
</trkpt>
<trkpt lat="31.7378590" lon="35.1189830">
<ele>525.993347</ele>
<time>2015-07-10T05:55:13.999Z</time>
</trkpt>
<trkpt lat="31.7379740" lon="35.1189970">
<ele>527.425903</ele>
<time>2015-07-10T05:55:20.004Z</time>
</trkpt>
<trkpt lat="31.7380840" lon="35.1190080">
<ele>526.938232</ele>
<time>2015-07-10T05:55:26.000Z</time>
</trkpt>
<trkpt lat="31.7382020" lon="35.1190250">
<ele>527.913574</ele>
<time>2015-07-10T05:55:31.996Z</time>
</trkpt>
<trkpt lat="31.7383120" lon="35.1190370">
<ele>528.370789</ele>
<time>2015-07-10T05:55:38.001Z</time>
</trkpt>
<trkpt lat="31.7384300" lon="35.1190480">
<ele>528.858459</ele>
<time>2015-07-10T05:55:43.997Z</time>
</trkpt>
<trkpt lat="31.7385330" lon="35.1190610">
<ele>529.346130</ele>
<time>2015-07-10T05:55:48.999Z</time>
</trkpt>
<trkpt lat="31.7386290" lon="35.1190750">
<ele>529.833862</ele>
<time>2015-07-10T05:55:55.004Z</time>
</trkpt>
<trkpt lat="31.7387430" lon="35.1190950">
<ele>530.778748</ele>
<time>2015-07-10T05:56:02.003Z</time>
</trkpt>
<trkpt lat="31.7388640" lon="35.1191080">
<ele>531.266418</ele>
<time>2015-07-10T05:56:07.999Z</time>
</trkpt>
<trkpt lat="31.7389800" lon="35.1191100">
<ele>532.241760</ele>
<time>2015-07-10T05:56:14.004Z</time>
</trkpt>
<trkpt lat="31.7390930" lon="35.1191090">
<ele>532.698975</ele>
<time>2015-07-10T05:56:20.000Z</time>
</trkpt>
<trkpt lat="31.7392080" lon="35.1191130">
<ele>533.186646</ele>
<time>2015-07-10T05:56:25.996Z</time>
</trkpt>
<trkpt lat="31.7393250" lon="35.1191260">
<ele>534.619202</ele>
<time>2015-07-10T05:56:32.001Z</time>
</trkpt>
<trkpt lat="31.7394400" lon="35.1191490">
<ele>534.619202</ele>
<time>2015-07-10T05:56:37.997Z</time>
</trkpt>
<trkpt lat="31.7395550" lon="35.1191810">
<ele>535.106873</ele>
<time>2015-07-10T05:56:44.002Z</time>
</trkpt>
<trkpt lat="31.7396600" lon="35.1191920">
<ele>536.539429</ele>
<time>2015-07-10T05:56:52.002Z</time>
</trkpt>
<trkpt lat="31.7397680" lon="35.1192190">
<ele>537.514771</ele>
<time>2015-07-10T05:57:00.003Z</time>
</trkpt>
<trkpt lat="31.7398840" lon="35.1192380">
<ele>538.002502</ele>
<time>2015-07-10T05:57:07.001Z</time>
</trkpt>
<trkpt lat="31.7399820" lon="35.1192790">
<ele>538.490173</ele>
<time>2015-07-10T05:57:12.997Z</time>
</trkpt>
<trkpt lat="31.7400980" lon="35.1192780">
<ele>539.922729</ele>
<time>2015-07-10T05:57:20.998Z</time>
</trkpt>
<trkpt lat="31.7402080" lon="35.1192880">
<ele>539.922729</ele>
<time>2015-07-10T05:57:27.003Z</time>
</trkpt>
<trkpt lat="31.7403200" lon="35.1192930">
<ele>540.410400</ele>
<time>2015-07-10T05:57:32.999Z</time>
</trkpt>
<trkpt lat="31.7404300" lon="35.1193270">
<ele>542.330627</ele>
<time>2015-07-10T05:57:39.997Z</time>
</trkpt>
<trkpt lat="31.7405370" lon="35.1193560">
<ele>543.275513</ele>
<time>2015-07-10T05:57:46.002Z</time>
</trkpt>
<trkpt lat="31.7406270" lon="35.1194100">
<ele>543.275513</ele>
<time>2015-07-10T05:57:50.996Z</time>
</trkpt>
<trkpt lat="31.7407200" lon="35.1194460">
<ele>544.250854</ele>
<time>2015-07-10T05:57:55.999Z</time>
</trkpt>
<trkpt lat="31.7408180" lon="35.1194850">
<ele>544.708069</ele>
<time>2015-07-10T05:58:01.001Z</time>
</trkpt>
<trkpt lat="31.7409210" lon="35.1195280">
<ele>545.195740</ele>
<time>2015-07-10T05:58:06.004Z</time>
</trkpt>
<trkpt lat="31.7410260" lon="35.1195790">
<ele>546.658813</ele>
<time>2015-07-10T05:58:10.998Z</time>
</trkpt>
<trkpt lat="31.7411150" lon="35.1196300">
<ele>546.658813</ele>
<time>2015-07-10T05:58:16.000Z</time>
</trkpt>
<trkpt lat="31.7412070" lon="35.1196550">
<ele>547.603699</ele>
<time>2015-07-10T05:58:21.003Z</time>
</trkpt>
<trkpt lat="31.7413060" lon="35.1196960">
<ele>548.091370</ele>
<time>2015-07-10T05:58:26.999Z</time>
</trkpt>
<trkpt lat="31.7413530" lon="35.1197200">
<ele>549.036255</ele>
<time>2015-07-10T05:58:51.001Z</time>
</trkpt>
<trkpt lat="31.7414550" lon="35.1197410">
<ele>549.036255</ele>
<time>2015-07-10T05:58:57.999Z</time>
</trkpt>
<trkpt lat="31.7415590" lon="35.1197750">
<ele>549.036255</ele>
<time>2015-07-10T05:59:02.000Z</time>
</trkpt>
<trkpt lat="31.7416570" lon="35.1198130">
<ele>549.036255</ele>
<time>2015-07-10T05:59:04.998Z</time>
</trkpt>
<trkpt lat="31.7417470" lon="35.1198490">
<ele>550.499268</ele>
<time>2015-07-10T05:59:07.996Z</time>
</trkpt>
<trkpt lat="31.7418510" lon="35.1199160">
<ele>551.931885</ele>
<time>2015-07-10T05:59:11.996Z</time>
</trkpt>
<trkpt lat="31.7419450" lon="35.1199880">
<ele>552.419556</ele>
<time>2015-07-10T05:59:15.996Z</time>
</trkpt>
<trkpt lat="31.7420350" lon="35.1200430">
<ele>552.907227</ele>
<time>2015-07-10T05:59:19.997Z</time>
</trkpt>
<trkpt lat="31.7421450" lon="35.1200780">
<ele>553.852051</ele>
<time>2015-07-10T05:59:23.997Z</time>
</trkpt>
<trkpt lat="31.7422320" lon="35.1201220">
<ele>554.339722</ele>
<time>2015-07-10T05:59:27.004Z</time>
</trkpt>
<trkpt lat="31.7423350" lon="35.1201740">
<ele>555.315125</ele>
<time>2015-07-10T05:59:31.004Z</time>
</trkpt>
<trkpt lat="31.7424470" lon="35.1202090">
<ele>555.772339</ele>
<time>2015-07-10T05:59:34.996Z</time>
</trkpt>
<trkpt lat="31.7425590" lon="35.1202460">
<ele>556.260010</ele>
<time>2015-07-10T05:59:38.996Z</time>
</trkpt>
<trkpt lat="31.7426700" lon="35.1202670">
<ele>557.204895</ele>
<time>2015-07-10T05:59:42.996Z</time>
</trkpt>
<trkpt lat="31.7427700" lon="35.1202950">
<ele>557.204895</ele>
<time>2015-07-10T05:59:46.997Z</time>
</trkpt>
<trkpt lat="31.7428770" lon="35.1202990">
<ele>558.180237</ele>
<time>2015-07-10T05:59:51.999Z</time>
</trkpt>
<trkpt lat="31.7429650" lon="35.1203390">
<ele>558.180237</ele>
<time>2015-07-10T05:59:57.002Z</time>
</trkpt>
<trkpt lat="31.7430630" lon="35.1204110">
<ele>558.180237</ele>
<time>2015-07-10T06:00:01.002Z</time>
</trkpt>
<trkpt lat="31.7431280" lon="35.1204930">
<ele>560.100464</ele>
<time>2015-07-10T06:00:06.998Z</time>
</trkpt>
<trkpt lat="31.7431930" lon="35.1205780">
<ele>561.563538</ele>
<time>2015-07-10T06:00:13.003Z</time>
</trkpt>
<trkpt lat="31.7432600" lon="35.1206680">
<ele>562.020752</ele>
<time>2015-07-10T06:00:20.002Z</time>
</trkpt>
<trkpt lat="31.7433260" lon="35.1207540">
<ele>562.996094</ele>
<time>2015-07-10T06:00:25.998Z</time>
</trkpt>
<trkpt lat="31.7433950" lon="35.1208390">
<ele>563.483765</ele>
<time>2015-07-10T06:00:32.003Z</time>
</trkpt>
<trkpt lat="31.7434640" lon="35.1209290">
<ele>563.940918</ele>
<time>2015-07-10T06:00:37.999Z</time>
</trkpt>
<trkpt lat="31.7435380" lon="35.1210120">
<ele>564.428650</ele>
<time>2015-07-10T06:00:44.004Z</time>
</trkpt>
<trkpt lat="31.7436100" lon="35.1210810">
<ele>564.916321</ele>
<time>2015-07-10T06:00:50.000Z</time>
</trkpt>
<trkpt lat="31.7436840" lon="35.1211540">
<ele>565.861206</ele>
<time>2015-07-10T06:00:55.996Z</time>
</trkpt>
<trkpt lat="31.7437540" lon="35.1212390">
<ele>566.836548</ele>
<time>2015-07-10T06:01:02.001Z</time>
</trkpt>
<trkpt lat="31.7438280" lon="35.1213090">
<ele>568.269104</ele>
<time>2015-07-10T06:01:07.997Z</time>
</trkpt>
<trkpt lat="31.7439010" lon="35.1213830">
<ele>568.756775</ele>
<time>2015-07-10T06:01:14.002Z</time>
</trkpt>
<trkpt lat="31.7439830" lon="35.1214450">
<ele>569.244446</ele>
<time>2015-07-10T06:01:19.998Z</time>
</trkpt>
<trkpt lat="31.7440550" lon="35.1215290">
<ele>570.189331</ele>
<time>2015-07-10T06:01:26.003Z</time>
</trkpt>
<trkpt lat="31.7441310" lon="35.1216070">
<ele>570.677063</ele>
<time>2015-07-10T06:01:31.999Z</time>
</trkpt>
<trkpt lat="31.7442020" lon="35.1216820">
<ele>571.652405</ele>
<time>2015-07-10T06:01:38.004Z</time>
</trkpt>
<trkpt lat="31.7442720" lon="35.1217630">
<ele>571.652405</ele>
<time>2015-07-10T06:01:44.000Z</time>
</trkpt>
<trkpt lat="31.7443570" lon="35.1218220">
<ele>572.597290</ele>
<time>2015-07-10T06:01:49.996Z</time>
</trkpt>
<trkpt lat="31.7444320" lon="35.1218980">
<ele>573.572632</ele>
<time>2015-07-10T06:01:56.001Z</time>
</trkpt>
<trkpt lat="31.7445100" lon="35.1219670">
<ele>574.029846</ele>
<time>2015-07-10T06:02:01.997Z</time>
</trkpt>
<trkpt lat="31.7445830" lon="35.1220320">
<ele>574.517517</ele>
<time>2015-07-10T06:02:06.999Z</time>
</trkpt>
<trkpt lat="31.7446660" lon="35.1221000">
<ele>575.005188</ele>
<time>2015-07-10T06:02:12.002Z</time>
</trkpt>
<trkpt lat="31.7447660" lon="35.1221580">
<ele>574.517517</ele>
<time>2015-07-10T06:02:16.996Z</time>
</trkpt>
<trkpt lat="31.7448480" lon="35.1222150">
<ele>575.005188</ele>
<time>2015-07-10T06:02:20.996Z</time>
</trkpt>
<trkpt lat="31.7449160" lon="35.1222940">
<ele>575.492859</ele>
<time>2015-07-10T06:02:24.003Z</time>
</trkpt>
<trkpt lat="31.7449620" lon="35.1224160">
<ele>575.492859</ele>
<time>2015-07-10T06:02:27.001Z</time>
</trkpt>
<trkpt lat="31.7449770" lon="35.1225370">
<ele>576.925476</ele>
<time>2015-07-10T06:02:31.001Z</time>
</trkpt>
<trkpt lat="31.7449690" lon="35.1226550">
<ele>578.357971</ele>
<time>2015-07-10T06:02:38.000Z</time>
</trkpt>
<trkpt lat="31.7449810" lon="35.1227760">
<ele>578.845642</ele>
<time>2015-07-10T06:02:44.998Z</time>
</trkpt>
<trkpt lat="31.7449890" lon="35.1228920">
<ele>579.333374</ele>
<time>2015-07-10T06:02:51.003Z</time>
</trkpt>
<trkpt lat="31.7450210" lon="35.1230080">
<ele>580.765930</ele>
<time>2015-07-10T06:02:58.001Z</time>
</trkpt>
<trkpt lat="31.7450550" lon="35.1231080">
<ele>580.278259</ele>
<time>2015-07-10T06:03:03.997Z</time>
</trkpt>
<trkpt lat="31.7451050" lon="35.1232080">
<ele>581.741272</ele>
<time>2015-07-10T06:03:10.996Z</time>
</trkpt>
<trkpt lat="31.7451520" lon="35.1232980">
<ele>582.686157</ele>
<time>2015-07-10T06:03:17.001Z</time>
</trkpt>
<trkpt lat="31.7452000" lon="35.1234020">
<ele>583.173828</ele>
<time>2015-07-10T06:03:22.997Z</time>
</trkpt>
<trkpt lat="31.7452500" lon="35.1234890">
<ele>583.661499</ele>
<time>2015-07-10T06:03:29.002Z</time>
</trkpt>
<trkpt lat="31.7452770" lon="35.1236010">
<ele>585.094055</ele>
<time>2015-07-10T06:03:34.998Z</time>
</trkpt>
<trkpt lat="31.7453140" lon="35.1236990">
<ele>585.094055</ele>
<time>2015-07-10T06:03:41.003Z</time>
</trkpt>
<trkpt lat="31.7453670" lon="35.1238070">
<ele>586.069458</ele>
<time>2015-07-10T06:03:46.999Z</time>
</trkpt>
<trkpt lat="31.7454010" lon="35.1239090">
<ele>586.526672</ele>
<time>2015-07-10T06:03:53.004Z</time>
</trkpt>
<trkpt lat="31.7454070" lon="35.1240260">
<ele>586.526672</ele>
<time>2015-07-10T06:03:59.000Z</time>
</trkpt>
<trkpt lat="31.7454370" lon="35.1241380">
<ele>587.502014</ele>
<time>2015-07-10T06:04:04.996Z</time>
</trkpt>
<trkpt lat="31.7454680" lon="35.1242530">
<ele>588.446899</ele>
<time>2015-07-10T06:04:11.001Z</time>
</trkpt>
<trkpt lat="31.7454800" lon="35.1243640">
<ele>588.446899</ele>
<time>2015-07-10T06:04:16.997Z</time>
</trkpt>
<trkpt lat="31.7455180" lon="35.1244770">
<ele>588.965027</ele>
<time>2015-07-10T06:04:23.002Z</time>
</trkpt>
<trkpt lat="31.7455580" lon="35.1245900">
<ele>589.422241</ele>
<time>2015-07-10T06:04:28.998Z</time>
</trkpt>
<trkpt lat="31.7456040" lon="35.1246960">
<ele>590.397583</ele>
<time>2015-07-10T06:04:35.003Z</time>
</trkpt>
<trkpt lat="31.7456430" lon="35.1248070">
<ele>590.854797</ele>
<time>2015-07-10T06:04:40.999Z</time>
</trkpt>
<trkpt lat="31.7456860" lon="35.1249170">
<ele>591.342468</ele>
<time>2015-07-10T06:04:47.004Z</time>
</trkpt>
<trkpt lat="31.7457310" lon="35.1250400">
<ele>592.775024</ele>
<time>2015-07-10T06:04:53.000Z</time>
</trkpt>
<trkpt lat="31.7457410" lon="35.1251330">
<ele>593.262756</ele>
<time>2015-07-10T06:04:59.998Z</time>
</trkpt>
<trkpt lat="31.7457670" lon="35.1252510">
<ele>594.238098</ele>
<time>2015-07-10T06:05:07.999Z</time>
</trkpt>
<trkpt lat="31.7457960" lon="35.1253470">
<ele>595.670654</ele>
<time>2015-07-10T06:05:14.997Z</time>
</trkpt>
<trkpt lat="31.7458680" lon="35.1254360">
<ele>596.158325</ele>
<time>2015-07-10T06:05:22.998Z</time>
</trkpt>
<trkpt lat="31.7459480" lon="35.1255130">
<ele>597.133667</ele>
<time>2015-07-10T06:05:29.996Z</time>
</trkpt>
<trkpt lat="31.7460150" lon="35.1256070">
<ele>597.133667</ele>
<time>2015-07-10T06:05:37.003Z</time>
</trkpt>
<trkpt lat="31.7460790" lon="35.1256900">
<ele>597.590881</ele>
<time>2015-07-10T06:05:42.999Z</time>
</trkpt>
<trkpt lat="31.7460930" lon="35.1257900">
<ele>598.566284</ele>
<time>2015-07-10T06:05:48.002Z</time>
</trkpt>
<trkpt lat="31.7460540" lon="35.1258940">
<ele>599.511108</ele>
<time>2015-07-10T06:05:55.000Z</time>
</trkpt>
<trkpt lat="31.7460030" lon="35.1260020">
<ele>600.486450</ele>
<time>2015-07-10T06:06:03.001Z</time>
</trkpt>
<trkpt lat="31.7459790" lon="35.1261020">
<ele>600.486450</ele>
<time>2015-07-10T06:06:08.997Z</time>
</trkpt>
<trkpt lat="31.7459500" lon="35.1262190">
<ele>601.431335</ele>
<time>2015-07-10T06:06:15.002Z</time>
</trkpt>
<trkpt lat="31.7459400" lon="35.1263360">
<ele>601.431335</ele>
<time>2015-07-10T06:06:20.998Z</time>
</trkpt>
<trkpt lat="31.7459370" lon="35.1264460">
<ele>601.919067</ele>
<time>2015-07-10T06:06:27.003Z</time>
</trkpt>
<trkpt lat="31.7459620" lon="35.1265660">
<ele>602.894409</ele>
<time>2015-07-10T06:06:32.999Z</time>
</trkpt>
<trkpt lat="31.7460150" lon="35.1266650">
<ele>602.894409</ele>
<time>2015-07-10T06:06:39.004Z</time>
</trkpt>
<trkpt lat="31.7460880" lon="35.1267410">
<ele>603.839294</ele>
<time>2015-07-10T06:06:45.000Z</time>
</trkpt>
<trkpt lat="31.7461600" lon="35.1268140">
<ele>604.326965</ele>
<time>2015-07-10T06:06:50.996Z</time>
</trkpt>
<trkpt lat="31.7462390" lon="35.1268820">
<ele>605.302307</ele>
<time>2015-07-10T06:06:57.001Z</time>
</trkpt>
<trkpt lat="31.7463250" lon="35.1269490">
<ele>605.759521</ele>
<time>2015-07-10T06:07:03.999Z</time>
</trkpt>
<trkpt lat="31.7464080" lon="35.1270010">
<ele>606.734863</ele>
<time>2015-07-10T06:07:10.004Z</time>
</trkpt>
<trkpt lat="31.7464980" lon="35.1270670">
<ele>607.222534</ele>
<time>2015-07-10T06:07:17.003Z</time>
</trkpt>
<trkpt lat="31.7465900" lon="35.1271270">
<ele>608.167480</ele>
<time>2015-07-10T06:07:24.001Z</time>
</trkpt>
<trkpt lat="31.7466790" lon="35.1271910">
<ele>608.655151</ele>
<time>2015-07-10T06:07:30.999Z</time>
</trkpt>
<trkpt lat="31.7467580" lon="35.1272570">
<ele>609.142822</ele>
<time>2015-07-10T06:07:37.998Z</time>
</trkpt>
<trkpt lat="31.7468510" lon="35.1273240">
<ele>609.599976</ele>
<time>2015-07-10T06:07:44.003Z</time>
</trkpt>
<trkpt lat="31.7469300" lon="35.1273950">
<ele>610.087646</ele>
<time>2015-07-10T06:07:49.999Z</time>
</trkpt>
<trkpt lat="31.7470170" lon="35.1274540">
<ele>611.063049</ele>
<time>2015-07-10T06:07:56.997Z</time>
</trkpt>
<trkpt lat="31.7471130" lon="35.1275130">
<ele>612.007935</ele>
<time>2015-07-10T06:08:04.004Z</time>
</trkpt>
<trkpt lat="31.7472010" lon="35.1275650">
<ele>613.470947</ele>
<time>2015-07-10T06:08:11.003Z</time>
</trkpt>
<trkpt lat="31.7472750" lon="35.1276390">
<ele>613.470947</ele>
<time>2015-07-10T06:08:18.001Z</time>
</trkpt>
<trkpt lat="31.7473300" lon="35.1277370">
<ele>613.470947</ele>
<time>2015-07-10T06:08:23.004Z</time>
</trkpt>
<trkpt lat="31.7473390" lon="35.1278350">
<ele>614.903503</ele>
<time>2015-07-10T06:08:30.002Z</time>
</trkpt>
<trkpt lat="31.7472850" lon="35.1279300">
<ele>616.336060</ele>
<time>2015-07-10T06:08:38.003Z</time>
</trkpt>
<trkpt lat="31.7472260" lon="35.1280110">
<ele>617.311462</ele>
<time>2015-07-10T06:08:46.003Z</time>
</trkpt>
<trkpt lat="31.7471850" lon="35.1281250">
<ele>617.768677</ele>
<time>2015-07-10T06:08:54.004Z</time>
</trkpt>
<trkpt lat="31.7471590" lon="35.1282440">
<ele>619.231689</ele>
<time>2015-07-10T06:09:01.996Z</time>
</trkpt>
<trkpt lat="31.7471530" lon="35.1283590">
<ele>619.719360</ele>
<time>2015-07-10T06:09:09.996Z</time>
</trkpt>
<trkpt lat="31.7471510" lon="35.1284710">
<ele>620.664246</ele>
<time>2015-07-10T06:09:17.997Z</time>
</trkpt>
<trkpt lat="31.7471440" lon="35.1285860">
<ele>621.639587</ele>
<time>2015-07-10T06:09:25.998Z</time>
</trkpt>
<trkpt lat="31.7471630" lon="35.1287110">
<ele>622.584473</ele>
<time>2015-07-10T06:09:35.001Z</time>
</trkpt>
<trkpt lat="31.7471740" lon="35.1288240">
<ele>623.072144</ele>
<time>2015-07-10T06:09:40.997Z</time>
</trkpt>
<trkpt lat="31.7471870" lon="35.1289410">
<ele>623.072144</ele>
<time>2015-07-10T06:09:48.004Z</time>
</trkpt>
<trkpt lat="31.7471940" lon="35.1290500">
<ele>624.504700</ele>
<time>2015-07-10T06:09:55.996Z</time>
</trkpt>
<trkpt lat="31.7471690" lon="35.1291580">
<ele>625.480103</ele>
<time>2015-07-10T06:10:03.996Z</time>
</trkpt>
<trkpt lat="31.7471090" lon="35.1292710">
<ele>626.912659</ele>
<time>2015-07-10T06:10:11.997Z</time>
</trkpt>
<trkpt lat="31.7470310" lon="35.1293370">
<ele>627.400269</ele>
<time>2015-07-10T06:10:19.004Z</time>
</trkpt>
<trkpt lat="31.7469410" lon="35.1293630">
<ele>627.888000</ele>
<time>2015-07-10T06:10:26.003Z</time>
</trkpt>
<trkpt lat="31.7468460" lon="35.1293710">
<ele>628.345215</ele>
<time>2015-07-10T06:10:33.001Z</time>
</trkpt>
<trkpt lat="31.7467470" lon="35.1293760">
<ele>630.265442</ele>
<time>2015-07-10T06:10:41.002Z</time>
</trkpt>
<trkpt lat="31.7466450" lon="35.1293890">
<ele>631.240784</ele>
<time>2015-07-10T06:10:46.998Z</time>
</trkpt>
<trkpt lat="31.7465360" lon="35.1294070">
<ele>630.753113</ele>
<time>2015-07-10T06:10:50.998Z</time>
</trkpt>
<trkpt lat="31.7464450" lon="35.1294420">
<ele>631.728516</ele>
<time>2015-07-10T06:10:56.001Z</time>
</trkpt>
<trkpt lat="31.7463580" lon="35.1294880">
<ele>632.673340</ele>
<time>2015-07-10T06:11:01.997Z</time>
</trkpt>
<trkpt lat="31.7462670" lon="35.1295370">
<ele>633.161072</ele>
<time>2015-07-10T06:11:08.002Z</time>
</trkpt>
<trkpt lat="31.7461720" lon="35.1295740">
<ele>634.136414</ele>
<time>2015-07-10T06:11:13.998Z</time>
</trkpt>
<trkpt lat="31.7460890" lon="35.1296260">
<ele>634.624084</ele>
<time>2015-07-10T06:11:20.003Z</time>
</trkpt>
<trkpt lat="31.7460030" lon="35.1296800">
<ele>635.568970</ele>
<time>2015-07-10T06:11:25.999Z</time>
</trkpt>
<trkpt lat="31.7459100" lon="35.1297330">
<ele>636.056641</ele>
<time>2015-07-10T06:11:32.004Z</time>
</trkpt>
<trkpt lat="31.7458130" lon="35.1297820">
<ele>636.544312</ele>
<time>2015-07-10T06:11:38.000Z</time>
</trkpt>
<trkpt lat="31.7457050" lon="35.1298070">
<ele>637.001465</ele>
<time>2015-07-10T06:11:44.998Z</time>
</trkpt>
<trkpt lat="31.7456010" lon="35.1298730">
<ele>637.001465</ele>
<time>2015-07-10T06:11:50.001Z</time>
</trkpt>
<trkpt lat="31.7455090" lon="35.1298770">
<ele>637.976929</ele>
<time>2015-07-10T06:11:55.997Z</time>
</trkpt>
<trkpt lat="31.7454070" lon="35.1298630">
<ele>639.409485</ele>
<time>2015-07-10T06:12:03.004Z</time>
</trkpt>
<trkpt lat="31.7453100" lon="35.1298510">
<ele>640.384827</ele>
<time>2015-07-10T06:12:09.000Z</time>
</trkpt>
<trkpt lat="31.7452040" lon="35.1298720">
<ele>641.817322</ele>
<time>2015-07-10T06:12:14.996Z</time>
</trkpt>
<trkpt lat="31.7450940" lon="35.1298850">
<ele>642.305054</ele>
<time>2015-07-10T06:12:22.003Z</time>
</trkpt>
<trkpt lat="31.7449980" lon="35.1299260">
<ele>642.792664</ele>
<time>2015-07-10T06:12:27.999Z</time>
</trkpt>
<trkpt lat="31.7448800" lon="35.1299690">
<ele>644.225281</ele>
<time>2015-07-10T06:12:34.004Z</time>
</trkpt>
<trkpt lat="31.7447740" lon="35.1299940">
<ele>644.225281</ele>
<time>2015-07-10T06:12:40.000Z</time>
</trkpt>
<trkpt lat="31.7446730" lon="35.1300490">
<ele>644.712952</ele>
<time>2015-07-10T06:12:45.996Z</time>
</trkpt>
<trkpt lat="31.7445890" lon="35.1300910">
<ele>645.170166</ele>
<time>2015-07-10T06:12:50.999Z</time>
</trkpt>
<trkpt lat="31.7445050" lon="35.1301470">
<ele>646.145508</ele>
<time>2015-07-10T06:12:56.002Z</time>
</trkpt>
<trkpt lat="31.7444100" lon="35.1301830">
<ele>647.578125</ele>
<time>2015-07-10T06:13:01.998Z</time>
</trkpt>
<trkpt lat="31.7443290" lon="35.1302330">
<ele>647.090393</ele>
<time>2015-07-10T06:13:05.998Z</time>
</trkpt>
<trkpt lat="31.7442240" lon="35.1302640">
<ele>647.578125</ele>
<time>2015-07-10T06:13:11.001Z</time>
</trkpt>
<trkpt lat="31.7441380" lon="35.1303210">
<ele>648.065735</ele>
<time>2015-07-10T06:13:16.997Z</time>
</trkpt>
<trkpt lat="31.7440410" lon="35.1303760">
<ele>649.041077</ele>
<time>2015-07-10T06:13:24.004Z</time>
</trkpt>
<trkpt lat="31.7439620" lon="35.1304420">
<ele>649.498291</ele>
<time>2015-07-10T06:13:30.000Z</time>
</trkpt>
<trkpt lat="31.7438730" lon="35.1305180">
<ele>650.473694</ele>
<time>2015-07-10T06:13:35.996Z</time>
</trkpt>
<trkpt lat="31.7438060" lon="35.1306080">
<ele>650.961365</ele>
<time>2015-07-10T06:13:42.001Z</time>
</trkpt>
<trkpt lat="31.7437420" lon="35.1306920">
<ele>651.906250</ele>
<time>2015-07-10T06:13:47.997Z</time>
</trkpt>
<trkpt lat="31.7436870" lon="35.1307780">
<ele>651.906250</ele>
<time>2015-07-10T06:13:54.002Z</time>
</trkpt>
<trkpt lat="31.7436210" lon="35.1308690">
<ele>652.881592</ele>
<time>2015-07-10T06:13:59.998Z</time>
</trkpt>
<trkpt lat="31.7435720" lon="35.1309780">
<ele>653.338806</ele>
<time>2015-07-10T06:14:06.003Z</time>
</trkpt>
<trkpt lat="31.7435140" lon="35.1310910">
<ele>653.826538</ele>
<time>2015-07-10T06:14:11.999Z</time>
</trkpt>
<trkpt lat="31.7434850" lon="35.1311980">
<ele>654.314148</ele>
<time>2015-07-10T06:14:17.002Z</time>
</trkpt>
<trkpt lat="31.7434520" lon="35.1312960">
<ele>654.801880</ele>
<time>2015-07-10T06:14:22.004Z</time>
</trkpt>
<trkpt lat="31.7434370" lon="35.1314140">
<ele>655.289490</ele>
<time>2015-07-10T06:14:26.998Z</time>
</trkpt>
<trkpt lat="31.7434140" lon="35.1315200">
<ele>655.746704</ele>
<time>2015-07-10T06:14:32.001Z</time>
</trkpt>
<trkpt lat="31.7433950" lon="35.1316310">
<ele>655.746704</ele>
<time>2015-07-10T06:14:37.003Z</time>
</trkpt>
<trkpt lat="31.7433840" lon="35.1317340">
<ele>656.722107</ele>
<time>2015-07-10T06:14:41.997Z</time>
</trkpt>
<trkpt lat="31.7433750" lon="35.1318610">
<ele>657.666931</ele>
<time>2015-07-10T06:14:48.002Z</time>
</trkpt>
<trkpt lat="31.7433660" lon="35.1319690">
<ele>658.642273</ele>
<time>2015-07-10T06:14:53.998Z</time>
</trkpt>
<trkpt lat="31.7433630" lon="35.1320860">
<ele>659.130005</ele>
<time>2015-07-10T06:15:00.996Z</time>
</trkpt>
<trkpt lat="31.7433680" lon="35.1322050">
<ele>660.074890</ele>
<time>2015-07-10T06:15:08.004Z</time>
</trkpt>
<trkpt lat="31.7433640" lon="35.1323270">
<ele>660.562561</ele>
<time>2015-07-10T06:15:15.002Z</time>
</trkpt>
<trkpt lat="31.7433700" lon="35.1324560">
<ele>660.562561</ele>
<time>2015-07-10T06:15:22.000Z</time>
</trkpt>
<trkpt lat="31.7433810" lon="35.1325730">
<ele>661.507446</ele>
<time>2015-07-10T06:15:28.999Z</time>
</trkpt>
<trkpt lat="31.7433970" lon="35.1326940">
<ele>661.995117</ele>
<time>2015-07-10T06:15:35.997Z</time>
</trkpt>
<trkpt lat="31.7434370" lon="35.1328130">
<ele>662.970520</ele>
<time>2015-07-10T06:15:43.004Z</time>
</trkpt>
<trkpt lat="31.7434580" lon="35.1329270">
<ele>664.403076</ele>
<time>2015-07-10T06:15:51.998Z</time>
</trkpt>
<trkpt lat="31.7434800" lon="35.1330410">
<ele>664.890686</ele>
<time>2015-07-10T06:15:58.003Z</time>
</trkpt>
<trkpt lat="31.7435150" lon="35.1331470">
<ele>665.378418</ele>
<time>2015-07-10T06:16:03.999Z</time>
</trkpt>
<trkpt lat="31.7434990" lon="35.1332510">
<ele>666.323303</ele>
<time>2015-07-10T06:16:12.000Z</time>
</trkpt>
<trkpt lat="31.7434500" lon="35.1333470">
<ele>667.755859</ele>
<time>2015-07-10T06:16:20.001Z</time>
</trkpt>
<trkpt lat="31.7433620" lon="35.1333800">
<ele>668.243469</ele>
<time>2015-07-10T06:16:28.001Z</time>
</trkpt>
<trkpt lat="31.7432540" lon="35.1333830">
<ele>669.218933</ele>
<time>2015-07-10T06:16:33.997Z</time>
</trkpt>
<trkpt lat="31.7431600" lon="35.1333870">
<ele>669.218933</ele>
<time>2015-07-10T06:16:39.000Z</time>
</trkpt>
<trkpt lat="31.7430570" lon="35.1333720">
<ele>670.194275</ele>
<time>2015-07-10T06:16:44.003Z</time>
</trkpt>
<trkpt lat="31.7429520" lon="35.1333650">
<ele>670.651428</ele>
<time>2015-07-10T06:16:48.996Z</time>
</trkpt>
<trkpt lat="31.7428450" lon="35.1333620">
<ele>671.139099</ele>
<time>2015-07-10T06:16:53.999Z</time>
</trkpt>
<trkpt lat="31.7427390" lon="35.1333690">
<ele>672.114502</ele>
<time>2015-07-10T06:16:59.002Z</time>
</trkpt>
<trkpt lat="31.7426340" lon="35.1333720">
<ele>673.059326</ele>
<time>2015-07-10T06:17:04.004Z</time>
</trkpt>
<trkpt lat="31.7425200" lon="35.1333690">
<ele>673.547058</ele>
<time>2015-07-10T06:17:08.998Z</time>
</trkpt>
<trkpt lat="31.7424160" lon="35.1333650">
<ele>674.034668</ele>
<time>2015-07-10T06:17:14.001Z</time>
</trkpt>
<trkpt lat="31.7423130" lon="35.1333570">
<ele>674.034668</ele>
<time>2015-07-10T06:17:18.001Z</time>
</trkpt>
<trkpt lat="31.7422010" lon="35.1333420">
<ele>674.979614</ele>
<time>2015-07-10T06:17:22.001Z</time>
</trkpt>
<trkpt lat="31.7420970" lon="35.1333240">
<ele>675.954956</ele>
<time>2015-07-10T06:17:27.004Z</time>
</trkpt>
<trkpt lat="31.7420020" lon="35.1332920">
<ele>676.412170</ele>
<time>2015-07-10T06:17:31.998Z</time>
</trkpt>
<trkpt lat="31.7418960" lon="35.1332640">
<ele>676.899841</ele>
<time>2015-07-10T06:17:38.003Z</time>
</trkpt>
<trkpt lat="31.7417940" lon="35.1332440">
<ele>677.387512</ele>
<time>2015-07-10T06:17:43.999Z</time>
</trkpt>
<trkpt lat="31.7416890" lon="35.1332110">
<ele>678.820129</ele>
<time>2015-07-10T06:17:50.997Z</time>
</trkpt>
<trkpt lat="31.7415810" lon="35.1331840">
<ele>679.307739</ele>
<time>2015-07-10T06:17:58.004Z</time>
</trkpt>
<trkpt lat="31.7414790" lon="35.1331490">
<ele>680.283081</ele>
<time>2015-07-10T06:18:02.998Z</time>
</trkpt>
<trkpt lat="31.7413800" lon="35.1331100">
<ele>681.228027</ele>
<time>2015-07-10T06:18:08.001Z</time>
</trkpt>
<trkpt lat="31.7412900" lon="35.1330540">
<ele>681.228027</ele>
<time>2015-07-10T06:18:12.001Z</time>
</trkpt>
<trkpt lat="31.7412060" lon="35.1330050">
<ele>682.660522</ele>
<time>2015-07-10T06:18:16.001Z</time>
</trkpt>
<trkpt lat="31.7411250" lon="35.1329420">
<ele>683.148254</ele>
<time>2015-07-10T06:18:21.997Z</time>
</trkpt>
<trkpt lat="31.7410310" lon="35.1328810">
<ele>684.123596</ele>
<time>2015-07-10T06:18:28.002Z</time>
</trkpt>
<trkpt lat="31.7409430" lon="35.1328170">
<ele>684.611328</ele>
<time>2015-07-10T06:18:33.998Z</time>
</trkpt>
<trkpt lat="31.7408610" lon="35.1327400">
<ele>685.556152</ele>
<time>2015-07-10T06:18:40.003Z</time>
</trkpt>
<trkpt lat="31.7407870" lon="35.1326820">
<ele>686.043884</ele>
<time>2015-07-10T06:18:45.999Z</time>
</trkpt>
<trkpt lat="31.7406990" lon="35.1326200">
<ele>686.988708</ele>
<time>2015-07-10T06:18:52.004Z</time>
</trkpt>
<trkpt lat="31.7406130" lon="35.1325440">
<ele>687.476379</ele>
<time>2015-07-10T06:18:58.000Z</time>
</trkpt>
<trkpt lat="31.7405280" lon="35.1324660">
<ele>687.964111</ele>
<time>2015-07-10T06:19:03.996Z</time>
</trkpt>
<trkpt lat="31.7404530" lon="35.1324060">
<ele>688.451721</ele>
<time>2015-07-10T06:19:08.999Z</time>
</trkpt>
<trkpt lat="31.7403620" lon="35.1323360">
<ele>688.908936</ele>
<time>2015-07-10T06:19:15.004Z</time>
</trkpt>
<trkpt lat="31.7402770" lon="35.1322910">
<ele>689.396667</ele>
<time>2015-07-10T06:19:19.998Z</time>
</trkpt>
<trkpt lat="31.7401850" lon="35.1322520">
<ele>690.372009</ele>
<time>2015-07-10T06:19:26.003Z</time>
</trkpt>
<trkpt lat="31.7400860" lon="35.1322900">
<ele>690.372009</ele>
<time>2015-07-10T06:19:30.996Z</time>
</trkpt>
<trkpt lat="31.7400920" lon="35.1324090">
<ele>690.829224</ele>
<time>2015-07-10T06:19:37.001Z</time>
</trkpt>
<trkpt lat="31.7401650" lon="35.1325010">
<ele>691.316895</ele>
<time>2015-07-10T06:19:44.000Z</time>
</trkpt>
<trkpt lat="31.7402570" lon="35.1325410">
<ele>692.779907</ele>
<time>2015-07-10T06:19:50.998Z</time>
</trkpt>
<trkpt lat="31.7403350" lon="35.1326070">
<ele>693.724792</ele>
<time>2015-07-10T06:19:57.996Z</time>
</trkpt>
<trkpt lat="31.7404220" lon="35.1326650">
<ele>693.724792</ele>
<time>2015-07-10T06:20:04.001Z</time>
</trkpt>
<trkpt lat="31.7404560" lon="35.1327790">
<ele>694.700134</ele>
<time>2015-07-10T06:20:11.000Z</time>
</trkpt>
<trkpt lat="31.7404980" lon="35.1328960">
<ele>695.645081</ele>
<time>2015-07-10T06:20:17.998Z</time>
</trkpt>
<trkpt lat="31.7405680" lon="35.1329760">
<ele>696.132690</ele>
<time>2015-07-10T06:20:24.996Z</time>
</trkpt>
<trkpt lat="31.7406310" lon="35.1330560">
<ele>697.077576</ele>
<time>2015-07-10T06:20:32.004Z</time>
</trkpt>
<trkpt lat="31.7406980" lon="35.1331440">
<ele>697.565308</ele>
<time>2015-07-10T06:20:39.002Z</time>
</trkpt>
<trkpt lat="31.7407690" lon="35.1332130">
<ele>698.540649</ele>
<time>2015-07-10T06:20:46.000Z</time>
</trkpt>
<trkpt lat="31.7408380" lon="35.1332890">
<ele>699.028320</ele>
<time>2015-07-10T06:20:52.999Z</time>
</trkpt>
<trkpt lat="31.7409120" lon="35.1333690">
<ele>699.485474</ele>
<time>2015-07-10T06:20:59.997Z</time>
</trkpt>
<trkpt lat="31.7409840" lon="35.1334430">
<ele>700.460938</ele>
<time>2015-07-10T06:21:07.004Z</time>
</trkpt>
<trkpt lat="31.7410660" lon="35.1335100">
<ele>701.405762</ele>
<time>2015-07-10T06:21:14.003Z</time>
</trkpt>
<trkpt lat="31.7411540" lon="35.1335750">
<ele>702.381104</ele>
<time>2015-07-10T06:21:22.003Z</time>
</trkpt>
<trkpt lat="31.7412350" lon="35.1336530">
<ele>702.381104</ele>
<time>2015-07-10T06:21:30.004Z</time>
</trkpt>
<trkpt lat="31.7413230" lon="35.1337120">
<ele>703.325989</ele>
<time>2015-07-10T06:21:37.002Z</time>
</trkpt>
<trkpt lat="31.7414220" lon="35.1337640">
<ele>704.789063</ele>
<time>2015-07-10T06:21:45.003Z</time>
</trkpt>
<trkpt lat="31.7415100" lon="35.1338100">
<ele>705.764404</ele>
<time>2015-07-10T06:21:53.004Z</time>
</trkpt>
<trkpt lat="31.7416080" lon="35.1338460">
<ele>706.709290</ele>
<time>2015-07-10T06:22:01.004Z</time>
</trkpt>
<trkpt lat="31.7417070" lon="35.1338960">
<ele>707.684631</ele>
<time>2015-07-10T06:22:08.996Z</time>
</trkpt>
<trkpt lat="31.7418090" lon="35.1339330">
<ele>708.629517</ele>
<time>2015-07-10T06:22:16.997Z</time>
</trkpt>
<trkpt lat="31.7419150" lon="35.1339540">
<ele>709.604919</ele>
<time>2015-07-10T06:22:24.997Z</time>
</trkpt>
<trkpt lat="31.7420130" lon="35.1340130">
<ele>710.062134</ele>
<time>2015-07-10T06:22:31.002Z</time>
</trkpt>
<trkpt lat="31.7421130" lon="35.1340620">
<ele>710.549744</ele>
<time>2015-07-10T06:22:35.003Z</time>
</trkpt>
<trkpt lat="31.7422090" lon="35.1341190">
<ele>711.525085</ele>
<time>2015-07-10T06:22:40.999Z</time>
</trkpt>
<trkpt lat="31.7423130" lon="35.1341550">
<ele>711.982300</ele>
<time>2015-07-10T06:22:47.004Z</time>
</trkpt>
<trkpt lat="31.7423990" lon="35.1342050">
<ele>712.957703</ele>
<time>2015-07-10T06:22:53.000Z</time>
</trkpt>
<trkpt lat="31.7424840" lon="35.1342570">
<ele>713.445374</ele>
<time>2015-07-10T06:22:58.996Z</time>
</trkpt>
<trkpt lat="31.7425640" lon="35.1343320">
<ele>714.390259</ele>
<time>2015-07-10T06:23:05.001Z</time>
</trkpt>
<trkpt lat="31.7426530" lon="35.1343730">
<ele>714.877869</ele>
<time>2015-07-10T06:23:10.003Z</time>
</trkpt>
<trkpt lat="31.7427370" lon="35.1344520">
<ele>715.365601</ele>
<time>2015-07-10T06:23:15.999Z</time>
</trkpt>
<trkpt lat="31.7428360" lon="35.1345060">
<ele>716.798157</ele>
<time>2015-07-10T06:23:22.004Z</time>
</trkpt>
<trkpt lat="31.7429300" lon="35.1345710">
<ele>717.285828</ele>
<time>2015-07-10T06:23:28.000Z</time>
</trkpt>
<trkpt lat="31.7430130" lon="35.1346310">
<ele>718.230713</ele>
<time>2015-07-10T06:23:33.003Z</time>
</trkpt>
<trkpt lat="31.7431030" lon="35.1346870">
<ele>718.718384</ele>
<time>2015-07-10T06:23:38.999Z</time>
</trkpt>
<trkpt lat="31.7431920" lon="35.1347610">
<ele>719.206116</ele>
<time>2015-07-10T06:23:42.999Z</time>
</trkpt>
<trkpt lat="31.7432730" lon="35.1348250">
<ele>719.693726</ele>
<time>2015-07-10T06:23:47.000Z</time>
</trkpt>
<trkpt lat="31.7433640" lon="35.1349030">
<ele>720.150940</ele>
<time>2015-07-10T06:23:52.002Z</time>
</trkpt>
<trkpt lat="31.7434490" lon="35.1349690">
<ele>721.126282</ele>
<time>2015-07-10T06:23:56.003Z</time>
</trkpt>
<trkpt lat="31.7435250" lon="35.1350240">
<ele>721.614014</ele>
<time>2015-07-10T06:24:00.003Z</time>
</trkpt>
<trkpt lat="31.7436050" lon="35.1350910">
<ele>722.101685</ele>
<time>2015-07-10T06:24:04.003Z</time>
</trkpt>
<trkpt lat="31.7436970" lon="35.1351470">
<ele>723.046570</ele>
<time>2015-07-10T06:24:08.997Z</time>
</trkpt>
<trkpt lat="31.7437760" lon="35.1352040">
<ele>723.046570</ele>
<time>2015-07-10T06:24:12.997Z</time>
</trkpt>
<trkpt lat="31.7438610" lon="35.1352580">
<ele>723.534241</ele>
<time>2015-07-10T06:24:16.004Z</time>
</trkpt>
<trkpt lat="31.7439660" lon="35.1352940">
<ele>724.479065</ele>
<time>2015-07-10T06:24:20.998Z</time>
</trkpt>
<trkpt lat="31.7440520" lon="35.1353260">
<ele>724.966797</ele>
<time>2015-07-10T06:24:26.001Z</time>
</trkpt>
<trkpt lat="31.7441590" lon="35.1353510">
<ele>725.942139</ele>
<time>2015-07-10T06:24:31.997Z</time>
</trkpt>
<trkpt lat="31.7442650" lon="35.1353830">
<ele>725.942139</ele>
<time>2015-07-10T06:24:38.002Z</time>
</trkpt>
<trkpt lat="31.7443680" lon="35.1354160">
<ele>726.887085</ele>
<time>2015-07-10T06:24:43.998Z</time>
</trkpt>
<trkpt lat="31.7444730" lon="35.1354430">
<ele>727.374695</ele>
<time>2015-07-10T06:24:50.003Z</time>
</trkpt>
<trkpt lat="31.7445860" lon="35.1354700">
<ele>727.862427</ele>
<time>2015-07-10T06:24:55.999Z</time>
</trkpt>
<trkpt lat="31.7446890" lon="35.1355140">
<ele>728.807312</ele>
<time>2015-07-10T06:25:02.004Z</time>
</trkpt>
<trkpt lat="31.7447410" lon="35.1356060">
<ele>729.294922</ele>
<time>2015-07-10T06:25:06.997Z</time>
</trkpt>
<trkpt lat="31.7446710" lon="35.1356870">
<ele>730.270264</ele>
<time>2015-07-10T06:25:12.000Z</time>
</trkpt>
<trkpt lat="31.7445630" lon="35.1356970">
<ele>731.215210</ele>
<time>2015-07-10T06:25:17.003Z</time>
</trkpt>
<trkpt lat="31.7444550" lon="35.1356670">
<ele>731.215210</ele>
<time>2015-07-10T06:25:21.003Z</time>
</trkpt>
<trkpt lat="31.7443380" lon="35.1356550">
<ele>732.190552</ele>
<time>2015-07-10T06:25:25.003Z</time>
</trkpt>
<trkpt lat="31.7442440" lon="35.1356490">
<ele>732.647766</ele>
<time>2015-07-10T06:25:28.001Z</time>
</trkpt>
<trkpt lat="31.7441510" lon="35.1356370">
<ele>732.647766</ele>
<time>2015-07-10T06:25:30.999Z</time>
</trkpt>
<trkpt lat="31.7440590" lon="35.1356350">
<ele>733.135437</ele>
<time>2015-07-10T06:25:33.997Z</time>
</trkpt>
<trkpt lat="31.7439660" lon="35.1356270">
<ele>733.623108</ele>
<time>2015-07-10T06:25:37.004Z</time>
</trkpt>
<trkpt lat="31.7438710" lon="35.1356160">
<ele>734.110779</ele>
<time>2015-07-10T06:25:40.002Z</time>
</trkpt>
<trkpt lat="31.7437490" lon="35.1355950">
<ele>734.110779</ele>
<time>2015-07-10T06:25:44.003Z</time>
</trkpt>
<trkpt lat="31.7436320" lon="35.1355910">
<ele>734.567993</ele>
<time>2015-07-10T06:25:48.003Z</time>
</trkpt>
<trkpt lat="31.7435110" lon="35.1355840">
<ele>735.055725</ele>
<time>2015-07-10T06:25:52.003Z</time>
</trkpt>
<trkpt lat="31.7434160" lon="35.1355730">
<ele>735.543335</ele>
<time>2015-07-10T06:25:55.001Z</time>
</trkpt>
<trkpt lat="31.7433240" lon="35.1355250">
<ele>736.031067</ele>
<time>2015-07-10T06:25:59.002Z</time>
</trkpt>
<trkpt lat="31.7432240" lon="35.1354960">
<ele>736.031067</ele>
<time>2015-07-10T06:26:03.002Z</time>
</trkpt>
<trkpt lat="31.7431240" lon="35.1354800">
<ele>736.975891</ele>
<time>2015-07-10T06:26:07.002Z</time>
</trkpt>
<trkpt lat="31.7430250" lon="35.1354530">
<ele>737.463623</ele>
<time>2015-07-10T06:26:11.003Z</time>
</trkpt>
<trkpt lat="31.7429230" lon="35.1354390">
<ele>737.951294</ele>
<time>2015-07-10T06:26:15.003Z</time>
</trkpt>
<trkpt lat="31.7428270" lon="35.1354190">
<ele>738.438965</ele>
<time>2015-07-10T06:26:19.003Z</time>
</trkpt>
<trkpt lat="31.7427290" lon="35.1353950">
<ele>738.896118</ele>
<time>2015-07-10T06:26:23.004Z</time>
</trkpt>
<trkpt lat="31.7426190" lon="35.1353780">
<ele>739.871460</ele>
<time>2015-07-10T06:26:27.997Z</time>
</trkpt>
<trkpt lat="31.7425150" lon="35.1353550">
<ele>740.359192</ele>
<time>2015-07-10T06:26:33.000Z</time>
</trkpt>
<trkpt lat="31.7424220" lon="35.1353420">
<ele>740.816406</ele>
<time>2015-07-10T06:26:37.000Z</time>
</trkpt>
<trkpt lat="31.7423100" lon="35.1353310">
<ele>740.816406</ele>
<time>2015-07-10T06:26:42.003Z</time>
</trkpt>
<trkpt lat="31.7421960" lon="35.1353160">
<ele>742.279480</ele>
<time>2015-07-10T06:26:46.997Z</time>
</trkpt>
<trkpt lat="31.7420970" lon="35.1353090">
<ele>743.254822</ele>
<time>2015-07-10T06:26:51.999Z</time>
</trkpt>
<trkpt lat="31.7419920" lon="35.1352830">
<ele>744.199707</ele>
<time>2015-07-10T06:26:58.004Z</time>
</trkpt>
<trkpt lat="31.7418870" lon="35.1352670">
<ele>743.711975</ele>
<time>2015-07-10T06:27:04.000Z</time>
</trkpt>
<trkpt lat="31.7417860" lon="35.1352730">
<ele>744.687317</ele>
<time>2015-07-10T06:27:09.996Z</time>
</trkpt>
<trkpt lat="31.7416900" lon="35.1352610">
<ele>745.632263</ele>
<time>2015-07-10T06:27:16.001Z</time>
</trkpt>
<trkpt lat="31.7415970" lon="35.1352520">
<ele>746.119873</ele>
<time>2015-07-10T06:27:21.004Z</time>
</trkpt>
<trkpt lat="31.7415030" lon="35.1352500">
<ele>746.607605</ele>
<time>2015-07-10T06:27:25.998Z</time>
</trkpt>
<trkpt lat="31.7413920" lon="35.1352420">
<ele>747.064819</ele>
<time>2015-07-10T06:27:32.003Z</time>
</trkpt>
<trkpt lat="31.7412840" lon="35.1352430">
<ele>748.040161</ele>
<time>2015-07-10T06:27:37.999Z</time>
</trkpt>
<trkpt lat="31.7411920" lon="35.1352210">
<ele>748.040161</ele>
<time>2015-07-10T06:27:44.004Z</time>
</trkpt>
<trkpt lat="31.7410930" lon="35.1352200">
<ele>748.985046</ele>
<time>2015-07-10T06:27:50.000Z</time>
</trkpt>
<trkpt lat="31.7410010" lon="35.1352060">
<ele>749.503174</ele>
<time>2015-07-10T06:27:55.996Z</time>
</trkpt>
<trkpt lat="31.7409000" lon="35.1351750">
<ele>750.448120</ele>
<time>2015-07-10T06:28:02.001Z</time>
</trkpt>
<trkpt lat="31.7408090" lon="35.1351870">
<ele>750.935730</ele>
<time>2015-07-10T06:28:07.997Z</time>
</trkpt>
<trkpt lat="31.7407070" lon="35.1351970">
<ele>751.880676</ele>
<time>2015-07-10T06:28:14.002Z</time>
</trkpt>
<trkpt lat="31.7406480" lon="35.1353030">
<ele>752.856018</ele>
<time>2015-07-10T06:28:19.998Z</time>
</trkpt>
<trkpt lat="31.7407020" lon="35.1353890">
<ele>754.288574</ele>
<time>2015-07-10T06:28:26.003Z</time>
</trkpt>
<trkpt lat="31.7407790" lon="35.1354710">
<ele>755.263916</ele>
<time>2015-07-10T06:28:33.001Z</time>
</trkpt>
<trkpt lat="31.7408670" lon="35.1355060">
<ele>756.208801</ele>
<time>2015-07-10T06:28:39.999Z</time>
</trkpt>
<trkpt lat="31.7409610" lon="35.1355240">
<ele>756.696533</ele>
<time>2015-07-10T06:28:46.998Z</time>
</trkpt>
<trkpt lat="31.7410540" lon="35.1355480">
<ele>757.671875</ele>
<time>2015-07-10T06:28:53.996Z</time>
</trkpt>
<trkpt lat="31.7411460" lon="35.1355750">
<ele>758.129028</ele>
<time>2015-07-10T06:29:00.001Z</time>
</trkpt>
<trkpt lat="31.7412470" lon="35.1356090">
<ele>758.616699</ele>
<time>2015-07-10T06:29:05.997Z</time>
</trkpt>
<trkpt lat="31.7413550" lon="35.1356600">
<ele>758.616699</ele>
<time>2015-07-10T06:29:12.002Z</time>
</trkpt>
<trkpt lat="31.7414420" lon="35.1357270">
<ele>759.592102</ele>
<time>2015-07-10T06:29:17.998Z</time>
</trkpt>
<trkpt lat="31.7415380" lon="35.1357790">
<ele>760.536926</ele>
<time>2015-07-10T06:29:24.003Z</time>
</trkpt>
<trkpt lat="31.7416380" lon="35.1358070">
<ele>761.024658</ele>
<time>2015-07-10T06:29:29.999Z</time>
</trkpt>
<trkpt lat="31.7417430" lon="35.1358230">
<ele>761.969482</ele>
<time>2015-07-10T06:29:36.004Z</time>
</trkpt>
<trkpt lat="31.7418350" lon="35.1358660">
<ele>762.944885</ele>
<time>2015-07-10T06:29:42.000Z</time>
</trkpt>
<trkpt lat="31.7419270" lon="35.1358880">
<ele>763.432556</ele>
<time>2015-07-10T06:29:47.003Z</time>
</trkpt>
<trkpt lat="31.7420150" lon="35.1359250">
<ele>764.377441</ele>
<time>2015-07-10T06:29:51.996Z</time>
</trkpt>
<trkpt lat="31.7421100" lon="35.1359570">
<ele>764.865112</ele>
<time>2015-07-10T06:29:56.999Z</time>
</trkpt>
<trkpt lat="31.7422030" lon="35.1360250">
<ele>765.352783</ele>
<time>2015-07-10T06:30:03.004Z</time>
</trkpt>
<trkpt lat="31.7422890" lon="35.1360730">
<ele>765.840515</ele>
<time>2015-07-10T06:30:07.998Z</time>
</trkpt>
<trkpt lat="31.7423770" lon="35.1361090">
<ele>766.297729</ele>
<time>2015-07-10T06:30:13.000Z</time>
</trkpt>
<trkpt lat="31.7424700" lon="35.1361480">
<ele>767.273071</ele>
<time>2015-07-10T06:30:18.003Z</time>
</trkpt>
<trkpt lat="31.7425600" lon="35.1361840">
<ele>766.785339</ele>
<time>2015-07-10T06:30:22.003Z</time>
</trkpt>
<trkpt lat="31.7426400" lon="35.1362370">
<ele>767.273071</ele>
<time>2015-07-10T06:30:26.997Z</time>
</trkpt>
<trkpt lat="31.7427400" lon="35.1362820">
<ele>768.705627</ele>
<time>2015-07-10T06:30:33.002Z</time>
</trkpt>
<trkpt lat="31.7428420" lon="35.1363380">
<ele>769.193298</ele>
<time>2015-07-10T06:30:38.998Z</time>
</trkpt>
<trkpt lat="31.7429390" lon="35.1363750">
<ele>770.138123</ele>
<time>2015-07-10T06:30:45.003Z</time>
</trkpt>
<trkpt lat="31.7430370" lon="35.1364330">
<ele>770.138123</ele>
<time>2015-07-10T06:30:50.999Z</time>
</trkpt>
<trkpt lat="31.7431390" lon="35.1364660">
<ele>771.601196</ele>
<time>2015-07-10T06:30:57.004Z</time>
</trkpt>
<trkpt lat="31.7432330" lon="35.1365380">
<ele>771.601196</ele>
<time>2015-07-10T06:31:03.000Z</time>
</trkpt>
<trkpt lat="31.7433050" lon="35.1365980">
<ele>772.546082</ele>
<time>2015-07-10T06:31:08.003Z</time>
</trkpt>
<trkpt lat="31.7433790" lon="35.1366860">
<ele>773.033752</ele>
<time>2015-07-10T06:31:12.996Z</time>
</trkpt>
<trkpt lat="31.7434510" lon="35.1367590">
<ele>774.009094</ele>
<time>2015-07-10T06:31:17.999Z</time>
</trkpt>
<trkpt lat="31.7435390" lon="35.1368300">
<ele>774.009094</ele>
<time>2015-07-10T06:31:24.004Z</time>
</trkpt>
<trkpt lat="31.7436150" lon="35.1368900">
<ele>774.009094</ele>
<time>2015-07-10T06:31:30.000Z</time>
</trkpt>
<trkpt lat="31.7437050" lon="35.1369490">
<ele>775.929321</ele>
<time>2015-07-10T06:31:35.996Z</time>
</trkpt>
<trkpt lat="31.7437980" lon="35.1369690">
<ele>776.874268</ele>
<time>2015-07-10T06:31:43.003Z</time>
</trkpt>
<trkpt lat="31.7438770" lon="35.1370210">
<ele>776.874268</ele>
<time>2015-07-10T06:31:47.997Z</time>
</trkpt>
<trkpt lat="31.7439710" lon="35.1370500">
<ele>777.849609</ele>
<time>2015-07-10T06:31:54.002Z</time>
</trkpt>
<trkpt lat="31.7440810" lon="35.1370520">
<ele>778.306824</ele>
<time>2015-07-10T06:32:01.000Z</time>
</trkpt>
<trkpt lat="31.7441830" lon="35.1370270">
<ele>779.282166</ele>
<time>2015-07-10T06:32:06.996Z</time>
</trkpt>
<trkpt lat="31.7442830" lon="35.1370200">
<ele>779.769836</ele>
<time>2015-07-10T06:32:13.001Z</time>
</trkpt>
<trkpt lat="31.7443820" lon="35.1370030">
<ele>780.745178</ele>
<time>2015-07-10T06:32:18.997Z</time>
</trkpt>
<trkpt lat="31.7444800" lon="35.1370110">
<ele>781.202393</ele>
<time>2015-07-10T06:32:25.002Z</time>
</trkpt>
<trkpt lat="31.7445720" lon="35.1370080">
<ele>782.177734</ele>
<time>2015-07-10T06:32:30.998Z</time>
</trkpt>
<trkpt lat="31.7446740" lon="35.1370180">
<ele>783.122681</ele>
<time>2015-07-10T06:32:38.999Z</time>
</trkpt>
<trkpt lat="31.7447730" lon="35.1370330">
<ele>783.610291</ele>
<time>2015-07-10T06:32:45.997Z</time>
</trkpt>
<trkpt lat="31.7448720" lon="35.1370510">
<ele>784.555176</ele>
<time>2015-07-10T06:32:52.996Z</time>
</trkpt>
<trkpt lat="31.7449630" lon="35.1370750">
<ele>786.018250</ele>
<time>2015-07-10T06:33:00.003Z</time>
</trkpt>
<trkpt lat="31.7450490" lon="35.1370890">
<ele>786.505920</ele>
<time>2015-07-10T06:33:07.001Z</time>
</trkpt>
<trkpt lat="31.7451440" lon="35.1371310">
<ele>786.505920</ele>
<time>2015-07-10T06:33:12.997Z</time>
</trkpt>
<trkpt lat="31.7452380" lon="35.1371690">
<ele>787.450806</ele>
<time>2015-07-10T06:33:19.996Z</time>
</trkpt>
<trkpt lat="31.7453260" lon="35.1372040">
<ele>788.426147</ele>
<time>2015-07-10T06:33:27.996Z</time>
</trkpt>
<trkpt lat="31.7454300" lon="35.1372170">
<ele>789.858704</ele>
<time>2015-07-10T06:33:35.997Z</time>
</trkpt>
<trkpt lat="31.7455330" lon="35.1372670">
<ele>790.834106</ele>
<time>2015-07-10T06:33:43.998Z</time>
</trkpt>
<trkpt lat="31.7456380" lon="35.1372830">
<ele>792.266663</ele>
<time>2015-07-10T06:33:51.998Z</time>
</trkpt>
<trkpt lat="31.7457360" lon="35.1372870">
<ele>793.211487</ele>
<time>2015-07-10T06:33:59.999Z</time>
</trkpt>
<trkpt lat="31.7458330" lon="35.1373270">
<ele>793.699219</ele>
<time>2015-07-10T06:34:08.000Z</time>
</trkpt>
<trkpt lat="31.7459180" lon="35.1373850">
<ele>794.674561</ele>
<time>2015-07-10T06:34:16.000Z</time>
</trkpt>
<trkpt lat="31.7460160" lon="35.1374070">
<ele>795.162231</ele>
<time>2015-07-10T06:34:24.001Z</time>
</trkpt>
<trkpt lat="31.7460970" lon="35.1374550">
<ele>796.107117</ele>
<time>2015-07-10T06:34:30.999Z</time>
</trkpt>
<trkpt lat="31.7461890" lon="35.1375120">
<ele>796.594788</ele>
<time>2015-07-10T06:34:39.000Z</time>
</trkpt>
<trkpt lat="31.7462860" lon="35.1375380">
<ele>798.027344</ele>
<time>2015-07-10T06:34:47.001Z</time>
</trkpt>
<trkpt lat="31.7463650" lon="35.1375730">
<ele>798.515076</ele>
<time>2015-07-10T06:34:53.999Z</time>
</trkpt>
<trkpt lat="31.7464880" lon="35.1375550">
<ele>799.459900</ele>
<time>2015-07-10T06:37:21.000Z</time>
</trkpt>
<trkpt lat="31.7465940" lon="35.1375670">
<ele>799.002686</ele>
<time>2015-07-10T06:37:25.000Z</time>
</trkpt>
<trkpt lat="31.7467200" lon="35.1375800">
<ele>797.539734</ele>
<time>2015-07-10T06:37:27.998Z</time>
</trkpt>
<trkpt lat="31.7468140" lon="35.1375960">
<ele>797.082520</ele>
<time>2015-07-10T06:37:30.003Z</time>
</trkpt>
<trkpt lat="31.7469120" lon="35.1376110">
<ele>796.107117</ele>
<time>2015-07-10T06:37:31.999Z</time>
</trkpt>
<trkpt lat="31.7470360" lon="35.1376450">
<ele>795.162231</ele>
<time>2015-07-10T06:37:34.003Z</time>
</trkpt>
<trkpt lat="31.7471620" lon="35.1376960">
<ele>795.162231</ele>
<time>2015-07-10T06:37:35.999Z</time>
</trkpt>
<trkpt lat="31.7472780" lon="35.1377500">
<ele>794.186890</ele>
<time>2015-07-10T06:37:38.004Z</time>
</trkpt>
<trkpt lat="31.7473690" lon="35.1377760">
<ele>795.162231</ele>
<time>2015-07-10T06:37:39.999Z</time>
</trkpt>
<trkpt lat="31.7474650" lon="35.1377880">
<ele>795.619446</ele>
<time>2015-07-10T06:37:42.997Z</time>
</trkpt>
<trkpt lat="31.7475570" lon="35.1377540">
<ele>795.619446</ele>
<time>2015-07-10T06:37:48.000Z</time>
</trkpt>
<trkpt lat="31.7476580" lon="35.1376650">
<ele>794.674561</ele>
<time>2015-07-10T06:37:52.000Z</time>
</trkpt>
<trkpt lat="31.7477310" lon="35.1375950">
<ele>794.186890</ele>
<time>2015-07-10T06:37:53.996Z</time>
</trkpt>
<trkpt lat="31.7478380" lon="35.1375180">
<ele>793.699219</ele>
<time>2015-07-10T06:37:57.003Z</time>
</trkpt>
<trkpt lat="31.7479230" lon="35.1374590">
<ele>795.162231</ele>
<time>2015-07-10T06:38:01.997Z</time>
</trkpt>
<trkpt lat="31.7480280" lon="35.1374220">
<ele>796.107117</ele>
<time>2015-07-10T06:38:09.004Z</time>
</trkpt>
<trkpt lat="31.7481030" lon="35.1373630">
<ele>796.594788</ele>
<time>2015-07-10T06:38:16.002Z</time>
</trkpt>
<trkpt lat="31.7481950" lon="35.1373080">
<ele>797.539734</ele>
<time>2015-07-10T06:38:23.001Z</time>
</trkpt>
<trkpt lat="31.7482800" lon="35.1372410">
<ele>799.002686</ele>
<time>2015-07-10T06:38:31.001Z</time>
</trkpt>
<trkpt lat="31.7483720" lon="35.1371980">
<ele>799.459900</ele>
<time>2015-07-10T06:38:39.002Z</time>
</trkpt>
<trkpt lat="31.7484530" lon="35.1371460">
<ele>799.947571</ele>
<time>2015-07-10T06:38:47.003Z</time>
</trkpt>
<trkpt lat="31.7485430" lon="35.1370850">
<ele>800.435303</ele>
<time>2015-07-10T06:38:54.001Z</time>
</trkpt>
<trkpt lat="31.7486410" lon="35.1370460">
<ele>801.410645</ele>
<time>2015-07-10T06:39:00.999Z</time>
</trkpt>
<trkpt lat="31.7487330" lon="35.1370050">
<ele>801.867859</ele>
<time>2015-07-10T06:39:07.998Z</time>
</trkpt>
<trkpt lat="31.7488290" lon="35.1370020">
<ele>803.330933</ele>
<time>2015-07-10T06:39:14.996Z</time>
</trkpt>
<trkpt lat="31.7489210" lon="35.1369740">
<ele>804.763428</ele>
<time>2015-07-10T06:41:18.004Z</time>
</trkpt>
<trkpt lat="31.7490240" lon="35.1369620">
<ele>805.708313</ele>
<time>2015-07-10T06:41:24.000Z</time>
</trkpt>
<trkpt lat="31.7491250" lon="35.1369670">
<ele>806.683716</ele>
<time>2015-07-10T06:41:29.996Z</time>
</trkpt>
<trkpt lat="31.7492190" lon="35.1369890">
<ele>808.603882</ele>
<time>2015-07-10T06:41:36.001Z</time>
</trkpt>
<trkpt lat="31.7493080" lon="35.1370270">
<ele>809.579285</ele>
<time>2015-07-10T06:41:42.999Z</time>
</trkpt>
<trkpt lat="31.7494000" lon="35.1370070">
<ele>810.524170</ele>
<time>2015-07-10T06:41:49.998Z</time>
</trkpt>
<trkpt lat="31.7495000" lon="35.1370030">
<ele>811.956665</ele>
<time>2015-07-10T06:41:56.996Z</time>
</trkpt>
<trkpt lat="31.7495960" lon="35.1369630">
<ele>812.444397</ele>
<time>2015-07-10T06:42:04.003Z</time>
</trkpt>
<trkpt lat="31.7496940" lon="35.1369220">
<ele>812.932129</ele>
<time>2015-07-10T06:42:11.002Z</time>
</trkpt>
<trkpt lat="31.7497910" lon="35.1368890">
<ele>813.876953</ele>
<time>2015-07-10T06:42:16.998Z</time>
</trkpt>
<trkpt lat="31.7499000" lon="35.1368610">
<ele>813.876953</ele>
<time>2015-07-10T06:42:23.003Z</time>
</trkpt>
<trkpt lat="31.7499880" lon="35.1368370">
<ele>814.364685</ele>
<time>2015-07-10T06:42:27.996Z</time>
</trkpt>
<trkpt lat="31.7500640" lon="35.1367640">
<ele>814.852295</ele>
<time>2015-07-10T06:42:34.001Z</time>
</trkpt>
<trkpt lat="31.7501050" lon="35.1366450">
<ele>814.852295</ele>
<time>2015-07-10T06:42:38.002Z</time>
</trkpt>
<trkpt lat="31.7501210" lon="35.1365350">
<ele>815.340027</ele>
<time>2015-07-10T06:42:42.002Z</time>
</trkpt>
<trkpt lat="31.7500800" lon="35.1364280">
<ele>815.827698</ele>
<time>2015-07-10T06:42:46.002Z</time>
</trkpt>
<trkpt lat="31.7500490" lon="35.1363060">
<ele>816.772522</ele>
<time>2015-07-10T06:42:50.996Z</time>
</trkpt>
<trkpt lat="31.7500220" lon="35.1361930">
<ele>817.260254</ele>
<time>2015-07-10T06:42:55.999Z</time>
</trkpt>
<trkpt lat="31.7499940" lon="35.1360760">
<ele>817.747864</ele>
<time>2015-07-10T06:43:01.001Z</time>
</trkpt>
<trkpt lat="31.7499740" lon="35.1359590">
<ele>818.205078</ele>
<time>2015-07-10T06:43:06.004Z</time>
</trkpt>
<trkpt lat="31.7499700" lon="35.1358510">
<ele>818.205078</ele>
<time>2015-07-10T06:43:10.004Z</time>
</trkpt>
<trkpt lat="31.7499660" lon="35.1357130">
<ele>818.692810</ele>
<time>2015-07-10T06:43:13.996Z</time>
</trkpt>
<trkpt lat="31.7499740" lon="35.1355830">
<ele>819.180481</ele>
<time>2015-07-10T06:43:17.996Z</time>
</trkpt>
<trkpt lat="31.7499920" lon="35.1354780">
<ele>820.125366</ele>
<time>2015-07-10T06:43:22.999Z</time>
</trkpt>
<trkpt lat="31.7499400" lon="35.1354040">
<ele>821.100708</ele>
<time>2015-07-10T06:43:30.999Z</time>
</trkpt>
<trkpt lat="31.7498300" lon="35.1354100">
<ele>821.100708</ele>
<time>2015-07-10T06:43:37.004Z</time>
</trkpt>
<trkpt lat="31.7497310" lon="35.1354100">
<ele>822.563721</ele>
<time>2015-07-10T06:43:41.998Z</time>
</trkpt>
<trkpt lat="31.7496230" lon="35.1354130">
<ele>822.563721</ele>
<time>2015-07-10T06:43:48.003Z</time>
</trkpt>
<trkpt lat="31.7495320" lon="35.1354030">
<ele>823.020935</ele>
<time>2015-07-10T06:43:52.997Z</time>
</trkpt>
<trkpt lat="31.7494250" lon="35.1354010">
<ele>823.508667</ele>
<time>2015-07-10T06:43:59.002Z</time>
</trkpt>
<trkpt lat="31.7493310" lon="35.1354020">
<ele>824.941223</ele>
<time>2015-07-10T06:44:04.004Z</time>
</trkpt>
<trkpt lat="31.7492350" lon="35.1354090">
<ele>825.428894</ele>
<time>2015-07-10T06:44:08.998Z</time>
</trkpt>
<trkpt lat="31.7491140" lon="35.1353800">
<ele>826.861450</ele>
<time>2015-07-10T06:44:15.003Z</time>
</trkpt>
<trkpt lat="31.7490240" lon="35.1353230">
<ele>826.861450</ele>
<time>2015-07-10T06:44:19.997Z</time>
</trkpt>
<trkpt lat="31.7489190" lon="35.1352780">
<ele>827.349060</ele>
<time>2015-07-10T06:44:24.999Z</time>
</trkpt>
<trkpt lat="31.7488340" lon="35.1352280">
<ele>827.836792</ele>
<time>2015-07-10T06:44:29.000Z</time>
</trkpt>
<trkpt lat="31.7487400" lon="35.1351700">
<ele>827.836792</ele>
<time>2015-07-10T06:44:33.000Z</time>
</trkpt>
<trkpt lat="31.7486590" lon="35.1351150">
<ele>827.836792</ele>
<time>2015-07-10T06:44:35.998Z</time>
</trkpt>
<trkpt lat="31.7485850" lon="35.1350330">
<ele>828.324524</ele>
<time>2015-07-10T06:44:38.996Z</time>
</trkpt>
<trkpt lat="31.7485310" lon="35.1349300">
<ele>828.324524</ele>
<time>2015-07-10T06:44:42.003Z</time>
</trkpt>
<trkpt lat="31.7485020" lon="35.1348070">
<ele>828.781738</ele>
<time>2015-07-10T06:44:45.001Z</time>
</trkpt>
<trkpt lat="31.7485100" lon="35.1346590">
<ele>828.324524</ele>
<time>2015-07-10T06:44:47.999Z</time>
</trkpt>
<trkpt lat="31.7485560" lon="35.1345240">
<ele>828.781738</ele>
<time>2015-07-10T06:44:50.997Z</time>
</trkpt>
<trkpt lat="31.7486200" lon="35.1344160">
<ele>828.781738</ele>
<time>2015-07-10T06:44:54.004Z</time>
</trkpt>
<trkpt lat="31.7487100" lon="35.1343500">
<ele>829.269348</ele>
<time>2015-07-10T06:44:57.002Z</time>
</trkpt>
<trkpt lat="31.7488190" lon="35.1343010">
<ele>829.269348</ele>
<time>2015-07-10T06:45:00.000Z</time>
</trkpt>
<trkpt lat="31.7489330" lon="35.1342460">
<ele>829.269348</ele>
<time>2015-07-10T06:45:02.998Z</time>
</trkpt>
<trkpt lat="31.7490520" lon="35.1341980">
<ele>829.269348</ele>
<time>2015-07-10T06:45:05.996Z</time>
</trkpt>
<trkpt lat="31.7491730" lon="35.1341780">
<ele>829.757080</ele>
<time>2015-07-10T06:45:09.003Z</time>
</trkpt>
<trkpt lat="31.7493030" lon="35.1341850">
<ele>830.244690</ele>
<time>2015-07-10T06:45:12.001Z</time>
</trkpt>
<trkpt lat="31.7494260" lon="35.1342370">
<ele>830.732422</ele>
<time>2015-07-10T06:45:14.999Z</time>
</trkpt>
<trkpt lat="31.7495260" lon="35.1343300">
<ele>830.244690</ele>
<time>2015-07-10T06:45:17.997Z</time>
</trkpt>
<trkpt lat="31.7495930" lon="35.1344560">
<ele>830.732422</ele>
<time>2015-07-10T06:45:21.004Z</time>
</trkpt>
<trkpt lat="31.7496100" lon="35.1346160">
<ele>831.189575</ele>
<time>2015-07-10T06:45:24.002Z</time>
</trkpt>
<trkpt lat="31.7495660" lon="35.1347620">
<ele>831.189575</ele>
<time>2015-07-10T06:45:27.000Z</time>
</trkpt>
<trkpt lat="31.7494870" lon="35.1348980">
<ele>831.189575</ele>
<time>2015-07-10T06:45:29.998Z</time>
</trkpt>
<trkpt lat="31.7493840" lon="35.1350080">
<ele>831.677307</ele>
<time>2015-07-10T06:45:32.996Z</time>
</trkpt>
<trkpt lat="31.7493090" lon="35.1350620">
<ele>831.677307</ele>
<time>2015-07-10T06:45:35.001Z</time>
</trkpt>
<trkpt lat="31.7491780" lon="35.1351020">
<ele>832.164917</ele>
<time>2015-07-10T06:45:37.999Z</time>
</trkpt>
<trkpt lat="31.7490860" lon="35.1351160">
<ele>832.164917</ele>
<time>2015-07-10T06:45:40.003Z</time>
</trkpt>
<trkpt lat="31.7489470" lon="35.1351120">
<ele>832.164917</ele>
<time>2015-07-10T06:45:43.001Z</time>
</trkpt>
<trkpt lat="31.7488190" lon="35.1350690">
<ele>832.652649</ele>
<time>2015-07-10T06:45:45.999Z</time>
</trkpt>
<trkpt lat="31.7487130" lon="35.1349700">
<ele>832.652649</ele>
<time>2015-07-10T06:45:48.997Z</time>
</trkpt>
<trkpt lat="31.7486520" lon="35.1348860">
<ele>832.652649</ele>
<time>2015-07-10T06:45:51.002Z</time>
</trkpt>
<trkpt lat="31.7486230" lon="35.1347420">
<ele>832.652649</ele>
<time>2015-07-10T06:45:54.000Z</time>
</trkpt>
<trkpt lat="31.7486750" lon="35.1346010">
<ele>833.597473</ele>
<time>2015-07-10T06:45:56.998Z</time>
</trkpt>
<trkpt lat="31.7487660" lon="35.1345030">
<ele>833.109863</ele>
<time>2015-07-10T06:45:59.996Z</time>
</trkpt>
<trkpt lat="31.7488800" lon="35.1344540">
<ele>833.109863</ele>
<time>2015-07-10T06:46:03.003Z</time>
</trkpt>
<trkpt lat="31.7489980" lon="35.1344650">
<ele>833.597473</ele>
<time>2015-07-10T06:46:06.001Z</time>
</trkpt>
<trkpt lat="31.7490390" lon="35.1345780">
<ele>834.085205</ele>
<time>2015-07-10T06:46:08.999Z</time>
</trkpt>
<trkpt lat="31.7489760" lon="35.1346730">
<ele>834.572937</ele>
<time>2015-07-10T06:46:14.002Z</time>
</trkpt>
<trkpt lat="31.7489250" lon="35.1347760">
<ele>836.005432</ele>
<time>2015-07-10T06:46:22.002Z</time>
</trkpt>
<trkpt lat="31.7489950" lon="35.1348520">
<ele>836.493103</ele>
<time>2015-07-10T06:46:27.998Z</time>
</trkpt>
<trkpt lat="31.7491210" lon="35.1348380">
<ele>838.901062</ele>
<time>2015-07-10T06:55:33.001Z</time>
</trkpt>
<trkpt lat="31.7490100" lon="35.1348050">
<ele>838.901062</ele>
<time>2015-07-10T06:55:39.999Z</time>
</trkpt>
<trkpt lat="31.7489390" lon="35.1348080">
<ele>839.358276</ele>
<time>2015-07-10T06:56:05.997Z</time>
</trkpt>
<trkpt lat="31.7489710" lon="35.1346880">
<ele>838.901062</ele>
<time>2015-07-10T06:56:11.000Z</time>
</trkpt>
<trkpt lat="31.7490470" lon="35.1345710">
<ele>837.925720</ele>
<time>2015-07-10T06:56:13.998Z</time>
</trkpt>
<trkpt lat="31.7490070" lon="35.1344520">
<ele>836.950317</ele>
<time>2015-07-10T06:56:16.996Z</time>
</trkpt>
<trkpt lat="31.7488840" lon="35.1344430">
<ele>836.493103</ele>
<time>2015-07-10T06:56:20.003Z</time>
</trkpt>
<trkpt lat="31.7487690" lon="35.1345150">
<ele>836.493103</ele>
<time>2015-07-10T06:56:23.001Z</time>
</trkpt>
<trkpt lat="31.7486860" lon="35.1346310">
<ele>836.005432</ele>
<time>2015-07-10T06:56:25.999Z</time>
</trkpt>
<trkpt lat="31.7486530" lon="35.1347420">
<ele>836.005432</ele>
<time>2015-07-10T06:56:28.003Z</time>
</trkpt>
<trkpt lat="31.7486550" lon="35.1348730">
<ele>836.005432</ele>
<time>2015-07-10T06:56:29.999Z</time>
</trkpt>
<trkpt lat="31.7487160" lon="35.1349850">
<ele>836.005432</ele>
<time>2015-07-10T06:56:32.004Z</time>
</trkpt>
<trkpt lat="31.7488010" lon="35.1350590">
<ele>836.005432</ele>
<time>2015-07-10T06:56:33.999Z</time>
</trkpt>
<trkpt lat="31.7489030" lon="35.1350990">
<ele>836.005432</ele>
<time>2015-07-10T06:56:36.004Z</time>
</trkpt>
<trkpt lat="31.7490050" lon="35.1351140">
<ele>836.005432</ele>
<time>2015-07-10T06:56:38.000Z</time>
</trkpt>
<trkpt lat="31.7491110" lon="35.1351070">
<ele>836.005432</ele>
<time>2015-07-10T06:56:40.004Z</time>
</trkpt>
<trkpt lat="31.7492150" lon="35.1350820">
<ele>835.517761</ele>
<time>2015-07-10T06:56:42.000Z</time>
</trkpt>
<trkpt lat="31.7493160" lon="35.1350460">
<ele>835.030090</ele>
<time>2015-07-10T06:56:43.996Z</time>
</trkpt>
<trkpt lat="31.7494100" lon="35.1349900">
<ele>835.030090</ele>
<time>2015-07-10T06:56:46.000Z</time>
</trkpt>
<trkpt lat="31.7494950" lon="35.1349160">
<ele>835.030090</ele>
<time>2015-07-10T06:56:47.996Z</time>
</trkpt>
<trkpt lat="31.7495620" lon="35.1348280">
<ele>834.572937</ele>
<time>2015-07-10T06:56:50.001Z</time>
</trkpt>
<trkpt lat="31.7496160" lon="35.1347270">
<ele>834.572937</ele>
<time>2015-07-10T06:56:51.996Z</time>
</trkpt>
<trkpt lat="31.7496470" lon="35.1346100">
<ele>835.030090</ele>
<time>2015-07-10T06:56:54.001Z</time>
</trkpt>
<trkpt lat="31.7496450" lon="35.1344820">
<ele>834.572937</ele>
<time>2015-07-10T06:56:55.997Z</time>
</trkpt>
<trkpt lat="31.7495940" lon="35.1343670">
<ele>834.085205</ele>
<time>2015-07-10T06:56:58.001Z</time>
</trkpt>
<trkpt lat="31.7495190" lon="35.1342790">
<ele>834.085205</ele>
<time>2015-07-10T06:56:59.997Z</time>
</trkpt>
<trkpt lat="31.7494320" lon="35.1342120">
<ele>833.597473</ele>
<time>2015-07-10T06:57:02.002Z</time>
</trkpt>
<trkpt lat="31.7493340" lon="35.1341770">
<ele>833.597473</ele>
<time>2015-07-10T06:57:03.997Z</time>
</trkpt>
<trkpt lat="31.7492330" lon="35.1341610">
<ele>833.597473</ele>
<time>2015-07-10T06:57:06.002Z</time>
</trkpt>
<trkpt lat="31.7491300" lon="35.1341650">
<ele>833.109863</ele>
<time>2015-07-10T06:57:07.998Z</time>
</trkpt>
<trkpt lat="31.7490280" lon="35.1341890">
<ele>833.109863</ele>
<time>2015-07-10T06:57:10.002Z</time>
</trkpt>
<trkpt lat="31.7489290" lon="35.1342310">
<ele>833.109863</ele>
<time>2015-07-10T06:57:11.998Z</time>
</trkpt>
<trkpt lat="31.7488360" lon="35.1342870">
<ele>833.109863</ele>
<time>2015-07-10T06:57:14.003Z</time>
</trkpt>
<trkpt lat="31.7487500" lon="35.1343510">
<ele>832.652649</ele>
<time>2015-07-10T06:57:15.998Z</time>
</trkpt>
<trkpt lat="31.7486630" lon="35.1344100">
<ele>832.164917</ele>
<time>2015-07-10T06:57:18.003Z</time>
</trkpt>
<trkpt lat="31.7485850" lon="35.1344870">
<ele>832.164917</ele>
<time>2015-07-10T06:57:19.999Z</time>
</trkpt>
<trkpt lat="31.7485300" lon="35.1345900">
<ele>832.164917</ele>
<time>2015-07-10T06:57:22.003Z</time>
</trkpt>
<trkpt lat="31.7484980" lon="35.1347070">
<ele>832.164917</ele>
<time>2015-07-10T06:57:23.999Z</time>
</trkpt>
<trkpt lat="31.7484940" lon="35.1348310">
<ele>832.164917</ele>
<time>2015-07-10T06:57:26.004Z</time>
</trkpt>
<trkpt lat="31.7485210" lon="35.1349390">
<ele>832.164917</ele>
<time>2015-07-10T06:57:27.999Z</time>
</trkpt>
<trkpt lat="31.7485660" lon="35.1350440">
<ele>832.164917</ele>
<time>2015-07-10T06:57:30.004Z</time>
</trkpt>
<trkpt lat="31.7486340" lon="35.1351300">
<ele>832.164917</ele>
<time>2015-07-10T06:57:32.000Z</time>
</trkpt>
<trkpt lat="31.7487230" lon="35.1351920">
<ele>832.164917</ele>
<time>2015-07-10T06:57:34.004Z</time>
</trkpt>
<trkpt lat="31.7488100" lon="35.1352480">
<ele>831.189575</ele>
<time>2015-07-10T06:57:36.000Z</time>
</trkpt>
<trkpt lat="31.7489060" lon="35.1352990">
<ele>831.677307</ele>
<time>2015-07-10T06:57:37.996Z</time>
</trkpt>
<trkpt lat="31.7490020" lon="35.1353370">
<ele>831.189575</ele>
<time>2015-07-10T06:57:40.000Z</time>
</trkpt>
<trkpt lat="31.7491130" lon="35.1353770">
<ele>829.757080</ele>
<time>2015-07-10T06:57:42.998Z</time>
</trkpt>
<trkpt lat="31.7492010" lon="35.1354020">
<ele>830.244690</ele>
<time>2015-07-10T06:57:45.996Z</time>
</trkpt>
<trkpt lat="31.7493310" lon="35.1353930">
<ele>828.781738</ele>
<time>2015-07-10T06:57:49.003Z</time>
</trkpt>
<trkpt lat="31.7494420" lon="35.1354000">
<ele>827.836792</ele>
<time>2015-07-10T06:57:50.999Z</time>
</trkpt>
<trkpt lat="31.7495700" lon="35.1354110">
<ele>827.836792</ele>
<time>2015-07-10T06:57:53.004Z</time>
</trkpt>
<trkpt lat="31.7497020" lon="35.1354120">
<ele>826.861450</ele>
<time>2015-07-10T06:57:54.999Z</time>
</trkpt>
<trkpt lat="31.7498230" lon="35.1354020">
<ele>825.916565</ele>
<time>2015-07-10T06:57:57.004Z</time>
</trkpt>
<trkpt lat="31.7499260" lon="35.1353730">
<ele>825.428894</ele>
<time>2015-07-10T06:57:59.000Z</time>
</trkpt>
<trkpt lat="31.7500000" lon="35.1352910">
<ele>824.941223</ele>
<time>2015-07-10T06:58:01.004Z</time>
</trkpt>
<trkpt lat="31.7500470" lon="35.1351950">
<ele>823.996277</ele>
<time>2015-07-10T06:58:03.000Z</time>
</trkpt>
<trkpt lat="31.7501130" lon="35.1350540">
<ele>823.020935</ele>
<time>2015-07-10T06:58:05.998Z</time>
</trkpt>
<trkpt lat="31.7501850" lon="35.1349770">
<ele>821.588379</ele>
<time>2015-07-10T06:58:08.003Z</time>
</trkpt>
<trkpt lat="31.7502770" lon="35.1349340">
<ele>820.125366</ele>
<time>2015-07-10T06:58:09.998Z</time>
</trkpt>
<trkpt lat="31.7503870" lon="35.1349090">
<ele>819.180481</ele>
<time>2015-07-10T06:58:12.003Z</time>
</trkpt>
<trkpt lat="31.7504940" lon="35.1348900">
<ele>817.747864</ele>
<time>2015-07-10T06:58:13.999Z</time>
</trkpt>
<trkpt lat="31.7505920" lon="35.1348790">
<ele>816.284912</ele>
<time>2015-07-10T06:58:16.003Z</time>
</trkpt>
<trkpt lat="31.7507080" lon="35.1348340">
<ele>814.852295</ele>
<time>2015-07-10T06:58:19.001Z</time>
</trkpt>
<trkpt lat="31.7507280" lon="35.1347040">
<ele>812.932129</ele>
<time>2015-07-10T06:58:21.999Z</time>
</trkpt>
<trkpt lat="31.7506150" lon="35.1346100">
<ele>811.011841</ele>
<time>2015-07-10T06:58:24.997Z</time>
</trkpt>
<trkpt lat="31.7505140" lon="35.1345430">
<ele>810.036499</ele>
<time>2015-07-10T06:58:27.002Z</time>
</trkpt>
<trkpt lat="31.7504120" lon="35.1344520">
<ele>808.603882</ele>
<time>2015-07-10T06:58:28.998Z</time>
</trkpt>
<trkpt lat="31.7503190" lon="35.1343420">
<ele>807.171326</ele>
<time>2015-07-10T06:58:31.002Z</time>
</trkpt>
<trkpt lat="31.7502530" lon="35.1342130">
<ele>805.708313</ele>
<time>2015-07-10T06:58:32.998Z</time>
</trkpt>
<trkpt lat="31.7502690" lon="35.1340900">
<ele>804.275757</ele>
<time>2015-07-10T06:58:35.003Z</time>
</trkpt>
<trkpt lat="31.7503560" lon="35.1340420">
<ele>803.788086</ele>
<time>2015-07-10T06:58:36.998Z</time>
</trkpt>
<trkpt lat="31.7504620" lon="35.1340970">
<ele>802.843201</ele>
<time>2015-07-10T06:58:39.003Z</time>
</trkpt>
<trkpt lat="31.7505750" lon="35.1341810">
<ele>801.410645</ele>
<time>2015-07-10T06:58:40.999Z</time>
</trkpt>
<trkpt lat="31.7507020" lon="35.1342640">
<ele>800.435303</ele>
<time>2015-07-10T06:58:43.003Z</time>
</trkpt>
<trkpt lat="31.7508170" lon="35.1343040">
<ele>798.515076</ele>
<time>2015-07-10T06:58:44.999Z</time>
</trkpt>
<trkpt lat="31.7509140" lon="35.1342800">
<ele>797.082520</ele>
<time>2015-07-10T06:58:47.004Z</time>
</trkpt>
<trkpt lat="31.7509400" lon="35.1341480">
<ele>794.674561</ele>
<time>2015-07-10T06:58:50.002Z</time>
</trkpt>
<trkpt lat="31.7508310" lon="35.1340770">
<ele>793.699219</ele>
<time>2015-07-10T06:58:51.997Z</time>
</trkpt>
<trkpt lat="31.7507000" lon="35.1339860">
<ele>792.266663</ele>
<time>2015-07-10T06:58:54.002Z</time>
</trkpt>
<trkpt lat="31.7506010" lon="35.1338140">
<ele>790.834106</ele>
<time>2015-07-10T06:58:55.998Z</time>
</trkpt>
<trkpt lat="31.7505300" lon="35.1335980">
<ele>788.913879</ele>
<time>2015-07-10T06:58:58.002Z</time>
</trkpt>
<trkpt lat="31.7505000" lon="35.1334730">
<ele>787.450806</ele>
<time>2015-07-10T06:58:58.996Z</time>
</trkpt>
<trkpt lat="31.7504750" lon="35.1333400">
<ele>786.505920</ele>
<time>2015-07-10T06:58:59.998Z</time>
</trkpt>
<trkpt lat="31.7504470" lon="35.1332020">
<ele>785.530518</ele>
<time>2015-07-10T06:59:01.000Z</time>
</trkpt>
<trkpt lat="31.7504140" lon="35.1330590">
<ele>783.610291</ele>
<time>2015-07-10T06:59:02.003Z</time>
</trkpt>
<trkpt lat="31.7503750" lon="35.1329220">
<ele>782.634949</ele>
<time>2015-07-10T06:59:02.996Z</time>
</trkpt>
<trkpt lat="31.7503370" lon="35.1327980">
<ele>780.745178</ele>
<time>2015-07-10T06:59:03.998Z</time>
</trkpt>
<trkpt lat="31.7503090" lon="35.1326810">
<ele>778.824951</ele>
<time>2015-07-10T06:59:05.001Z</time>
</trkpt>
<trkpt lat="31.7502980" lon="35.1325660">
<ele>777.849609</ele>
<time>2015-07-10T06:59:06.003Z</time>
</trkpt>
<trkpt lat="31.7502980" lon="35.1324550">
<ele>776.386536</ele>
<time>2015-07-10T06:59:06.996Z</time>
</trkpt>
<trkpt lat="31.7503050" lon="35.1323480">
<ele>774.953979</ele>
<time>2015-07-10T06:59:07.999Z</time>
</trkpt>
<trkpt lat="31.7503230" lon="35.1321500">
<ele>773.033752</ele>
<time>2015-07-10T06:59:10.003Z</time>
</trkpt>
<trkpt lat="31.7503580" lon="35.1319500">
<ele>771.113464</ele>
<time>2015-07-10T06:59:11.999Z</time>
</trkpt>
<trkpt lat="31.7504040" lon="35.1317270">
<ele>769.193298</ele>
<time>2015-07-10T06:59:14.004Z</time>
</trkpt>
<trkpt lat="31.7504260" lon="35.1316050">
<ele>768.217896</ele>
<time>2015-07-10T06:59:14.997Z</time>
</trkpt>
<trkpt lat="31.7504480" lon="35.1314770">
<ele>767.760681</ele>
<time>2015-07-10T06:59:15.999Z</time>
</trkpt>
<trkpt lat="31.7504740" lon="35.1313450">
<ele>765.840515</ele>
<time>2015-07-10T06:59:17.002Z</time>
</trkpt>
<trkpt lat="31.7505000" lon="35.1312090">
<ele>764.865112</ele>
<time>2015-07-10T06:59:18.004Z</time>
</trkpt>
<trkpt lat="31.7505260" lon="35.1310720">
<ele>763.889771</ele>
<time>2015-07-10T06:59:18.997Z</time>
</trkpt>
<trkpt lat="31.7505530" lon="35.1309340">
<ele>762.944885</ele>
<time>2015-07-10T06:59:20.000Z</time>
</trkpt>
<trkpt lat="31.7505810" lon="35.1308050">
<ele>761.969482</ele>
<time>2015-07-10T06:59:21.002Z</time>
</trkpt>
<trkpt lat="31.7506100" lon="35.1306900">
<ele>761.024658</ele>
<time>2015-07-10T06:59:22.004Z</time>
</trkpt>
<trkpt lat="31.7506590" lon="35.1305050">
<ele>759.592102</ele>
<time>2015-07-10T06:59:24.000Z</time>
</trkpt>
<trkpt lat="31.7506670" lon="35.1304110">
<ele>758.129028</ele>
<time>2015-07-10T06:59:40.001Z</time>
</trkpt>
<trkpt lat="31.7506490" lon="35.1302750">
<ele>758.129028</ele>
<time>2015-07-10T06:59:52.996Z</time>
</trkpt>
<trkpt lat="31.7506020" lon="35.1301400">
<ele>758.129028</ele>
<time>2015-07-10T06:59:56.996Z</time>
</trkpt>
<trkpt lat="31.7505220" lon="35.1300400">
<ele>758.129028</ele>
<time>2015-07-10T07:00:00.003Z</time>
</trkpt>
<trkpt lat="31.7504490" lon="35.1299160">
<ele>757.184143</ele>
<time>2015-07-10T07:00:03.001Z</time>
</trkpt>
<trkpt lat="31.7504300" lon="35.1297490">
<ele>757.671875</ele>
<time>2015-07-10T07:00:05.999Z</time>
</trkpt>
<trkpt lat="31.7504280" lon="35.1296290">
<ele>757.184143</ele>
<time>2015-07-10T07:00:08.004Z</time>
</trkpt>
<trkpt lat="31.7504410" lon="35.1295000">
<ele>756.696533</ele>
<time>2015-07-10T07:00:09.999Z</time>
</trkpt>
<trkpt lat="31.7504610" lon="35.1293620">
<ele>756.208801</ele>
<time>2015-07-10T07:00:12.004Z</time>
</trkpt>
<trkpt lat="31.7504840" lon="35.1292170">
<ele>755.721069</ele>
<time>2015-07-10T07:00:14.000Z</time>
</trkpt>
<trkpt lat="31.7505160" lon="35.1290620">
<ele>755.263916</ele>
<time>2015-07-10T07:00:16.004Z</time>
</trkpt>
<trkpt lat="31.7505640" lon="35.1289020">
<ele>754.288574</ele>
<time>2015-07-10T07:00:18.000Z</time>
</trkpt>
<trkpt lat="31.7506330" lon="35.1287550">
<ele>754.288574</ele>
<time>2015-07-10T07:00:19.996Z</time>
</trkpt>
<trkpt lat="31.7507160" lon="35.1286180">
<ele>753.800903</ele>
<time>2015-07-10T07:00:22.000Z</time>
</trkpt>
<trkpt lat="31.7508060" lon="35.1284900">
<ele>753.800903</ele>
<time>2015-07-10T07:00:23.996Z</time>
</trkpt>
<trkpt lat="31.7508960" lon="35.1283570">
<ele>753.343689</ele>
<time>2015-07-10T07:00:26.001Z</time>
</trkpt>
<trkpt lat="31.7509750" lon="35.1282330">
<ele>752.368286</ele>
<time>2015-07-10T07:00:27.996Z</time>
</trkpt>
<trkpt lat="31.7510370" lon="35.1281100">
<ele>751.423462</ele>
<time>2015-07-10T07:00:31.003Z</time>
</trkpt>
<trkpt lat="31.7510400" lon="35.1279780">
<ele>750.935730</ele>
<time>2015-07-10T07:00:35.004Z</time>
</trkpt>
<trkpt lat="31.7509950" lon="35.1278440">
<ele>749.960388</ele>
<time>2015-07-10T07:00:38.002Z</time>
</trkpt>
<trkpt lat="31.7509420" lon="35.1277060">
<ele>749.503174</ele>
<time>2015-07-10T07:00:41.000Z</time>
</trkpt>
<trkpt lat="31.7509190" lon="35.1275930">
<ele>749.503174</ele>
<time>2015-07-10T07:00:45.000Z</time>
</trkpt>
<trkpt lat="31.7509740" lon="35.1275240">
<ele>749.503174</ele>
<time>2015-07-10T07:00:49.000Z</time>
</trkpt>
<trkpt lat="31.7510610" lon="35.1274580">
<ele>749.503174</ele>
<time>2015-07-10T07:00:53.001Z</time>
</trkpt>
<trkpt lat="31.7511470" lon="35.1274040">
<ele>748.985046</ele>
<time>2015-07-10T07:00:55.999Z</time>
</trkpt>
<trkpt lat="31.7512400" lon="35.1273590">
<ele>748.985046</ele>
<time>2015-07-10T07:00:58.997Z</time>
</trkpt>
<trkpt lat="31.7513480" lon="35.1272800">
<ele>748.527832</ele>
<time>2015-07-10T07:01:02.004Z</time>
</trkpt>
<trkpt lat="31.7514290" lon="35.1271950">
<ele>747.552490</ele>
<time>2015-07-10T07:01:03.999Z</time>
</trkpt>
<trkpt lat="31.7515170" lon="35.1270930">
<ele>747.064819</ele>
<time>2015-07-10T07:01:06.004Z</time>
</trkpt>
<trkpt lat="31.7516050" lon="35.1269850">
<ele>746.119873</ele>
<time>2015-07-10T07:01:08.000Z</time>
</trkpt>
<trkpt lat="31.7516900" lon="35.1268710">
<ele>746.119873</ele>
<time>2015-07-10T07:01:10.004Z</time>
</trkpt>
<trkpt lat="31.7517680" lon="35.1267410">
<ele>745.632263</ele>
<time>2015-07-10T07:01:12.000Z</time>
</trkpt>
<trkpt lat="31.7518370" lon="35.1266020">
<ele>744.687317</ele>
<time>2015-07-10T07:01:13.996Z</time>
</trkpt>
<trkpt lat="31.7519230" lon="35.1264800">
<ele>744.687317</ele>
<time>2015-07-10T07:01:16.000Z</time>
</trkpt>
<trkpt lat="31.7520180" lon="35.1263560">
<ele>744.199707</ele>
<time>2015-07-10T07:01:17.996Z</time>
</trkpt>
<trkpt lat="31.7521190" lon="35.1262160">
<ele>742.767090</ele>
<time>2015-07-10T07:01:20.001Z</time>
</trkpt>
<trkpt lat="31.7522370" lon="35.1260590">
<ele>741.791748</ele>
<time>2015-07-10T07:01:21.996Z</time>
</trkpt>
<trkpt lat="31.7522930" lon="35.1259760">
<ele>740.816406</ele>
<time>2015-07-10T07:01:22.999Z</time>
</trkpt>
<trkpt lat="31.7523480" lon="35.1258880">
<ele>740.359192</ele>
<time>2015-07-10T07:01:24.001Z</time>
</trkpt>
<trkpt lat="31.7524530" lon="35.1257090">
<ele>738.896118</ele>
<time>2015-07-10T07:01:25.997Z</time>
</trkpt>
<trkpt lat="31.7525450" lon="35.1255240">
<ele>738.438965</ele>
<time>2015-07-10T07:01:28.001Z</time>
</trkpt>
<trkpt lat="31.7526340" lon="35.1253390">
<ele>737.463623</ele>
<time>2015-07-10T07:01:29.997Z</time>
</trkpt>
<trkpt lat="31.7527090" lon="35.1251640">
<ele>736.975891</ele>
<time>2015-07-10T07:01:32.002Z</time>
</trkpt>
<trkpt lat="31.7527840" lon="35.1250060">
<ele>736.975891</ele>
<time>2015-07-10T07:01:33.997Z</time>
</trkpt>
<trkpt lat="31.7528540" lon="35.1248590">
<ele>736.518677</ele>
<time>2015-07-10T07:01:36.002Z</time>
</trkpt>
<trkpt lat="31.7529250" lon="35.1247180">
<ele>736.518677</ele>
<time>2015-07-10T07:01:37.998Z</time>
</trkpt>
<trkpt lat="31.7529920" lon="35.1245800">
<ele>736.518677</ele>
<time>2015-07-10T07:01:40.002Z</time>
</trkpt>
<trkpt lat="31.7530540" lon="35.1244550">
<ele>736.518677</ele>
<time>2015-07-10T07:01:41.998Z</time>
</trkpt>
<trkpt lat="31.7531120" lon="35.1243350">
<ele>736.518677</ele>
<time>2015-07-10T07:01:44.003Z</time>
</trkpt>
<trkpt lat="31.7531580" lon="35.1242160">
<ele>736.975891</ele>
<time>2015-07-10T07:01:45.998Z</time>
</trkpt>
<trkpt lat="31.7532050" lon="35.1240980">
<ele>736.518677</ele>
<time>2015-07-10T07:01:48.003Z</time>
</trkpt>
<trkpt lat="31.7532530" lon="35.1239820">
<ele>736.975891</ele>
<time>2015-07-10T07:01:49.999Z</time>
</trkpt>
<trkpt lat="31.7532970" lon="35.1238660">
<ele>736.518677</ele>
<time>2015-07-10T07:01:52.003Z</time>
</trkpt>
<trkpt lat="31.7533360" lon="35.1237590">
<ele>736.975891</ele>
<time>2015-07-10T07:01:53.999Z</time>
</trkpt>
<trkpt lat="31.7533710" lon="35.1236560">
<ele>736.518677</ele>
<time>2015-07-10T07:01:56.004Z</time>
</trkpt>
<trkpt lat="31.7534140" lon="35.1235560">
<ele>736.518677</ele>
<time>2015-07-10T07:01:57.999Z</time>
</trkpt>
<trkpt lat="31.7534630" lon="35.1234500">
<ele>736.031067</ele>
<time>2015-07-10T07:02:00.004Z</time>
</trkpt>
<trkpt lat="31.7535180" lon="35.1233340">
<ele>735.543335</ele>
<time>2015-07-10T07:02:02.000Z</time>
</trkpt>
<trkpt lat="31.7535650" lon="35.1232120">
<ele>735.055725</ele>
<time>2015-07-10T07:02:04.004Z</time>
</trkpt>
<trkpt lat="31.7535860" lon="35.1231000">
<ele>734.110779</ele>
<time>2015-07-10T07:02:06.000Z</time>
</trkpt>
<trkpt lat="31.7536040" lon="35.1229840">
<ele>732.647766</ele>
<time>2015-07-10T07:02:08.998Z</time>
</trkpt>
<trkpt lat="31.7536030" lon="35.1228760">
<ele>731.702881</ele>
<time>2015-07-10T07:02:15.996Z</time>
</trkpt>
<trkpt lat="31.7535920" lon="35.1227380">
<ele>731.702881</ele>
<time>2015-07-10T07:02:20.999Z</time>
</trkpt>
<trkpt lat="31.7535880" lon="35.1226030">
<ele>731.702881</ele>
<time>2015-07-10T07:02:23.997Z</time>
</trkpt>
<trkpt lat="31.7536020" lon="35.1224980">
<ele>730.727478</ele>
<time>2015-07-10T07:02:26.002Z</time>
</trkpt>
<trkpt lat="31.7536290" lon="35.1223770">
<ele>730.727478</ele>
<time>2015-07-10T07:02:27.997Z</time>
</trkpt>
<trkpt lat="31.7536550" lon="35.1222500">
<ele>729.782654</ele>
<time>2015-07-10T07:02:30.002Z</time>
</trkpt>
<trkpt lat="31.7537050" lon="35.1221260">
<ele>728.807312</ele>
<time>2015-07-10T07:02:31.998Z</time>
</trkpt>
<trkpt lat="31.7537680" lon="35.1220030">
<ele>727.862427</ele>
<time>2015-07-10T07:02:34.002Z</time>
</trkpt>
<trkpt lat="31.7538190" lon="35.1218670">
<ele>725.942139</ele>
<time>2015-07-10T07:02:35.998Z</time>
</trkpt>
<trkpt lat="31.7538290" lon="35.1217000">
<ele>724.966797</ele>
<time>2015-07-10T07:02:38.003Z</time>
</trkpt>
<trkpt lat="31.7538050" lon="35.1215160">
<ele>722.558899</ele>
<time>2015-07-10T07:02:39.998Z</time>
</trkpt>
<trkpt lat="31.7537680" lon="35.1213460">
<ele>722.101685</ele>
<time>2015-07-10T07:02:42.003Z</time>
</trkpt>
<trkpt lat="31.7537060" lon="35.1211860">
<ele>720.150940</ele>
<time>2015-07-10T07:02:43.999Z</time>
</trkpt>
<trkpt lat="31.7536000" lon="35.1210450">
<ele>718.230713</ele>
<time>2015-07-10T07:02:46.003Z</time>
</trkpt>
<trkpt lat="31.7534700" lon="35.1209180">
<ele>716.798157</ele>
<time>2015-07-10T07:02:47.999Z</time>
</trkpt>
<trkpt lat="31.7533350" lon="35.1207990">
<ele>715.853333</ele>
<time>2015-07-10T07:02:50.004Z</time>
</trkpt>
<trkpt lat="31.7532080" lon="35.1206750">
<ele>714.390259</ele>
<time>2015-07-10T07:02:51.999Z</time>
</trkpt>
<trkpt lat="31.7530850" lon="35.1205360">
<ele>712.957703</ele>
<time>2015-07-10T07:02:54.004Z</time>
</trkpt>
<trkpt lat="31.7529470" lon="35.1204090">
<ele>711.525085</ele>
<time>2015-07-10T07:02:56.000Z</time>
</trkpt>
<trkpt lat="31.7528020" lon="35.1203240">
<ele>709.604919</ele>
<time>2015-07-10T07:02:58.004Z</time>
</trkpt>
<trkpt lat="31.7526580" lon="35.1202740">
<ele>709.117188</ele>
<time>2015-07-10T07:03:00.000Z</time>
</trkpt>
<trkpt lat="31.7525130" lon="35.1202590">
<ele>707.196960</ele>
<time>2015-07-10T07:03:01.996Z</time>
</trkpt>
<trkpt lat="31.7523550" lon="35.1202550">
<ele>706.221619</ele>
<time>2015-07-10T07:03:04.000Z</time>
</trkpt>
<trkpt lat="31.7521960" lon="35.1202390">
<ele>704.789063</ele>
<time>2015-07-10T07:03:05.996Z</time>
</trkpt>
<trkpt lat="31.7520430" lon="35.1201990">
<ele>703.813721</ele>
<time>2015-07-10T07:03:08.001Z</time>
</trkpt>
<trkpt lat="31.7518900" lon="35.1201250">
<ele>702.868774</ele>
<time>2015-07-10T07:03:09.996Z</time>
</trkpt>
<trkpt lat="31.7518080" lon="35.1200780">
<ele>701.893433</ele>
<time>2015-07-10T07:03:10.999Z</time>
</trkpt>
<trkpt lat="31.7517200" lon="35.1200310">
<ele>701.405762</ele>
<time>2015-07-10T07:03:12.001Z</time>
</trkpt>
<trkpt lat="31.7516290" lon="35.1199830">
<ele>699.973206</ele>
<time>2015-07-10T07:03:13.003Z</time>
</trkpt>
<trkpt lat="31.7515350" lon="35.1199350">
<ele>699.028320</ele>
<time>2015-07-10T07:03:13.997Z</time>
</trkpt>
<trkpt lat="31.7514380" lon="35.1198870">
<ele>699.028320</ele>
<time>2015-07-10T07:03:14.999Z</time>
</trkpt>
<trkpt lat="31.7513410" lon="35.1198380">
<ele>698.540649</ele>
<time>2015-07-10T07:03:16.001Z</time>
</trkpt>
<trkpt lat="31.7512460" lon="35.1197820">
<ele>698.052917</ele>
<time>2015-07-10T07:03:17.004Z</time>
</trkpt>
<trkpt lat="31.7511490" lon="35.1197220">
<ele>697.077576</ele>
<time>2015-07-10T07:03:17.997Z</time>
</trkpt>
<trkpt lat="31.7510610" lon="35.1196590">
<ele>697.077576</ele>
<time>2015-07-10T07:03:18.999Z</time>
</trkpt>
<trkpt lat="31.7509860" lon="35.1195880">
<ele>697.077576</ele>
<time>2015-07-10T07:03:20.002Z</time>
</trkpt>
<trkpt lat="31.7509210" lon="35.1195090">
<ele>696.620422</ele>
<time>2015-07-10T07:03:21.004Z</time>
</trkpt>
<trkpt lat="31.7508660" lon="35.1194270">
<ele>696.620422</ele>
<time>2015-07-10T07:03:21.997Z</time>
</trkpt>
<trkpt lat="31.7507670" lon="35.1192680">
<ele>696.132690</ele>
<time>2015-07-10T07:03:24.002Z</time>
</trkpt>
<trkpt lat="31.7506770" lon="35.1191090">
<ele>695.645081</ele>
<time>2015-07-10T07:03:25.998Z</time>
</trkpt>
<trkpt lat="31.7505900" lon="35.1189470">
<ele>695.157349</ele>
<time>2015-07-10T07:03:28.002Z</time>
</trkpt>
<trkpt lat="31.7505050" lon="35.1187710">
<ele>693.724792</ele>
<time>2015-07-10T07:03:29.998Z</time>
</trkpt>
<trkpt lat="31.7504090" lon="35.1186000">
<ele>691.804565</ele>
<time>2015-07-10T07:03:32.003Z</time>
</trkpt>
<trkpt lat="31.7503200" lon="35.1184220">
<ele>690.372009</ele>
<time>2015-07-10T07:03:33.998Z</time>
</trkpt>
<trkpt lat="31.7502540" lon="35.1182330">
<ele>689.396667</ele>
<time>2015-07-10T07:03:36.003Z</time>
</trkpt>
<trkpt lat="31.7502210" lon="35.1181320">
<ele>688.908936</ele>
<time>2015-07-10T07:03:36.996Z</time>
</trkpt>
<trkpt lat="31.7501910" lon="35.1180290">
<ele>687.476379</ele>
<time>2015-07-10T07:03:37.999Z</time>
</trkpt>
<trkpt lat="31.7501640" lon="35.1179270">
<ele>686.531494</ele>
<time>2015-07-10T07:03:39.001Z</time>
</trkpt>
<trkpt lat="31.7501170" lon="35.1177170">
<ele>685.556152</ele>
<time>2015-07-10T07:03:40.997Z</time>
</trkpt>
<trkpt lat="31.7500980" lon="35.1176090">
<ele>684.611328</ele>
<time>2015-07-10T07:03:41.999Z</time>
</trkpt>
<trkpt lat="31.7500770" lon="35.1175000">
<ele>683.635864</ele>
<time>2015-07-10T07:03:43.001Z</time>
</trkpt>
<trkpt lat="31.7500590" lon="35.1173880">
<ele>682.660522</ele>
<time>2015-07-10T07:03:44.004Z</time>
</trkpt>
<trkpt lat="31.7500410" lon="35.1172700">
<ele>682.203369</ele>
<time>2015-07-10T07:03:44.997Z</time>
</trkpt>
<trkpt lat="31.7500210" lon="35.1171530">
<ele>681.715698</ele>
<time>2015-07-10T07:03:45.999Z</time>
</trkpt>
<trkpt lat="31.7499950" lon="35.1170330">
<ele>679.795471</ele>
<time>2015-07-10T07:03:47.002Z</time>
</trkpt>
<trkpt lat="31.7499690" lon="35.1169120">
<ele>679.307739</ele>
<time>2015-07-10T07:03:48.004Z</time>
</trkpt>
<trkpt lat="31.7499390" lon="35.1167940">
<ele>678.362915</ele>
<time>2015-07-10T07:03:48.997Z</time>
</trkpt>
<trkpt lat="31.7499070" lon="35.1166770">
<ele>677.875183</ele>
<time>2015-07-10T07:03:50.000Z</time>
</trkpt>
<trkpt lat="31.7498720" lon="35.1165630">
<ele>677.387512</ele>
<time>2015-07-10T07:03:51.002Z</time>
</trkpt>
<trkpt lat="31.7498390" lon="35.1164540">
<ele>677.387512</ele>
<time>2015-07-10T07:03:52.004Z</time>
</trkpt>
<trkpt lat="31.7498090" lon="35.1163450">
<ele>677.387512</ele>
<time>2015-07-10T07:03:52.998Z</time>
</trkpt>
<trkpt lat="31.7497810" lon="35.1162370">
<ele>677.387512</ele>
<time>2015-07-10T07:03:54.000Z</time>
</trkpt>
<trkpt lat="31.7497530" lon="35.1161360">
<ele>676.899841</ele>
<time>2015-07-10T07:03:55.002Z</time>
</trkpt>
<trkpt lat="31.7496980" lon="35.1159400">
<ele>676.412170</ele>
<time>2015-07-10T07:03:56.998Z</time>
</trkpt>
<trkpt lat="31.7496410" lon="35.1157560">
<ele>675.954956</ele>
<time>2015-07-10T07:03:59.003Z</time>
</trkpt>
<trkpt lat="31.7495800" lon="35.1155830">
<ele>675.467285</ele>
<time>2015-07-10T07:04:00.998Z</time>
</trkpt>
<trkpt lat="31.7495190" lon="35.1154010">
<ele>674.979614</ele>
<time>2015-07-10T07:04:03.003Z</time>
</trkpt>
<trkpt lat="31.7494370" lon="35.1152200">
<ele>674.034668</ele>
<time>2015-07-10T07:04:04.999Z</time>
</trkpt>
<trkpt lat="31.7493300" lon="35.1150560">
<ele>673.547058</ele>
<time>2015-07-10T07:04:07.003Z</time>
</trkpt>
<trkpt lat="31.7492200" lon="35.1149000">
<ele>672.571716</ele>
<time>2015-07-10T07:04:08.999Z</time>
</trkpt>
<trkpt lat="31.7491100" lon="35.1147520">
<ele>672.571716</ele>
<time>2015-07-10T07:04:11.004Z</time>
</trkpt>
<trkpt lat="31.7490320" lon="35.1145880">
<ele>672.571716</ele>
<time>2015-07-10T07:04:12.999Z</time>
</trkpt>
<trkpt lat="31.7489940" lon="35.1143940">
<ele>672.114502</ele>
<time>2015-07-10T07:04:15.004Z</time>
</trkpt>
<trkpt lat="31.7489730" lon="35.1142040">
<ele>670.651428</ele>
<time>2015-07-10T07:04:17.000Z</time>
</trkpt>
<trkpt lat="31.7489770" lon="35.1140340">
<ele>669.218933</ele>
<time>2015-07-10T07:04:19.004Z</time>
</trkpt>
<trkpt lat="31.7490120" lon="35.1138940">
<ele>667.755859</ele>
<time>2015-07-10T07:04:21.000Z</time>
</trkpt>
<trkpt lat="31.7490610" lon="35.1137710">
<ele>666.810974</ele>
<time>2015-07-10T07:04:22.996Z</time>
</trkpt>
<trkpt lat="31.7491480" lon="35.1136760">
<ele>665.835571</ele>
<time>2015-07-10T07:04:26.003Z</time>
</trkpt>
<trkpt lat="31.7492140" lon="35.1136210">
<ele>664.890686</ele>
<time>2015-07-10T07:04:30.003Z</time>
</trkpt>
<trkpt lat="31.7492460" lon="35.1135560">
<ele>664.403076</ele>
<time>2015-07-10T07:05:28.997Z</time>
</trkpt>
<trkpt lat="31.7493330" lon="35.1134610">
<ele>663.458130</ele>
<time>2015-07-10T07:05:32.004Z</time>
</trkpt>
<trkpt lat="31.7494110" lon="35.1133850">
<ele>662.970520</ele>
<time>2015-07-10T07:05:33.999Z</time>
</trkpt>
<trkpt lat="31.7494980" lon="35.1132940">
<ele>661.995117</ele>
<time>2015-07-10T07:05:36.004Z</time>
</trkpt>
<trkpt lat="31.7495870" lon="35.1131690">
<ele>660.562561</ele>
<time>2015-07-10T07:05:38.000Z</time>
</trkpt>
<trkpt lat="31.7496840" lon="35.1130360">
<ele>659.587219</ele>
<time>2015-07-10T07:05:40.004Z</time>
</trkpt>
<trkpt lat="31.7497850" lon="35.1128870">
<ele>657.666931</ele>
<time>2015-07-10T07:05:42.000Z</time>
</trkpt>
<trkpt lat="31.7498760" lon="35.1127220">
<ele>655.746704</ele>
<time>2015-07-10T07:05:43.996Z</time>
</trkpt>
<trkpt lat="31.7499570" lon="35.1125530">
<ele>654.314148</ele>
<time>2015-07-10T07:05:46.000Z</time>
</trkpt>
<trkpt lat="31.7500330" lon="35.1123830">
<ele>654.314148</ele>
<time>2015-07-10T07:05:47.996Z</time>
</trkpt>
<trkpt lat="31.7501010" lon="35.1122150">
<ele>652.393860</ele>
<time>2015-07-10T07:05:50.001Z</time>
</trkpt>
<trkpt lat="31.7501520" lon="35.1120480">
<ele>650.473694</ele>
<time>2015-07-10T07:05:51.996Z</time>
</trkpt>
<trkpt lat="31.7501830" lon="35.1118650">
<ele>649.498291</ele>
<time>2015-07-10T07:05:54.001Z</time>
</trkpt>
<trkpt lat="31.7501710" lon="35.1116610">
<ele>648.065735</ele>
<time>2015-07-10T07:05:55.997Z</time>
</trkpt>
<trkpt lat="31.7501310" lon="35.1114580">
<ele>646.633179</ele>
<time>2015-07-10T07:05:58.001Z</time>
</trkpt>
<trkpt lat="31.7500860" lon="35.1112580">
<ele>645.170166</ele>
<time>2015-07-10T07:05:59.997Z</time>
</trkpt>
<trkpt lat="31.7500500" lon="35.1110630">
<ele>644.712952</ele>
<time>2015-07-10T07:06:02.002Z</time>
</trkpt>
<trkpt lat="31.7500170" lon="35.1108600">
<ele>643.737610</ele>
<time>2015-07-10T07:06:03.997Z</time>
</trkpt>
<trkpt lat="31.7499960" lon="35.1107590">
<ele>643.249878</ele>
<time>2015-07-10T07:06:05.000Z</time>
</trkpt>
<trkpt lat="31.7499530" lon="35.1105590">
<ele>642.305054</ele>
<time>2015-07-10T07:06:07.004Z</time>
</trkpt>
<trkpt lat="31.7499170" lon="35.1103570">
<ele>641.329712</ele>
<time>2015-07-10T07:06:09.000Z</time>
</trkpt>
<trkpt lat="31.7499030" lon="35.1101500">
<ele>640.384827</ele>
<time>2015-07-10T07:06:10.996Z</time>
</trkpt>
<trkpt lat="31.7499000" lon="35.1100450">
<ele>640.384827</ele>
<time>2015-07-10T07:06:11.998Z</time>
</trkpt>
<trkpt lat="31.7498960" lon="35.1099410">
<ele>638.921753</ele>
<time>2015-07-10T07:06:13.000Z</time>
</trkpt>
<trkpt lat="31.7498930" lon="35.1098360">
<ele>638.921753</ele>
<time>2015-07-10T07:06:14.003Z</time>
</trkpt>
<trkpt lat="31.7498880" lon="35.1096270">
<ele>637.976929</ele>
<time>2015-07-10T07:06:15.998Z</time>
</trkpt>
<trkpt lat="31.7498760" lon="35.1094220">
<ele>637.976929</ele>
<time>2015-07-10T07:06:18.003Z</time>
</trkpt>
<trkpt lat="31.7498440" lon="35.1092140">
<ele>636.544312</ele>
<time>2015-07-10T07:06:19.999Z</time>
</trkpt>
<trkpt lat="31.7498010" lon="35.1090230">
<ele>635.568970</ele>
<time>2015-07-10T07:06:22.003Z</time>
</trkpt>
<trkpt lat="31.7497540" lon="35.1088420">
<ele>635.081299</ele>
<time>2015-07-10T07:06:23.999Z</time>
</trkpt>
<trkpt lat="31.7497080" lon="35.1086670">
<ele>634.136414</ele>
<time>2015-07-10T07:06:26.004Z</time>
</trkpt>
<trkpt lat="31.7496670" lon="35.1085260">
<ele>634.624084</ele>
<time>2015-07-10T07:06:27.999Z</time>
</trkpt>
<trkpt lat="31.7496240" lon="35.1084170">
<ele>634.136414</ele>
<time>2015-07-10T07:06:30.997Z</time>
</trkpt>
<trkpt lat="31.7495980" lon="35.1083660">
<ele>633.648682</ele>
<time>2015-07-10T07:08:03.998Z</time>
</trkpt>
<trkpt lat="31.7495580" lon="35.1082550">
<ele>633.161072</ele>
<time>2015-07-10T07:08:09.001Z</time>
</trkpt>
<trkpt lat="31.7495120" lon="35.1081510">
<ele>633.161072</ele>
<time>2015-07-10T07:08:13.001Z</time>
</trkpt>
<trkpt lat="31.7494610" lon="35.1080460">
<ele>632.673340</ele>
<time>2015-07-10T07:08:17.002Z</time>
</trkpt>
<trkpt lat="31.7494200" lon="35.1079130">
<ele>632.185730</ele>
<time>2015-07-10T07:08:21.002Z</time>
</trkpt>
<trkpt lat="31.7493770" lon="35.1078140">
<ele>631.728516</ele>
<time>2015-07-10T07:08:25.002Z</time>
</trkpt>
<trkpt lat="31.7493310" lon="35.1077040">
<ele>631.240784</ele>
<time>2015-07-10T07:08:32.001Z</time>
</trkpt>
<trkpt lat="31.7492830" lon="35.1075890">
<ele>631.240784</ele>
<time>2015-07-10T07:08:37.997Z</time>
</trkpt>
<trkpt lat="31.7492430" lon="35.1074910">
<ele>629.808228</ele>
<time>2015-07-10T07:08:41.997Z</time>
</trkpt>
<trkpt lat="31.7492010" lon="35.1073850">
<ele>629.808228</ele>
<time>2015-07-10T07:08:45.997Z</time>
</trkpt>
<trkpt lat="31.7491640" lon="35.1072790">
<ele>629.808228</ele>
<time>2015-07-10T07:08:49.004Z</time>
</trkpt>
<trkpt lat="31.7491230" lon="35.1071590">
<ele>629.320557</ele>
<time>2015-07-10T07:08:52.002Z</time>
</trkpt>
<trkpt lat="31.7490740" lon="35.1070340">
<ele>628.345215</ele>
<time>2015-07-10T07:08:55.000Z</time>
</trkpt>
<trkpt lat="31.7490290" lon="35.1069440">
<ele>628.832886</ele>
<time>2015-07-10T07:08:56.996Z</time>
</trkpt>
<trkpt lat="31.7489810" lon="35.1068520">
<ele>627.888000</ele>
<time>2015-07-10T07:08:59.001Z</time>
</trkpt>
<trkpt lat="31.7489310" lon="35.1067400">
<ele>627.400269</ele>
<time>2015-07-10T07:09:00.996Z</time>
</trkpt>
<trkpt lat="31.7488850" lon="35.1066170">
<ele>626.912659</ele>
<time>2015-07-10T07:09:03.001Z</time>
</trkpt>
<trkpt lat="31.7488340" lon="35.1064820">
<ele>626.424927</ele>
<time>2015-07-10T07:09:04.997Z</time>
</trkpt>
<trkpt lat="31.7487860" lon="35.1063410">
<ele>625.480103</ele>
<time>2015-07-10T07:09:07.001Z</time>
</trkpt>
<trkpt lat="31.7487350" lon="35.1061930">
<ele>624.992371</ele>
<time>2015-07-10T07:09:08.997Z</time>
</trkpt>
<trkpt lat="31.7486780" lon="35.1060440">
<ele>624.504700</ele>
<time>2015-07-10T07:09:11.002Z</time>
</trkpt>
<trkpt lat="31.7486100" lon="35.1058900">
<ele>624.017029</ele>
<time>2015-07-10T07:09:12.997Z</time>
</trkpt>
<trkpt lat="31.7485310" lon="35.1057500">
<ele>623.072144</ele>
<time>2015-07-10T07:09:15.002Z</time>
</trkpt>
<trkpt lat="31.7484360" lon="35.1056100">
<ele>622.096802</ele>
<time>2015-07-10T07:09:16.998Z</time>
</trkpt>
<trkpt lat="31.7483340" lon="35.1054730">
<ele>621.639587</ele>
<time>2015-07-10T07:09:19.002Z</time>
</trkpt>
<trkpt lat="31.7482210" lon="35.1053390">
<ele>620.664246</ele>
<time>2015-07-10T07:09:20.998Z</time>
</trkpt>
<trkpt lat="31.7481110" lon="35.1051930">
<ele>619.719360</ele>
<time>2015-07-10T07:09:23.003Z</time>
</trkpt>
<trkpt lat="31.7479990" lon="35.1050480">
<ele>619.231689</ele>
<time>2015-07-10T07:09:24.998Z</time>
</trkpt>
<trkpt lat="31.7478830" lon="35.1049160">
<ele>619.231689</ele>
<time>2015-07-10T07:09:27.003Z</time>
</trkpt>
<trkpt lat="31.7477660" lon="35.1047910">
<ele>618.256348</ele>
<time>2015-07-10T07:09:28.999Z</time>
</trkpt>
<trkpt lat="31.7476540" lon="35.1046630">
<ele>617.768677</ele>
<time>2015-07-10T07:09:31.003Z</time>
</trkpt>
<trkpt lat="31.7475550" lon="35.1045190">
<ele>617.311462</ele>
<time>2015-07-10T07:09:32.999Z</time>
</trkpt>
<trkpt lat="31.7474670" lon="35.1043650">
<ele>616.823730</ele>
<time>2015-07-10T07:09:35.004Z</time>
</trkpt>
<trkpt lat="31.7473900" lon="35.1042040">
<ele>616.336060</ele>
<time>2015-07-10T07:09:36.999Z</time>
</trkpt>
<trkpt lat="31.7473160" lon="35.1040450">
<ele>615.848389</ele>
<time>2015-07-10T07:09:39.004Z</time>
</trkpt>
<trkpt lat="31.7472400" lon="35.1038900">
<ele>615.391174</ele>
<time>2015-07-10T07:09:41.000Z</time>
</trkpt>
<trkpt lat="31.7471710" lon="35.1037390">
<ele>615.391174</ele>
<time>2015-07-10T07:09:43.004Z</time>
</trkpt>
<trkpt lat="31.7471000" lon="35.1035770">
<ele>613.928162</ele>
<time>2015-07-10T07:09:45.000Z</time>
</trkpt>
<trkpt lat="31.7470250" lon="35.1034230">
<ele>612.983276</ele>
<time>2015-07-10T07:09:46.996Z</time>
</trkpt>
<trkpt lat="31.7469590" lon="35.1032780">
<ele>613.470947</ele>
<time>2015-07-10T07:09:49.000Z</time>
</trkpt>
<trkpt lat="31.7468880" lon="35.1031440">
<ele>613.470947</ele>
<time>2015-07-10T07:09:50.996Z</time>
</trkpt>
<trkpt lat="31.7468200" lon="35.1030210">
<ele>613.470947</ele>
<time>2015-07-10T07:09:53.001Z</time>
</trkpt>
<trkpt lat="31.7467540" lon="35.1029070">
<ele>612.495605</ele>
<time>2015-07-10T07:09:54.996Z</time>
</trkpt>
<trkpt lat="31.7466950" lon="35.1027920">
<ele>612.007935</ele>
<time>2015-07-10T07:09:57.001Z</time>
</trkpt>
<trkpt lat="31.7466390" lon="35.1026820">
<ele>612.495605</ele>
<time>2015-07-10T07:09:58.997Z</time>
</trkpt>
<trkpt lat="31.7465910" lon="35.1025750">
<ele>612.007935</ele>
<time>2015-07-10T07:10:01.001Z</time>
</trkpt>
<trkpt lat="31.7465430" lon="35.1024750">
<ele>612.007935</ele>
<time>2015-07-10T07:10:02.997Z</time>
</trkpt>
<trkpt lat="31.7464950" lon="35.1023670">
<ele>612.007935</ele>
<time>2015-07-10T07:10:05.002Z</time>
</trkpt>
<trkpt lat="31.7464420" lon="35.1022550">
<ele>611.550720</ele>
<time>2015-07-10T07:10:06.997Z</time>
</trkpt>
<trkpt lat="31.7463870" lon="35.1021420">
<ele>611.550720</ele>
<time>2015-07-10T07:10:09.002Z</time>
</trkpt>
<trkpt lat="31.7463360" lon="35.1020310">
<ele>611.550720</ele>
<time>2015-07-10T07:10:10.998Z</time>
</trkpt>
<trkpt lat="31.7462810" lon="35.1019190">
<ele>611.550720</ele>
<time>2015-07-10T07:10:13.002Z</time>
</trkpt>
<trkpt lat="31.7462270" lon="35.1018110">
<ele>611.550720</ele>
<time>2015-07-10T07:10:14.998Z</time>
</trkpt>
<trkpt lat="31.7461760" lon="35.1017040">
<ele>611.550720</ele>
<time>2015-07-10T07:10:17.003Z</time>
</trkpt>
<trkpt lat="31.7461260" lon="35.1015950">
<ele>611.063049</ele>
<time>2015-07-10T07:10:18.998Z</time>
</trkpt>
<trkpt lat="31.7460770" lon="35.1014850">
<ele>611.063049</ele>
<time>2015-07-10T07:10:21.003Z</time>
</trkpt>
<trkpt lat="31.7460280" lon="35.1013820">
<ele>611.550720</ele>
<time>2015-07-10T07:10:22.999Z</time>
</trkpt>
<trkpt lat="31.7459790" lon="35.1012770">
<ele>611.063049</ele>
<time>2015-07-10T07:10:25.003Z</time>
</trkpt>
<trkpt lat="31.7459360" lon="35.1011790">
<ele>611.550720</ele>
<time>2015-07-10T07:10:26.999Z</time>
</trkpt>
<trkpt lat="31.7459030" lon="35.1010790">
<ele>611.063049</ele>
<time>2015-07-10T07:10:29.004Z</time>
</trkpt>
<trkpt lat="31.7458700" lon="35.1009710">
<ele>610.575317</ele>
<time>2015-07-10T07:10:30.999Z</time>
</trkpt>
<trkpt lat="31.7458340" lon="35.1008570">
<ele>610.575317</ele>
<time>2015-07-10T07:10:33.004Z</time>
</trkpt>
<trkpt lat="31.7457970" lon="35.1007420">
<ele>610.087646</ele>
<time>2015-07-10T07:10:35.000Z</time>
</trkpt>
<trkpt lat="31.7457700" lon="35.1006160">
<ele>609.599976</ele>
<time>2015-07-10T07:10:37.004Z</time>
</trkpt>
<trkpt lat="31.7457830" lon="35.1004830">
<ele>609.142822</ele>
<time>2015-07-10T07:10:39.000Z</time>
</trkpt>
<trkpt lat="31.7458370" lon="35.1003510">
<ele>608.655151</ele>
<time>2015-07-10T07:10:40.996Z</time>
</trkpt>
<trkpt lat="31.7459250" lon="35.1002260">
<ele>607.679749</ele>
<time>2015-07-10T07:10:43.000Z</time>
</trkpt>
<trkpt lat="31.7460230" lon="35.1001030">
<ele>607.222534</ele>
<time>2015-07-10T07:10:44.996Z</time>
</trkpt>
<trkpt lat="31.7461210" lon="35.0999900">
<ele>606.247192</ele>
<time>2015-07-10T07:10:47.001Z</time>
</trkpt>
<trkpt lat="31.7462170" lon="35.0998720">
<ele>604.814636</ele>
<time>2015-07-10T07:10:48.996Z</time>
</trkpt>
<trkpt lat="31.7463020" lon="35.0997540">
<ele>604.326965</ele>
<time>2015-07-10T07:10:51.001Z</time>
</trkpt>
<trkpt lat="31.7463610" lon="35.0996400">
<ele>603.839294</ele>
<time>2015-07-10T07:10:52.997Z</time>
</trkpt>
<trkpt lat="31.7463930" lon="35.0995230">
<ele>602.894409</ele>
<time>2015-07-10T07:10:55.001Z</time>
</trkpt>
<trkpt lat="31.7464000" lon="35.0994110">
<ele>602.406738</ele>
<time>2015-07-10T07:10:56.997Z</time>
</trkpt>
<trkpt lat="31.7463660" lon="35.0992790">
<ele>601.431335</ele>
<time>2015-07-10T07:11:00.004Z</time>
</trkpt>
<trkpt lat="31.7463250" lon="35.0991780">
<ele>600.486450</ele>
<time>2015-07-10T07:11:02.000Z</time>
</trkpt>
<trkpt lat="31.7462790" lon="35.0990820">
<ele>600.486450</ele>
<time>2015-07-10T07:11:04.004Z</time>
</trkpt>
<trkpt lat="31.7462130" lon="35.0989850">
<ele>599.511108</ele>
<time>2015-07-10T07:11:07.002Z</time>
</trkpt>
<trkpt lat="31.7461550" lon="35.0988850">
<ele>598.566284</ele>
<time>2015-07-10T07:11:11.003Z</time>
</trkpt>
<trkpt lat="31.7460710" lon="35.0988320">
<ele>598.078552</ele>
<time>2015-07-10T07:11:15.996Z</time>
</trkpt>
<trkpt lat="31.7460010" lon="35.0988920">
<ele>598.078552</ele>
<time>2015-07-10T07:11:23.004Z</time>
</trkpt>
<trkpt lat="31.7460150" lon="35.0990230">
<ele>597.133667</ele>
<time>2015-07-10T07:11:27.004Z</time>
</trkpt>
<trkpt lat="31.7460350" lon="35.0991480">
<ele>597.133667</ele>
<time>2015-07-10T07:11:30.002Z</time>
</trkpt>
<trkpt lat="31.7460550" lon="35.0992930">
<ele>597.133667</ele>
<time>2015-07-10T07:11:33.000Z</time>
</trkpt>
<trkpt lat="31.7460470" lon="35.0994530">
<ele>596.645996</ele>
<time>2015-07-10T07:11:35.998Z</time>
</trkpt>
<trkpt lat="31.7460200" lon="35.0995640">
<ele>595.670654</ele>
<time>2015-07-10T07:11:38.003Z</time>
</trkpt>
<trkpt lat="31.7459730" lon="35.0996740">
<ele>595.670654</ele>
<time>2015-07-10T07:11:39.998Z</time>
</trkpt>
<trkpt lat="31.7459080" lon="35.0997710">
<ele>595.182922</ele>
<time>2015-07-10T07:11:42.003Z</time>
</trkpt>
<trkpt lat="31.7458220" lon="35.0998600">
<ele>595.182922</ele>
<time>2015-07-10T07:11:43.999Z</time>
</trkpt>
<trkpt lat="31.7457360" lon="35.0999490">
<ele>594.238098</ele>
<time>2015-07-10T07:11:46.003Z</time>
</trkpt>
<trkpt lat="31.7456540" lon="35.1000420">
<ele>594.238098</ele>
<time>2015-07-10T07:11:47.999Z</time>
</trkpt>
<trkpt lat="31.7455760" lon="35.1001460">
<ele>593.750427</ele>
<time>2015-07-10T07:11:50.004Z</time>
</trkpt>
<trkpt lat="31.7455100" lon="35.1002780">
<ele>593.262756</ele>
<time>2015-07-10T07:11:51.999Z</time>
</trkpt>
<trkpt lat="31.7454620" lon="35.1004400">
<ele>592.317871</ele>
<time>2015-07-10T07:11:54.004Z</time>
</trkpt>
<trkpt lat="31.7454250" lon="35.1006170">
<ele>591.342468</ele>
<time>2015-07-10T07:11:56.000Z</time>
</trkpt>
<trkpt lat="31.7453930" lon="35.1008020">
<ele>589.909912</ele>
<time>2015-07-10T07:11:58.004Z</time>
</trkpt>
<trkpt lat="31.7453650" lon="35.1009930">
<ele>587.502014</ele>
<time>2015-07-10T07:12:00.000Z</time>
</trkpt>
<trkpt lat="31.7453310" lon="35.1012010">
<ele>586.069458</ele>
<time>2015-07-10T07:12:01.996Z</time>
</trkpt>
<trkpt lat="31.7453150" lon="35.1013120">
<ele>585.581726</ele>
<time>2015-07-10T07:12:02.998Z</time>
</trkpt>
<trkpt lat="31.7452980" lon="35.1014270">
<ele>584.606384</ele>
<time>2015-07-10T07:12:04.000Z</time>
</trkpt>
<trkpt lat="31.7452790" lon="35.1015490">
<ele>583.173828</ele>
<time>2015-07-10T07:12:05.003Z</time>
</trkpt>
<trkpt lat="31.7452590" lon="35.1016660">
<ele>582.686157</ele>
<time>2015-07-10T07:12:05.996Z</time>
</trkpt>
<trkpt lat="31.7452380" lon="35.1017790">
<ele>581.741272</ele>
<time>2015-07-10T07:12:06.998Z</time>
</trkpt>
<trkpt lat="31.7452190" lon="35.1018840">
<ele>580.765930</ele>
<time>2015-07-10T07:12:08.001Z</time>
</trkpt>
<trkpt lat="31.7451900" lon="35.1020830">
<ele>578.845642</ele>
<time>2015-07-10T07:12:09.996Z</time>
</trkpt>
<trkpt lat="31.7451740" lon="35.1022950">
<ele>576.437744</ele>
<time>2015-07-10T07:12:12.001Z</time>
</trkpt>
<trkpt lat="31.7451730" lon="35.1024120">
<ele>575.492859</ele>
<time>2015-07-10T07:12:13.003Z</time>
</trkpt>
<trkpt lat="31.7451920" lon="35.1025900">
<ele>575.005188</ele>
<time>2015-07-10T07:12:14.999Z</time>
</trkpt>
<trkpt lat="31.7452300" lon="35.1027010">
<ele>574.029846</ele>
<time>2015-07-10T07:12:17.004Z</time>
</trkpt>
<trkpt lat="31.7452600" lon="35.1028030">
<ele>574.517517</ele>
<time>2015-07-10T07:12:21.004Z</time>
</trkpt>
<trkpt lat="31.7453220" lon="35.1029030">
<ele>573.572632</ele>
<time>2015-07-10T07:12:28.002Z</time>
</trkpt>
<trkpt lat="31.7453830" lon="35.1030090">
<ele>573.084961</ele>
<time>2015-07-10T07:12:36.003Z</time>
</trkpt>
<trkpt lat="31.7454300" lon="35.1031070">
<ele>573.572632</ele>
<time>2015-07-10T07:12:40.997Z</time>
</trkpt>
<trkpt lat="31.7454790" lon="35.1032080">
<ele>573.084961</ele>
<time>2015-07-10T07:12:44.004Z</time>
</trkpt>
<trkpt lat="31.7455430" lon="35.1033460">
<ele>573.084961</ele>
<time>2015-07-10T07:12:47.002Z</time>
</trkpt>
<trkpt lat="31.7456010" lon="35.1034520">
<ele>573.084961</ele>
<time>2015-07-10T07:12:48.997Z</time>
</trkpt>
<trkpt lat="31.7456540" lon="35.1035670">
<ele>573.084961</ele>
<time>2015-07-10T07:12:51.002Z</time>
</trkpt>
<trkpt lat="31.7457100" lon="35.1036890">
<ele>572.597290</ele>
<time>2015-07-10T07:12:52.998Z</time>
</trkpt>
<trkpt lat="31.7457660" lon="35.1038190">
<ele>572.109619</ele>
<time>2015-07-10T07:12:55.002Z</time>
</trkpt>
<trkpt lat="31.7458220" lon="35.1039570">
<ele>571.652405</ele>
<time>2015-07-10T07:12:56.998Z</time>
</trkpt>
<trkpt lat="31.7458790" lon="35.1040990">
<ele>571.164734</ele>
<time>2015-07-10T07:12:59.003Z</time>
</trkpt>
<trkpt lat="31.7459180" lon="35.1042470">
<ele>570.677063</ele>
<time>2015-07-10T07:13:00.998Z</time>
</trkpt>
<trkpt lat="31.7459290" lon="35.1043970">
<ele>570.677063</ele>
<time>2015-07-10T07:13:03.003Z</time>
</trkpt>
<trkpt lat="31.7459400" lon="35.1045450">
<ele>570.677063</ele>
<time>2015-07-10T07:13:04.999Z</time>
</trkpt>
<trkpt lat="31.7459580" lon="35.1046900">
<ele>570.677063</ele>
<time>2015-07-10T07:13:07.003Z</time>
</trkpt>
<trkpt lat="31.7459790" lon="35.1048280">
<ele>570.677063</ele>
<time>2015-07-10T07:13:08.999Z</time>
</trkpt>
<trkpt lat="31.7460060" lon="35.1049610">
<ele>570.677063</ele>
<time>2015-07-10T07:13:11.004Z</time>
</trkpt>
<trkpt lat="31.7460290" lon="35.1050850">
<ele>570.189331</ele>
<time>2015-07-10T07:13:12.999Z</time>
</trkpt>
<trkpt lat="31.7460580" lon="35.1052040">
<ele>570.189331</ele>
<time>2015-07-10T07:13:15.004Z</time>
</trkpt>
<trkpt lat="31.7460940" lon="35.1053300">
<ele>569.732117</ele>
<time>2015-07-10T07:13:17.000Z</time>
</trkpt>
<trkpt lat="31.7461420" lon="35.1054490">
<ele>569.732117</ele>
<time>2015-07-10T07:13:19.004Z</time>
</trkpt>
<trkpt lat="31.7461950" lon="35.1055730">
<ele>569.732117</ele>
<time>2015-07-10T07:13:21.000Z</time>
</trkpt>
<trkpt lat="31.7462520" lon="35.1056870">
<ele>570.189331</ele>
<time>2015-07-10T07:13:22.996Z</time>
</trkpt>
<trkpt lat="31.7463160" lon="35.1057860">
<ele>569.244446</ele>
<time>2015-07-10T07:13:25.000Z</time>
</trkpt>
<trkpt lat="31.7463940" lon="35.1058860">
<ele>568.756775</ele>
<time>2015-07-10T07:13:26.996Z</time>
</trkpt>
<trkpt lat="31.7464740" lon="35.1059870">
<ele>568.269104</ele>
<time>2015-07-10T07:13:29.001Z</time>
</trkpt>
<trkpt lat="31.7465660" lon="35.1060990">
<ele>567.324280</ele>
<time>2015-07-10T07:13:30.996Z</time>
</trkpt>
<trkpt lat="31.7466590" lon="35.1062100">
<ele>566.836548</ele>
<time>2015-07-10T07:13:33.001Z</time>
</trkpt>
<trkpt lat="31.7467460" lon="35.1063260">
<ele>566.348877</ele>
<time>2015-07-10T07:13:34.997Z</time>
</trkpt>
<trkpt lat="31.7468120" lon="35.1064580">
<ele>565.861206</ele>
<time>2015-07-10T07:13:37.001Z</time>
</trkpt>
<trkpt lat="31.7468370" lon="35.1066170">
<ele>564.916321</ele>
<time>2015-07-10T07:13:38.997Z</time>
</trkpt>
<trkpt lat="31.7468240" lon="35.1067800">
<ele>564.428650</ele>
<time>2015-07-10T07:13:41.002Z</time>
</trkpt>
<trkpt lat="31.7467940" lon="35.1069360">
<ele>563.940918</ele>
<time>2015-07-10T07:13:42.997Z</time>
</trkpt>
<trkpt lat="31.7467400" lon="35.1070790">
<ele>563.483765</ele>
<time>2015-07-10T07:13:45.002Z</time>
</trkpt>
<trkpt lat="31.7466720" lon="35.1071830">
<ele>564.916321</ele>
<time>2015-07-10T07:13:46.998Z</time>
</trkpt>
<trkpt lat="31.7465950" lon="35.1072590">
<ele>564.428650</ele>
<time>2015-07-10T07:13:49.002Z</time>
</trkpt>
<trkpt lat="31.7465150" lon="35.1073180">
<ele>564.916321</ele>
<time>2015-07-10T07:13:50.998Z</time>
</trkpt>
<trkpt lat="31.7464020" lon="35.1073820">
<ele>565.403992</ele>
<time>2015-07-10T07:13:53.996Z</time>
</trkpt>
<trkpt lat="31.7462930" lon="35.1074190">
<ele>565.403992</ele>
<time>2015-07-10T07:13:57.003Z</time>
</trkpt>
<trkpt lat="31.7461940" lon="35.1074250">
<ele>565.861206</ele>
<time>2015-07-10T07:14:00.001Z</time>
</trkpt>
<trkpt lat="31.7460960" lon="35.1074420">
<ele>566.348877</ele>
<time>2015-07-10T07:14:02.999Z</time>
</trkpt>
<trkpt lat="31.7459940" lon="35.1074660">
<ele>566.836548</ele>
<time>2015-07-10T07:14:05.997Z</time>
</trkpt>
<trkpt lat="31.7458900" lon="35.1074880">
<ele>567.324280</ele>
<time>2015-07-10T07:14:09.004Z</time>
</trkpt>
<trkpt lat="31.7457830" lon="35.1075060">
<ele>567.324280</ele>
<time>2015-07-10T07:14:12.002Z</time>
</trkpt>
<trkpt lat="31.7456880" lon="35.1075320">
<ele>567.811951</ele>
<time>2015-07-10T07:14:15.000Z</time>
</trkpt>
<trkpt lat="31.7455770" lon="35.1075640">
<ele>568.269104</ele>
<time>2015-07-10T07:14:19.000Z</time>
</trkpt>
<trkpt lat="31.7454660" lon="35.1076000">
<ele>568.756775</ele>
<time>2015-07-10T07:14:23.001Z</time>
</trkpt>
<trkpt lat="31.7453570" lon="35.1076310">
<ele>568.756775</ele>
<time>2015-07-10T07:14:27.001Z</time>
</trkpt>
<trkpt lat="31.7452700" lon="35.1076500">
<ele>568.756775</ele>
<time>2015-07-10T07:14:29.999Z</time>
</trkpt>
<trkpt lat="31.7451570" lon="35.1076780">
<ele>568.269104</ele>
<time>2015-07-10T07:14:32.997Z</time>
</trkpt>
<trkpt lat="31.7450320" lon="35.1077070">
<ele>567.811951</ele>
<time>2015-07-10T07:14:36.004Z</time>
</trkpt>
<trkpt lat="31.7449410" lon="35.1077250">
<ele>567.324280</ele>
<time>2015-07-10T07:14:38.000Z</time>
</trkpt>
<trkpt lat="31.7448460" lon="35.1077340">
<ele>567.811951</ele>
<time>2015-07-10T07:14:40.004Z</time>
</trkpt>
<trkpt lat="31.7447430" lon="35.1077400">
<ele>567.324280</ele>
<time>2015-07-10T07:14:42.000Z</time>
</trkpt>
<trkpt lat="31.7446290" lon="35.1077520">
<ele>566.836548</ele>
<time>2015-07-10T07:14:43.996Z</time>
</trkpt>
<trkpt lat="31.7445060" lon="35.1077840">
<ele>566.348877</ele>
<time>2015-07-10T07:14:46.000Z</time>
</trkpt>
<trkpt lat="31.7443800" lon="35.1078400">
<ele>565.861206</ele>
<time>2015-07-10T07:14:47.996Z</time>
</trkpt>
<trkpt lat="31.7442600" lon="35.1079160">
<ele>565.403992</ele>
<time>2015-07-10T07:14:50.001Z</time>
</trkpt>
<trkpt lat="31.7441660" lon="35.1080040">
<ele>565.403992</ele>
<time>2015-07-10T07:14:51.996Z</time>
</trkpt>
<trkpt lat="31.7440940" lon="35.1081000">
<ele>564.916321</ele>
<time>2015-07-10T07:14:54.001Z</time>
</trkpt>
<trkpt lat="31.7440420" lon="35.1082050">
<ele>565.403992</ele>
<time>2015-07-10T07:14:55.997Z</time>
</trkpt>
<trkpt lat="31.7439990" lon="35.1083140">
<ele>565.403992</ele>
<time>2015-07-10T07:14:58.001Z</time>
</trkpt>
<trkpt lat="31.7439550" lon="35.1084280">
<ele>564.916321</ele>
<time>2015-07-10T07:14:59.997Z</time>
</trkpt>
<trkpt lat="31.7439100" lon="35.1085380">
<ele>564.428650</ele>
<time>2015-07-10T07:15:02.002Z</time>
</trkpt>
<trkpt lat="31.7438650" lon="35.1086490">
<ele>564.428650</ele>
<time>2015-07-10T07:15:03.997Z</time>
</trkpt>
<trkpt lat="31.7438190" lon="35.1087790">
<ele>563.940918</ele>
<time>2015-07-10T07:15:06.002Z</time>
</trkpt>
<trkpt lat="31.7437800" lon="35.1089010">
<ele>563.483765</ele>
<time>2015-07-10T07:15:07.998Z</time>
</trkpt>
<trkpt lat="31.7437430" lon="35.1090220">
<ele>563.483765</ele>
<time>2015-07-10T07:15:10.002Z</time>
</trkpt>
<trkpt lat="31.7437000" lon="35.1091320">
<ele>562.996094</ele>
<time>2015-07-10T07:15:11.998Z</time>
</trkpt>
<trkpt lat="31.7436020" lon="35.1092340">
<ele>561.563538</ele>
<time>2015-07-10T07:15:14.996Z</time>
</trkpt>
<trkpt lat="31.7435030" lon="35.1092440">
<ele>561.563538</ele>
<time>2015-07-10T07:15:17.001Z</time>
</trkpt>
<trkpt lat="31.7434180" lon="35.1091980">
<ele>561.075867</ele>
<time>2015-07-10T07:15:18.996Z</time>
</trkpt>
<trkpt lat="31.7433340" lon="35.1091320">
<ele>561.075867</ele>
<time>2015-07-10T07:15:21.001Z</time>
</trkpt>
<trkpt lat="31.7432540" lon="35.1090630">
<ele>561.075867</ele>
<time>2015-07-10T07:15:22.997Z</time>
</trkpt>
<trkpt lat="31.7431710" lon="35.1090060">
<ele>560.588135</ele>
<time>2015-07-10T07:15:25.001Z</time>
</trkpt>
<trkpt lat="31.7430870" lon="35.1089500">
<ele>560.588135</ele>
<time>2015-07-10T07:15:26.997Z</time>
</trkpt>
<trkpt lat="31.7430000" lon="35.1088970">
<ele>560.588135</ele>
<time>2015-07-10T07:15:29.002Z</time>
</trkpt>
<trkpt lat="31.7429070" lon="35.1088540">
<ele>560.100464</ele>
<time>2015-07-10T07:15:30.997Z</time>
</trkpt>
<trkpt lat="31.7428150" lon="35.1088170">
<ele>560.100464</ele>
<time>2015-07-10T07:15:33.002Z</time>
</trkpt>
<trkpt lat="31.7427130" lon="35.1087890">
<ele>559.612793</ele>
<time>2015-07-10T07:15:34.998Z</time>
</trkpt>
<trkpt lat="31.7426010" lon="35.1087890">
<ele>559.125122</ele>
<time>2015-07-10T07:15:37.002Z</time>
</trkpt>
<trkpt lat="31.7424930" lon="35.1088340">
<ele>559.125122</ele>
<time>2015-07-10T07:15:38.998Z</time>
</trkpt>
<trkpt lat="31.7424270" lon="35.1089340">
<ele>558.667908</ele>
<time>2015-07-10T07:15:41.003Z</time>
</trkpt>
<trkpt lat="31.7423990" lon="35.1090650">
<ele>558.180237</ele>
<time>2015-07-10T07:15:42.998Z</time>
</trkpt>
<trkpt lat="31.7423760" lon="35.1092190">
<ele>558.180237</ele>
<time>2015-07-10T07:15:45.003Z</time>
</trkpt>
<trkpt lat="31.7423360" lon="35.1094230">
<ele>557.204895</ele>
<time>2015-07-10T07:15:48.001Z</time>
</trkpt>
<trkpt lat="31.7423190" lon="35.1095440">
<ele>556.747681</ele>
<time>2015-07-10T07:15:49.997Z</time>
</trkpt>
<trkpt lat="31.7423010" lon="35.1096490">
<ele>555.772339</ele>
<time>2015-07-10T07:15:50.999Z</time>
</trkpt>
<trkpt lat="31.7422730" lon="35.1098050">
<ele>556.260010</ele>
<time>2015-07-10T07:15:53.004Z</time>
</trkpt>
<trkpt lat="31.7422370" lon="35.1099580">
<ele>555.772339</ele>
<time>2015-07-10T07:15:54.999Z</time>
</trkpt>
<trkpt lat="31.7421910" lon="35.1100980">
<ele>555.772339</ele>
<time>2015-07-10T07:15:57.004Z</time>
</trkpt>
<trkpt lat="31.7421440" lon="35.1102350">
<ele>555.315125</ele>
<time>2015-07-10T07:15:59.000Z</time>
</trkpt>
<trkpt lat="31.7420990" lon="35.1103610">
<ele>555.315125</ele>
<time>2015-07-10T07:16:01.004Z</time>
</trkpt>
<trkpt lat="31.7420500" lon="35.1104820">
<ele>555.315125</ele>
<time>2015-07-10T07:16:03.000Z</time>
</trkpt>
<trkpt lat="31.7419920" lon="35.1105910">
<ele>554.827454</ele>
<time>2015-07-10T07:16:04.996Z</time>
</trkpt>
<trkpt lat="31.7419440" lon="35.1106970">
<ele>554.827454</ele>
<time>2015-07-10T07:16:07.000Z</time>
</trkpt>
<trkpt lat="31.7418980" lon="35.1108090">
<ele>554.827454</ele>
<time>2015-07-10T07:16:08.996Z</time>
</trkpt>
<trkpt lat="31.7418470" lon="35.1109230">
<ele>553.852051</ele>
<time>2015-07-10T07:16:11.001Z</time>
</trkpt>
<trkpt lat="31.7417790" lon="35.1110220">
<ele>554.339722</ele>
<time>2015-07-10T07:16:12.996Z</time>
</trkpt>
<trkpt lat="31.7417010" lon="35.1111030">
<ele>553.852051</ele>
<time>2015-07-10T07:16:15.001Z</time>
</trkpt>
<trkpt lat="31.7416240" lon="35.1111800">
<ele>553.852051</ele>
<time>2015-07-10T07:16:16.997Z</time>
</trkpt>
<trkpt lat="31.7415440" lon="35.1112620">
<ele>553.394897</ele>
<time>2015-07-10T07:16:19.001Z</time>
</trkpt>
<trkpt lat="31.7414530" lon="35.1113480">
<ele>552.907227</ele>
<time>2015-07-10T07:16:20.997Z</time>
</trkpt>
<trkpt lat="31.7413450" lon="35.1114520">
<ele>551.931885</ele>
<time>2015-07-10T07:16:23.002Z</time>
</trkpt>
<trkpt lat="31.7412290" lon="35.1115500">
<ele>551.444153</ele>
<time>2015-07-10T07:16:24.997Z</time>
</trkpt>
<trkpt lat="31.7411040" lon="35.1116550">
<ele>550.956482</ele>
<time>2015-07-10T07:16:27.002Z</time>
</trkpt>
<trkpt lat="31.7409890" lon="35.1117480">
<ele>550.011597</ele>
<time>2015-07-10T07:16:28.998Z</time>
</trkpt>
<trkpt lat="31.7408820" lon="35.1118400">
<ele>549.523926</ele>
<time>2015-07-10T07:16:31.002Z</time>
</trkpt>
<trkpt lat="31.7407600" lon="35.1119270">
<ele>549.523926</ele>
<time>2015-07-10T07:16:32.998Z</time>
</trkpt>
<trkpt lat="31.7406400" lon="35.1119930">
<ele>549.523926</ele>
<time>2015-07-10T07:16:35.003Z</time>
</trkpt>
<trkpt lat="31.7405180" lon="35.1120410">
<ele>548.091370</ele>
<time>2015-07-10T07:16:36.998Z</time>
</trkpt>
<trkpt lat="31.7403930" lon="35.1120950">
<ele>547.603699</ele>
<time>2015-07-10T07:16:39.003Z</time>
</trkpt>
<trkpt lat="31.7402680" lon="35.1121460">
<ele>547.116028</ele>
<time>2015-07-10T07:16:40.999Z</time>
</trkpt>
<trkpt lat="31.7401430" lon="35.1122020">
<ele>546.658813</ele>
<time>2015-07-10T07:16:43.003Z</time>
</trkpt>
<trkpt lat="31.7400100" lon="35.1122520">
<ele>546.658813</ele>
<time>2015-07-10T07:16:44.999Z</time>
</trkpt>
<trkpt lat="31.7398780" lon="35.1122970">
<ele>546.171143</ele>
<time>2015-07-10T07:16:47.004Z</time>
</trkpt>
<trkpt lat="31.7397470" lon="35.1123410">
<ele>546.171143</ele>
<time>2015-07-10T07:16:48.999Z</time>
</trkpt>
<trkpt lat="31.7396230" lon="35.1123830">
<ele>545.683472</ele>
<time>2015-07-10T07:16:51.004Z</time>
</trkpt>
<trkpt lat="31.7394990" lon="35.1124310">
<ele>546.171143</ele>
<time>2015-07-10T07:16:53.000Z</time>
</trkpt>
<trkpt lat="31.7393910" lon="35.1124820">
<ele>546.171143</ele>
<time>2015-07-10T07:16:55.004Z</time>
</trkpt>
<trkpt lat="31.7392910" lon="35.1125340">
<ele>546.658813</ele>
<time>2015-07-10T07:16:57.000Z</time>
</trkpt>
<trkpt lat="31.7391980" lon="35.1125920">
<ele>546.171143</ele>
<time>2015-07-10T07:16:58.996Z</time>
</trkpt>
<trkpt lat="31.7391050" lon="35.1126500">
<ele>545.683472</ele>
<time>2015-07-10T07:17:01.000Z</time>
</trkpt>
<trkpt lat="31.7390170" lon="35.1127140">
<ele>545.683472</ele>
<time>2015-07-10T07:17:02.996Z</time>
</trkpt>
<trkpt lat="31.7389350" lon="35.1127860">
<ele>545.683472</ele>
<time>2015-07-10T07:17:05.001Z</time>
</trkpt>
<trkpt lat="31.7388490" lon="35.1128570">
<ele>545.683472</ele>
<time>2015-07-10T07:17:06.996Z</time>
</trkpt>
<trkpt lat="31.7387630" lon="35.1129320">
<ele>545.683472</ele>
<time>2015-07-10T07:17:09.001Z</time>
</trkpt>
<trkpt lat="31.7386740" lon="35.1129980">
<ele>545.683472</ele>
<time>2015-07-10T07:17:10.997Z</time>
</trkpt>
<trkpt lat="31.7386090" lon="35.1130790">
<ele>545.683472</ele>
<time>2015-07-10T07:17:13.001Z</time>
</trkpt>
<trkpt lat="31.7385440" lon="35.1131650">
<ele>545.683472</ele>
<time>2015-07-10T07:17:14.997Z</time>
</trkpt>
<trkpt lat="31.7384750" lon="35.1132410">
<ele>545.195740</ele>
<time>2015-07-10T07:17:17.002Z</time>
</trkpt>
<trkpt lat="31.7383780" lon="35.1133670">
<ele>544.708069</ele>
<time>2015-07-10T07:17:20.000Z</time>
</trkpt>
<trkpt lat="31.7383100" lon="35.1134560">
<ele>544.708069</ele>
<time>2015-07-10T07:17:22.004Z</time>
</trkpt>
<trkpt lat="31.7382470" lon="35.1135520">
<ele>544.250854</ele>
<time>2015-07-10T07:17:24.000Z</time>
</trkpt>
<trkpt lat="31.7381870" lon="35.1136510">
<ele>544.250854</ele>
<time>2015-07-10T07:17:25.996Z</time>
</trkpt>
<trkpt lat="31.7381270" lon="35.1137480">
<ele>543.763184</ele>
<time>2015-07-10T07:17:28.000Z</time>
</trkpt>
<trkpt lat="31.7380790" lon="35.1138410">
<ele>544.250854</ele>
<time>2015-07-10T07:17:29.996Z</time>
</trkpt>
<trkpt lat="31.7380410" lon="35.1139260">
<ele>543.763184</ele>
<time>2015-07-10T07:17:59.001Z</time>
</trkpt>
<trkpt lat="31.7379690" lon="35.1140440">
<ele>543.275513</ele>
<time>2015-07-10T07:18:05.999Z</time>
</trkpt>
<trkpt lat="31.7378830" lon="35.1141840">
<ele>543.763184</ele>
<time>2015-07-10T07:18:08.997Z</time>
</trkpt>
<trkpt lat="31.7378380" lon="35.1142900">
<ele>543.763184</ele>
<time>2015-07-10T07:18:11.002Z</time>
</trkpt>
<trkpt lat="31.7377930" lon="35.1144090">
<ele>543.763184</ele>
<time>2015-07-10T07:18:12.997Z</time>
</trkpt>
<trkpt lat="31.7377480" lon="35.1145370">
<ele>543.275513</ele>
<time>2015-07-10T07:18:15.002Z</time>
</trkpt>
<trkpt lat="31.7377000" lon="35.1146760">
<ele>542.787842</ele>
<time>2015-07-10T07:18:16.998Z</time>
</trkpt>
<trkpt lat="31.7376520" lon="35.1148220">
<ele>542.330627</ele>
<time>2015-07-10T07:18:19.002Z</time>
</trkpt>
<trkpt lat="31.7376150" lon="35.1149710">
<ele>542.787842</ele>
<time>2015-07-10T07:18:20.998Z</time>
</trkpt>
<trkpt lat="31.7375970" lon="35.1151170">
<ele>542.330627</ele>
<time>2015-07-10T07:18:23.003Z</time>
</trkpt>
<trkpt lat="31.7375870" lon="35.1152650">
<ele>541.842957</ele>
<time>2015-07-10T07:18:24.998Z</time>
</trkpt>
<trkpt lat="31.7375800" lon="35.1154210">
<ele>541.355286</ele>
<time>2015-07-10T07:18:27.003Z</time>
</trkpt>
<trkpt lat="31.7375320" lon="35.1155860">
<ele>540.410400</ele>
<time>2015-07-10T07:18:28.999Z</time>
</trkpt>
<trkpt lat="31.7374810" lon="35.1157370">
<ele>539.922729</ele>
<time>2015-07-10T07:18:31.003Z</time>
</trkpt>
<trkpt lat="31.7374240" lon="35.1158850">
<ele>539.922729</ele>
<time>2015-07-10T07:18:32.999Z</time>
</trkpt>
<trkpt lat="31.7373700" lon="35.1160340">
<ele>539.922729</ele>
<time>2015-07-10T07:18:35.004Z</time>
</trkpt>
<trkpt lat="31.7373310" lon="35.1161800">
<ele>539.922729</ele>
<time>2015-07-10T07:18:36.999Z</time>
</trkpt>
<trkpt lat="31.7372760" lon="35.1163160">
<ele>539.922729</ele>
<time>2015-07-10T07:18:39.004Z</time>
</trkpt>
<trkpt lat="31.7372070" lon="35.1164400">
<ele>539.922729</ele>
<time>2015-07-10T07:18:41.000Z</time>
</trkpt>
<trkpt lat="31.7371380" lon="35.1165650">
<ele>539.922729</ele>
<time>2015-07-10T07:18:43.004Z</time>
</trkpt>
<trkpt lat="31.7370630" lon="35.1166830">
<ele>539.435059</ele>
<time>2015-07-10T07:18:45.000Z</time>
</trkpt>
<trkpt lat="31.7369840" lon="35.1168020">
<ele>539.435059</ele>
<time>2015-07-10T07:18:46.996Z</time>
</trkpt>
<trkpt lat="31.7368960" lon="35.1169270">
<ele>538.490173</ele>
<time>2015-07-10T07:18:49.000Z</time>
</trkpt>
<trkpt lat="31.7368020" lon="35.1170430">
<ele>538.947327</ele>
<time>2015-07-10T07:18:50.996Z</time>
</trkpt>
<trkpt lat="31.7367150" lon="35.1171700">
<ele>538.002502</ele>
<time>2015-07-10T07:18:53.001Z</time>
</trkpt>
<trkpt lat="31.7366310" lon="35.1173080">
<ele>537.514771</ele>
<time>2015-07-10T07:18:54.996Z</time>
</trkpt>
<trkpt lat="31.7365490" lon="35.1174590">
<ele>537.027100</ele>
<time>2015-07-10T07:18:57.001Z</time>
</trkpt>
<trkpt lat="31.7364740" lon="35.1176300">
<ele>536.082275</ele>
<time>2015-07-10T07:18:58.997Z</time>
</trkpt>
<trkpt lat="31.7364080" lon="35.1178240">
<ele>535.106873</ele>
<time>2015-07-10T07:19:01.001Z</time>
</trkpt>
<trkpt lat="31.7363620" lon="35.1180260">
<ele>533.186646</ele>
<time>2015-07-10T07:19:02.997Z</time>
</trkpt>
<trkpt lat="31.7363400" lon="35.1181240">
<ele>531.754089</ele>
<time>2015-07-10T07:19:03.999Z</time>
</trkpt>
<trkpt lat="31.7363150" lon="35.1183150">
<ele>530.291077</ele>
<time>2015-07-10T07:19:06.004Z</time>
</trkpt>
<trkpt lat="31.7362930" lon="35.1184630">
<ele>528.370789</ele>
<time>2015-07-10T07:19:08.000Z</time>
</trkpt>
<trkpt lat="31.7362670" lon="35.1185760">
<ele>527.425903</ele>
<time>2015-07-10T07:19:10.998Z</time>
</trkpt>
<trkpt lat="31.7361860" lon="35.1186260">
<ele>526.938232</ele>
<time>2015-07-10T07:19:17.003Z</time>
</trkpt>
<trkpt lat="31.7360930" lon="35.1186630">
<ele>525.993347</ele>
<time>2015-07-10T07:19:21.003Z</time>
</trkpt>
<trkpt lat="31.7359920" lon="35.1187170">
<ele>525.993347</ele>
<time>2015-07-10T07:19:22.999Z</time>
</trkpt>
<trkpt lat="31.7358960" lon="35.1187590">
<ele>526.938232</ele>
<time>2015-07-10T07:19:25.997Z</time>
</trkpt>
<trkpt lat="31.7357990" lon="35.1187980">
<ele>526.938232</ele>
<time>2015-07-10T07:19:29.004Z</time>
</trkpt>
<trkpt lat="31.7357430" lon="35.1188810">
<ele>527.425903</ele>
<time>2015-07-10T07:19:33.997Z</time>
</trkpt>
<trkpt lat="31.7356740" lon="35.1189450">
<ele>528.858459</ele>
<time>2015-07-10T07:19:43.000Z</time>
</trkpt>
<trkpt lat="31.7356020" lon="35.1190000">
<ele>530.778748</ele>
<time>2015-07-10T07:19:52.003Z</time>
</trkpt>
<trkpt lat="31.7355240" lon="35.1190580">
<ele>532.698975</ele>
<time>2015-07-10T07:20:02.000Z</time>
</trkpt>
<trkpt lat="31.7354400" lon="35.1190880">
<ele>533.674316</ele>
<time>2015-07-10T07:20:11.996Z</time>
</trkpt>
<trkpt lat="31.7353580" lon="35.1190690">
<ele>534.619202</ele>
<time>2015-07-10T07:20:20.999Z</time>
</trkpt>
<trkpt lat="31.7352750" lon="35.1190260">
<ele>536.082275</ele>
<time>2015-07-10T07:20:30.002Z</time>
</trkpt>
<trkpt lat="31.7352680" lon="35.1189280">
<ele>537.514771</ele>
<time>2015-07-10T07:20:38.003Z</time>
</trkpt>
<trkpt lat="31.7353450" lon="35.1188500">
<ele>538.002502</ele>
<time>2015-07-10T07:20:46.003Z</time>
</trkpt>
<trkpt lat="31.7354450" lon="35.1188080">
<ele>538.490173</ele>
<time>2015-07-10T07:20:54.004Z</time>
</trkpt>
<trkpt lat="31.7355140" lon="35.1187300">
<ele>539.435059</ele>
<time>2015-07-10T07:21:01.996Z</time>
</trkpt>
<trkpt lat="31.7355740" lon="35.1186340">
<ele>540.410400</ele>
<time>2015-07-10T07:21:10.999Z</time>
</trkpt>
<trkpt lat="31.7356040" lon="35.1185110">
<ele>540.867615</ele>
<time>2015-07-10T07:21:18.999Z</time>
</trkpt>
<trkpt lat="31.7356210" lon="35.1184010">
<ele>541.842957</ele>
<time>2015-07-10T07:21:25.998Z</time>
</trkpt>
<trkpt lat="31.7356210" lon="35.1182840">
<ele>543.275513</ele>
<time>2015-07-10T07:21:36.003Z</time>
</trkpt>
<trkpt lat="31.7356220" lon="35.1181730">
<ele>543.763184</ele>
<time>2015-07-10T07:21:44.997Z</time>
</trkpt>
<trkpt lat="31.7356260" lon="35.1180670">
<ele>544.250854</ele>
<time>2015-07-10T07:21:52.998Z</time>
</trkpt>
<trkpt lat="31.7356280" lon="35.1179470">
<ele>545.683472</ele>
<time>2015-07-10T07:22:02.001Z</time>
</trkpt>
<trkpt lat="31.7356120" lon="35.1178270">
<ele>546.171143</ele>
<time>2015-07-10T07:22:10.001Z</time>
</trkpt>
<trkpt lat="31.7356250" lon="35.1177120">
<ele>547.116028</ele>
<time>2015-07-10T07:22:18.002Z</time>
</trkpt>
<trkpt lat="31.7356230" lon="35.1176060">
<ele>547.603699</ele>
<time>2015-07-10T07:22:26.003Z</time>
</trkpt>
<trkpt lat="31.7356380" lon="35.1175350">
<ele>548.579041</ele>
<time>2015-07-10T07:23:01.997Z</time>
</trkpt>
<trkpt lat="31.7356450" lon="35.1174100">
<ele>549.036255</ele>
<time>2015-07-10T07:23:08.002Z</time>
</trkpt>
<trkpt lat="31.7356700" lon="35.1173040">
<ele>550.499268</ele>
<time>2015-07-10T07:23:13.004Z</time>
</trkpt>
<trkpt lat="31.7357000" lon="35.1171910">
<ele>550.499268</ele>
<time>2015-07-10T07:23:16.996Z</time>
</trkpt>
<trkpt lat="31.7357380" lon="35.1170910">
<ele>550.956482</ele>
<time>2015-07-10T07:23:21.998Z</time>
</trkpt>
<trkpt lat="31.7357690" lon="35.1169870">
<ele>551.931885</ele>
<time>2015-07-10T07:23:27.001Z</time>
</trkpt>
<trkpt lat="31.7358130" lon="35.1168850">
<ele>552.419556</ele>
<time>2015-07-10T07:23:32.004Z</time>
</trkpt>
<trkpt lat="31.7358590" lon="35.1167790">
<ele>552.419556</ele>
<time>2015-07-10T07:23:36.997Z</time>
</trkpt>
<trkpt lat="31.7358920" lon="35.1166740">
<ele>552.907227</ele>
<time>2015-07-10T07:23:40.998Z</time>
</trkpt>
<trkpt lat="31.7359180" lon="35.1165650">
<ele>552.907227</ele>
<time>2015-07-10T07:23:44.998Z</time>
</trkpt>
<trkpt lat="31.7359480" lon="35.1164550">
<ele>553.852051</ele>
<time>2015-07-10T07:23:48.998Z</time>
</trkpt>
<trkpt lat="31.7359830" lon="35.1163510">
<ele>554.339722</ele>
<time>2015-07-10T07:23:52.999Z</time>
</trkpt>
<trkpt lat="31.7360150" lon="35.1162510">
<ele>553.852051</ele>
<time>2015-07-10T07:23:56.999Z</time>
</trkpt>
<trkpt lat="31.7360460" lon="35.1161430">
<ele>554.827454</ele>
<time>2015-07-10T07:24:00.999Z</time>
</trkpt>
<trkpt lat="31.7360720" lon="35.1160360">
<ele>554.827454</ele>
<time>2015-07-10T07:24:05.000Z</time>
</trkpt>
<trkpt lat="31.7360960" lon="35.1159200">
<ele>555.772339</ele>
<time>2015-07-10T07:24:09.000Z</time>
</trkpt>
<trkpt lat="31.7361160" lon="35.1158060">
<ele>556.260010</ele>
<time>2015-07-10T07:24:13.000Z</time>
</trkpt>
<trkpt lat="31.7361400" lon="35.1156960">
<ele>556.747681</ele>
<time>2015-07-10T07:24:18.003Z</time>
</trkpt>
<trkpt lat="31.7361550" lon="35.1155720">
<ele>557.204895</ele>
<time>2015-07-10T07:24:22.003Z</time>
</trkpt>
<trkpt lat="31.7361520" lon="35.1154540">
<ele>558.180237</ele>
<time>2015-07-10T07:24:26.004Z</time>
</trkpt>
<trkpt lat="31.7361160" lon="35.1153370">
<ele>559.125122</ele>
<time>2015-07-10T07:24:32.000Z</time>
</trkpt>
<trkpt lat="31.7360880" lon="35.1152300">
<ele>560.100464</ele>
<time>2015-07-10T07:24:37.996Z</time>
</trkpt>
<trkpt lat="31.7360630" lon="35.1151130">
<ele>561.563538</ele>
<time>2015-07-10T07:24:45.003Z</time>
</trkpt>
<trkpt lat="31.7360200" lon="35.1150150">
<ele>562.508423</ele>
<time>2015-07-10T07:24:52.001Z</time>
</trkpt>
<trkpt lat="31.7359780" lon="35.1149080">
<ele>563.940918</ele>
<time>2015-07-10T07:25:01.004Z</time>
</trkpt>
<trkpt lat="31.7359060" lon="35.1148260">
<ele>564.916321</ele>
<time>2015-07-10T07:25:09.998Z</time>
</trkpt>
<trkpt lat="31.7358200" lon="35.1148460">
<ele>566.348877</ele>
<time>2015-07-10T07:25:17.999Z</time>
</trkpt>
<trkpt lat="31.7357920" lon="35.1149690">
<ele>567.324280</ele>
<time>2015-07-10T07:25:26.000Z</time>
</trkpt>
<trkpt lat="31.7358620" lon="35.1150540">
<ele>567.811951</ele>
<time>2015-07-10T07:25:32.998Z</time>
</trkpt>
<trkpt lat="31.7358920" lon="35.1151710">
<ele>568.269104</ele>
<time>2015-07-10T07:25:39.996Z</time>
</trkpt>
<trkpt lat="31.7359320" lon="35.1152820">
<ele>569.244446</ele>
<time>2015-07-10T07:25:47.004Z</time>
</trkpt>
<trkpt lat="31.7359280" lon="35.1154170">
<ele>569.732117</ele>
<time>2015-07-10T07:25:54.002Z</time>
</trkpt>
<trkpt lat="31.7358780" lon="35.1155550">
<ele>570.677063</ele>
<time>2015-07-10T07:26:01.000Z</time>
</trkpt>
<trkpt lat="31.7358250" lon="35.1156630">
<ele>572.109619</ele>
<time>2015-07-10T07:26:09.001Z</time>
</trkpt>
<trkpt lat="31.7357670" lon="35.1157940">
<ele>572.109619</ele>
<time>2015-07-10T07:26:14.997Z</time>
</trkpt>
<trkpt lat="31.7357150" lon="35.1158970">
<ele>573.084961</ele>
<time>2015-07-10T07:26:18.997Z</time>
</trkpt>
<trkpt lat="31.7356640" lon="35.1160080">
<ele>573.572632</ele>
<time>2015-07-10T07:26:24.000Z</time>
</trkpt>
<trkpt lat="31.7356230" lon="35.1161220">
<ele>574.517517</ele>
<time>2015-07-10T07:26:30.998Z</time>
</trkpt>
<trkpt lat="31.7355820" lon="35.1162280">
<ele>574.517517</ele>
<time>2015-07-10T07:26:37.003Z</time>
</trkpt>
<trkpt lat="31.7355340" lon="35.1163300">
<ele>575.492859</ele>
<time>2015-07-10T07:26:42.999Z</time>
</trkpt>
<trkpt lat="31.7355000" lon="35.1164330">
<ele>576.437744</ele>
<time>2015-07-10T07:26:49.004Z</time>
</trkpt>
<trkpt lat="31.7354540" lon="35.1165350">
<ele>576.437744</ele>
<time>2015-07-10T07:26:55.000Z</time>
</trkpt>
<trkpt lat="31.7354210" lon="35.1166350">
<ele>576.925476</ele>
<time>2015-07-10T07:27:00.996Z</time>
</trkpt>
<trkpt lat="31.7353740" lon="35.1167340">
<ele>577.413147</ele>
<time>2015-07-10T07:27:07.001Z</time>
</trkpt>
<trkpt lat="31.7353310" lon="35.1168320">
<ele>578.357971</ele>
<time>2015-07-10T07:27:14.000Z</time>
</trkpt>
<trkpt lat="31.7352760" lon="35.1169460">
<ele>578.357971</ele>
<time>2015-07-10T07:27:19.002Z</time>
</trkpt>
<trkpt lat="31.7352230" lon="35.1170480">
<ele>579.333374</ele>
<time>2015-07-10T07:27:24.998Z</time>
</trkpt>
<trkpt lat="31.7351630" lon="35.1171450">
<ele>580.278259</ele>
<time>2015-07-10T07:27:31.003Z</time>
</trkpt>
<trkpt lat="31.7350920" lon="35.1172320">
<ele>580.765930</ele>
<time>2015-07-10T07:27:38.002Z</time>
</trkpt>
<trkpt lat="31.7350370" lon="35.1173370">
<ele>582.228943</ele>
<time>2015-07-10T07:27:45.000Z</time>
</trkpt>
<trkpt lat="31.7349600" lon="35.1174380">
<ele>583.173828</ele>
<time>2015-07-10T07:27:51.998Z</time>
</trkpt>
<trkpt lat="31.7348880" lon="35.1175240">
<ele>583.173828</ele>
<time>2015-07-10T07:27:58.997Z</time>
</trkpt>
<trkpt lat="31.7348170" lon="35.1176090">
<ele>584.149170</ele>
<time>2015-07-10T07:28:05.002Z</time>
</trkpt>
<trkpt lat="31.7347450" lon="35.1176810">
<ele>584.606384</ele>
<time>2015-07-10T07:28:12.000Z</time>
</trkpt>
<trkpt lat="31.7346660" lon="35.1177740">
<ele>585.581726</ele>
<time>2015-07-10T07:28:20.001Z</time>
</trkpt>
<trkpt lat="31.7345750" lon="35.1178600">
<ele>585.581726</ele>
<time>2015-07-10T07:28:26.999Z</time>
</trkpt>
<trkpt lat="31.7344950" lon="35.1179220">
<ele>587.014343</ele>
<time>2015-07-10T07:28:33.004Z</time>
</trkpt>
<trkpt lat="31.7344160" lon="35.1179860">
<ele>587.502014</ele>
<time>2015-07-10T07:28:40.002Z</time>
</trkpt>
<trkpt lat="31.7343160" lon="35.1180250">
<ele>587.502014</ele>
<time>2015-07-10T07:28:47.001Z</time>
</trkpt>
<trkpt lat="31.7342230" lon="35.1180420">
<ele>588.446899</ele>
<time>2015-07-10T07:28:52.997Z</time>
</trkpt>
<trkpt lat="31.7341390" lon="35.1180710">
<ele>588.965027</ele>
<time>2015-07-10T07:29:00.004Z</time>
</trkpt>
<trkpt lat="31.7340360" lon="35.1180840">
<ele>589.422241</ele>
<time>2015-07-10T07:29:06.000Z</time>
</trkpt>
<trkpt lat="31.7339500" lon="35.1180850">
<ele>589.909912</ele>
<time>2015-07-10T07:29:11.996Z</time>
</trkpt>
<trkpt lat="31.7338400" lon="35.1180880">
<ele>590.854797</ele>
<time>2015-07-10T07:29:19.003Z</time>
</trkpt>
<trkpt lat="31.7337450" lon="35.1180690">
<ele>591.342468</ele>
<time>2015-07-10T07:29:26.002Z</time>
</trkpt>
<trkpt lat="31.7336540" lon="35.1180560">
<ele>592.317871</ele>
<time>2015-07-10T07:29:31.998Z</time>
</trkpt>
<trkpt lat="31.7335580" lon="35.1180520">
<ele>593.750427</ele>
<time>2015-07-10T07:29:38.003Z</time>
</trkpt>
<trkpt lat="31.7334770" lon="35.1180330">
<ele>593.750427</ele>
<time>2015-07-10T07:29:43.999Z</time>
</trkpt>
<trkpt lat="31.7333730" lon="35.1180260">
<ele>594.238098</ele>
<time>2015-07-10T07:29:50.004Z</time>
</trkpt>
<trkpt lat="31.7332770" lon="35.1180110">
<ele>594.695251</ele>
<time>2015-07-10T07:29:56.000Z</time>
</trkpt>
<trkpt lat="31.7331790" lon="35.1179900">
<ele>596.158325</ele>
<time>2015-07-10T07:30:01.996Z</time>
</trkpt>
<trkpt lat="31.7330710" lon="35.1180020">
<ele>596.645996</ele>
<time>2015-07-10T07:30:09.003Z</time>
</trkpt>
<trkpt lat="31.7329730" lon="35.1179530">
<ele>596.645996</ele>
<time>2015-07-10T07:30:13.997Z</time>
</trkpt>
<trkpt lat="31.7328680" lon="35.1179320">
<ele>598.078552</ele>
<time>2015-07-10T07:30:18.999Z</time>
</trkpt>
<trkpt lat="31.7327600" lon="35.1179230">
<ele>598.566284</ele>
<time>2015-07-10T07:30:24.002Z</time>
</trkpt>
<trkpt lat="31.7326660" lon="35.1179230">
<ele>598.566284</ele>
<time>2015-07-10T07:30:28.996Z</time>
</trkpt>
<trkpt lat="31.7325660" lon="35.1179130">
<ele>598.566284</ele>
<time>2015-07-10T07:30:33.998Z</time>
</trkpt>
<trkpt lat="31.7324670" lon="35.1178910">
<ele>599.053955</ele>
<time>2015-07-10T07:30:39.001Z</time>
</trkpt>
<trkpt lat="31.7323650" lon="35.1178570">
<ele>599.511108</ele>
<time>2015-07-10T07:30:44.004Z</time>
</trkpt>
<trkpt lat="31.7322660" lon="35.1178250">
<ele>599.998779</ele>
<time>2015-07-10T07:30:48.997Z</time>
</trkpt>
<trkpt lat="31.7321780" lon="35.1177750">
<ele>599.998779</ele>
<time>2015-07-10T07:30:54.000Z</time>
</trkpt>
<trkpt lat="31.7320810" lon="35.1177360">
<ele>600.974121</ele>
<time>2015-07-10T07:30:59.996Z</time>
</trkpt>
<trkpt lat="31.7319810" lon="35.1177000">
<ele>601.431335</ele>
<time>2015-07-10T07:31:06.001Z</time>
</trkpt>
<trkpt lat="31.7318840" lon="35.1176980">
<ele>602.894409</ele>
<time>2015-07-10T07:31:11.997Z</time>
</trkpt>
<trkpt lat="31.7317860" lon="35.1176860">
<ele>604.326965</ele>
<time>2015-07-10T07:31:18.002Z</time>
</trkpt>
<trkpt lat="31.7316890" lon="35.1177000">
<ele>605.302307</ele>
<time>2015-07-10T07:31:26.003Z</time>
</trkpt>
<trkpt lat="31.7315880" lon="35.1176950">
<ele>606.247192</ele>
<time>2015-07-10T07:31:33.001Z</time>
</trkpt>
<trkpt lat="31.7314870" lon="35.1176840">
<ele>606.734863</ele>
<time>2015-07-10T07:31:38.997Z</time>
</trkpt>
<trkpt lat="31.7313940" lon="35.1176860">
<ele>606.247192</ele>
<time>2015-07-10T07:31:42.004Z</time>
</trkpt>
<trkpt lat="31.7312950" lon="35.1176840">
<ele>607.679749</ele>
<time>2015-07-10T07:31:46.998Z</time>
</trkpt>
<trkpt lat="31.7311910" lon="35.1176830">
<ele>608.167480</ele>
<time>2015-07-10T07:31:53.003Z</time>
</trkpt>
<trkpt lat="31.7310920" lon="35.1176910">
<ele>609.142822</ele>
<time>2015-07-10T07:31:58.999Z</time>
</trkpt>
<trkpt lat="31.7309990" lon="35.1176770">
<ele>609.599976</ele>
<time>2015-07-10T07:32:05.997Z</time>
</trkpt>
<trkpt lat="31.7309000" lon="35.1176690">
<ele>610.575317</ele>
<time>2015-07-10T07:32:13.998Z</time>
</trkpt>
<trkpt lat="31.7308060" lon="35.1176770">
<ele>611.550720</ele>
<time>2015-07-10T07:32:20.996Z</time>
</trkpt>
<trkpt lat="31.7307110" lon="35.1176770">
<ele>612.007935</ele>
<time>2015-07-10T07:32:28.003Z</time>
</trkpt>
<trkpt lat="31.7306120" lon="35.1176880">
<ele>612.983276</ele>
<time>2015-07-10T07:32:36.004Z</time>
</trkpt>
<trkpt lat="31.7305190" lon="35.1177150">
<ele>614.415833</ele>
<time>2015-07-10T07:32:44.998Z</time>
</trkpt>
<trkpt lat="31.7304520" lon="35.1178160">
<ele>614.415833</ele>
<time>2015-07-10T07:32:52.999Z</time>
</trkpt>
<trkpt lat="31.7304630" lon="35.1179350">
<ele>615.848389</ele>
<time>2015-07-10T07:32:59.997Z</time>
</trkpt>
<trkpt lat="31.7305490" lon="35.1180030">
<ele>616.823730</ele>
<time>2015-07-10T07:33:07.004Z</time>
</trkpt>
<trkpt lat="31.7306530" lon="35.1180630">
<ele>616.823730</ele>
<time>2015-07-10T07:33:14.003Z</time>
</trkpt>
<trkpt lat="31.7307480" lon="35.1181170">
<ele>617.311462</ele>
<time>2015-07-10T07:33:19.999Z</time>
</trkpt>
<trkpt lat="31.7308470" lon="35.1181560">
<ele>617.311462</ele>
<time>2015-07-10T07:33:26.004Z</time>
</trkpt>
<trkpt lat="31.7309530" lon="35.1181870">
<ele>618.256348</ele>
<time>2015-07-10T07:33:33.002Z</time>
</trkpt>
<trkpt lat="31.7310610" lon="35.1182470">
<ele>617.311462</ele>
<time>2015-07-10T07:33:37.996Z</time>
</trkpt>
<trkpt lat="31.7311470" lon="35.1182960">
<ele>617.768677</ele>
<time>2015-07-10T07:33:42.998Z</time>
</trkpt>
<trkpt lat="31.7312300" lon="35.1183700">
<ele>617.768677</ele>
<time>2015-07-10T07:33:48.001Z</time>
</trkpt>
<trkpt lat="31.7313120" lon="35.1184460">
<ele>618.256348</ele>
<time>2015-07-10T07:33:53.004Z</time>
</trkpt>
<trkpt lat="31.7313870" lon="35.1185200">
<ele>618.256348</ele>
<time>2015-07-10T07:33:57.997Z</time>
</trkpt>
<trkpt lat="31.7314700" lon="35.1185800">
<ele>618.744019</ele>
<time>2015-07-10T07:34:03.000Z</time>
</trkpt>
<trkpt lat="31.7315560" lon="35.1186160">
<ele>618.256348</ele>
<time>2015-07-10T07:34:08.003Z</time>
</trkpt>
<trkpt lat="31.7316630" lon="35.1186590">
<ele>618.256348</ele>
<time>2015-07-10T07:34:12.996Z</time>
</trkpt>
<trkpt lat="31.7317550" lon="35.1187050">
<ele>619.231689</ele>
<time>2015-07-10T07:34:17.999Z</time>
</trkpt>
<trkpt lat="31.7318380" lon="35.1187700">
<ele>619.231689</ele>
<time>2015-07-10T07:34:23.002Z</time>
</trkpt>
<trkpt lat="31.7319280" lon="35.1188310">
<ele>619.231689</ele>
<time>2015-07-10T07:34:28.004Z</time>
</trkpt>
<trkpt lat="31.7320200" lon="35.1188930">
<ele>619.719360</ele>
<time>2015-07-10T07:34:32.998Z</time>
</trkpt>
<trkpt lat="31.7321070" lon="35.1189800">
<ele>619.719360</ele>
<time>2015-07-10T07:34:38.001Z</time>
</trkpt>
<trkpt lat="31.7321910" lon="35.1190430">
<ele>620.664246</ele>
<time>2015-07-10T07:34:43.003Z</time>
</trkpt>
<trkpt lat="31.7322670" lon="35.1191120">
<ele>620.176575</ele>
<time>2015-07-10T07:34:47.004Z</time>
</trkpt>
<trkpt lat="31.7323530" lon="35.1191900">
<ele>621.151917</ele>
<time>2015-07-10T07:34:51.004Z</time>
</trkpt>
<trkpt lat="31.7324280" lon="35.1192560">
<ele>621.639587</ele>
<time>2015-07-10T07:34:55.998Z</time>
</trkpt>
<trkpt lat="31.7325100" lon="35.1193280">
<ele>622.096802</ele>
<time>2015-07-10T07:35:01.000Z</time>
</trkpt>
<trkpt lat="31.7325910" lon="35.1193870">
<ele>622.584473</ele>
<time>2015-07-10T07:35:06.003Z</time>
</trkpt>
<trkpt lat="31.7326740" lon="35.1194640">
<ele>623.072144</ele>
<time>2015-07-10T07:35:10.997Z</time>
</trkpt>
<trkpt lat="31.7327600" lon="35.1195250">
<ele>624.017029</ele>
<time>2015-07-10T07:35:15.999Z</time>
</trkpt>
<trkpt lat="31.7328420" lon="35.1195980">
<ele>624.504700</ele>
<time>2015-07-10T07:35:21.002Z</time>
</trkpt>
<trkpt lat="31.7329220" lon="35.1196570">
<ele>625.480103</ele>
<time>2015-07-10T07:35:25.996Z</time>
</trkpt>
<trkpt lat="31.7330070" lon="35.1197250">
<ele>624.992371</ele>
<time>2015-07-10T07:35:29.996Z</time>
</trkpt>
<trkpt lat="31.7330820" lon="35.1197920">
<ele>625.480103</ele>
<time>2015-07-10T07:35:33.996Z</time>
</trkpt>
<trkpt lat="31.7331670" lon="35.1198430">
<ele>626.424927</ele>
<time>2015-07-10T07:35:38.999Z</time>
</trkpt>
<trkpt lat="31.7332620" lon="35.1198920">
<ele>626.912659</ele>
<time>2015-07-10T07:35:44.002Z</time>
</trkpt>
<trkpt lat="31.7333430" lon="35.1199600">
<ele>627.400269</ele>
<time>2015-07-10T07:35:49.004Z</time>
</trkpt>
<trkpt lat="31.7334330" lon="35.1200350">
<ele>628.345215</ele>
<time>2015-07-10T07:35:53.998Z</time>
</trkpt>
<trkpt lat="31.7335170" lon="35.1200850">
<ele>628.832886</ele>
<time>2015-07-10T07:35:59.001Z</time>
</trkpt>
<trkpt lat="31.7336010" lon="35.1201460">
<ele>629.320557</ele>
<time>2015-07-10T07:36:04.003Z</time>
</trkpt>
<trkpt lat="31.7336960" lon="35.1202090">
<ele>629.320557</ele>
<time>2015-07-10T07:36:09.999Z</time>
</trkpt>
<trkpt lat="31.7337900" lon="35.1202670">
<ele>629.808228</ele>
<time>2015-07-10T07:36:14.000Z</time>
</trkpt>
<trkpt lat="31.7338760" lon="35.1203170">
<ele>630.265442</ele>
<time>2015-07-10T07:36:19.002Z</time>
</trkpt>
<trkpt lat="31.7339580" lon="35.1203620">
<ele>630.753113</ele>
<time>2015-07-10T07:36:23.996Z</time>
</trkpt>
<trkpt lat="31.7340410" lon="35.1204270">
<ele>631.240784</ele>
<time>2015-07-10T07:36:28.999Z</time>
</trkpt>
<trkpt lat="31.7341210" lon="35.1204880">
<ele>631.728516</ele>
<time>2015-07-10T07:36:34.001Z</time>
</trkpt>
<trkpt lat="31.7342080" lon="35.1205610">
<ele>632.185730</ele>
<time>2015-07-10T07:36:39.004Z</time>
</trkpt>
<trkpt lat="31.7342900" lon="35.1206210">
<ele>632.673340</ele>
<time>2015-07-10T07:36:43.998Z</time>
</trkpt>
<trkpt lat="31.7343550" lon="35.1206970">
<ele>633.161072</ele>
<time>2015-07-10T07:36:49.000Z</time>
</trkpt>
<trkpt lat="31.7344340" lon="35.1207700">
<ele>634.136414</ele>
<time>2015-07-10T07:36:54.996Z</time>
</trkpt>
<trkpt lat="31.7344850" lon="35.1208720">
<ele>635.081299</ele>
<time>2015-07-10T07:37:02.004Z</time>
</trkpt>
<trkpt lat="31.7344780" lon="35.1209810">
<ele>635.568970</ele>
<time>2015-07-10T07:37:10.004Z</time>
</trkpt>
<trkpt lat="31.7343650" lon="35.1210140">
<ele>636.056641</ele>
<time>2015-07-10T07:37:16.000Z</time>
</trkpt>
<trkpt lat="31.7342800" lon="35.1209610">
<ele>636.544312</ele>
<time>2015-07-10T07:37:21.996Z</time>
</trkpt>
<trkpt lat="31.7342110" lon="35.1208840">
<ele>637.001465</ele>
<time>2015-07-10T07:37:28.001Z</time>
</trkpt>
<trkpt lat="31.7341330" lon="35.1208130">
<ele>637.976929</ele>
<time>2015-07-10T07:37:35.000Z</time>
</trkpt>
<trkpt lat="31.7340570" lon="35.1207460">
<ele>638.464539</ele>
<time>2015-07-10T07:37:40.996Z</time>
</trkpt>
<trkpt lat="31.7339810" lon="35.1206860">
<ele>638.464539</ele>
<time>2015-07-10T07:37:47.001Z</time>
</trkpt>
<trkpt lat="31.7338940" lon="35.1206230">
<ele>639.409485</ele>
<time>2015-07-10T07:37:53.999Z</time>
</trkpt>
<trkpt lat="31.7337970" lon="35.1205730">
<ele>639.897095</ele>
<time>2015-07-10T07:38:00.004Z</time>
</trkpt>
<trkpt lat="31.7337090" lon="35.1205210">
<ele>640.384827</ele>
<time>2015-07-10T07:38:04.998Z</time>
</trkpt>
<trkpt lat="31.7336180" lon="35.1204730">
<ele>640.384827</ele>
<time>2015-07-10T07:38:11.003Z</time>
</trkpt>
<trkpt lat="31.7335270" lon="35.1204280">
<ele>640.872498</ele>
<time>2015-07-10T07:38:16.999Z</time>
</trkpt>
<trkpt lat="31.7334430" lon="35.1203750">
<ele>640.872498</ele>
<time>2015-07-10T07:38:23.004Z</time>
</trkpt>
<trkpt lat="31.7333480" lon="35.1203440">
<ele>642.305054</ele>
<time>2015-07-10T07:38:30.002Z</time>
</trkpt>
<trkpt lat="31.7332570" lon="35.1202810">
<ele>642.792664</ele>
<time>2015-07-10T07:38:35.998Z</time>
</trkpt>
<trkpt lat="31.7331750" lon="35.1202260">
<ele>643.249878</ele>
<time>2015-07-10T07:38:42.003Z</time>
</trkpt>
<trkpt lat="31.7330750" lon="35.1201790">
<ele>644.712952</ele>
<time>2015-07-10T07:38:49.001Z</time>
</trkpt>
<trkpt lat="31.7329930" lon="35.1201370">
<ele>644.225281</ele>
<time>2015-07-10T07:38:54.004Z</time>
</trkpt>
<trkpt lat="31.7329030" lon="35.1200760">
<ele>645.170166</ele>
<time>2015-07-10T07:39:00.000Z</time>
</trkpt>
<trkpt lat="31.7328100" lon="35.1200250">
<ele>645.657837</ele>
<time>2015-07-10T07:39:05.996Z</time>
</trkpt>
<trkpt lat="31.7327190" lon="35.1199700">
<ele>646.145508</ele>
<time>2015-07-10T07:39:12.001Z</time>
</trkpt>
<trkpt lat="31.7326220" lon="35.1199260">
<ele>647.090393</ele>
<time>2015-07-10T07:39:17.997Z</time>
</trkpt>
<trkpt lat="31.7325410" lon="35.1198610">
<ele>647.578125</ele>
<time>2015-07-10T07:39:24.002Z</time>
</trkpt>
<trkpt lat="31.7324530" lon="35.1198200">
<ele>648.553467</ele>
<time>2015-07-10T07:39:29.998Z</time>
</trkpt>
<trkpt lat="31.7323630" lon="35.1197700">
<ele>649.041077</ele>
<time>2015-07-10T07:39:36.003Z</time>
</trkpt>
<trkpt lat="31.7322700" lon="35.1197260">
<ele>649.986023</ele>
<time>2015-07-10T07:39:41.999Z</time>
</trkpt>
<trkpt lat="31.7321910" lon="35.1196630">
<ele>650.961365</ele>
<time>2015-07-10T07:39:48.004Z</time>
</trkpt>
<trkpt lat="31.7320990" lon="35.1196120">
<ele>651.418518</ele>
<time>2015-07-10T07:39:54.000Z</time>
</trkpt>
<trkpt lat="31.7320130" lon="35.1195630">
<ele>651.906250</ele>
<time>2015-07-10T07:39:59.996Z</time>
</trkpt>
<trkpt lat="31.7319310" lon="35.1195050">
<ele>652.393860</ele>
<time>2015-07-10T07:40:07.003Z</time>
</trkpt>
<trkpt lat="31.7318460" lon="35.1194440">
<ele>653.338806</ele>
<time>2015-07-10T07:40:12.999Z</time>
</trkpt>
<trkpt lat="31.7317610" lon="35.1193840">
<ele>653.338806</ele>
<time>2015-07-10T07:40:19.004Z</time>
</trkpt>
<trkpt lat="31.7316680" lon="35.1193290">
<ele>654.801880</ele>
<time>2015-07-10T07:40:25.000Z</time>
</trkpt>
<trkpt lat="31.7315810" lon="35.1192840">
<ele>655.289490</ele>
<time>2015-07-10T07:40:31.999Z</time>
</trkpt>
<trkpt lat="31.7314800" lon="35.1192490">
<ele>655.746704</ele>
<time>2015-07-10T07:40:38.997Z</time>
</trkpt>
<trkpt lat="31.7313840" lon="35.1192380">
<ele>656.234375</ele>
<time>2015-07-10T07:40:45.002Z</time>
</trkpt>
<trkpt lat="31.7312950" lon="35.1192080">
<ele>656.722107</ele>
<time>2015-07-10T07:40:50.998Z</time>
</trkpt>
<trkpt lat="31.7312030" lon="35.1191670">
<ele>657.666931</ele>
<time>2015-07-10T07:40:57.003Z</time>
</trkpt>
<trkpt lat="31.7311030" lon="35.1191300">
<ele>658.154663</ele>
<time>2015-07-10T07:41:01.997Z</time>
</trkpt>
<trkpt lat="31.7310120" lon="35.1190800">
<ele>659.130005</ele>
<time>2015-07-10T07:41:08.002Z</time>
</trkpt>
<trkpt lat="31.7309220" lon="35.1190210">
<ele>659.587219</ele>
<time>2015-07-10T07:41:13.998Z</time>
</trkpt>
<trkpt lat="31.7308290" lon="35.1189800">
<ele>660.074890</ele>
<time>2015-07-10T07:41:20.003Z</time>
</trkpt>
<trkpt lat="31.7307240" lon="35.1189520">
<ele>661.507446</ele>
<time>2015-07-10T07:41:25.999Z</time>
</trkpt>
<trkpt lat="31.7306290" lon="35.1189200">
<ele>661.507446</ele>
<time>2015-07-10T07:41:32.004Z</time>
</trkpt>
<trkpt lat="31.7305410" lon="35.1188980">
<ele>662.482788</ele>
<time>2015-07-10T07:41:38.000Z</time>
</trkpt>
<trkpt lat="31.7304510" lon="35.1188500">
<ele>662.970520</ele>
<time>2015-07-10T07:41:43.996Z</time>
</trkpt>
<trkpt lat="31.7303580" lon="35.1187990">
<ele>663.915344</ele>
<time>2015-07-10T07:41:51.003Z</time>
</trkpt>
<trkpt lat="31.7302770" lon="35.1187500">
<ele>664.890686</ele>
<time>2015-07-10T07:41:58.001Z</time>
</trkpt>
<trkpt lat="31.7301970" lon="35.1187040">
<ele>665.835571</ele>
<time>2015-07-10T07:42:05.000Z</time>
</trkpt>
<trkpt lat="31.7301090" lon="35.1186260">
<ele>666.810974</ele>
<time>2015-07-10T07:42:11.998Z</time>
</trkpt>
<trkpt lat="31.7300360" lon="35.1185660">
<ele>667.298645</ele>
<time>2015-07-10T07:42:18.996Z</time>
</trkpt>
<trkpt lat="31.7299560" lon="35.1185110">
<ele>668.731201</ele>
<time>2015-07-10T07:42:26.997Z</time>
</trkpt>
<trkpt lat="31.7298690" lon="35.1184560">
<ele>669.706543</ele>
<time>2015-07-10T07:42:34.998Z</time>
</trkpt>
<trkpt lat="31.7297910" lon="35.1183970">
<ele>671.139099</ele>
<time>2015-07-10T07:42:42.998Z</time>
</trkpt>
<trkpt lat="31.7297090" lon="35.1183500">
<ele>672.114502</ele>
<time>2015-07-10T07:42:50.999Z</time>
</trkpt>
<trkpt lat="31.7296320" lon="35.1182850">
<ele>673.547058</ele>
<time>2015-07-10T07:42:59.000Z</time>
</trkpt>
<trkpt lat="31.7295300" lon="35.1182580">
<ele>674.491882</ele>
<time>2015-07-10T07:43:07.000Z</time>
</trkpt>
<trkpt lat="31.7294410" lon="35.1182120">
<ele>675.954956</ele>
<time>2015-07-10T07:43:15.001Z</time>
</trkpt>
<trkpt lat="31.7293560" lon="35.1181970">
<ele>677.387512</ele>
<time>2015-07-10T07:43:23.002Z</time>
</trkpt>
<trkpt lat="31.7292660" lon="35.1181530">
<ele>678.820129</ele>
<time>2015-07-10T07:43:31.996Z</time>
</trkpt>
<trkpt lat="31.7291750" lon="35.1181340">
<ele>678.820129</ele>
<time>2015-07-10T07:43:39.996Z</time>
</trkpt>
<trkpt lat="31.7291240" lon="35.1180690">
<ele>679.307739</ele>
<time>2015-07-10T07:45:12.997Z</time>
</trkpt>
<trkpt lat="31.7290370" lon="35.1180300">
<ele>680.283081</ele>
<time>2015-07-10T07:45:20.998Z</time>
</trkpt>
<trkpt lat="31.7289420" lon="35.1179910">
<ele>681.228027</ele>
<time>2015-07-10T07:45:27.996Z</time>
</trkpt>
<trkpt lat="31.7288530" lon="35.1179470">
<ele>682.203369</ele>
<time>2015-07-10T07:45:35.997Z</time>
</trkpt>
<trkpt lat="31.7287540" lon="35.1179210">
<ele>683.635864</ele>
<time>2015-07-10T07:45:43.998Z</time>
</trkpt>
<trkpt lat="31.7286710" lon="35.1178720">
<ele>684.123596</ele>
<time>2015-07-10T07:45:50.996Z</time>
</trkpt>
<trkpt lat="31.7285840" lon="35.1178560">
<ele>684.611328</ele>
<time>2015-07-10T07:45:58.003Z</time>
</trkpt>
<trkpt lat="31.7284940" lon="35.1178270">
<ele>685.556152</ele>
<time>2015-07-10T07:46:06.004Z</time>
</trkpt>
<trkpt lat="31.7284030" lon="35.1178030">
<ele>686.531494</ele>
<time>2015-07-10T07:46:13.002Z</time>
</trkpt>
<trkpt lat="31.7283030" lon="35.1178000">
<ele>686.531494</ele>
<time>2015-07-10T07:46:20.001Z</time>
</trkpt>
<trkpt lat="31.7282020" lon="35.1178020">
<ele>687.964111</ele>
<time>2015-07-10T07:46:29.004Z</time>
</trkpt>
<trkpt lat="31.7281050" lon="35.1178130">
<ele>688.908936</ele>
<time>2015-07-10T07:46:37.004Z</time>
</trkpt>
<trkpt lat="31.7280110" lon="35.1178040">
<ele>689.396667</ele>
<time>2015-07-10T07:46:44.003Z</time>
</trkpt>
<trkpt lat="31.7279190" lon="35.1178160">
<ele>690.372009</ele>
<time>2015-07-10T07:46:49.999Z</time>
</trkpt>
<trkpt lat="31.7278110" lon="35.1178310">
<ele>690.829224</ele>
<time>2015-07-10T07:46:56.004Z</time>
</trkpt>
<trkpt lat="31.7277110" lon="35.1178660">
<ele>691.316895</ele>
<time>2015-07-10T07:47:02.000Z</time>
</trkpt>
<trkpt lat="31.7276080" lon="35.1179060">
<ele>692.292236</ele>
<time>2015-07-10T07:47:07.996Z</time>
</trkpt>
<trkpt lat="31.7275150" lon="35.1179280">
<ele>693.237061</ele>
<time>2015-07-10T07:47:15.003Z</time>
</trkpt>
<trkpt lat="31.7274210" lon="35.1179590">
<ele>693.237061</ele>
<time>2015-07-10T07:47:22.001Z</time>
</trkpt>
<trkpt lat="31.7273250" lon="35.1179780">
<ele>694.212524</ele>
<time>2015-07-10T07:47:27.997Z</time>
</trkpt>
<trkpt lat="31.7272230" lon="35.1179970">
<ele>695.157349</ele>
<time>2015-07-10T07:47:34.996Z</time>
</trkpt>
<trkpt lat="31.7271190" lon="35.1180200">
<ele>696.132690</ele>
<time>2015-07-10T07:47:42.003Z</time>
</trkpt>
<trkpt lat="31.7270230" lon="35.1180420">
<ele>696.620422</ele>
<time>2015-07-10T07:47:47.999Z</time>
</trkpt>
<trkpt lat="31.7269260" lon="35.1180520">
<ele>697.565308</ele>
<time>2015-07-10T07:47:54.997Z</time>
</trkpt>
<trkpt lat="31.7268370" lon="35.1180480">
<ele>698.540649</ele>
<time>2015-07-10T07:48:01.996Z</time>
</trkpt>
<trkpt lat="31.7267440" lon="35.1180490">
<ele>698.540649</ele>
<time>2015-07-10T07:48:08.001Z</time>
</trkpt>
<trkpt lat="31.7266530" lon="35.1180650">
<ele>699.973206</ele>
<time>2015-07-10T07:48:13.997Z</time>
</trkpt>
<trkpt lat="31.7265510" lon="35.1180820">
<ele>700.948547</ele>
<time>2015-07-10T07:48:21.004Z</time>
</trkpt>
<trkpt lat="31.7264470" lon="35.1181020">
<ele>701.405762</ele>
<time>2015-07-10T07:48:28.002Z</time>
</trkpt>
<trkpt lat="31.7263560" lon="35.1181010">
<ele>702.381104</ele>
<time>2015-07-10T07:48:35.001Z</time>
</trkpt>
<trkpt lat="31.7262590" lon="35.1181070">
<ele>704.301331</ele>
<time>2015-07-10T07:48:41.999Z</time>
</trkpt>
<trkpt lat="31.7261700" lon="35.1180920">
<ele>704.789063</ele>
<time>2015-07-10T07:48:48.997Z</time>
</trkpt>
<trkpt lat="31.7260680" lon="35.1180770">
<ele>705.246277</ele>
<time>2015-07-10T07:48:56.998Z</time>
</trkpt>
<trkpt lat="31.7259810" lon="35.1180360">
<ele>705.764404</ele>
<time>2015-07-10T07:49:03.003Z</time>
</trkpt>
<trkpt lat="31.7258900" lon="35.1179970">
<ele>706.709290</ele>
<time>2015-07-10T07:49:10.001Z</time>
</trkpt>
<trkpt lat="31.7257910" lon="35.1179760">
<ele>707.196960</ele>
<time>2015-07-10T07:49:17.000Z</time>
</trkpt>
<trkpt lat="31.7256930" lon="35.1179890">
<ele>708.141846</ele>
<time>2015-07-10T07:49:23.998Z</time>
</trkpt>
<trkpt lat="31.7255960" lon="35.1180060">
<ele>709.117188</ele>
<time>2015-07-10T07:49:30.996Z</time>
</trkpt>
<trkpt lat="31.7254920" lon="35.1180250">
<ele>709.604919</ele>
<time>2015-07-10T07:49:38.004Z</time>
</trkpt>
<trkpt lat="31.7253970" lon="35.1179970">
<ele>710.062134</ele>
<time>2015-07-10T07:49:45.002Z</time>
</trkpt>
<trkpt lat="31.7253080" lon="35.1179620">
<ele>710.549744</ele>
<time>2015-07-10T07:49:52.000Z</time>
</trkpt>
<trkpt lat="31.7252370" lon="35.1178890">
<ele>710.549744</ele>
<time>2015-07-10T07:49:57.003Z</time>
</trkpt>
<trkpt lat="31.7251660" lon="35.1178140">
<ele>710.549744</ele>
<time>2015-07-10T07:50:01.997Z</time>
</trkpt>
<trkpt lat="31.7250900" lon="35.1177430">
<ele>710.062134</ele>
<time>2015-07-10T07:50:06.999Z</time>
</trkpt>
<trkpt lat="31.7250180" lon="35.1176380">
<ele>710.062134</ele>
<time>2015-07-10T07:50:12.002Z</time>
</trkpt>
<trkpt lat="31.7249870" lon="35.1175250">
<ele>710.549744</ele>
<time>2015-07-10T07:50:15.000Z</time>
</trkpt>
<trkpt lat="31.7249900" lon="35.1173900">
<ele>710.549744</ele>
<time>2015-07-10T07:50:17.998Z</time>
</trkpt>
<trkpt lat="31.7250150" lon="35.1172540">
<ele>710.062134</ele>
<time>2015-07-10T07:50:20.996Z</time>
</trkpt>
<trkpt lat="31.7250800" lon="35.1171570">
<ele>710.549744</ele>
<time>2015-07-10T07:50:24.003Z</time>
</trkpt>
<trkpt lat="31.7251750" lon="35.1171110">
<ele>710.549744</ele>
<time>2015-07-10T07:50:27.001Z</time>
</trkpt>
<trkpt lat="31.7252760" lon="35.1170610">
<ele>711.037476</ele>
<time>2015-07-10T07:50:29.999Z</time>
</trkpt>
<trkpt lat="31.7253710" lon="35.1170000">
<ele>710.549744</ele>
<time>2015-07-10T07:50:32.997Z</time>
</trkpt>
<trkpt lat="31.7254630" lon="35.1169340">
<ele>711.037476</ele>
<time>2015-07-10T07:50:36.997Z</time>
</trkpt>
<trkpt lat="31.7255720" lon="35.1169070">
<ele>711.525085</ele>
<time>2015-07-10T07:50:42.000Z</time>
</trkpt>
<trkpt lat="31.7256690" lon="35.1169120">
<ele>711.525085</ele>
<time>2015-07-10T07:50:46.000Z</time>
</trkpt>
<trkpt lat="31.7257720" lon="35.1169280">
<ele>711.525085</ele>
<time>2015-07-10T07:50:48.998Z</time>
</trkpt>
<trkpt lat="31.7259140" lon="35.1169510">
<ele>710.549744</ele>
<time>2015-07-10T07:50:51.996Z</time>
</trkpt>
<trkpt lat="31.7260290" lon="35.1169750">
<ele>710.549744</ele>
<time>2015-07-10T07:50:54.001Z</time>
</trkpt>
<trkpt lat="31.7261480" lon="35.1170060">
<ele>710.062134</ele>
<time>2015-07-10T07:50:55.997Z</time>
</trkpt>
<trkpt lat="31.7262780" lon="35.1170440">
<ele>709.604919</ele>
<time>2015-07-10T07:50:58.001Z</time>
</trkpt>
<trkpt lat="31.7264090" lon="35.1170680">
<ele>709.604919</ele>
<time>2015-07-10T07:50:59.997Z</time>
</trkpt>
<trkpt lat="31.7265240" lon="35.1170560">
<ele>710.062134</ele>
<time>2015-07-10T07:51:02.002Z</time>
</trkpt>
<trkpt lat="31.7266140" lon="35.1170210">
<ele>711.037476</ele>
<time>2015-07-10T07:51:03.997Z</time>
</trkpt>
<trkpt lat="31.7267120" lon="35.1169730">
<ele>712.469971</ele>
<time>2015-07-10T07:51:07.998Z</time>
</trkpt>
<trkpt lat="31.7267930" lon="35.1168960">
<ele>714.390259</ele>
<time>2015-07-10T07:51:14.996Z</time>
</trkpt>
<trkpt lat="31.7268870" lon="35.1168400">
<ele>715.365601</ele>
<time>2015-07-10T07:51:22.003Z</time>
</trkpt>
<trkpt lat="31.7269760" lon="35.1168000">
<ele>715.853333</ele>
<time>2015-07-10T07:51:29.002Z</time>
</trkpt>
<trkpt lat="31.7270600" lon="35.1167690">
<ele>716.310486</ele>
<time>2015-07-10T07:51:34.998Z</time>
</trkpt>
<trkpt lat="31.7271600" lon="35.1167460">
<ele>717.285828</ele>
<time>2015-07-10T07:51:41.996Z</time>
</trkpt>
<trkpt lat="31.7272580" lon="35.1167010">
<ele>717.773499</ele>
<time>2015-07-10T07:51:49.003Z</time>
</trkpt>
<trkpt lat="31.7273520" lon="35.1166610">
<ele>717.773499</ele>
<time>2015-07-10T07:51:54.999Z</time>
</trkpt>
<trkpt lat="31.7274490" lon="35.1166130">
<ele>718.230713</ele>
<time>2015-07-10T07:52:01.004Z</time>
</trkpt>
<trkpt lat="31.7275520" lon="35.1165730">
<ele>719.206116</ele>
<time>2015-07-10T07:52:07.000Z</time>
</trkpt>
<trkpt lat="31.7276590" lon="35.1165290">
<ele>719.693726</ele>
<time>2015-07-10T07:52:12.996Z</time>
</trkpt>
<trkpt lat="31.7277520" lon="35.1164900">
<ele>719.693726</ele>
<time>2015-07-10T07:52:16.997Z</time>
</trkpt>
<trkpt lat="31.7278580" lon="35.1164500">
<ele>719.693726</ele>
<time>2015-07-10T07:52:20.997Z</time>
</trkpt>
<trkpt lat="31.7279530" lon="35.1164220">
<ele>719.693726</ele>
<time>2015-07-10T07:52:24.004Z</time>
</trkpt>
<trkpt lat="31.7280500" lon="35.1163920">
<ele>720.150940</ele>
<time>2015-07-10T07:52:27.002Z</time>
</trkpt>
<trkpt lat="31.7281510" lon="35.1163600">
<ele>720.150940</ele>
<time>2015-07-10T07:52:30.000Z</time>
</trkpt>
<trkpt lat="31.7282640" lon="35.1163170">
<ele>720.150940</ele>
<time>2015-07-10T07:52:32.998Z</time>
</trkpt>
<trkpt lat="31.7283960" lon="35.1162910">
<ele>720.150940</ele>
<time>2015-07-10T07:52:35.996Z</time>
</trkpt>
<trkpt lat="31.7285070" lon="35.1162640">
<ele>720.638672</ele>
<time>2015-07-10T07:52:39.003Z</time>
</trkpt>
<trkpt lat="31.7286000" lon="35.1162300">
<ele>720.150940</ele>
<time>2015-07-10T07:52:42.001Z</time>
</trkpt>
<trkpt lat="31.7286990" lon="35.1161820">
<ele>720.638672</ele>
<time>2015-07-10T07:53:26.998Z</time>
</trkpt>
<trkpt lat="31.7287830" lon="35.1161390">
<ele>720.638672</ele>
<time>2015-07-10T07:53:29.996Z</time>
</trkpt>
<trkpt lat="31.7288960" lon="35.1161190">
<ele>720.638672</ele>
<time>2015-07-10T07:53:33.003Z</time>
</trkpt>
<trkpt lat="31.7290160" lon="35.1160800">
<ele>720.638672</ele>
<time>2015-07-10T07:53:36.001Z</time>
</trkpt>
<trkpt lat="31.7291440" lon="35.1160390">
<ele>720.638672</ele>
<time>2015-07-10T07:53:38.999Z</time>
</trkpt>
<trkpt lat="31.7292730" lon="35.1160110">
<ele>720.150940</ele>
<time>2015-07-10T07:53:41.997Z</time>
</trkpt>
<trkpt lat="31.7294010" lon="35.1159800">
<ele>720.638672</ele>
<time>2015-07-10T07:53:45.004Z</time>
</trkpt>
<trkpt lat="31.7295160" lon="35.1159370">
<ele>721.126282</ele>
<time>2015-07-10T07:53:48.002Z</time>
</trkpt>
<trkpt lat="31.7296280" lon="35.1159000">
<ele>721.126282</ele>
<time>2015-07-10T07:53:51.000Z</time>
</trkpt>
<trkpt lat="31.7297460" lon="35.1158650">
<ele>721.614014</ele>
<time>2015-07-10T07:53:53.998Z</time>
</trkpt>
<trkpt lat="31.7298530" lon="35.1158310">
<ele>722.558899</ele>
<time>2015-07-10T07:53:56.996Z</time>
</trkpt>
<trkpt lat="31.7299500" lon="35.1158070">
<ele>722.558899</ele>
<time>2015-07-10T07:54:00.003Z</time>
</trkpt>
<trkpt lat="31.7300360" lon="35.1157880">
<ele>723.534241</ele>
<time>2015-07-10T07:54:41.000Z</time>
</trkpt>
<trkpt lat="31.7301520" lon="35.1157490">
<ele>723.534241</ele>
<time>2015-07-10T07:54:46.002Z</time>
</trkpt>
<trkpt lat="31.7302410" lon="35.1157210">
<ele>723.534241</ele>
<time>2015-07-10T07:54:49.000Z</time>
</trkpt>
<trkpt lat="31.7303360" lon="35.1157030">
<ele>724.021912</ele>
<time>2015-07-10T07:54:51.998Z</time>
</trkpt>
<trkpt lat="31.7304320" lon="35.1156910">
<ele>724.021912</ele>
<time>2015-07-10T07:54:54.996Z</time>
</trkpt>
<trkpt lat="31.7305240" lon="35.1156590">
<ele>724.966797</ele>
<time>2015-07-10T07:54:58.003Z</time>
</trkpt>
<trkpt lat="31.7306170" lon="35.1156060">
<ele>724.966797</ele>
<time>2015-07-10T07:55:01.001Z</time>
</trkpt>
<trkpt lat="31.7307200" lon="35.1155360">
<ele>725.942139</ele>
<time>2015-07-10T07:55:05.002Z</time>
</trkpt>
<trkpt lat="31.7308190" lon="35.1154740">
<ele>726.399353</ele>
<time>2015-07-10T07:55:09.002Z</time>
</trkpt>
<trkpt lat="31.7309050" lon="35.1153930">
<ele>726.399353</ele>
<time>2015-07-10T07:55:13.002Z</time>
</trkpt>
<trkpt lat="31.7310020" lon="35.1153220">
<ele>726.887085</ele>
<time>2015-07-10T07:55:17.003Z</time>
</trkpt>
<trkpt lat="31.7311000" lon="35.1152360">
<ele>727.374695</ele>
<time>2015-07-10T07:55:21.003Z</time>
</trkpt>
<trkpt lat="31.7311760" lon="35.1151690">
<ele>727.374695</ele>
<time>2015-07-10T07:55:24.001Z</time>
</trkpt>
<trkpt lat="31.7312530" lon="35.1150780">
<ele>727.374695</ele>
<time>2015-07-10T07:55:26.999Z</time>
</trkpt>
<trkpt lat="31.7313320" lon="35.1149610">
<ele>727.374695</ele>
<time>2015-07-10T07:55:29.997Z</time>
</trkpt>
<trkpt lat="31.7313990" lon="35.1148510">
<ele>727.374695</ele>
<time>2015-07-10T07:55:33.004Z</time>
</trkpt>
<trkpt lat="31.7314510" lon="35.1147370">
<ele>727.374695</ele>
<time>2015-07-10T07:55:36.002Z</time>
</trkpt>
<trkpt lat="31.7315040" lon="35.1146210">
<ele>727.862427</ele>
<time>2015-07-10T07:55:39.000Z</time>
</trkpt>
<trkpt lat="31.7315640" lon="35.1145120">
<ele>728.350098</ele>
<time>2015-07-10T07:55:41.998Z</time>
</trkpt>
<trkpt lat="31.7316290" lon="35.1143990">
<ele>727.862427</ele>
<time>2015-07-10T07:55:44.996Z</time>
</trkpt>
<trkpt lat="31.7317080" lon="35.1142730">
<ele>726.887085</ele>
<time>2015-07-10T07:55:48.003Z</time>
</trkpt>
<trkpt lat="31.7317780" lon="35.1141750">
<ele>726.887085</ele>
<time>2015-07-10T07:55:49.999Z</time>
</trkpt>
<trkpt lat="31.7318490" lon="35.1140650">
<ele>725.454529</ele>
<time>2015-07-10T07:55:52.003Z</time>
</trkpt>
<trkpt lat="31.7318950" lon="35.1139290">
<ele>724.966797</ele>
<time>2015-07-10T07:55:53.999Z</time>
</trkpt>
<trkpt lat="31.7319030" lon="35.1137720">
<ele>724.479065</ele>
<time>2015-07-10T07:55:56.004Z</time>
</trkpt>
<trkpt lat="31.7318520" lon="35.1136230">
<ele>722.558899</ele>
<time>2015-07-10T07:55:57.999Z</time>
</trkpt>
<trkpt lat="31.7317480" lon="35.1134990">
<ele>722.101685</ele>
<time>2015-07-10T07:56:00.004Z</time>
</trkpt>
<trkpt lat="31.7316180" lon="35.1133990">
<ele>721.614014</ele>
<time>2015-07-10T07:56:02.000Z</time>
</trkpt>
<trkpt lat="31.7314740" lon="35.1133400">
<ele>722.101685</ele>
<time>2015-07-10T07:56:04.004Z</time>
</trkpt>
<trkpt lat="31.7313350" lon="35.1133000">
<ele>721.614014</ele>
<time>2015-07-10T07:56:06.000Z</time>
</trkpt>
<trkpt lat="31.7312120" lon="35.1132620">
<ele>722.558899</ele>
<time>2015-07-10T07:56:07.996Z</time>
</trkpt>
<trkpt lat="31.7310950" lon="35.1132180">
<ele>723.046570</ele>
<time>2015-07-10T07:56:10.000Z</time>
</trkpt>
<trkpt lat="31.7309810" lon="35.1131770">
<ele>723.534241</ele>
<time>2015-07-10T07:56:11.996Z</time>
</trkpt>
<trkpt lat="31.7308690" lon="35.1131390">
<ele>723.046570</ele>
<time>2015-07-10T07:56:14.001Z</time>
</trkpt>
<trkpt lat="31.7307550" lon="35.1130950">
<ele>723.046570</ele>
<time>2015-07-10T07:56:15.996Z</time>
</trkpt>
<trkpt lat="31.7306350" lon="35.1130500">
<ele>722.558899</ele>
<time>2015-07-10T07:56:18.001Z</time>
</trkpt>
<trkpt lat="31.7305130" lon="35.1130000">
<ele>721.614014</ele>
<time>2015-07-10T07:56:19.997Z</time>
</trkpt>
<trkpt lat="31.7303840" lon="35.1129650">
<ele>722.101685</ele>
<time>2015-07-10T07:56:22.001Z</time>
</trkpt>
<trkpt lat="31.7302540" lon="35.1129400">
<ele>721.614014</ele>
<time>2015-07-10T07:56:23.997Z</time>
</trkpt>
<trkpt lat="31.7301260" lon="35.1129270">
<ele>721.126282</ele>
<time>2015-07-10T07:56:26.002Z</time>
</trkpt>
<trkpt lat="31.7300020" lon="35.1129130">
<ele>720.638672</ele>
<time>2015-07-10T07:56:27.997Z</time>
</trkpt>
<trkpt lat="31.7298990" lon="35.1128720">
<ele>720.150940</ele>
<time>2015-07-10T07:56:30.002Z</time>
</trkpt>
<trkpt lat="31.7298380" lon="35.1127760">
<ele>720.150940</ele>
<time>2015-07-10T07:56:31.998Z</time>
</trkpt>
<trkpt lat="31.7298340" lon="35.1126470">
<ele>719.693726</ele>
<time>2015-07-10T07:56:34.002Z</time>
</trkpt>
<trkpt lat="31.7298830" lon="35.1125240">
<ele>719.693726</ele>
<time>2015-07-10T07:56:35.998Z</time>
</trkpt>
<trkpt lat="31.7299730" lon="35.1124260">
<ele>719.693726</ele>
<time>2015-07-10T07:56:38.003Z</time>
</trkpt>
<trkpt lat="31.7300770" lon="35.1123530">
<ele>719.206116</ele>
<time>2015-07-10T07:56:39.998Z</time>
</trkpt>
<trkpt lat="31.7301770" lon="35.1122870">
<ele>719.693726</ele>
<time>2015-07-10T07:56:42.003Z</time>
</trkpt>
<trkpt lat="31.7302640" lon="35.1122140">
<ele>720.150940</ele>
<time>2015-07-10T07:56:43.999Z</time>
</trkpt>
<trkpt lat="31.7303450" lon="35.1121460">
<ele>719.693726</ele>
<time>2015-07-10T07:56:46.003Z</time>
</trkpt>
<trkpt lat="31.7304180" lon="35.1120800">
<ele>720.150940</ele>
<time>2015-07-10T07:56:47.999Z</time>
</trkpt>
<trkpt lat="31.7304880" lon="35.1120070">
<ele>720.150940</ele>
<time>2015-07-10T07:56:50.004Z</time>
</trkpt>
<trkpt lat="31.7305670" lon="35.1119400">
<ele>719.693726</ele>
<time>2015-07-10T07:56:51.999Z</time>
</trkpt>
<trkpt lat="31.7306810" lon="35.1118600">
<ele>720.150940</ele>
<time>2015-07-10T07:56:54.997Z</time>
</trkpt>
<trkpt lat="31.7307790" lon="35.1118120">
<ele>719.693726</ele>
<time>2015-07-10T07:56:58.998Z</time>
</trkpt>
<trkpt lat="31.7308420" lon="35.1117150">
<ele>720.150940</ele>
<time>2015-07-10T07:57:31.000Z</time>
</trkpt>
<trkpt lat="31.7309150" lon="35.1116090">
<ele>719.693726</ele>
<time>2015-07-10T07:57:35.001Z</time>
</trkpt>
<trkpt lat="31.7309820" lon="35.1114890">
<ele>719.206116</ele>
<time>2015-07-10T07:57:37.999Z</time>
</trkpt>
<trkpt lat="31.7310180" lon="35.1113830">
<ele>718.718384</ele>
<time>2015-07-10T07:57:40.003Z</time>
</trkpt>
<trkpt lat="31.7310610" lon="35.1112730">
<ele>718.718384</ele>
<time>2015-07-10T07:57:41.999Z</time>
</trkpt>
<trkpt lat="31.7311120" lon="35.1111580">
<ele>718.718384</ele>
<time>2015-07-10T07:57:44.004Z</time>
</trkpt>
<trkpt lat="31.7311670" lon="35.1110400">
<ele>718.230713</ele>
<time>2015-07-10T07:57:45.999Z</time>
</trkpt>
<trkpt lat="31.7312170" lon="35.1109190">
<ele>718.230713</ele>
<time>2015-07-10T07:57:48.004Z</time>
</trkpt>
<trkpt lat="31.7312590" lon="35.1108010">
<ele>718.718384</ele>
<time>2015-07-10T07:57:50.000Z</time>
</trkpt>
<trkpt lat="31.7312900" lon="35.1106870">
<ele>719.206116</ele>
<time>2015-07-10T07:57:52.004Z</time>
</trkpt>
<trkpt lat="31.7313170" lon="35.1105780">
<ele>718.718384</ele>
<time>2015-07-10T07:57:54.000Z</time>
</trkpt>
<trkpt lat="31.7313460" lon="35.1104680">
<ele>719.206116</ele>
<time>2015-07-10T07:57:55.996Z</time>
</trkpt>
<trkpt lat="31.7313640" lon="35.1103510">
<ele>719.206116</ele>
<time>2015-07-10T07:57:58.000Z</time>
</trkpt>
<trkpt lat="31.7313470" lon="35.1102250">
<ele>718.718384</ele>
<time>2015-07-10T07:57:59.996Z</time>
</trkpt>
<trkpt lat="31.7312850" lon="35.1101150">
<ele>718.718384</ele>
<time>2015-07-10T07:58:02.001Z</time>
</trkpt>
<trkpt lat="31.7312070" lon="35.1100210">
<ele>718.230713</ele>
<time>2015-07-10T07:58:03.996Z</time>
</trkpt>
<trkpt lat="31.7311210" lon="35.1099260">
<ele>718.718384</ele>
<time>2015-07-10T07:58:06.001Z</time>
</trkpt>
<trkpt lat="31.7310390" lon="35.1098360">
<ele>718.718384</ele>
<time>2015-07-10T07:58:07.997Z</time>
</trkpt>
<trkpt lat="31.7309620" lon="35.1097480">
<ele>718.230713</ele>
<time>2015-07-10T07:58:10.001Z</time>
</trkpt>
<trkpt lat="31.7308820" lon="35.1096700">
<ele>718.718384</ele>
<time>2015-07-10T07:58:11.997Z</time>
</trkpt>
<trkpt lat="31.7308090" lon="35.1095940">
<ele>719.206116</ele>
<time>2015-07-10T07:58:14.002Z</time>
</trkpt>
<trkpt lat="31.7307140" lon="35.1094920">
<ele>719.206116</ele>
<time>2015-07-10T07:58:17.000Z</time>
</trkpt>
<trkpt lat="31.7306260" lon="35.1094030">
<ele>720.150940</ele>
<time>2015-07-10T07:58:19.998Z</time>
</trkpt>
<trkpt lat="31.7305380" lon="35.1093260">
<ele>720.638672</ele>
<time>2015-07-10T07:58:22.996Z</time>
</trkpt>
<trkpt lat="31.7304640" lon="35.1092630">
<ele>720.638672</ele>
<time>2015-07-10T07:58:26.003Z</time>
</trkpt>
<trkpt lat="31.7303780" lon="35.1091770">
<ele>721.126282</ele>
<time>2015-07-10T07:58:30.003Z</time>
</trkpt>
<trkpt lat="31.7303110" lon="35.1090650">
<ele>722.101685</ele>
<time>2015-07-10T07:58:34.997Z</time>
</trkpt>
<trkpt lat="31.7302890" lon="35.1089250">
<ele>722.101685</ele>
<time>2015-07-10T07:58:38.997Z</time>
</trkpt>
<trkpt lat="31.7302860" lon="35.1087860">
<ele>722.558899</ele>
<time>2015-07-10T07:58:42.997Z</time>
</trkpt>
<trkpt lat="31.7303100" lon="35.1086720">
<ele>723.046570</ele>
<time>2015-07-10T07:58:46.998Z</time>
</trkpt>
<trkpt lat="31.7303670" lon="35.1085480">
<ele>723.046570</ele>
<time>2015-07-10T07:58:50.998Z</time>
</trkpt>
<trkpt lat="31.7304110" lon="35.1084420">
<ele>723.046570</ele>
<time>2015-07-10T07:58:53.996Z</time>
</trkpt>
<trkpt lat="31.7304520" lon="35.1083420">
<ele>723.534241</ele>
<time>2015-07-10T07:58:57.003Z</time>
</trkpt>
<trkpt lat="31.7304890" lon="35.1082430">
<ele>724.021912</ele>
<time>2015-07-10T07:59:00.001Z</time>
</trkpt>
<trkpt lat="31.7305280" lon="35.1081400">
<ele>724.966797</ele>
<time>2015-07-10T07:59:05.004Z</time>
</trkpt>
<trkpt lat="31.7305930" lon="35.1080420">
<ele>724.966797</ele>
<time>2015-07-10T07:59:11.000Z</time>
</trkpt>
<trkpt lat="31.7306690" lon="35.1079380">
<ele>725.942139</ele>
<time>2015-07-10T07:59:17.998Z</time>
</trkpt>
<trkpt lat="31.7307550" lon="35.1078680">
<ele>726.887085</ele>
<time>2015-07-10T07:59:23.001Z</time>
</trkpt>
<trkpt lat="31.7308350" lon="35.1078050">
<ele>727.862427</ele>
<time>2015-07-10T07:59:29.999Z</time>
</trkpt>
<trkpt lat="31.7309180" lon="35.1077340">
<ele>728.807312</ele>
<time>2015-07-10T07:59:36.004Z</time>
</trkpt>
<trkpt lat="31.7309610" lon="35.1076410">
<ele>729.782654</ele>
<time>2015-07-10T07:59:43.996Z</time>
</trkpt>
<trkpt lat="31.7309310" lon="35.1075480">
<ele>732.190552</ele>
<time>2015-07-10T07:59:51.996Z</time>
</trkpt>
<trkpt lat="31.7308380" lon="35.1075270">
<ele>733.135437</ele>
<time>2015-07-10T07:59:59.997Z</time>
</trkpt>
<trkpt lat="31.7307580" lon="35.1074600">
<ele>733.623108</ele>
<time>2015-07-10T08:00:09.000Z</time>
</trkpt>
<trkpt lat="31.7306750" lon="35.1073940">
<ele>735.055725</ele>
<time>2015-07-10T08:00:18.003Z</time>
</trkpt>
<trkpt lat="31.7305760" lon="35.1073440">
<ele>736.031067</ele>
<time>2015-07-10T08:00:26.997Z</time>
</trkpt>
<trkpt lat="31.7304740" lon="35.1073190">
<ele>736.031067</ele>
<time>2015-07-10T08:00:34.998Z</time>
</trkpt>
<trkpt lat="31.7303740" lon="35.1073470">
<ele>736.975891</ele>
<time>2015-07-10T08:00:41.996Z</time>
</trkpt>
<trkpt lat="31.7302810" lon="35.1073760">
<ele>737.463623</ele>
<time>2015-07-10T08:00:48.001Z</time>
</trkpt>
<trkpt lat="31.7301910" lon="35.1074310">
<ele>737.951294</ele>
<time>2015-07-10T08:00:53.997Z</time>
</trkpt>
<trkpt lat="31.7300870" lon="35.1074300">
<ele>738.438965</ele>
<time>2015-07-10T08:01:00.002Z</time>
</trkpt>
<trkpt lat="31.7299780" lon="35.1074540">
<ele>739.383850</ele>
<time>2015-07-10T08:01:07.000Z</time>
</trkpt>
<trkpt lat="31.7298740" lon="35.1074430">
<ele>740.816406</ele>
<time>2015-07-10T08:01:12.996Z</time>
</trkpt>
<trkpt lat="31.7297780" lon="35.1074450">
<ele>741.304138</ele>
<time>2015-07-10T08:01:19.001Z</time>
</trkpt>
<trkpt lat="31.7296790" lon="35.1074760">
<ele>742.279480</ele>
<time>2015-07-10T08:01:26.000Z</time>
</trkpt>
<trkpt lat="31.7295690" lon="35.1074930">
<ele>742.279480</ele>
<time>2015-07-10T08:01:31.996Z</time>
</trkpt>
<trkpt lat="31.7295240" lon="35.1073910">
<ele>742.767090</ele>
<time>2015-07-10T08:01:38.001Z</time>
</trkpt>
<trkpt lat="31.7294920" lon="35.1072690">
<ele>742.279480</ele>
<time>2015-07-10T08:01:43.997Z</time>
</trkpt>
<trkpt lat="31.7294420" lon="35.1071640">
<ele>741.791748</ele>
<time>2015-07-10T08:01:47.004Z</time>
</trkpt>
<trkpt lat="31.7293840" lon="35.1070590">
<ele>740.816406</ele>
<time>2015-07-10T08:01:50.002Z</time>
</trkpt>
<trkpt lat="31.7293240" lon="35.1069340">
<ele>739.383850</ele>
<time>2015-07-10T08:01:53.000Z</time>
</trkpt>
<trkpt lat="31.7292690" lon="35.1068080">
<ele>737.951294</ele>
<time>2015-07-10T08:01:55.998Z</time>
</trkpt>
<trkpt lat="31.7292680" lon="35.1066800">
<ele>736.518677</ele>
<time>2015-07-10T08:01:58.996Z</time>
</trkpt>
<trkpt lat="31.7293120" lon="35.1065800">
<ele>735.055725</ele>
<time>2015-07-10T08:02:02.003Z</time>
</trkpt>
<trkpt lat="31.7293480" lon="35.1064830">
<ele>733.623108</ele>
<time>2015-07-10T08:02:06.003Z</time>
</trkpt>
<trkpt lat="31.7292870" lon="35.1064020">
<ele>732.647766</ele>
<time>2015-07-10T08:02:09.001Z</time>
</trkpt>
<trkpt lat="31.7291680" lon="35.1063570">
<ele>731.702881</ele>
<time>2015-07-10T08:02:11.999Z</time>
</trkpt>
<trkpt lat="31.7290700" lon="35.1062850">
<ele>730.727478</ele>
<time>2015-07-10T08:02:15.999Z</time>
</trkpt>
<trkpt lat="31.7290910" lon="35.1061600">
<ele>729.782654</ele>
<time>2015-07-10T08:02:20.000Z</time>
</trkpt>
<trkpt lat="31.7291550" lon="35.1060730">
<ele>727.862427</ele>
<time>2015-07-10T08:02:22.998Z</time>
</trkpt>
<trkpt lat="31.7292380" lon="35.1059740">
<ele>726.399353</ele>
<time>2015-07-10T08:02:25.996Z</time>
</trkpt>
<trkpt lat="31.7292920" lon="35.1058520">
<ele>724.479065</ele>
<time>2015-07-10T08:02:29.003Z</time>
</trkpt>
<trkpt lat="31.7292870" lon="35.1056980">
<ele>723.046570</ele>
<time>2015-07-10T08:02:32.001Z</time>
</trkpt>
<trkpt lat="31.7293080" lon="35.1055760">
<ele>722.558899</ele>
<time>2015-07-10T08:02:33.996Z</time>
</trkpt>
<trkpt lat="31.7293490" lon="35.1054650">
<ele>722.558899</ele>
<time>2015-07-10T08:02:36.001Z</time>
</trkpt>
<trkpt lat="31.7293790" lon="35.1053480">
<ele>722.101685</ele>
<time>2015-07-10T08:02:37.997Z</time>
</trkpt>
<trkpt lat="31.7294210" lon="35.1052360">
<ele>721.126282</ele>
<time>2015-07-10T08:02:40.001Z</time>
</trkpt>
<trkpt lat="31.7294640" lon="35.1051230">
<ele>721.126282</ele>
<time>2015-07-10T08:02:41.997Z</time>
</trkpt>
<trkpt lat="31.7294910" lon="35.1050070">
<ele>720.150940</ele>
<time>2015-07-10T08:02:44.002Z</time>
</trkpt>
<trkpt lat="31.7295160" lon="35.1048990">
<ele>719.693726</ele>
<time>2015-07-10T08:02:45.997Z</time>
</trkpt>
<trkpt lat="31.7295430" lon="35.1047890">
<ele>718.718384</ele>
<time>2015-07-10T08:02:48.002Z</time>
</trkpt>
<trkpt lat="31.7295670" lon="35.1046750">
<ele>718.718384</ele>
<time>2015-07-10T08:02:49.998Z</time>
</trkpt>
<trkpt lat="31.7295920" lon="35.1045470">
<ele>717.773499</ele>
<time>2015-07-10T08:02:52.002Z</time>
</trkpt>
<trkpt lat="31.7296190" lon="35.1044070">
<ele>717.285828</ele>
<time>2015-07-10T08:02:53.998Z</time>
</trkpt>
<trkpt lat="31.7296470" lon="35.1042700">
<ele>715.853333</ele>
<time>2015-07-10T08:02:56.003Z</time>
</trkpt>
<trkpt lat="31.7296780" lon="35.1041380">
<ele>714.877869</ele>
<time>2015-07-10T08:02:57.998Z</time>
</trkpt>
<trkpt lat="31.7297080" lon="35.1040020">
<ele>714.877869</ele>
<time>2015-07-10T08:03:00.003Z</time>
</trkpt>
<trkpt lat="31.7297340" lon="35.1038640">
<ele>712.957703</ele>
<time>2015-07-10T08:03:01.999Z</time>
</trkpt>
<trkpt lat="31.7297700" lon="35.1037150">
<ele>711.982300</ele>
<time>2015-07-10T08:03:04.003Z</time>
</trkpt>
<trkpt lat="31.7298200" lon="35.1035640">
<ele>711.525085</ele>
<time>2015-07-10T08:03:05.999Z</time>
</trkpt>
<trkpt lat="31.7298800" lon="35.1034110">
<ele>711.037476</ele>
<time>2015-07-10T08:03:08.004Z</time>
</trkpt>
<trkpt lat="31.7299400" lon="35.1032580">
<ele>710.062134</ele>
<time>2015-07-10T08:03:09.999Z</time>
</trkpt>
<trkpt lat="31.7300080" lon="35.1031070">
<ele>709.604919</ele>
<time>2015-07-10T08:03:12.004Z</time>
</trkpt>
<trkpt lat="31.7300800" lon="35.1029600">
<ele>709.117188</ele>
<time>2015-07-10T08:03:14.000Z</time>
</trkpt>
<trkpt lat="31.7301430" lon="35.1028100">
<ele>707.684631</ele>
<time>2015-07-10T08:03:16.004Z</time>
</trkpt>
<trkpt lat="31.7302210" lon="35.1026550">
<ele>706.709290</ele>
<time>2015-07-10T08:03:18.000Z</time>
</trkpt>
<trkpt lat="31.7303100" lon="35.1025360">
<ele>706.221619</ele>
<time>2015-07-10T08:03:19.996Z</time>
</trkpt>
<trkpt lat="31.7303950" lon="35.1024470">
<ele>706.221619</ele>
<time>2015-07-10T08:03:22.000Z</time>
</trkpt>
<trkpt lat="31.7304700" lon="35.1023890">
<ele>706.709290</ele>
<time>2015-07-10T08:03:23.996Z</time>
</trkpt>
<trkpt lat="31.7305740" lon="35.1023360">
<ele>706.221619</ele>
<time>2015-07-10T08:03:27.003Z</time>
</trkpt>
<trkpt lat="31.7306610" lon="35.1022720">
<ele>706.709290</ele>
<time>2015-07-10T08:03:30.001Z</time>
</trkpt>
<trkpt lat="31.7307430" lon="35.1021980">
<ele>706.709290</ele>
<time>2015-07-10T08:03:32.999Z</time>
</trkpt>
<trkpt lat="31.7308240" lon="35.1021140">
<ele>706.709290</ele>
<time>2015-07-10T08:03:35.997Z</time>
</trkpt>
<trkpt lat="31.7309020" lon="35.1020150">
<ele>706.709290</ele>
<time>2015-07-10T08:03:39.004Z</time>
</trkpt>
<trkpt lat="31.7309970" lon="35.1019070">
<ele>706.221619</ele>
<time>2015-07-10T08:03:42.002Z</time>
</trkpt>
<trkpt lat="31.7310750" lon="35.1018300">
<ele>706.221619</ele>
<time>2015-07-10T08:03:43.998Z</time>
</trkpt>
<trkpt lat="31.7311540" lon="35.1017560">
<ele>705.764404</ele>
<time>2015-07-10T08:03:46.002Z</time>
</trkpt>
<trkpt lat="31.7312390" lon="35.1016830">
<ele>705.246277</ele>
<time>2015-07-10T08:03:47.998Z</time>
</trkpt>
<trkpt lat="31.7313310" lon="35.1016020">
<ele>704.789063</ele>
<time>2015-07-10T08:03:50.003Z</time>
</trkpt>
<trkpt lat="31.7314230" lon="35.1015210">
<ele>704.301331</ele>
<time>2015-07-10T08:03:51.998Z</time>
</trkpt>
<trkpt lat="31.7315220" lon="35.1014350">
<ele>703.813721</ele>
<time>2015-07-10T08:03:54.003Z</time>
</trkpt>
<trkpt lat="31.7316340" lon="35.1013590">
<ele>703.325989</ele>
<time>2015-07-10T08:03:55.999Z</time>
</trkpt>
<trkpt lat="31.7317400" lon="35.1012920">
<ele>703.325989</ele>
<time>2015-07-10T08:03:58.003Z</time>
</trkpt>
<trkpt lat="31.7318340" lon="35.1012270">
<ele>702.868774</ele>
<time>2015-07-10T08:03:59.999Z</time>
</trkpt>
<trkpt lat="31.7319200" lon="35.1011520">
<ele>702.868774</ele>
<time>2015-07-10T08:04:02.004Z</time>
</trkpt>
<trkpt lat="31.7319900" lon="35.1010720">
<ele>702.868774</ele>
<time>2015-07-10T08:04:03.999Z</time>
</trkpt>
<trkpt lat="31.7320540" lon="35.1009840">
<ele>702.381104</ele>
<time>2015-07-10T08:04:06.004Z</time>
</trkpt>
<trkpt lat="31.7321180" lon="35.1008930">
<ele>702.868774</ele>
<time>2015-07-10T08:04:08.000Z</time>
</trkpt>
<trkpt lat="31.7321760" lon="35.1008080">
<ele>702.868774</ele>
<time>2015-07-10T08:04:10.004Z</time>
</trkpt>
<trkpt lat="31.7322230" lon="35.1006640">
<ele>702.868774</ele>
<time>2015-07-10T08:04:13.002Z</time>
</trkpt>
<trkpt lat="31.7322470" lon="35.1005040">
<ele>702.381104</ele>
<time>2015-07-10T08:04:16.000Z</time>
</trkpt>
<trkpt lat="31.7322580" lon="35.1003950">
<ele>701.893433</ele>
<time>2015-07-10T08:04:17.996Z</time>
</trkpt>
<trkpt lat="31.7322710" lon="35.1002750">
<ele>701.893433</ele>
<time>2015-07-10T08:04:20.001Z</time>
</trkpt>
<trkpt lat="31.7322830" lon="35.1001500">
<ele>701.405762</ele>
<time>2015-07-10T08:04:21.996Z</time>
</trkpt>
<trkpt lat="31.7322790" lon="35.1000200">
<ele>700.948547</ele>
<time>2015-07-10T08:04:24.001Z</time>
</trkpt>
<trkpt lat="31.7322340" lon="35.0998920">
<ele>699.973206</ele>
<time>2015-07-10T08:04:26.999Z</time>
</trkpt>
<trkpt lat="31.7321470" lon="35.0998090">
<ele>698.540649</ele>
<time>2015-07-10T08:04:30.999Z</time>
</trkpt>
<trkpt lat="31.7320610" lon="35.0997610">
<ele>697.077576</ele>
<time>2015-07-10T08:04:35.000Z</time>
</trkpt>
<trkpt lat="31.7319610" lon="35.0996870">
<ele>695.645081</ele>
<time>2015-07-10T08:04:39.000Z</time>
</trkpt>
<trkpt lat="31.7318620" lon="35.0996240">
<ele>694.700134</ele>
<time>2015-07-10T08:04:43.000Z</time>
</trkpt>
<trkpt lat="31.7317790" lon="35.0995660">
<ele>694.700134</ele>
<time>2015-07-10T08:04:45.998Z</time>
</trkpt>
<trkpt lat="31.7316680" lon="35.0994660">
<ele>692.779907</ele>
<time>2015-07-10T08:04:48.996Z</time>
</trkpt>
<trkpt lat="31.7315600" lon="35.0993590">
<ele>691.316895</ele>
<time>2015-07-10T08:04:51.001Z</time>
</trkpt>
<trkpt lat="31.7314460" lon="35.0992350">
<ele>689.396667</ele>
<time>2015-07-10T08:04:52.997Z</time>
</trkpt>
<trkpt lat="31.7313360" lon="35.0991090">
<ele>687.476379</ele>
<time>2015-07-10T08:04:55.001Z</time>
</trkpt>
<trkpt lat="31.7312230" lon="35.0989860">
<ele>686.043884</ele>
<time>2015-07-10T08:04:56.997Z</time>
</trkpt>
<trkpt lat="31.7310890" lon="35.0988440">
<ele>682.660522</ele>
<time>2015-07-10T08:04:59.002Z</time>
</trkpt>
<trkpt lat="31.7310130" lon="35.0987690">
<ele>681.228027</ele>
<time>2015-07-10T08:05:00.004Z</time>
</trkpt>
<trkpt lat="31.7309360" lon="35.0987040">
<ele>680.740295</ele>
<time>2015-07-10T08:05:00.997Z</time>
</trkpt>
<trkpt lat="31.7308150" lon="35.0986140">
<ele>680.283081</ele>
<time>2015-07-10T08:05:03.002Z</time>
</trkpt>
<trkpt lat="31.7307290" lon="35.0985510">
<ele>679.307739</ele>
<time>2015-07-10T08:05:04.998Z</time>
</trkpt>
<trkpt lat="31.7306420" lon="35.0984610">
<ele>679.795471</ele>
<time>2015-07-10T08:05:07.996Z</time>
</trkpt>
<trkpt lat="31.7305710" lon="35.0983790">
<ele>682.660522</ele>
<time>2015-07-10T08:05:14.001Z</time>
</trkpt>
<trkpt lat="31.7304990" lon="35.0982970">
<ele>684.123596</ele>
<time>2015-07-10T08:05:20.999Z</time>
</trkpt>
<trkpt lat="31.7304270" lon="35.0982240">
<ele>685.068481</ele>
<time>2015-07-10T08:05:27.004Z</time>
</trkpt>
<trkpt lat="31.7303550" lon="35.0981510">
<ele>686.043884</ele>
<time>2015-07-10T08:05:33.000Z</time>
</trkpt>
<trkpt lat="31.7302880" lon="35.0980800">
<ele>687.476379</ele>
<time>2015-07-10T08:05:39.998Z</time>
</trkpt>
<trkpt lat="31.7302090" lon="35.0980280">
<ele>688.908936</ele>
<time>2015-07-10T08:05:47.999Z</time>
</trkpt>
<trkpt lat="31.7301350" lon="35.0979600">
<ele>689.396667</ele>
<time>2015-07-10T08:05:56.000Z</time>
</trkpt>
<trkpt lat="31.7300700" lon="35.0978780">
<ele>690.829224</ele>
<time>2015-07-10T08:06:05.003Z</time>
</trkpt>
<trkpt lat="31.7300130" lon="35.0977810">
<ele>692.779907</ele>
<time>2015-07-10T08:06:14.999Z</time>
</trkpt>
<trkpt lat="31.7299700" lon="35.0976820">
<ele>694.700134</ele>
<time>2015-07-10T08:06:25.998Z</time>
</trkpt>
<trkpt lat="31.7299240" lon="35.0975860">
<ele>696.620422</ele>
<time>2015-07-10T08:06:35.001Z</time>
</trkpt>
<trkpt lat="31.7298880" lon="35.0974820">
<ele>698.540649</ele>
<time>2015-07-10T08:06:44.997Z</time>
</trkpt>
<trkpt lat="31.7299140" lon="35.0973780">
<ele>699.028320</ele>
<time>2015-07-10T08:06:52.004Z</time>
</trkpt>
<trkpt lat="31.7299650" lon="35.0972890">
<ele>699.028320</ele>
<time>2015-07-10T08:06:56.998Z</time>
</trkpt>
<trkpt lat="31.7300280" lon="35.0971820">
<ele>699.028320</ele>
<time>2015-07-10T08:07:02.001Z</time>
</trkpt>
<trkpt lat="31.7301050" lon="35.0971190">
<ele>699.485474</ele>
<time>2015-07-10T08:07:07.003Z</time>
</trkpt>
<trkpt lat="31.7301910" lon="35.0970660">
<ele>699.028320</ele>
<time>2015-07-10T08:07:11.004Z</time>
</trkpt>
<trkpt lat="31.7302890" lon="35.0970460">
<ele>699.485474</ele>
<time>2015-07-10T08:07:15.004Z</time>
</trkpt>
<trkpt lat="31.7303970" lon="35.0970070">
<ele>699.485474</ele>
<time>2015-07-10T08:07:19.998Z</time>
</trkpt>
<trkpt lat="31.7304990" lon="35.0969620">
<ele>699.028320</ele>
<time>2015-07-10T08:07:23.998Z</time>
</trkpt>
<trkpt lat="31.7305950" lon="35.0969330">
<ele>699.485474</ele>
<time>2015-07-10T08:07:26.996Z</time>
</trkpt>
<trkpt lat="31.7307030" lon="35.0969000">
<ele>699.485474</ele>
<time>2015-07-10T08:07:30.003Z</time>
</trkpt>
<trkpt lat="31.7308120" lon="35.0968660">
<ele>699.485474</ele>
<time>2015-07-10T08:07:33.001Z</time>
</trkpt>
<trkpt lat="31.7309010" lon="35.0968400">
<ele>699.485474</ele>
<time>2015-07-10T08:07:35.999Z</time>
</trkpt>
<trkpt lat="31.7310100" lon="35.0968120">
<ele>699.028320</ele>
<time>2015-07-10T08:07:39.999Z</time>
</trkpt>
<trkpt lat="31.7311050" lon="35.0967570">
<ele>699.973206</ele>
<time>2015-07-10T08:07:45.002Z</time>
</trkpt>
<trkpt lat="31.7311890" lon="35.0967060">
<ele>700.460938</ele>
<time>2015-07-10T08:07:50.998Z</time>
</trkpt>
<trkpt lat="31.7312580" lon="35.0966570">
<ele>700.948547</ele>
<time>2015-07-10T08:08:00.001Z</time>
</trkpt>
<trkpt lat="31.7311670" lon="35.0966070">
<ele>700.948547</ele>
<time>2015-07-10T08:08:09.004Z</time>
</trkpt>
<trkpt lat="31.7310650" lon="35.0966290">
<ele>702.381104</ele>
<time>2015-07-10T08:08:17.998Z</time>
</trkpt>
<trkpt lat="31.7309610" lon="35.0966590">
<ele>702.868774</ele>
<time>2015-07-10T08:08:28.003Z</time>
</trkpt>
<trkpt lat="31.7308520" lon="35.0966640">
<ele>703.325989</ele>
<time>2015-07-10T08:09:00.999Z</time>
</trkpt>
<trkpt lat="31.7307790" lon="35.0966640">
<ele>704.301331</ele>
<time>2015-07-10T08:09:07.004Z</time>
</trkpt>
<trkpt lat="31.7306810" lon="35.0966320">
<ele>705.246277</ele>
<time>2015-07-10T08:09:13.000Z</time>
</trkpt>
<trkpt lat="31.7305860" lon="35.0966370">
<ele>705.764404</ele>
<time>2015-07-10T08:09:18.996Z</time>
</trkpt>
<trkpt lat="31.7304900" lon="35.0966390">
<ele>706.221619</ele>
<time>2015-07-10T08:09:25.001Z</time>
</trkpt>
<trkpt lat="31.7303890" lon="35.0966340">
<ele>707.196960</ele>
<time>2015-07-10T08:09:32.000Z</time>
</trkpt>
<trkpt lat="31.7302960" lon="35.0966340">
<ele>708.141846</ele>
<time>2015-07-10T08:09:38.998Z</time>
</trkpt>
<trkpt lat="31.7301890" lon="35.0966020">
<ele>708.629517</ele>
<time>2015-07-10T08:09:46.999Z</time>
</trkpt>
<trkpt lat="31.7300920" lon="35.0965670">
<ele>709.117188</ele>
<time>2015-07-10T08:09:53.997Z</time>
</trkpt>
<trkpt lat="31.7299980" lon="35.0965520">
<ele>710.062134</ele>
<time>2015-07-10T08:10:01.004Z</time>
</trkpt>
<trkpt lat="31.7299010" lon="35.0965470">
<ele>711.037476</ele>
<time>2015-07-10T08:10:08.003Z</time>
</trkpt>
<trkpt lat="31.7298050" lon="35.0965330">
<ele>710.062134</ele>
<time>2015-07-10T08:10:15.001Z</time>
</trkpt>
<trkpt lat="31.7297060" lon="35.0965420">
<ele>711.982300</ele>
<time>2015-07-10T08:10:21.999Z</time>
</trkpt>
<trkpt lat="31.7296090" lon="35.0965440">
<ele>712.469971</ele>
<time>2015-07-10T08:10:28.998Z</time>
</trkpt>
<trkpt lat="31.7295170" lon="35.0965610">
<ele>713.445374</ele>
<time>2015-07-10T08:10:35.996Z</time>
</trkpt>
<trkpt lat="31.7294220" lon="35.0965680">
<ele>713.933044</ele>
<time>2015-07-10T08:10:43.003Z</time>
</trkpt>
<trkpt lat="31.7293290" lon="35.0965540">
<ele>714.877869</ele>
<time>2015-07-10T08:10:50.002Z</time>
</trkpt>
<trkpt lat="31.7292370" lon="35.0965240">
<ele>714.390259</ele>
<time>2015-07-10T08:11:29.003Z</time>
</trkpt>
<trkpt lat="31.7291470" lon="35.0965070">
<ele>714.877869</ele>
<time>2015-07-10T08:11:33.996Z</time>
</trkpt>
<trkpt lat="31.7290450" lon="35.0964970">
<ele>714.390259</ele>
<time>2015-07-10T08:11:37.997Z</time>
</trkpt>
<trkpt lat="31.7289360" lon="35.0964890">
<ele>714.390259</ele>
<time>2015-07-10T08:11:41.997Z</time>
</trkpt>
<trkpt lat="31.7288430" lon="35.0964820">
<ele>714.877869</ele>
<time>2015-07-10T08:11:45.004Z</time>
</trkpt>
<trkpt lat="31.7287490" lon="35.0964460">
<ele>714.390259</ele>
<time>2015-07-10T08:11:48.002Z</time>
</trkpt>
<trkpt lat="31.7286560" lon="35.0963760">
<ele>714.390259</ele>
<time>2015-07-10T08:11:51.000Z</time>
</trkpt>
<trkpt lat="31.7285590" lon="35.0962750">
<ele>713.445374</ele>
<time>2015-07-10T08:11:53.998Z</time>
</trkpt>
<trkpt lat="31.7284820" lon="35.0962030">
<ele>712.957703</ele>
<time>2015-07-10T08:11:56.003Z</time>
</trkpt>
<trkpt lat="31.7283980" lon="35.0961290">
<ele>712.469971</ele>
<time>2015-07-10T08:11:57.998Z</time>
</trkpt>
<trkpt lat="31.7282970" lon="35.0960550">
<ele>711.525085</ele>
<time>2015-07-10T08:12:00.003Z</time>
</trkpt>
<trkpt lat="31.7281810" lon="35.0959790">
<ele>711.037476</ele>
<time>2015-07-10T08:12:01.999Z</time>
</trkpt>
<trkpt lat="31.7280670" lon="35.0959040">
<ele>709.604919</ele>
<time>2015-07-10T08:12:04.003Z</time>
</trkpt>
<trkpt lat="31.7279630" lon="35.0958360">
<ele>708.629517</ele>
<time>2015-07-10T08:12:05.999Z</time>
</trkpt>
<trkpt lat="31.7278760" lon="35.0957750">
<ele>707.684631</ele>
<time>2015-07-10T08:12:08.004Z</time>
</trkpt>
<trkpt lat="31.7277890" lon="35.0957180">
<ele>706.709290</ele>
<time>2015-07-10T08:12:09.999Z</time>
</trkpt>
<trkpt lat="31.7276790" lon="35.0957060">
<ele>705.764404</ele>
<time>2015-07-10T08:12:12.004Z</time>
</trkpt>
<trkpt lat="31.7275530" lon="35.0957490">
<ele>706.221619</ele>
<time>2015-07-10T08:12:15.002Z</time>
</trkpt>
<trkpt lat="31.7274320" lon="35.0957800">
<ele>706.709290</ele>
<time>2015-07-10T08:12:18.000Z</time>
</trkpt>
<trkpt lat="31.7273100" lon="35.0958160">
<ele>706.221619</ele>
<time>2015-07-10T08:12:20.998Z</time>
</trkpt>
<trkpt lat="31.7271840" lon="35.0958530">
<ele>706.221619</ele>
<time>2015-07-10T08:12:23.996Z</time>
</trkpt>
<trkpt lat="31.7270540" lon="35.0958890">
<ele>706.709290</ele>
<time>2015-07-10T08:12:27.003Z</time>
</trkpt>
<trkpt lat="31.7269240" lon="35.0959220">
<ele>706.709290</ele>
<time>2015-07-10T08:12:30.001Z</time>
</trkpt>
<trkpt lat="31.7268000" lon="35.0959470">
<ele>706.709290</ele>
<time>2015-07-10T08:12:32.999Z</time>
</trkpt>
<trkpt lat="31.7266910" lon="35.0959760">
<ele>706.709290</ele>
<time>2015-07-10T08:12:35.997Z</time>
</trkpt>
<trkpt lat="31.7265940" lon="35.0960020">
<ele>707.196960</ele>
<time>2015-07-10T08:12:39.004Z</time>
</trkpt>
<trkpt lat="31.7264900" lon="35.0960400">
<ele>707.196960</ele>
<time>2015-07-10T08:12:43.004Z</time>
</trkpt>
<trkpt lat="31.7264030" lon="35.0960660">
<ele>707.196960</ele>
<time>2015-07-10T08:12:46.996Z</time>
</trkpt>
<trkpt lat="31.7263130" lon="35.0960730">
<ele>708.141846</ele>
<time>2015-07-10T08:12:51.998Z</time>
</trkpt>
<trkpt lat="31.7262120" lon="35.0960440">
<ele>707.684631</ele>
<time>2015-07-10T08:12:58.997Z</time>
</trkpt>
<trkpt lat="31.7261190" lon="35.0960170">
<ele>707.196960</ele>
<time>2015-07-10T08:13:28.001Z</time>
</trkpt>
<trkpt lat="31.7260030" lon="35.0960040">
<ele>706.221619</ele>
<time>2015-07-10T08:13:32.002Z</time>
</trkpt>
<trkpt lat="31.7258970" lon="35.0959740">
<ele>705.764404</ele>
<time>2015-07-10T08:13:35.000Z</time>
</trkpt>
<trkpt lat="31.7258030" lon="35.0959620">
<ele>705.246277</ele>
<time>2015-07-10T08:13:37.998Z</time>
</trkpt>
<trkpt lat="31.7256910" lon="35.0960040">
<ele>705.764404</ele>
<time>2015-07-10T08:13:41.998Z</time>
</trkpt>
<trkpt lat="31.7255880" lon="35.0960330">
<ele>706.221619</ele>
<time>2015-07-10T08:13:45.998Z</time>
</trkpt>
<trkpt lat="31.7254950" lon="35.0960470">
<ele>706.221619</ele>
<time>2015-07-10T08:13:49.999Z</time>
</trkpt>
<trkpt lat="31.7254140" lon="35.0959970">
<ele>706.221619</ele>
<time>2015-07-10T08:13:53.999Z</time>
</trkpt>
<trkpt lat="31.7253600" lon="35.0958950">
<ele>705.764404</ele>
<time>2015-07-10T08:13:57.999Z</time>
</trkpt>
<trkpt lat="31.7253180" lon="35.0957670">
<ele>705.764404</ele>
<time>2015-07-10T08:14:02.000Z</time>
</trkpt>
<trkpt lat="31.7253240" lon="35.0956370">
<ele>706.221619</ele>
<time>2015-07-10T08:14:06.000Z</time>
</trkpt>
<trkpt lat="31.7253460" lon="35.0955150">
<ele>705.764404</ele>
<time>2015-07-10T08:14:10.000Z</time>
</trkpt>
<trkpt lat="31.7253760" lon="35.0954160">
<ele>705.246277</ele>
<time>2015-07-10T08:14:14.001Z</time>
</trkpt>
<trkpt lat="31.7254400" lon="35.0953360">
<ele>705.246277</ele>
<time>2015-07-10T08:14:19.997Z</time>
</trkpt>
<trkpt lat="31.7255270" lon="35.0952990">
<ele>705.246277</ele>
<time>2015-07-10T08:14:24.999Z</time>
</trkpt>
<trkpt lat="31.7256120" lon="35.0952670">
<ele>704.789063</ele>
<time>2015-07-10T08:14:41.001Z</time>
</trkpt>
<trkpt lat="31.7257080" lon="35.0952030">
<ele>704.789063</ele>
<time>2015-07-10T08:14:46.003Z</time>
</trkpt>
<trkpt lat="31.7257920" lon="35.0951490">
<ele>704.301331</ele>
<time>2015-07-10T08:14:50.004Z</time>
</trkpt>
<trkpt lat="31.7258840" lon="35.0950870">
<ele>704.301331</ele>
<time>2015-07-10T08:14:54.004Z</time>
</trkpt>
<trkpt lat="31.7259680" lon="35.0950370">
<ele>704.301331</ele>
<time>2015-07-10T08:14:57.002Z</time>
</trkpt>
<trkpt lat="31.7260570" lon="35.0949730">
<ele>703.813721</ele>
<time>2015-07-10T08:15:00.000Z</time>
</trkpt>
<trkpt lat="31.7261540" lon="35.0949210">
<ele>703.325989</ele>
<time>2015-07-10T08:15:02.998Z</time>
</trkpt>
<trkpt lat="31.7262760" lon="35.0948670">
<ele>703.325989</ele>
<time>2015-07-10T08:15:06.998Z</time>
</trkpt>
<trkpt lat="31.7263690" lon="35.0948220">
<ele>702.868774</ele>
<time>2015-07-10T08:15:09.996Z</time>
</trkpt>
<trkpt lat="31.7264600" lon="35.0947440">
<ele>702.868774</ele>
<time>2015-07-10T08:15:13.997Z</time>
</trkpt>
<trkpt lat="31.7265700" lon="35.0946860">
<ele>702.381104</ele>
<time>2015-07-10T08:15:17.997Z</time>
</trkpt>
<trkpt lat="31.7266760" lon="35.0946240">
<ele>701.405762</ele>
<time>2015-07-10T08:15:21.997Z</time>
</trkpt>
<trkpt lat="31.7267750" lon="35.0945300">
<ele>700.948547</ele>
<time>2015-07-10T08:15:25.004Z</time>
</trkpt>
<trkpt lat="31.7268600" lon="35.0944130">
<ele>700.460938</ele>
<time>2015-07-10T08:15:28.002Z</time>
</trkpt>
<trkpt lat="31.7269050" lon="35.0942670">
<ele>699.485474</ele>
<time>2015-07-10T08:15:31.000Z</time>
</trkpt>
<trkpt lat="31.7269440" lon="35.0941450">
<ele>699.973206</ele>
<time>2015-07-10T08:15:33.998Z</time>
</trkpt>
<trkpt lat="31.7269790" lon="35.0940360">
<ele>700.460938</ele>
<time>2015-07-10T08:15:36.996Z</time>
</trkpt>
<trkpt lat="31.7270140" lon="35.0939280">
<ele>700.460938</ele>
<time>2015-07-10T08:15:40.003Z</time>
</trkpt>
<trkpt lat="31.7270530" lon="35.0938210">
<ele>701.405762</ele>
<time>2015-07-10T08:15:43.001Z</time>
</trkpt>
<trkpt lat="31.7270760" lon="35.0937090">
<ele>701.405762</ele>
<time>2015-07-10T08:15:45.999Z</time>
</trkpt>
<trkpt lat="31.7270960" lon="35.0935920">
<ele>702.381104</ele>
<time>2015-07-10T08:15:50.000Z</time>
</trkpt>
<trkpt lat="31.7271460" lon="35.0934830">
<ele>701.893433</ele>
<time>2015-07-10T08:15:55.002Z</time>
</trkpt>
<trkpt lat="31.7271550" lon="35.0933670">
<ele>703.325989</ele>
<time>2015-07-10T08:15:59.996Z</time>
</trkpt>
<trkpt lat="31.7271380" lon="35.0932440">
<ele>704.301331</ele>
<time>2015-07-10T08:16:08.999Z</time>
</trkpt>
<trkpt lat="31.7271450" lon="35.0931230">
<ele>705.764404</ele>
<time>2015-07-10T08:16:18.002Z</time>
</trkpt>
<trkpt lat="31.7271170" lon="35.0930010">
<ele>707.684631</ele>
<time>2015-07-10T08:16:27.998Z</time>
</trkpt>
<trkpt lat="31.7271020" lon="35.0928680">
<ele>709.604919</ele>
<time>2015-07-10T08:16:38.997Z</time>
</trkpt>
<trkpt lat="31.7270440" lon="35.0927620">
<ele>711.037476</ele>
<time>2015-07-10T08:16:50.998Z</time>
</trkpt>
<trkpt lat="31.7270330" lon="35.0926520">
<ele>711.982300</ele>
<time>2015-07-10T08:17:04.001Z</time>
</trkpt>
<trkpt lat="31.7270330" lon="35.0925220">
<ele>714.390259</ele>
<time>2015-07-10T08:17:16.996Z</time>
</trkpt>
<trkpt lat="31.7270250" lon="35.0923970">
<ele>715.853333</ele>
<time>2015-07-10T08:17:28.997Z</time>
</trkpt>
<trkpt lat="31.7269980" lon="35.0922840">
<ele>717.773499</ele>
<time>2015-07-10T08:17:42.000Z</time>
</trkpt>
<trkpt lat="31.7269870" lon="35.0921710">
<ele>719.693726</ele>
<time>2015-07-10T08:17:55.003Z</time>
</trkpt>
<trkpt lat="31.7269540" lon="35.0920590">
<ele>721.614014</ele>
<time>2015-07-10T08:18:03.997Z</time>
</trkpt>
<trkpt lat="31.7269320" lon="35.0919410">
<ele>723.534241</ele>
<time>2015-07-10T08:18:14.996Z</time>
</trkpt>
<trkpt lat="31.7269150" lon="35.0918230">
<ele>724.966797</ele>
<time>2015-07-10T08:18:25.001Z</time>
</trkpt>
<trkpt lat="31.7269010" lon="35.0917060">
<ele>726.399353</ele>
<time>2015-07-10T08:18:34.004Z</time>
</trkpt>
<trkpt lat="31.7268790" lon="35.0915920">
<ele>727.862427</ele>
<time>2015-07-10T08:18:42.998Z</time>
</trkpt>
<trkpt lat="31.7268510" lon="35.0914960">
<ele>727.862427</ele>
<time>2015-07-10T08:18:52.001Z</time>
</trkpt>
<trkpt lat="31.7268300" lon="35.0913740">
<ele>728.350098</ele>
<time>2015-07-10T08:19:00.002Z</time>
</trkpt>
<trkpt lat="31.7268150" lon="35.0912510">
<ele>729.294922</ele>
<time>2015-07-10T08:19:07.000Z</time>
</trkpt>
<trkpt lat="31.7267910" lon="35.0911230">
<ele>729.782654</ele>
<time>2015-07-10T08:19:12.996Z</time>
</trkpt>
<trkpt lat="31.7267870" lon="35.0909800">
<ele>729.782654</ele>
<time>2015-07-10T08:19:19.001Z</time>
</trkpt>
<trkpt lat="31.7267670" lon="35.0908500">
<ele>730.727478</ele>
<time>2015-07-10T08:19:24.004Z</time>
</trkpt>
<trkpt lat="31.7267450" lon="35.0907300">
<ele>730.270264</ele>
<time>2015-07-10T08:19:28.998Z</time>
</trkpt>
<trkpt lat="31.7267150" lon="35.0905950">
<ele>730.727478</ele>
<time>2015-07-10T08:19:34.000Z</time>
</trkpt>
<trkpt lat="31.7266870" lon="35.0904870">
<ele>730.727478</ele>
<time>2015-07-10T08:19:38.001Z</time>
</trkpt>
<trkpt lat="31.7266830" lon="35.0903730">
<ele>730.727478</ele>
<time>2015-07-10T08:20:21.002Z</time>
</trkpt>
<trkpt lat="31.7267420" lon="35.0902900">
<ele>731.215210</ele>
<time>2015-07-10T08:20:32.001Z</time>
</trkpt>
<trkpt lat="31.7267990" lon="35.0901830">
<ele>731.215210</ele>
<time>2015-07-10T08:20:36.001Z</time>
</trkpt>
<trkpt lat="31.7268520" lon="35.0900890">
<ele>731.215210</ele>
<time>2015-07-10T08:20:40.001Z</time>
</trkpt>
<trkpt lat="31.7269250" lon="35.0900150">
<ele>731.215210</ele>
<time>2015-07-10T08:20:44.002Z</time>
</trkpt>
<trkpt lat="31.7270250" lon="35.0899400">
<ele>731.215210</ele>
<time>2015-07-10T08:20:48.002Z</time>
</trkpt>
<trkpt lat="31.7271060" lon="35.0898840">
<ele>731.215210</ele>
<time>2015-07-10T08:20:51.000Z</time>
</trkpt>
<trkpt lat="31.7271930" lon="35.0898310">
<ele>731.215210</ele>
<time>2015-07-10T08:20:53.998Z</time>
</trkpt>
<trkpt lat="31.7272720" lon="35.0897550">
<ele>732.190552</ele>
<time>2015-07-10T08:20:59.001Z</time>
</trkpt>
<trkpt lat="31.7273080" lon="35.0896280">
<ele>732.190552</ele>
<time>2015-07-10T08:21:04.003Z</time>
</trkpt>
<trkpt lat="31.7273660" lon="35.0895390">
<ele>732.190552</ele>
<time>2015-07-10T08:21:08.004Z</time>
</trkpt>
<trkpt lat="31.7274390" lon="35.0894460">
<ele>732.190552</ele>
<time>2015-07-10T08:21:12.004Z</time>
</trkpt>
<trkpt lat="31.7275260" lon="35.0893520">
<ele>731.702881</ele>
<time>2015-07-10T08:21:16.004Z</time>
</trkpt>
<trkpt lat="31.7276220" lon="35.0892520">
<ele>731.215210</ele>
<time>2015-07-10T08:21:19.002Z</time>
</trkpt>
<trkpt lat="31.7277160" lon="35.0891680">
<ele>731.702881</ele>
<time>2015-07-10T08:21:22.000Z</time>
</trkpt>
<trkpt lat="31.7277940" lon="35.0890980">
<ele>732.190552</ele>
<time>2015-07-10T08:21:24.998Z</time>
</trkpt>
<trkpt lat="31.7278920" lon="35.0890260">
<ele>731.702881</ele>
<time>2015-07-10T08:21:28.999Z</time>
</trkpt>
<trkpt lat="31.7279750" lon="35.0889450">
<ele>731.702881</ele>
<time>2015-07-10T08:21:31.997Z</time>
</trkpt>
<trkpt lat="31.7280580" lon="35.0888450">
<ele>732.647766</ele>
<time>2015-07-10T08:21:35.004Z</time>
</trkpt>
<trkpt lat="31.7281170" lon="35.0887440">
<ele>732.647766</ele>
<time>2015-07-10T08:21:39.004Z</time>
</trkpt>
<trkpt lat="31.7282130" lon="35.0886500">
<ele>732.647766</ele>
<time>2015-07-10T08:21:43.004Z</time>
</trkpt>
<trkpt lat="31.7282920" lon="35.0885580">
<ele>732.647766</ele>
<time>2015-07-10T08:21:46.002Z</time>
</trkpt>
<trkpt lat="31.7283790" lon="35.0884750">
<ele>732.647766</ele>
<time>2015-07-10T08:21:49.000Z</time>
</trkpt>
<trkpt lat="31.7284830" lon="35.0883990">
<ele>731.702881</ele>
<time>2015-07-10T08:21:51.998Z</time>
</trkpt>
<trkpt lat="31.7285800" lon="35.0883110">
<ele>731.215210</ele>
<time>2015-07-10T08:21:54.996Z</time>
</trkpt>
<trkpt lat="31.7286630" lon="35.0882180">
<ele>731.702881</ele>
<time>2015-07-10T08:21:58.003Z</time>
</trkpt>
<trkpt lat="31.7287590" lon="35.0881240">
<ele>731.702881</ele>
<time>2015-07-10T08:22:01.001Z</time>
</trkpt>
<trkpt lat="31.7288550" lon="35.0880310">
<ele>731.215210</ele>
<time>2015-07-10T08:22:03.999Z</time>
</trkpt>
<trkpt lat="31.7289620" lon="35.0879320">
<ele>729.782654</ele>
<time>2015-07-10T08:22:06.997Z</time>
</trkpt>
<trkpt lat="31.7290410" lon="35.0878540">
<ele>729.782654</ele>
<time>2015-07-10T08:22:09.002Z</time>
</trkpt>
<trkpt lat="31.7291230" lon="35.0877710">
<ele>728.807312</ele>
<time>2015-07-10T08:22:10.998Z</time>
</trkpt>
<trkpt lat="31.7291900" lon="35.0876710">
<ele>728.807312</ele>
<time>2015-07-10T08:22:13.002Z</time>
</trkpt>
<trkpt lat="31.7292320" lon="35.0875680">
<ele>728.350098</ele>
<time>2015-07-10T08:22:14.998Z</time>
</trkpt>
<trkpt lat="31.7292630" lon="35.0874620">
<ele>728.807312</ele>
<time>2015-07-10T08:22:17.003Z</time>
</trkpt>
<trkpt lat="31.7292890" lon="35.0873260">
<ele>729.294922</ele>
<time>2015-07-10T08:22:20.001Z</time>
</trkpt>
<trkpt lat="31.7293110" lon="35.0872090">
<ele>730.270264</ele>
<time>2015-07-10T08:22:25.003Z</time>
</trkpt>
<trkpt lat="31.7293060" lon="35.0870880">
<ele>731.215210</ele>
<time>2015-07-10T08:22:33.004Z</time>
</trkpt>
<trkpt lat="31.7292860" lon="35.0869630">
<ele>731.702881</ele>
<time>2015-07-10T08:22:40.002Z</time>
</trkpt>
<trkpt lat="31.7292740" lon="35.0868600">
<ele>731.702881</ele>
<time>2015-07-10T08:23:00.997Z</time>
</trkpt>
<trkpt lat="31.7292660" lon="35.0867390">
<ele>732.190552</ele>
<time>2015-07-10T08:23:06.000Z</time>
</trkpt>
<trkpt lat="31.7292800" lon="35.0866290">
<ele>732.647766</ele>
<time>2015-07-10T08:23:10.000Z</time>
</trkpt>
<trkpt lat="31.7292890" lon="35.0865080">
<ele>733.135437</ele>
<time>2015-07-10T08:23:15.003Z</time>
</trkpt>
<trkpt lat="31.7293370" lon="35.0864180">
<ele>732.647766</ele>
<time>2015-07-10T08:23:19.003Z</time>
</trkpt>
<trkpt lat="31.7293970" lon="35.0863070">
<ele>732.190552</ele>
<time>2015-07-10T08:23:22.001Z</time>
</trkpt>
<trkpt lat="31.7294580" lon="35.0861720">
<ele>732.190552</ele>
<time>2015-07-10T08:23:24.999Z</time>
</trkpt>
<trkpt lat="31.7295240" lon="35.0860200">
<ele>731.215210</ele>
<time>2015-07-10T08:23:27.997Z</time>
</trkpt>
<trkpt lat="31.7295610" lon="35.0859090">
<ele>730.727478</ele>
<time>2015-07-10T08:23:30.002Z</time>
</trkpt>
<trkpt lat="31.7295970" lon="35.0857720">
<ele>730.727478</ele>
<time>2015-07-10T08:23:33.000Z</time>
</trkpt>
<trkpt lat="31.7296640" lon="35.0856380">
<ele>730.727478</ele>
<time>2015-07-10T08:23:35.998Z</time>
</trkpt>
<trkpt lat="31.7297240" lon="35.0855340">
<ele>729.782654</ele>
<time>2015-07-10T08:23:38.003Z</time>
</trkpt>
<trkpt lat="31.7297820" lon="35.0854390">
<ele>729.782654</ele>
<time>2015-07-10T08:23:39.998Z</time>
</trkpt>
<trkpt lat="31.7298360" lon="35.0853480">
<ele>730.727478</ele>
<time>2015-07-10T08:23:42.003Z</time>
</trkpt>
<trkpt lat="31.7299020" lon="35.0852640">
<ele>730.727478</ele>
<time>2015-07-10T08:23:43.999Z</time>
</trkpt>
<trkpt lat="31.7299630" lon="35.0851850">
<ele>730.727478</ele>
<time>2015-07-10T08:23:46.003Z</time>
</trkpt>
<trkpt lat="31.7300200" lon="35.0850610">
<ele>730.727478</ele>
<time>2015-07-10T08:23:49.001Z</time>
</trkpt>
<trkpt lat="31.7300820" lon="35.0849630">
<ele>731.215210</ele>
<time>2015-07-10T08:23:51.999Z</time>
</trkpt>
<trkpt lat="31.7301830" lon="35.0848600">
<ele>731.215210</ele>
<time>2015-07-10T08:23:54.997Z</time>
</trkpt>
<trkpt lat="31.7302590" lon="35.0847950">
<ele>731.215210</ele>
<time>2015-07-10T08:23:57.002Z</time>
</trkpt>
<trkpt lat="31.7303580" lon="35.0847010">
<ele>730.727478</ele>
<time>2015-07-10T08:24:00.000Z</time>
</trkpt>
<trkpt lat="31.7304410" lon="35.0846240">
<ele>731.215210</ele>
<time>2015-07-10T08:24:02.998Z</time>
</trkpt>
<trkpt lat="31.7305030" lon="35.0845400">
<ele>730.727478</ele>
<time>2015-07-10T08:24:05.996Z</time>
</trkpt>
<trkpt lat="31.7305570" lon="35.0844530">
<ele>730.727478</ele>
<time>2015-07-10T08:24:09.003Z</time>
</trkpt>
<trkpt lat="31.7306140" lon="35.0843540">
<ele>731.215210</ele>
<time>2015-07-10T08:24:13.003Z</time>
</trkpt>
<trkpt lat="31.7306670" lon="35.0842540">
<ele>731.702881</ele>
<time>2015-07-10T08:24:17.004Z</time>
</trkpt>
<trkpt lat="31.7307220" lon="35.0841440">
<ele>732.190552</ele>
<time>2015-07-10T08:24:21.004Z</time>
</trkpt>
<trkpt lat="31.7307720" lon="35.0840360">
<ele>732.647766</ele>
<time>2015-07-10T08:24:25.998Z</time>
</trkpt>
<trkpt lat="31.7308090" lon="35.0839300">
<ele>732.647766</ele>
<time>2015-07-10T08:24:29.998Z</time>
</trkpt>
<trkpt lat="31.7308500" lon="35.0838190">
<ele>733.135437</ele>
<time>2015-07-10T08:24:35.001Z</time>
</trkpt>
<trkpt lat="31.7308670" lon="35.0837020">
<ele>733.623108</ele>
<time>2015-07-10T08:24:55.002Z</time>
</trkpt>
<trkpt lat="31.7308620" lon="35.0835930">
<ele>735.543335</ele>
<time>2015-07-10T08:25:08.999Z</time>
</trkpt>
<trkpt lat="31.7308500" lon="35.0834840">
<ele>736.031067</ele>
<time>2015-07-10T08:25:19.004Z</time>
</trkpt>
<trkpt lat="31.7308520" lon="35.0833680">
<ele>737.463623</ele>
<time>2015-07-10T08:25:25.000Z</time>
</trkpt>
<trkpt lat="31.7308540" lon="35.0832570">
<ele>738.438965</ele>
<time>2015-07-10T08:25:30.996Z</time>
</trkpt>
<trkpt lat="31.7308710" lon="35.0831350">
<ele>739.383850</ele>
<time>2015-07-10T08:25:38.004Z</time>
</trkpt>
<trkpt lat="31.7309120" lon="35.0830160">
<ele>738.896118</ele>
<time>2015-07-10T08:25:44.000Z</time>
</trkpt>
<trkpt lat="31.7309240" lon="35.0829070">
<ele>738.438965</ele>
<time>2015-07-10T08:25:46.998Z</time>
</trkpt>
<trkpt lat="31.7308940" lon="35.0827480">
<ele>737.463623</ele>
<time>2015-07-10T08:25:49.996Z</time>
</trkpt>
<trkpt lat="31.7308600" lon="35.0826420">
<ele>736.975891</ele>
<time>2015-07-10T08:25:52.000Z</time>
</trkpt>
<trkpt lat="31.7308340" lon="35.0825360">
<ele>736.975891</ele>
<time>2015-07-10T08:25:53.996Z</time>
</trkpt>
<trkpt lat="31.7307980" lon="35.0824310">
<ele>736.518677</ele>
<time>2015-07-10T08:25:56.001Z</time>
</trkpt>
<trkpt lat="31.7307640" lon="35.0823260">
<ele>736.031067</ele>
<time>2015-07-10T08:25:57.996Z</time>
</trkpt>
<trkpt lat="31.7306840" lon="35.0821950">
<ele>736.031067</ele>
<time>2015-07-10T08:26:01.003Z</time>
</trkpt>
<trkpt lat="31.7306260" lon="35.0821060">
<ele>736.031067</ele>
<time>2015-07-10T08:26:02.999Z</time>
</trkpt>
<trkpt lat="31.7305610" lon="35.0820330">
<ele>735.543335</ele>
<time>2015-07-10T08:26:05.004Z</time>
</trkpt>
<trkpt lat="31.7304720" lon="35.0819240">
<ele>735.055725</ele>
<time>2015-07-10T08:26:08.002Z</time>
</trkpt>
<trkpt lat="31.7304070" lon="35.0818460">
<ele>734.110779</ele>
<time>2015-07-10T08:26:09.997Z</time>
</trkpt>
<trkpt lat="31.7303380" lon="35.0817440">
<ele>733.623108</ele>
<time>2015-07-10T08:26:12.002Z</time>
</trkpt>
<trkpt lat="31.7302840" lon="35.0816520">
<ele>732.647766</ele>
<time>2015-07-10T08:26:13.998Z</time>
</trkpt>
<trkpt lat="31.7302130" lon="35.0816500">
<ele>732.647766</ele>
<time>2015-07-10T08:26:36.004Z</time>
</trkpt>
<trkpt lat="31.7301860" lon="35.0815330">
<ele>731.702881</ele>
<time>2015-07-10T08:27:19.999Z</time>
</trkpt>
<trkpt lat="31.7301590" lon="35.0814050">
<ele>729.782654</ele>
<time>2015-07-10T08:27:25.001Z</time>
</trkpt>
<trkpt lat="31.7301230" lon="35.0812830">
<ele>728.350098</ele>
<time>2015-07-10T08:27:29.002Z</time>
</trkpt>
<trkpt lat="31.7301090" lon="35.0811670">
<ele>726.887085</ele>
<time>2015-07-10T08:27:32.000Z</time>
</trkpt>
<trkpt lat="31.7300420" lon="35.0810490">
<ele>725.454529</ele>
<time>2015-07-10T08:27:34.998Z</time>
</trkpt>
<trkpt lat="31.7299800" lon="35.0809380">
<ele>724.966797</ele>
<time>2015-07-10T08:27:37.996Z</time>
</trkpt>
<trkpt lat="31.7299450" lon="35.0808280">
<ele>724.966797</ele>
<time>2015-07-10T08:27:41.003Z</time>
</trkpt>
<trkpt lat="31.7299230" lon="35.0807240">
<ele>724.966797</ele>
<time>2015-07-10T08:27:45.003Z</time>
</trkpt>
<trkpt lat="31.7299330" lon="35.0805820">
<ele>724.966797</ele>
<time>2015-07-10T08:27:49.003Z</time>
</trkpt>
<trkpt lat="31.7299720" lon="35.0804500">
<ele>724.966797</ele>
<time>2015-07-10T08:27:52.001Z</time>
</trkpt>
<trkpt lat="31.7299990" lon="35.0803020">
<ele>724.479065</ele>
<time>2015-07-10T08:27:54.999Z</time>
</trkpt>
<trkpt lat="31.7300060" lon="35.0801760">
<ele>724.966797</ele>
<time>2015-07-10T08:27:57.997Z</time>
</trkpt>
<trkpt lat="31.7300330" lon="35.0800270">
<ele>725.454529</ele>
<time>2015-07-10T08:28:03.000Z</time>
</trkpt>
<trkpt lat="31.7300910" lon="35.0799100">
<ele>725.454529</ele>
<time>2015-07-10T08:28:07.000Z</time>
</trkpt>
<trkpt lat="31.7301300" lon="35.0797790">
<ele>725.454529</ele>
<time>2015-07-10T08:28:09.998Z</time>
</trkpt>
<trkpt lat="31.7301420" lon="35.0796420">
<ele>725.942139</ele>
<time>2015-07-10T08:28:13.999Z</time>
</trkpt>
<trkpt lat="31.7302280" lon="35.0795460">
<ele>725.454529</ele>
<time>2015-07-10T08:28:20.997Z</time>
</trkpt>
<trkpt lat="31.7302610" lon="35.0794190">
<ele>725.942139</ele>
<time>2015-07-10T08:28:26.000Z</time>
</trkpt>
<trkpt lat="31.7303150" lon="35.0793110">
<ele>725.942139</ele>
<time>2015-07-10T08:28:31.002Z</time>
</trkpt>
<trkpt lat="31.7303570" lon="35.0792050">
<ele>725.942139</ele>
<time>2015-07-10T08:28:35.003Z</time>
</trkpt>
<trkpt lat="31.7303830" lon="35.0790840">
<ele>725.454529</ele>
<time>2015-07-10T08:28:39.003Z</time>
</trkpt>
<trkpt lat="31.7303970" lon="35.0789810">
<ele>725.454529</ele>
<time>2015-07-10T08:29:41.004Z</time>
</trkpt>
<trkpt lat="31.7304130" lon="35.0788750">
<ele>725.942139</ele>
<time>2015-07-10T08:29:55.000Z</time>
</trkpt>
<trkpt lat="31.7304250" lon="35.0787650">
<ele>725.942139</ele>
<time>2015-07-10T08:30:05.999Z</time>
</trkpt>
<trkpt lat="31.7304380" lon="35.0786480">
<ele>724.966797</ele>
<time>2015-07-10T08:30:19.002Z</time>
</trkpt>
<trkpt lat="31.7304840" lon="35.0785410">
<ele>724.479065</ele>
<time>2015-07-10T08:30:35.004Z</time>
</trkpt>
<trkpt lat="31.7304860" lon="35.0784160">
<ele>723.534241</ele>
<time>2015-07-10T08:30:46.002Z</time>
</trkpt>
<trkpt lat="31.7304930" lon="35.0782940">
<ele>722.558899</ele>
<time>2015-07-10T08:30:50.003Z</time>
</trkpt>
<trkpt lat="31.7305230" lon="35.0781800">
<ele>720.638672</ele>
<time>2015-07-10T08:30:54.996Z</time>
</trkpt>
<trkpt lat="31.7305700" lon="35.0780800">
<ele>719.206116</ele>
<time>2015-07-10T08:30:58.003Z</time>
</trkpt>
<trkpt lat="31.7305670" lon="35.0779470">
<ele>718.230713</ele>
<time>2015-07-10T08:31:13.002Z</time>
</trkpt>
<trkpt lat="31.7306070" lon="35.0778430">
<ele>717.773499</ele>
<time>2015-07-10T08:31:17.003Z</time>
</trkpt>
<trkpt lat="31.7305850" lon="35.0777360">
<ele>717.285828</ele>
<time>2015-07-10T08:31:21.003Z</time>
</trkpt>
<trkpt lat="31.7306080" lon="35.0776210">
<ele>717.285828</ele>
<time>2015-07-10T08:31:26.999Z</time>
</trkpt>
<trkpt lat="31.7306380" lon="35.0774930">
<ele>716.798157</ele>
<time>2015-07-10T08:31:30.999Z</time>
</trkpt>
<trkpt lat="31.7306690" lon="35.0773670">
<ele>715.853333</ele>
<time>2015-07-10T08:31:35.000Z</time>
</trkpt>
<trkpt lat="31.7307220" lon="35.0772700">
<ele>715.365601</ele>
<time>2015-07-10T08:31:37.998Z</time>
</trkpt>
<trkpt lat="31.7308280" lon="35.0771780">
<ele>713.933044</ele>
<time>2015-07-10T08:31:40.996Z</time>
</trkpt>
<trkpt lat="31.7308910" lon="35.0770980">
<ele>712.957703</ele>
<time>2015-07-10T08:31:43.000Z</time>
</trkpt>
<trkpt lat="31.7309460" lon="35.0770000">
<ele>711.525085</ele>
<time>2015-07-10T08:31:45.998Z</time>
</trkpt>
<trkpt lat="31.7309840" lon="35.0768450">
<ele>711.525085</ele>
<time>2015-07-10T08:32:03.002Z</time>
</trkpt>
<trkpt lat="31.7309790" lon="35.0767130">
<ele>712.469971</ele>
<time>2015-07-10T08:32:08.998Z</time>
</trkpt>
<trkpt lat="31.7309720" lon="35.0765800">
<ele>713.445374</ele>
<time>2015-07-10T08:32:15.996Z</time>
</trkpt>
<trkpt lat="31.7309840" lon="35.0764620">
<ele>714.390259</ele>
<time>2015-07-10T08:32:23.004Z</time>
</trkpt>
<trkpt lat="31.7310430" lon="35.0763350">
<ele>714.390259</ele>
<time>2015-07-10T08:32:29.000Z</time>
</trkpt>
<trkpt lat="31.7310990" lon="35.0762280">
<ele>714.877869</ele>
<time>2015-07-10T08:32:34.996Z</time>
</trkpt>
<trkpt lat="31.7311790" lon="35.0761280">
<ele>715.365601</ele>
<time>2015-07-10T08:32:42.996Z</time>
</trkpt>
<trkpt lat="31.7312690" lon="35.0760440">
<ele>715.365601</ele>
<time>2015-07-10T08:32:50.004Z</time>
</trkpt>
<trkpt lat="31.7313670" lon="35.0760230">
<ele>715.853333</ele>
<time>2015-07-10T08:32:56.000Z</time>
</trkpt>
<trkpt lat="31.7314690" lon="35.0760750">
<ele>715.365601</ele>
<time>2015-07-10T08:33:01.002Z</time>
</trkpt>
<trkpt lat="31.7315840" lon="35.0761560">
<ele>714.390259</ele>
<time>2015-07-10T08:33:05.003Z</time>
</trkpt>
<trkpt lat="31.7316640" lon="35.0762120">
<ele>713.933044</ele>
<time>2015-07-10T08:33:06.998Z</time>
</trkpt>
<trkpt lat="31.7317590" lon="35.0762440">
<ele>713.445374</ele>
<time>2015-07-10T08:33:09.003Z</time>
</trkpt>
<trkpt lat="31.7318600" lon="35.0762550">
<ele>712.957703</ele>
<time>2015-07-10T08:33:10.999Z</time>
</trkpt>
<trkpt lat="31.7319810" lon="35.0762610">
<ele>712.469971</ele>
<time>2015-07-10T08:33:13.997Z</time>
</trkpt>
<trkpt lat="31.7321020" lon="35.0762910">
<ele>710.062134</ele>
<time>2015-07-10T08:33:17.004Z</time>
</trkpt>
<trkpt lat="31.7321950" lon="35.0763040">
<ele>709.117188</ele>
<time>2015-07-10T08:33:18.999Z</time>
</trkpt>
<trkpt lat="31.7323310" lon="35.0762890">
<ele>707.196960</ele>
<time>2015-07-10T08:33:21.997Z</time>
</trkpt>
<trkpt lat="31.7324170" lon="35.0762090">
<ele>707.196960</ele>
<time>2015-07-10T08:33:25.998Z</time>
</trkpt>
<trkpt lat="31.7324860" lon="35.0761000">
<ele>708.141846</ele>
<time>2015-07-10T08:33:32.996Z</time>
</trkpt>
<trkpt lat="31.7325610" lon="35.0760040">
<ele>708.629517</ele>
<time>2015-07-10T08:33:39.001Z</time>
</trkpt>
<trkpt lat="31.7326250" lon="35.0759160">
<ele>709.604919</ele>
<time>2015-07-10T08:33:44.997Z</time>
</trkpt>
<trkpt lat="31.7326970" lon="35.0758120">
<ele>710.062134</ele>
<time>2015-07-10T08:33:52.004Z</time>
</trkpt>
<trkpt lat="31.7327620" lon="35.0757070">
<ele>710.549744</ele>
<time>2015-07-10T08:33:59.003Z</time>
</trkpt>
<trkpt lat="31.7328240" lon="35.0756110">
<ele>710.549744</ele>
<time>2015-07-10T08:34:06.001Z</time>
</trkpt>
<trkpt lat="31.7328900" lon="35.0755120">
<ele>710.549744</ele>
<time>2015-07-10T08:34:11.997Z</time>
</trkpt>
<trkpt lat="31.7329540" lon="35.0754080">
<ele>711.982300</ele>
<time>2015-07-10T08:34:19.004Z</time>
</trkpt>
<trkpt lat="31.7330140" lon="35.0753180">
<ele>712.469971</ele>
<time>2015-07-10T08:34:26.003Z</time>
</trkpt>
<trkpt lat="31.7330640" lon="35.0752110">
<ele>712.957703</ele>
<time>2015-07-10T08:34:34.003Z</time>
</trkpt>
<trkpt lat="31.7331180" lon="35.0751250">
<ele>713.933044</ele>
<time>2015-07-10T08:34:41.002Z</time>
</trkpt>
<trkpt lat="31.7331440" lon="35.0750280">
<ele>714.877869</ele>
<time>2015-07-10T08:34:48.000Z</time>
</trkpt>
<trkpt lat="31.7331090" lon="35.0749300">
<ele>715.365601</ele>
<time>2015-07-10T08:34:53.996Z</time>
</trkpt>
<trkpt lat="31.7331260" lon="35.0748130">
<ele>715.853333</ele>
<time>2015-07-10T08:35:01.003Z</time>
</trkpt>
<trkpt lat="31.7331870" lon="35.0747180">
<ele>715.853333</ele>
<time>2015-07-10T08:35:05.997Z</time>
</trkpt>
<trkpt lat="31.7332450" lon="35.0746350">
<ele>714.877869</ele>
<time>2015-07-10T08:35:09.004Z</time>
</trkpt>
<trkpt lat="31.7333080" lon="35.0745350">
<ele>714.877869</ele>
<time>2015-07-10T08:35:13.004Z</time>
</trkpt>
<trkpt lat="31.7333620" lon="35.0744270">
<ele>714.390259</ele>
<time>2015-07-10T08:35:16.002Z</time>
</trkpt>
<trkpt lat="31.7334080" lon="35.0743250">
<ele>713.933044</ele>
<time>2015-07-10T08:35:17.998Z</time>
</trkpt>
<trkpt lat="31.7334630" lon="35.0741830">
<ele>713.445374</ele>
<time>2015-07-10T08:35:20.003Z</time>
</trkpt>
<trkpt lat="31.7335100" lon="35.0740650">
<ele>712.957703</ele>
<time>2015-07-10T08:35:21.998Z</time>
</trkpt>
<trkpt lat="31.7335660" lon="35.0739180">
<ele>712.469971</ele>
<time>2015-07-10T08:35:24.003Z</time>
</trkpt>
<trkpt lat="31.7336250" lon="35.0737620">
<ele>711.525085</ele>
<time>2015-07-10T08:35:25.999Z</time>
</trkpt>
<trkpt lat="31.7336870" lon="35.0735990">
<ele>711.037476</ele>
<time>2015-07-10T08:35:28.003Z</time>
</trkpt>
<trkpt lat="31.7337530" lon="35.0734270">
<ele>710.062134</ele>
<time>2015-07-10T08:35:29.999Z</time>
</trkpt>
<trkpt lat="31.7338100" lon="35.0732790">
<ele>708.629517</ele>
<time>2015-07-10T08:35:32.004Z</time>
</trkpt>
<trkpt lat="31.7338580" lon="35.0731530">
<ele>708.629517</ele>
<time>2015-07-10T08:35:32.997Z</time>
</trkpt>
<trkpt lat="31.7339350" lon="35.0729640">
<ele>707.196960</ele>
<time>2015-07-10T08:35:35.002Z</time>
</trkpt>
<trkpt lat="31.7339750" lon="35.0728670">
<ele>707.196960</ele>
<time>2015-07-10T08:35:36.004Z</time>
</trkpt>
<trkpt lat="31.7340140" lon="35.0727700">
<ele>706.709290</ele>
<time>2015-07-10T08:35:36.997Z</time>
</trkpt>
<trkpt lat="31.7340520" lon="35.0726730">
<ele>706.221619</ele>
<time>2015-07-10T08:35:38.000Z</time>
</trkpt>
<trkpt lat="31.7340890" lon="35.0725770">
<ele>705.764404</ele>
<time>2015-07-10T08:35:39.002Z</time>
</trkpt>
<trkpt lat="31.7341600" lon="35.0723860">
<ele>704.789063</ele>
<time>2015-07-10T08:35:40.998Z</time>
</trkpt>
<trkpt lat="31.7342210" lon="35.0722190">
<ele>704.301331</ele>
<time>2015-07-10T08:35:43.002Z</time>
</trkpt>
<trkpt lat="31.7342740" lon="35.0721200">
<ele>703.325989</ele>
<time>2015-07-10T08:35:44.998Z</time>
</trkpt>
<trkpt lat="31.7343310" lon="35.0720330">
<ele>702.868774</ele>
<time>2015-07-10T08:35:47.996Z</time>
</trkpt>
<trkpt lat="31.7343600" lon="35.0719270">
<ele>702.868774</ele>
<time>2015-07-10T08:35:51.996Z</time>
</trkpt>
<trkpt lat="31.7344150" lon="35.0718310">
<ele>702.868774</ele>
<time>2015-07-10T08:35:55.997Z</time>
</trkpt>
</trkseg>
</trk>
</gpx>
